<?xml version="1.0" encoding="UTF-8" standalone="no" ?>
<gpx xmlns="http://www.topografix.com/GPX/1/1" xmlns:xsi="http://www.w3.org/2001/XMLSchema-instance" xsi:schemaLocation="http://www.topografix.com/GPX/1/1 http://www.topografix.com/GPX/1/1/gpx.xsd" version="1.1" creator="VisuGPX - https://www.visugpx.com">
  <metadata>
    <name>VTT dans le Vercors, jour 5</name>
    <desc><![CDATA[Tour en VTT dans le Vercors, jour 5]]></desc>
  </metadata>
  <trk>
    <name><![CDATA[2016-06-03 08:36:20 Jour]]></name>
    <trkseg>
      <trkpt lat="45.05683" lon="5.47896">
        <ele>1335.41</ele>
        <time>2016-06-03T06:36:20Z</time>
      </trkpt>
      <trkpt lat="45.05684" lon="5.47898">
        <ele>1335.41</ele>
        <time>2016-06-03T06:36:21Z</time>
      </trkpt>
      <trkpt lat="45.05687" lon="5.47898">
        <ele>1335.41</ele>
        <time>2016-06-03T06:36:29Z</time>
      </trkpt>
      <trkpt lat="45.05701" lon="5.47911">
        <ele>1335.49</ele>
        <time>2016-06-03T06:36:35Z</time>
      </trkpt>
      <trkpt lat="45.05706" lon="5.47922">
        <ele>1335.25</ele>
        <time>2016-06-03T06:36:38Z</time>
      </trkpt>
      <trkpt lat="45.05723" lon="5.4795">
        <ele>1334.38</ele>
        <time>2016-06-03T06:36:44Z</time>
      </trkpt>
      <trkpt lat="45.05735" lon="5.47952">
        <ele>1333.37</ele>
        <time>2016-06-03T06:36:54Z</time>
      </trkpt>
      <trkpt lat="45.05738" lon="5.47955">
        <ele>1333.1</ele>
        <time>2016-06-03T06:36:56Z</time>
      </trkpt>
      <trkpt lat="45.05744" lon="5.47963">
        <ele>1331.56</ele>
        <time>2016-06-03T06:37:10Z</time>
      </trkpt>
      <trkpt lat="45.05745" lon="5.47963">
        <ele>1331.34</ele>
        <time>2016-06-03T06:37:17Z</time>
      </trkpt>
      <trkpt lat="45.05751" lon="5.47972">
        <ele>1331.28</ele>
        <time>2016-06-03T06:37:21Z</time>
      </trkpt>
      <trkpt lat="45.05753" lon="5.47978">
        <ele>1331.09</ele>
        <time>2016-06-03T06:37:23Z</time>
      </trkpt>
      <trkpt lat="45.05755" lon="5.4798">
        <ele>1331.09</ele>
        <time>2016-06-03T06:37:24Z</time>
      </trkpt>
      <trkpt lat="45.05757" lon="5.47981">
        <ele>1330.97</ele>
        <time>2016-06-03T06:37:25Z</time>
      </trkpt>
      <trkpt lat="45.0576" lon="5.47982">
        <ele>1330.84</ele>
        <time>2016-06-03T06:37:26Z</time>
      </trkpt>
      <trkpt lat="45.05775" lon="5.48002">
        <ele>1328.2</ele>
        <time>2016-06-03T06:37:36Z</time>
      </trkpt>
      <trkpt lat="45.05784" lon="5.48024">
        <ele>1325.19</ele>
        <time>2016-06-03T06:37:48Z</time>
      </trkpt>
      <trkpt lat="45.05802" lon="5.4805">
        <ele>1321.99</ele>
        <time>2016-06-03T06:38:04Z</time>
      </trkpt>
      <trkpt lat="45.05813" lon="5.48068">
        <ele>1319.76</ele>
        <time>2016-06-03T06:38:15Z</time>
      </trkpt>
      <trkpt lat="45.05823" lon="5.48084">
        <ele>1316.74</ele>
        <time>2016-06-03T06:38:25Z</time>
      </trkpt>
      <trkpt lat="45.05828" lon="5.48094">
        <ele>1315.67</ele>
        <time>2016-06-03T06:38:28Z</time>
      </trkpt>
      <trkpt lat="45.05835" lon="5.48105">
        <ele>1314.95</ele>
        <time>2016-06-03T06:38:31Z</time>
      </trkpt>
      <trkpt lat="45.05852" lon="5.48116">
        <ele>1311.52</ele>
        <time>2016-06-03T06:38:40Z</time>
      </trkpt>
      <trkpt lat="45.05855" lon="5.48128">
        <ele>1310.53</ele>
        <time>2016-06-03T06:39:00Z</time>
      </trkpt>
      <trkpt lat="45.05857" lon="5.48128">
        <ele>1310.5</ele>
        <time>2016-06-03T06:39:01Z</time>
      </trkpt>
      <trkpt lat="45.05858" lon="5.48129">
        <ele>1310.43</ele>
        <time>2016-06-03T06:39:02Z</time>
      </trkpt>
      <trkpt lat="45.0586" lon="5.4813">
        <ele>1310.29</ele>
        <time>2016-06-03T06:39:03Z</time>
      </trkpt>
      <trkpt lat="45.05862" lon="5.48131">
        <ele>1310.09</ele>
        <time>2016-06-03T06:39:04Z</time>
      </trkpt>
      <trkpt lat="45.05863" lon="5.48132">
        <ele>1309.8</ele>
        <time>2016-06-03T06:39:05Z</time>
      </trkpt>
      <trkpt lat="45.05864" lon="5.48133">
        <ele>1309.47</ele>
        <time>2016-06-03T06:39:06Z</time>
      </trkpt>
      <trkpt lat="45.05865" lon="5.48134">
        <ele>1308.69</ele>
        <time>2016-06-03T06:39:08Z</time>
      </trkpt>
      <trkpt lat="45.05867" lon="5.48136">
        <ele>1308.28</ele>
        <time>2016-06-03T06:39:09Z</time>
      </trkpt>
      <trkpt lat="45.05877" lon="5.48143">
        <ele>1304.86</ele>
        <time>2016-06-03T06:39:18Z</time>
      </trkpt>
      <trkpt lat="45.05878" lon="5.48144">
        <ele>1304.57</ele>
        <time>2016-06-03T06:39:19Z</time>
      </trkpt>
      <trkpt lat="45.05888" lon="5.48154">
        <ele>1302.47</ele>
        <time>2016-06-03T06:39:26Z</time>
      </trkpt>
      <trkpt lat="45.05908" lon="5.48168">
        <ele>1299.13</ele>
        <time>2016-06-03T06:39:34Z</time>
      </trkpt>
      <trkpt lat="45.05917" lon="5.48178">
        <ele>1297.24</ele>
        <time>2016-06-03T06:39:39Z</time>
      </trkpt>
      <trkpt lat="45.05919" lon="5.48179">
        <ele>1296.92</ele>
        <time>2016-06-03T06:39:40Z</time>
      </trkpt>
      <trkpt lat="45.05926" lon="5.4819">
        <ele>1293.85</ele>
        <time>2016-06-03T06:39:48Z</time>
      </trkpt>
      <trkpt lat="45.05934" lon="5.48206">
        <ele>1291.72</ele>
        <time>2016-06-03T06:40:00Z</time>
      </trkpt>
      <trkpt lat="45.05948" lon="5.48219">
        <ele>1288.57</ele>
        <time>2016-06-03T06:40:13Z</time>
      </trkpt>
      <trkpt lat="45.05954" lon="5.48221">
        <ele>1287.71</ele>
        <time>2016-06-03T06:40:17Z</time>
      </trkpt>
      <trkpt lat="45.05956" lon="5.48222">
        <ele>1287.49</ele>
        <time>2016-06-03T06:40:18Z</time>
      </trkpt>
      <trkpt lat="45.05958" lon="5.48222">
        <ele>1287.26</ele>
        <time>2016-06-03T06:40:19Z</time>
      </trkpt>
      <trkpt lat="45.05959" lon="5.48223">
        <ele>1286.98</ele>
        <time>2016-06-03T06:40:20Z</time>
      </trkpt>
      <trkpt lat="45.05961" lon="5.48223">
        <ele>1286.67</ele>
        <time>2016-06-03T06:40:21Z</time>
      </trkpt>
      <trkpt lat="45.05963" lon="5.48224">
        <ele>1286.32</ele>
        <time>2016-06-03T06:40:22Z</time>
      </trkpt>
      <trkpt lat="45.05973" lon="5.4823">
        <ele>1283.04</ele>
        <time>2016-06-03T06:40:32Z</time>
      </trkpt>
      <trkpt lat="45.05982" lon="5.48245">
        <ele>1280.98</ele>
        <time>2016-06-03T06:40:59Z</time>
      </trkpt>
      <trkpt lat="45.0599" lon="5.48255">
        <ele>1277.92</ele>
        <time>2016-06-03T06:41:07Z</time>
      </trkpt>
      <trkpt lat="45.06001" lon="5.48264">
        <ele>1274.89</ele>
        <time>2016-06-03T06:41:16Z</time>
      </trkpt>
      <trkpt lat="45.06004" lon="5.48264">
        <ele>1274.68</ele>
        <time>2016-06-03T06:41:17Z</time>
      </trkpt>
      <trkpt lat="45.06006" lon="5.48264">
        <ele>1274.48</ele>
        <time>2016-06-03T06:41:18Z</time>
      </trkpt>
      <trkpt lat="45.06008" lon="5.48263">
        <ele>1274.29</ele>
        <time>2016-06-03T06:41:19Z</time>
      </trkpt>
      <trkpt lat="45.06009" lon="5.48264">
        <ele>1274.08</ele>
        <time>2016-06-03T06:41:20Z</time>
      </trkpt>
      <trkpt lat="45.06012" lon="5.48266">
        <ele>1273.86</ele>
        <time>2016-06-03T06:41:21Z</time>
      </trkpt>
      <trkpt lat="45.06021" lon="5.48269">
        <ele>1272.62</ele>
        <time>2016-06-03T06:41:25Z</time>
      </trkpt>
      <trkpt lat="45.06026" lon="5.4827">
        <ele>1272.34</ele>
        <time>2016-06-03T06:41:26Z</time>
      </trkpt>
      <trkpt lat="45.06029" lon="5.48271">
        <ele>1272.04</ele>
        <time>2016-06-03T06:41:27Z</time>
      </trkpt>
      <trkpt lat="45.06031" lon="5.48272">
        <ele>1271.71</ele>
        <time>2016-06-03T06:41:28Z</time>
      </trkpt>
      <trkpt lat="45.06033" lon="5.48273">
        <ele>1271.38</ele>
        <time>2016-06-03T06:41:29Z</time>
      </trkpt>
      <trkpt lat="45.06036" lon="5.48275">
        <ele>1270.64</ele>
        <time>2016-06-03T06:41:31Z</time>
      </trkpt>
      <trkpt lat="45.06041" lon="5.48275">
        <ele>1269.87</ele>
        <time>2016-06-03T06:41:33Z</time>
      </trkpt>
      <trkpt lat="45.06043" lon="5.48277">
        <ele>1269.52</ele>
        <time>2016-06-03T06:41:34Z</time>
      </trkpt>
      <trkpt lat="45.06049" lon="5.48281">
        <ele>1268.56</ele>
        <time>2016-06-03T06:41:37Z</time>
      </trkpt>
      <trkpt lat="45.06052" lon="5.48283">
        <ele>1268.2</ele>
        <time>2016-06-03T06:41:38Z</time>
      </trkpt>
      <trkpt lat="45.06055" lon="5.48283">
        <ele>1267.85</ele>
        <time>2016-06-03T06:41:39Z</time>
      </trkpt>
      <trkpt lat="45.06065" lon="5.48287">
        <ele>1266.56</ele>
        <time>2016-06-03T06:41:43Z</time>
      </trkpt>
      <trkpt lat="45.06075" lon="5.48292">
        <ele>1264.85</ele>
        <time>2016-06-03T06:41:48Z</time>
      </trkpt>
      <trkpt lat="45.06077" lon="5.48293">
        <ele>1264.56</ele>
        <time>2016-06-03T06:41:49Z</time>
      </trkpt>
      <trkpt lat="45.06091" lon="5.48309">
        <ele>1261.54</ele>
        <time>2016-06-03T06:41:58Z</time>
      </trkpt>
      <trkpt lat="45.06099" lon="5.48315">
        <ele>1260.41</ele>
        <time>2016-06-03T06:42:01Z</time>
      </trkpt>
      <trkpt lat="45.06124" lon="5.48329">
        <ele>1257.89</ele>
        <time>2016-06-03T06:42:08Z</time>
      </trkpt>
      <trkpt lat="45.06127" lon="5.4833">
        <ele>1257.5</ele>
        <time>2016-06-03T06:42:09Z</time>
      </trkpt>
      <trkpt lat="45.06138" lon="5.48333">
        <ele>1256.11</ele>
        <time>2016-06-03T06:42:13Z</time>
      </trkpt>
      <trkpt lat="45.0614" lon="5.48334">
        <ele>1255.55</ele>
        <time>2016-06-03T06:42:14Z</time>
      </trkpt>
      <trkpt lat="45.0615" lon="5.48338">
        <ele>1254.68</ele>
        <time>2016-06-03T06:42:17Z</time>
      </trkpt>
      <trkpt lat="45.06152" lon="5.4834">
        <ele>1254.35</ele>
        <time>2016-06-03T06:42:18Z</time>
      </trkpt>
      <trkpt lat="45.06155" lon="5.48341">
        <ele>1253.98</ele>
        <time>2016-06-03T06:42:19Z</time>
      </trkpt>
      <trkpt lat="45.06158" lon="5.48343">
        <ele>1253.64</ele>
        <time>2016-06-03T06:42:20Z</time>
      </trkpt>
      <trkpt lat="45.0616" lon="5.48344">
        <ele>1253.32</ele>
        <time>2016-06-03T06:42:21Z</time>
      </trkpt>
      <trkpt lat="45.06162" lon="5.48345">
        <ele>1253.02</ele>
        <time>2016-06-03T06:42:22Z</time>
      </trkpt>
      <trkpt lat="45.06163" lon="5.48346">
        <ele>1252.74</ele>
        <time>2016-06-03T06:42:23Z</time>
      </trkpt>
      <trkpt lat="45.06166" lon="5.48348">
        <ele>1252.18</ele>
        <time>2016-06-03T06:42:25Z</time>
      </trkpt>
      <trkpt lat="45.06167" lon="5.48349">
        <ele>1251.88</ele>
        <time>2016-06-03T06:42:26Z</time>
      </trkpt>
      <trkpt lat="45.06168" lon="5.48351">
        <ele>1251.57</ele>
        <time>2016-06-03T06:42:27Z</time>
      </trkpt>
      <trkpt lat="45.06177" lon="5.48362">
        <ele>1249.25</ele>
        <time>2016-06-03T06:42:34Z</time>
      </trkpt>
      <trkpt lat="45.06177" lon="5.48363">
        <ele>1248.97</ele>
        <time>2016-06-03T06:42:35Z</time>
      </trkpt>
      <trkpt lat="45.06192" lon="5.48366">
        <ele>1247.01</ele>
        <time>2016-06-03T06:43:09Z</time>
      </trkpt>
      <trkpt lat="45.062" lon="5.48375">
        <ele>1246.74</ele>
        <time>2016-06-03T06:43:15Z</time>
      </trkpt>
      <trkpt lat="45.06202" lon="5.48377">
        <ele>1246.62</ele>
        <time>2016-06-03T06:43:16Z</time>
      </trkpt>
      <trkpt lat="45.06204" lon="5.4838">
        <ele>1246.31</ele>
        <time>2016-06-03T06:43:18Z</time>
      </trkpt>
      <trkpt lat="45.06205" lon="5.48383">
        <ele>1246.11</ele>
        <time>2016-06-03T06:43:19Z</time>
      </trkpt>
      <trkpt lat="45.06206" lon="5.48385">
        <ele>1245.87</ele>
        <time>2016-06-03T06:43:20Z</time>
      </trkpt>
      <trkpt lat="45.06209" lon="5.48387">
        <ele>1245.6</ele>
        <time>2016-06-03T06:43:21Z</time>
      </trkpt>
      <trkpt lat="45.06213" lon="5.48389">
        <ele>1245.32</ele>
        <time>2016-06-03T06:43:22Z</time>
      </trkpt>
      <trkpt lat="45.06216" lon="5.48391">
        <ele>1244.99</ele>
        <time>2016-06-03T06:43:23Z</time>
      </trkpt>
      <trkpt lat="45.06219" lon="5.48392">
        <ele>1244.57</ele>
        <time>2016-06-03T06:43:24Z</time>
      </trkpt>
      <trkpt lat="45.06221" lon="5.48392">
        <ele>1244.09</ele>
        <time>2016-06-03T06:43:25Z</time>
      </trkpt>
      <trkpt lat="45.06223" lon="5.48393">
        <ele>1243.18</ele>
        <time>2016-06-03T06:43:26Z</time>
      </trkpt>
      <trkpt lat="45.06226" lon="5.48397">
        <ele>1243.18</ele>
        <time>2016-06-03T06:43:27Z</time>
      </trkpt>
      <trkpt lat="45.06229" lon="5.484">
        <ele>1242.72</ele>
        <time>2016-06-03T06:43:28Z</time>
      </trkpt>
      <trkpt lat="45.06231" lon="5.48404">
        <ele>1241.86</ele>
        <time>2016-06-03T06:43:29Z</time>
      </trkpt>
      <trkpt lat="45.06257" lon="5.48447">
        <ele>1238.49</ele>
        <time>2016-06-03T06:43:38Z</time>
      </trkpt>
      <trkpt lat="45.06268" lon="5.48483">
        <ele>1235.29</ele>
        <time>2016-06-03T06:43:46Z</time>
      </trkpt>
      <trkpt lat="45.06283" lon="5.48525">
        <ele>1232.22</ele>
        <time>2016-06-03T06:43:55Z</time>
      </trkpt>
      <trkpt lat="45.06307" lon="5.48561">
        <ele>1229.62</ele>
        <time>2016-06-03T06:44:03Z</time>
      </trkpt>
      <trkpt lat="45.0632" lon="5.48569">
        <ele>1226.89</ele>
        <time>2016-06-03T06:44:16Z</time>
      </trkpt>
      <trkpt lat="45.06317" lon="5.48571">
        <ele>1226.6</ele>
        <time>2016-06-03T06:44:38Z</time>
      </trkpt>
      <trkpt lat="45.06318" lon="5.48573">
        <ele>1226.6</ele>
        <time>2016-06-03T06:44:39Z</time>
      </trkpt>
      <trkpt lat="45.06319" lon="5.48576">
        <ele>1226.55</ele>
        <time>2016-06-03T06:44:40Z</time>
      </trkpt>
      <trkpt lat="45.0632" lon="5.48581">
        <ele>1226.45</ele>
        <time>2016-06-03T06:44:41Z</time>
      </trkpt>
      <trkpt lat="45.06323" lon="5.48586">
        <ele>1226.1</ele>
        <time>2016-06-03T06:44:42Z</time>
      </trkpt>
      <trkpt lat="45.06324" lon="5.48591">
        <ele>1225.88</ele>
        <time>2016-06-03T06:44:43Z</time>
      </trkpt>
      <trkpt lat="45.06324" lon="5.48594">
        <ele>1225.67</ele>
        <time>2016-06-03T06:44:44Z</time>
      </trkpt>
      <trkpt lat="45.06326" lon="5.48597">
        <ele>1225.48</ele>
        <time>2016-06-03T06:44:45Z</time>
      </trkpt>
      <trkpt lat="45.06327" lon="5.48602">
        <ele>1225.31</ele>
        <time>2016-06-03T06:44:46Z</time>
      </trkpt>
      <trkpt lat="45.06329" lon="5.48607">
        <ele>1225.12</ele>
        <time>2016-06-03T06:44:47Z</time>
      </trkpt>
      <trkpt lat="45.06333" lon="5.48609">
        <ele>1224.91</ele>
        <time>2016-06-03T06:44:48Z</time>
      </trkpt>
      <trkpt lat="45.06346" lon="5.48627">
        <ele>1223.76</ele>
        <time>2016-06-03T06:44:54Z</time>
      </trkpt>
      <trkpt lat="45.06348" lon="5.48629">
        <ele>1223.63</ele>
        <time>2016-06-03T06:44:55Z</time>
      </trkpt>
      <trkpt lat="45.06349" lon="5.48632">
        <ele>1223.53</ele>
        <time>2016-06-03T06:44:56Z</time>
      </trkpt>
      <trkpt lat="45.06351" lon="5.48639">
        <ele>1223.32</ele>
        <time>2016-06-03T06:44:59Z</time>
      </trkpt>
      <trkpt lat="45.06352" lon="5.48641">
        <ele>1223.29</ele>
        <time>2016-06-03T06:45:00Z</time>
      </trkpt>
      <trkpt lat="45.06354" lon="5.48645">
        <ele>1223.26</ele>
        <time>2016-06-03T06:45:01Z</time>
      </trkpt>
      <trkpt lat="45.06357" lon="5.48648">
        <ele>1223.23</ele>
        <time>2016-06-03T06:45:02Z</time>
      </trkpt>
      <trkpt lat="45.06359" lon="5.48652">
        <ele>1223.18</ele>
        <time>2016-06-03T06:45:03Z</time>
      </trkpt>
      <trkpt lat="45.06361" lon="5.48656">
        <ele>1223.15</ele>
        <time>2016-06-03T06:45:04Z</time>
      </trkpt>
      <trkpt lat="45.06364" lon="5.48661">
        <ele>1223.12</ele>
        <time>2016-06-03T06:45:05Z</time>
      </trkpt>
      <trkpt lat="45.06366" lon="5.48666">
        <ele>1223.08</ele>
        <time>2016-06-03T06:45:06Z</time>
      </trkpt>
      <trkpt lat="45.06368" lon="5.4867">
        <ele>1223.02</ele>
        <time>2016-06-03T06:45:07Z</time>
      </trkpt>
      <trkpt lat="45.06369" lon="5.48674">
        <ele>1223.01</ele>
        <time>2016-06-03T06:45:08Z</time>
      </trkpt>
      <trkpt lat="45.06375" lon="5.48681">
        <ele>1222.97</ele>
        <time>2016-06-03T06:45:11Z</time>
      </trkpt>
      <trkpt lat="45.06377" lon="5.48683">
        <ele>1222.97</ele>
        <time>2016-06-03T06:45:12Z</time>
      </trkpt>
      <trkpt lat="45.06378" lon="5.48688">
        <ele>1223.01</ele>
        <time>2016-06-03T06:45:14Z</time>
      </trkpt>
      <trkpt lat="45.06382" lon="5.48691">
        <ele>1223.14</ele>
        <time>2016-06-03T06:45:16Z</time>
      </trkpt>
      <trkpt lat="45.06384" lon="5.48694">
        <ele>1223.21</ele>
        <time>2016-06-03T06:45:17Z</time>
      </trkpt>
      <trkpt lat="45.06387" lon="5.48701">
        <ele>1223.51</ele>
        <time>2016-06-03T06:45:20Z</time>
      </trkpt>
      <trkpt lat="45.06394" lon="5.48715">
        <ele>1224.05</ele>
        <time>2016-06-03T06:45:25Z</time>
      </trkpt>
      <trkpt lat="45.06396" lon="5.48719">
        <ele>1224.15</ele>
        <time>2016-06-03T06:45:26Z</time>
      </trkpt>
      <trkpt lat="45.06398" lon="5.48723">
        <ele>1224.28</ele>
        <time>2016-06-03T06:45:27Z</time>
      </trkpt>
      <trkpt lat="45.06398" lon="5.48726">
        <ele>1224.41</ele>
        <time>2016-06-03T06:45:28Z</time>
      </trkpt>
      <trkpt lat="45.064" lon="5.48729">
        <ele>1224.52</ele>
        <time>2016-06-03T06:45:29Z</time>
      </trkpt>
      <trkpt lat="45.06401" lon="5.48732">
        <ele>1224.62</ele>
        <time>2016-06-03T06:45:30Z</time>
      </trkpt>
      <trkpt lat="45.06402" lon="5.48735">
        <ele>1224.73</ele>
        <time>2016-06-03T06:45:31Z</time>
      </trkpt>
      <trkpt lat="45.06404" lon="5.4874">
        <ele>1225.01</ele>
        <time>2016-06-03T06:45:32Z</time>
      </trkpt>
      <trkpt lat="45.06405" lon="5.48743">
        <ele>1225.16</ele>
        <time>2016-06-03T06:45:33Z</time>
      </trkpt>
      <trkpt lat="45.06414" lon="5.48778">
        <ele>1226.71</ele>
        <time>2016-06-03T06:45:44Z</time>
      </trkpt>
      <trkpt lat="45.06416" lon="5.48783">
        <ele>1227.01</ele>
        <time>2016-06-03T06:45:46Z</time>
      </trkpt>
      <trkpt lat="45.06416" lon="5.48785">
        <ele>1227.14</ele>
        <time>2016-06-03T06:45:47Z</time>
      </trkpt>
      <trkpt lat="45.06418" lon="5.48788">
        <ele>1227.35</ele>
        <time>2016-06-03T06:45:49Z</time>
      </trkpt>
      <trkpt lat="45.06419" lon="5.48791">
        <ele>1227.44</ele>
        <time>2016-06-03T06:45:50Z</time>
      </trkpt>
      <trkpt lat="45.0642" lon="5.48805">
        <ele>1228.35</ele>
        <time>2016-06-03T06:45:58Z</time>
      </trkpt>
      <trkpt lat="45.06419" lon="5.48807">
        <ele>1228.53</ele>
        <time>2016-06-03T06:45:59Z</time>
      </trkpt>
      <trkpt lat="45.06421" lon="5.48822">
        <ele>1229.42</ele>
        <time>2016-06-03T06:46:06Z</time>
      </trkpt>
      <trkpt lat="45.06423" lon="5.48867">
        <ele>1231.21</ele>
        <time>2016-06-03T06:46:19Z</time>
      </trkpt>
      <trkpt lat="45.06418" lon="5.48911">
        <ele>1233.36</ele>
        <time>2016-06-03T06:46:36Z</time>
      </trkpt>
      <trkpt lat="45.06414" lon="5.4893">
        <ele>1234.07</ele>
        <time>2016-06-03T06:46:42Z</time>
      </trkpt>
      <trkpt lat="45.06404" lon="5.48978">
        <ele>1236.67</ele>
        <time>2016-06-03T06:47:01Z</time>
      </trkpt>
      <trkpt lat="45.06388" lon="5.49031">
        <ele>1239.15</ele>
        <time>2016-06-03T06:47:21Z</time>
      </trkpt>
      <trkpt lat="45.06384" lon="5.49073">
        <ele>1241.67</ele>
        <time>2016-06-03T06:47:38Z</time>
      </trkpt>
      <trkpt lat="45.0637" lon="5.49097">
        <ele>1243.17</ele>
        <time>2016-06-03T06:47:49Z</time>
      </trkpt>
      <trkpt lat="45.06364" lon="5.49104">
        <ele>1243.63</ele>
        <time>2016-06-03T06:47:52Z</time>
      </trkpt>
      <trkpt lat="45.06362" lon="5.49106">
        <ele>1243.78</ele>
        <time>2016-06-03T06:47:53Z</time>
      </trkpt>
      <trkpt lat="45.06347" lon="5.49132">
        <ele>1245.19</ele>
        <time>2016-06-03T06:48:03Z</time>
      </trkpt>
      <trkpt lat="45.06342" lon="5.4914">
        <ele>1245.58</ele>
        <time>2016-06-03T06:48:06Z</time>
      </trkpt>
      <trkpt lat="45.06344" lon="5.49147">
        <ele>1245.93</ele>
        <time>2016-06-03T06:48:09Z</time>
      </trkpt>
      <trkpt lat="45.06337" lon="5.49166">
        <ele>1247</ele>
        <time>2016-06-03T06:48:17Z</time>
      </trkpt>
      <trkpt lat="45.06336" lon="5.49168">
        <ele>1247.18</ele>
        <time>2016-06-03T06:48:18Z</time>
      </trkpt>
      <trkpt lat="45.06333" lon="5.49171">
        <ele>1247.34</ele>
        <time>2016-06-03T06:48:19Z</time>
      </trkpt>
      <trkpt lat="45.0633" lon="5.49174">
        <ele>1247.5</ele>
        <time>2016-06-03T06:48:20Z</time>
      </trkpt>
      <trkpt lat="45.06327" lon="5.49177">
        <ele>1247.67</ele>
        <time>2016-06-03T06:48:21Z</time>
      </trkpt>
      <trkpt lat="45.06323" lon="5.49183">
        <ele>1247.98</ele>
        <time>2016-06-03T06:48:23Z</time>
      </trkpt>
      <trkpt lat="45.06322" lon="5.49186">
        <ele>1248.12</ele>
        <time>2016-06-03T06:48:24Z</time>
      </trkpt>
      <trkpt lat="45.06321" lon="5.49188">
        <ele>1248.37</ele>
        <time>2016-06-03T06:48:25Z</time>
      </trkpt>
      <trkpt lat="45.06319" lon="5.4919">
        <ele>1248.49</ele>
        <time>2016-06-03T06:48:26Z</time>
      </trkpt>
      <trkpt lat="45.06318" lon="5.49193">
        <ele>1248.62</ele>
        <time>2016-06-03T06:48:27Z</time>
      </trkpt>
      <trkpt lat="45.06316" lon="5.49197">
        <ele>1248.86</ele>
        <time>2016-06-03T06:48:29Z</time>
      </trkpt>
      <trkpt lat="45.06312" lon="5.4921">
        <ele>1250.07</ele>
        <time>2016-06-03T06:48:36Z</time>
      </trkpt>
      <trkpt lat="45.06308" lon="5.49218">
        <ele>1250.66</ele>
        <time>2016-06-03T06:48:40Z</time>
      </trkpt>
      <trkpt lat="45.06307" lon="5.49223">
        <ele>1251</ele>
        <time>2016-06-03T06:48:43Z</time>
      </trkpt>
      <trkpt lat="45.06302" lon="5.49231">
        <ele>1251.29</ele>
        <time>2016-06-03T06:48:47Z</time>
      </trkpt>
      <trkpt lat="45.063" lon="5.49237">
        <ele>1252.19</ele>
        <time>2016-06-03T06:48:53Z</time>
      </trkpt>
      <trkpt lat="45.063" lon="5.49239">
        <ele>1252.34</ele>
        <time>2016-06-03T06:48:54Z</time>
      </trkpt>
      <trkpt lat="45.06303" lon="5.49277">
        <ele>1255.2</ele>
        <time>2016-06-03T06:49:13Z</time>
      </trkpt>
      <trkpt lat="45.06318" lon="5.49316">
        <ele>1257.13</ele>
        <time>2016-06-03T06:49:27Z</time>
      </trkpt>
      <trkpt lat="45.06319" lon="5.49319">
        <ele>1257.27</ele>
        <time>2016-06-03T06:49:28Z</time>
      </trkpt>
      <trkpt lat="45.06346" lon="5.49391">
        <ele>1260.24</ele>
        <time>2016-06-03T06:49:50Z</time>
      </trkpt>
      <trkpt lat="45.06353" lon="5.49406">
        <ele>1261.08</ele>
        <time>2016-06-03T06:49:57Z</time>
      </trkpt>
      <trkpt lat="45.06355" lon="5.49409">
        <ele>1261.19</ele>
        <time>2016-06-03T06:49:58Z</time>
      </trkpt>
      <trkpt lat="45.06378" lon="5.49447">
        <ele>1263.08</ele>
        <time>2016-06-03T06:50:15Z</time>
      </trkpt>
      <trkpt lat="45.0638" lon="5.49449">
        <ele>1263.2</ele>
        <time>2016-06-03T06:50:16Z</time>
      </trkpt>
      <trkpt lat="45.06383" lon="5.49451">
        <ele>1263.32</ele>
        <time>2016-06-03T06:50:17Z</time>
      </trkpt>
      <trkpt lat="45.06386" lon="5.49454">
        <ele>1263.45</ele>
        <time>2016-06-03T06:50:18Z</time>
      </trkpt>
      <trkpt lat="45.06389" lon="5.49457">
        <ele>1263.56</ele>
        <time>2016-06-03T06:50:19Z</time>
      </trkpt>
      <trkpt lat="45.06391" lon="5.49459">
        <ele>1263.66</ele>
        <time>2016-06-03T06:50:20Z</time>
      </trkpt>
      <trkpt lat="45.06393" lon="5.49461">
        <ele>1263.75</ele>
        <time>2016-06-03T06:50:21Z</time>
      </trkpt>
      <trkpt lat="45.06395" lon="5.49462">
        <ele>1263.85</ele>
        <time>2016-06-03T06:50:22Z</time>
      </trkpt>
      <trkpt lat="45.06406" lon="5.49468">
        <ele>1264.38</ele>
        <time>2016-06-03T06:50:27Z</time>
      </trkpt>
      <trkpt lat="45.06408" lon="5.4947">
        <ele>1264.6</ele>
        <time>2016-06-03T06:50:28Z</time>
      </trkpt>
      <trkpt lat="45.06411" lon="5.49472">
        <ele>1264.71</ele>
        <time>2016-06-03T06:50:29Z</time>
      </trkpt>
      <trkpt lat="45.06414" lon="5.49474">
        <ele>1264.8</ele>
        <time>2016-06-03T06:50:30Z</time>
      </trkpt>
      <trkpt lat="45.06417" lon="5.49475">
        <ele>1264.9</ele>
        <time>2016-06-03T06:50:31Z</time>
      </trkpt>
      <trkpt lat="45.06432" lon="5.49485">
        <ele>1265.71</ele>
        <time>2016-06-03T06:50:36Z</time>
      </trkpt>
      <trkpt lat="45.06452" lon="5.49503">
        <ele>1267.09</ele>
        <time>2016-06-03T06:50:46Z</time>
      </trkpt>
      <trkpt lat="45.06455" lon="5.49505">
        <ele>1267.9</ele>
        <time>2016-06-03T06:51:02Z</time>
      </trkpt>
      <trkpt lat="45.06458" lon="5.49507">
        <ele>1268.07</ele>
        <time>2016-06-03T06:51:15Z</time>
      </trkpt>
      <trkpt lat="45.06462" lon="5.49507">
        <ele>1268.08</ele>
        <time>2016-06-03T06:51:19Z</time>
      </trkpt>
      <trkpt lat="45.0649" lon="5.49506">
        <ele>1268.02</ele>
        <time>2016-06-03T06:51:27Z</time>
      </trkpt>
      <trkpt lat="45.06463" lon="5.49498">
        <ele>1267.23</ele>
        <time>2016-06-03T06:52:00Z</time>
      </trkpt>
      <trkpt lat="45.06474" lon="5.49507">
        <ele>1267.49</ele>
        <time>2016-06-03T06:52:33Z</time>
      </trkpt>
      <trkpt lat="45.06472" lon="5.49506">
        <ele>1267.46</ele>
        <time>2016-06-03T06:52:58Z</time>
      </trkpt>
      <trkpt lat="45.06469" lon="5.49506">
        <ele>1267.41</ele>
        <time>2016-06-03T06:53:01Z</time>
      </trkpt>
      <trkpt lat="45.06464" lon="5.49504">
        <ele>1267.78</ele>
        <time>2016-06-03T06:53:24Z</time>
      </trkpt>
      <trkpt lat="45.06465" lon="5.49503">
        <ele>1267.91</ele>
        <time>2016-06-03T06:53:43Z</time>
      </trkpt>
      <trkpt lat="45.06466" lon="5.49507">
        <ele>1267.36</ele>
        <time>2016-06-03T06:54:11Z</time>
      </trkpt>
      <trkpt lat="45.0646" lon="5.49511">
        <ele>1268.24</ele>
        <time>2016-06-03T06:54:30Z</time>
      </trkpt>
      <trkpt lat="45.06457" lon="5.49509">
        <ele>1267.6</ele>
        <time>2016-06-03T06:54:50Z</time>
      </trkpt>
      <trkpt lat="45.06457" lon="5.49508">
        <ele>1267.55</ele>
        <time>2016-06-03T06:55:12Z</time>
      </trkpt>
      <trkpt lat="45.06457" lon="5.49513">
        <ele>1267.67</ele>
        <time>2016-06-03T06:55:16Z</time>
      </trkpt>
      <trkpt lat="45.06453" lon="5.49538">
        <ele>1268.44</ele>
        <time>2016-06-03T06:55:32Z</time>
      </trkpt>
      <trkpt lat="45.06454" lon="5.4954">
        <ele>1268.67</ele>
        <time>2016-06-03T06:55:47Z</time>
      </trkpt>
      <trkpt lat="45.06459" lon="5.4955">
        <ele>1268.92</ele>
        <time>2016-06-03T06:55:51Z</time>
      </trkpt>
      <trkpt lat="45.06462" lon="5.49553">
        <ele>1269.13</ele>
        <time>2016-06-03T06:55:52Z</time>
      </trkpt>
      <trkpt lat="45.06464" lon="5.49555">
        <ele>1269.22</ele>
        <time>2016-06-03T06:55:53Z</time>
      </trkpt>
      <trkpt lat="45.06465" lon="5.49558">
        <ele>1269.31</ele>
        <time>2016-06-03T06:55:54Z</time>
      </trkpt>
      <trkpt lat="45.06483" lon="5.49581">
        <ele>1270.13</ele>
        <time>2016-06-03T06:56:02Z</time>
      </trkpt>
      <trkpt lat="45.06485" lon="5.49584">
        <ele>1270.17</ele>
        <time>2016-06-03T06:56:03Z</time>
      </trkpt>
      <trkpt lat="45.06487" lon="5.49587">
        <ele>1270.2</ele>
        <time>2016-06-03T06:56:04Z</time>
      </trkpt>
      <trkpt lat="45.0649" lon="5.49591">
        <ele>1270.23</ele>
        <time>2016-06-03T06:56:05Z</time>
      </trkpt>
      <trkpt lat="45.06493" lon="5.49595">
        <ele>1270.26</ele>
        <time>2016-06-03T06:56:06Z</time>
      </trkpt>
      <trkpt lat="45.06496" lon="5.49598">
        <ele>1270.28</ele>
        <time>2016-06-03T06:56:07Z</time>
      </trkpt>
      <trkpt lat="45.06498" lon="5.49601">
        <ele>1270.33</ele>
        <time>2016-06-03T06:56:08Z</time>
      </trkpt>
      <trkpt lat="45.06501" lon="5.49603">
        <ele>1270.4</ele>
        <time>2016-06-03T06:56:09Z</time>
      </trkpt>
      <trkpt lat="45.06531" lon="5.49614">
        <ele>1271.05</ele>
        <time>2016-06-03T06:56:20Z</time>
      </trkpt>
      <trkpt lat="45.0656" lon="5.49632">
        <ele>1272.13</ele>
        <time>2016-06-03T06:56:32Z</time>
      </trkpt>
      <trkpt lat="45.06561" lon="5.49637">
        <ele>1272.22</ele>
        <time>2016-06-03T06:56:33Z</time>
      </trkpt>
      <trkpt lat="45.06574" lon="5.4969">
        <ele>1272.35</ele>
        <time>2016-06-03T06:56:43Z</time>
      </trkpt>
      <trkpt lat="45.06588" lon="5.49731">
        <ele>1272.82</ele>
        <time>2016-06-03T06:56:53Z</time>
      </trkpt>
      <trkpt lat="45.06599" lon="5.49748">
        <ele>1273.09</ele>
        <time>2016-06-03T06:56:59Z</time>
      </trkpt>
      <trkpt lat="45.06601" lon="5.4975">
        <ele>1273.13</ele>
        <time>2016-06-03T06:57:00Z</time>
      </trkpt>
      <trkpt lat="45.06603" lon="5.49754">
        <ele>1273.17</ele>
        <time>2016-06-03T06:57:01Z</time>
      </trkpt>
      <trkpt lat="45.06604" lon="5.49757">
        <ele>1273.21</ele>
        <time>2016-06-03T06:57:02Z</time>
      </trkpt>
      <trkpt lat="45.06606" lon="5.49761">
        <ele>1273.25</ele>
        <time>2016-06-03T06:57:03Z</time>
      </trkpt>
      <trkpt lat="45.06608" lon="5.49764">
        <ele>1273.29</ele>
        <time>2016-06-03T06:57:04Z</time>
      </trkpt>
      <trkpt lat="45.0661" lon="5.49779">
        <ele>1273.52</ele>
        <time>2016-06-03T06:57:08Z</time>
      </trkpt>
      <trkpt lat="45.06611" lon="5.49785">
        <ele>1273.52</ele>
        <time>2016-06-03T06:57:09Z</time>
      </trkpt>
      <trkpt lat="45.06611" lon="5.49791">
        <ele>1273.66</ele>
        <time>2016-06-03T06:57:10Z</time>
      </trkpt>
      <trkpt lat="45.06611" lon="5.49799">
        <ele>1273.74</ele>
        <time>2016-06-03T06:57:11Z</time>
      </trkpt>
      <trkpt lat="45.06611" lon="5.49806">
        <ele>1273.82</ele>
        <time>2016-06-03T06:57:12Z</time>
      </trkpt>
      <trkpt lat="45.06609" lon="5.49813">
        <ele>1273.91</ele>
        <time>2016-06-03T06:57:13Z</time>
      </trkpt>
      <trkpt lat="45.06608" lon="5.49819">
        <ele>1274</ele>
        <time>2016-06-03T06:57:14Z</time>
      </trkpt>
      <trkpt lat="45.06604" lon="5.4983">
        <ele>1274.11</ele>
        <time>2016-06-03T06:57:16Z</time>
      </trkpt>
      <trkpt lat="45.06603" lon="5.49834">
        <ele>1274.16</ele>
        <time>2016-06-03T06:57:17Z</time>
      </trkpt>
      <trkpt lat="45.06603" lon="5.49838">
        <ele>1274.19</ele>
        <time>2016-06-03T06:57:18Z</time>
      </trkpt>
      <trkpt lat="45.06602" lon="5.49842">
        <ele>1274.22</ele>
        <time>2016-06-03T06:57:19Z</time>
      </trkpt>
      <trkpt lat="45.06601" lon="5.49845">
        <ele>1274.24</ele>
        <time>2016-06-03T06:57:20Z</time>
      </trkpt>
      <trkpt lat="45.06599" lon="5.49851">
        <ele>1274.27</ele>
        <time>2016-06-03T06:57:21Z</time>
      </trkpt>
      <trkpt lat="45.06598" lon="5.49875">
        <ele>1274.41</ele>
        <time>2016-06-03T06:57:25Z</time>
      </trkpt>
      <trkpt lat="45.06601" lon="5.49891">
        <ele>1274.53</ele>
        <time>2016-06-03T06:57:30Z</time>
      </trkpt>
      <trkpt lat="45.06605" lon="5.49898">
        <ele>1274.65</ele>
        <time>2016-06-03T06:57:33Z</time>
      </trkpt>
      <trkpt lat="45.06613" lon="5.4992">
        <ele>1274.83</ele>
        <time>2016-06-03T06:57:39Z</time>
      </trkpt>
      <trkpt lat="45.06616" lon="5.49962">
        <ele>1274.96</ele>
        <time>2016-06-03T06:57:45Z</time>
      </trkpt>
      <trkpt lat="45.06616" lon="5.4997">
        <ele>1274.99</ele>
        <time>2016-06-03T06:57:46Z</time>
      </trkpt>
      <trkpt lat="45.06615" lon="5.49976">
        <ele>1275.02</ele>
        <time>2016-06-03T06:57:47Z</time>
      </trkpt>
      <trkpt lat="45.06613" lon="5.49981">
        <ele>1275.04</ele>
        <time>2016-06-03T06:57:48Z</time>
      </trkpt>
      <trkpt lat="45.06613" lon="5.49985">
        <ele>1275.06</ele>
        <time>2016-06-03T06:57:49Z</time>
      </trkpt>
      <trkpt lat="45.06612" lon="5.49988">
        <ele>1275.08</ele>
        <time>2016-06-03T06:57:50Z</time>
      </trkpt>
      <trkpt lat="45.06612" lon="5.4999">
        <ele>1275.1</ele>
        <time>2016-06-03T06:57:51Z</time>
      </trkpt>
      <trkpt lat="45.06611" lon="5.50007">
        <ele>1274.75</ele>
        <time>2016-06-03T06:58:11Z</time>
      </trkpt>
      <trkpt lat="45.0661" lon="5.50011">
        <ele>1274.71</ele>
        <time>2016-06-03T06:58:13Z</time>
      </trkpt>
      <trkpt lat="45.06608" lon="5.50013">
        <ele>1274.6</ele>
        <time>2016-06-03T06:58:14Z</time>
      </trkpt>
      <trkpt lat="45.06607" lon="5.50016">
        <ele>1274.46</ele>
        <time>2016-06-03T06:58:15Z</time>
      </trkpt>
      <trkpt lat="45.06605" lon="5.50019">
        <ele>1274.26</ele>
        <time>2016-06-03T06:58:16Z</time>
      </trkpt>
      <trkpt lat="45.06604" lon="5.50021">
        <ele>1273.98</ele>
        <time>2016-06-03T06:58:17Z</time>
      </trkpt>
      <trkpt lat="45.06603" lon="5.50023">
        <ele>1273.63</ele>
        <time>2016-06-03T06:58:18Z</time>
      </trkpt>
      <trkpt lat="45.06601" lon="5.50026">
        <ele>1273.22</ele>
        <time>2016-06-03T06:58:19Z</time>
      </trkpt>
      <trkpt lat="45.066" lon="5.50028">
        <ele>1272.79</ele>
        <time>2016-06-03T06:58:20Z</time>
      </trkpt>
      <trkpt lat="45.06598" lon="5.50029">
        <ele>1272.38</ele>
        <time>2016-06-03T06:58:21Z</time>
      </trkpt>
      <trkpt lat="45.06588" lon="5.50038">
        <ele>1269.22</ele>
        <time>2016-06-03T06:58:29Z</time>
      </trkpt>
      <trkpt lat="45.06575" lon="5.50057">
        <ele>1266.19</ele>
        <time>2016-06-03T06:58:43Z</time>
      </trkpt>
      <trkpt lat="45.06567" lon="5.50071">
        <ele>1264.51</ele>
        <time>2016-06-03T06:58:52Z</time>
      </trkpt>
      <trkpt lat="45.06564" lon="5.50076">
        <ele>1264.21</ele>
        <time>2016-06-03T06:58:54Z</time>
      </trkpt>
      <trkpt lat="45.06562" lon="5.50078">
        <ele>1263.96</ele>
        <time>2016-06-03T06:58:55Z</time>
      </trkpt>
      <trkpt lat="45.06559" lon="5.5008">
        <ele>1263.7</ele>
        <time>2016-06-03T06:58:56Z</time>
      </trkpt>
      <trkpt lat="45.06557" lon="5.50083">
        <ele>1263.46</ele>
        <time>2016-06-03T06:58:57Z</time>
      </trkpt>
      <trkpt lat="45.06554" lon="5.50084">
        <ele>1263.26</ele>
        <time>2016-06-03T06:58:58Z</time>
      </trkpt>
      <trkpt lat="45.06539" lon="5.50094">
        <ele>1261.88</ele>
        <time>2016-06-03T06:59:10Z</time>
      </trkpt>
      <trkpt lat="45.06518" lon="5.50107">
        <ele>1260.11</ele>
        <time>2016-06-03T06:59:28Z</time>
      </trkpt>
      <trkpt lat="45.06505" lon="5.50124">
        <ele>1256.96</ele>
        <time>2016-06-03T06:59:40Z</time>
      </trkpt>
      <trkpt lat="45.065" lon="5.50134">
        <ele>1255.74</ele>
        <time>2016-06-03T06:59:44Z</time>
      </trkpt>
      <trkpt lat="45.0649" lon="5.50147">
        <ele>1253.98</ele>
        <time>2016-06-03T06:59:49Z</time>
      </trkpt>
      <trkpt lat="45.06477" lon="5.50178">
        <ele>1251.21</ele>
        <time>2016-06-03T07:00:00Z</time>
      </trkpt>
      <trkpt lat="45.06466" lon="5.50202">
        <ele>1248.15</ele>
        <time>2016-06-03T07:00:16Z</time>
      </trkpt>
      <trkpt lat="45.06451" lon="5.50228">
        <ele>1245.07</ele>
        <time>2016-06-03T07:00:35Z</time>
      </trkpt>
      <trkpt lat="45.06446" lon="5.50243">
        <ele>1243.67</ele>
        <time>2016-06-03T07:00:47Z</time>
      </trkpt>
      <trkpt lat="45.06434" lon="5.50288">
        <ele>1244.06</ele>
        <time>2016-06-03T07:01:07Z</time>
      </trkpt>
      <trkpt lat="45.06433" lon="5.5029">
        <ele>1244.16</ele>
        <time>2016-06-03T07:01:08Z</time>
      </trkpt>
      <trkpt lat="45.06431" lon="5.50301">
        <ele>1244.77</ele>
        <time>2016-06-03T07:01:12Z</time>
      </trkpt>
      <trkpt lat="45.06418" lon="5.50326">
        <ele>1244.29</ele>
        <time>2016-06-03T07:01:25Z</time>
      </trkpt>
      <trkpt lat="45.06408" lon="5.50352">
        <ele>1243.41</ele>
        <time>2016-06-03T07:01:36Z</time>
      </trkpt>
      <trkpt lat="45.06391" lon="5.50371">
        <ele>1244.52</ele>
        <time>2016-06-03T07:01:44Z</time>
      </trkpt>
      <trkpt lat="45.06383" lon="5.50378">
        <ele>1244.77</ele>
        <time>2016-06-03T07:01:52Z</time>
      </trkpt>
      <trkpt lat="45.06373" lon="5.5039">
        <ele>1244.34</ele>
        <time>2016-06-03T07:02:17Z</time>
      </trkpt>
      <trkpt lat="45.06366" lon="5.50419">
        <ele>1244.92</ele>
        <time>2016-06-03T07:02:37Z</time>
      </trkpt>
      <trkpt lat="45.06355" lon="5.50455">
        <ele>1246.59</ele>
        <time>2016-06-03T07:02:56Z</time>
      </trkpt>
      <trkpt lat="45.06344" lon="5.50475">
        <ele>1248.12</ele>
        <time>2016-06-03T07:03:16Z</time>
      </trkpt>
      <trkpt lat="45.06343" lon="5.50477">
        <ele>1248.26</ele>
        <time>2016-06-03T07:03:19Z</time>
      </trkpt>
      <trkpt lat="45.06326" lon="5.50501">
        <ele>1251.18</ele>
        <time>2016-06-03T07:03:40Z</time>
      </trkpt>
      <trkpt lat="45.06304" lon="5.50515">
        <ele>1254.35</ele>
        <time>2016-06-03T07:03:59Z</time>
      </trkpt>
      <trkpt lat="45.06296" lon="5.5052">
        <ele>1255.49</ele>
        <time>2016-06-03T07:04:04Z</time>
      </trkpt>
      <trkpt lat="45.06264" lon="5.50542">
        <ele>1258.64</ele>
        <time>2016-06-03T07:04:23Z</time>
      </trkpt>
      <trkpt lat="45.06258" lon="5.50545">
        <ele>1260.14</ele>
        <time>2016-06-03T07:04:27Z</time>
      </trkpt>
      <trkpt lat="45.06242" lon="5.50555">
        <ele>1262.94</ele>
        <time>2016-06-03T07:04:39Z</time>
      </trkpt>
      <trkpt lat="45.06207" lon="5.50575">
        <ele>1266.19</ele>
        <time>2016-06-03T07:04:57Z</time>
      </trkpt>
      <trkpt lat="45.06202" lon="5.50582">
        <ele>1266.63</ele>
        <time>2016-06-03T07:05:00Z</time>
      </trkpt>
      <trkpt lat="45.06182" lon="5.506">
        <ele>1268.8</ele>
        <time>2016-06-03T07:05:21Z</time>
      </trkpt>
      <trkpt lat="45.06177" lon="5.50599">
        <ele>1268.7</ele>
        <time>2016-06-03T07:05:48Z</time>
      </trkpt>
      <trkpt lat="45.06182" lon="5.506">
        <ele>1268.81</ele>
        <time>2016-06-03T07:06:03Z</time>
      </trkpt>
      <trkpt lat="45.06184" lon="5.50599">
        <ele>1268.84</ele>
        <time>2016-06-03T07:06:05Z</time>
      </trkpt>
      <trkpt lat="45.06187" lon="5.50597">
        <ele>1268.88</ele>
        <time>2016-06-03T07:06:09Z</time>
      </trkpt>
      <trkpt lat="45.06204" lon="5.50594">
        <ele>1268.88</ele>
        <time>2016-06-03T07:06:31Z</time>
      </trkpt>
      <trkpt lat="45.06191" lon="5.50607">
        <ele>1268.86</ele>
        <time>2016-06-03T07:06:40Z</time>
      </trkpt>
      <trkpt lat="45.06167" lon="5.50633">
        <ele>1269.09</ele>
        <time>2016-06-03T07:06:50Z</time>
      </trkpt>
      <trkpt lat="45.06149" lon="5.50654">
        <ele>1269.07</ele>
        <time>2016-06-03T07:06:57Z</time>
      </trkpt>
      <trkpt lat="45.06148" lon="5.50657">
        <ele>1269.04</ele>
        <time>2016-06-03T07:06:58Z</time>
      </trkpt>
      <trkpt lat="45.06144" lon="5.50664">
        <ele>1268.93</ele>
        <time>2016-06-03T07:07:01Z</time>
      </trkpt>
      <trkpt lat="45.06132" lon="5.50683">
        <ele>1267.37</ele>
        <time>2016-06-03T07:07:14Z</time>
      </trkpt>
      <trkpt lat="45.06126" lon="5.50696">
        <ele>1264.1</ele>
        <time>2016-06-03T07:07:25Z</time>
      </trkpt>
      <trkpt lat="45.06125" lon="5.50697">
        <ele>1263.75</ele>
        <time>2016-06-03T07:07:26Z</time>
      </trkpt>
      <trkpt lat="45.06125" lon="5.50698">
        <ele>1263.37</ele>
        <time>2016-06-03T07:07:27Z</time>
      </trkpt>
      <trkpt lat="45.06125" lon="5.50699">
        <ele>1262.94</ele>
        <time>2016-06-03T07:07:28Z</time>
      </trkpt>
      <trkpt lat="45.06124" lon="5.50701">
        <ele>1262.48</ele>
        <time>2016-06-03T07:07:29Z</time>
      </trkpt>
      <trkpt lat="45.06123" lon="5.50703">
        <ele>1262.04</ele>
        <time>2016-06-03T07:07:30Z</time>
      </trkpt>
      <trkpt lat="45.06123" lon="5.50713">
        <ele>1258.71</ele>
        <time>2016-06-03T07:07:38Z</time>
      </trkpt>
      <trkpt lat="45.06127" lon="5.50714">
        <ele>1257.99</ele>
        <time>2016-06-03T07:07:40Z</time>
      </trkpt>
      <trkpt lat="45.06129" lon="5.50715">
        <ele>1257.64</ele>
        <time>2016-06-03T07:07:41Z</time>
      </trkpt>
      <trkpt lat="45.06131" lon="5.50716">
        <ele>1256.9</ele>
        <time>2016-06-03T07:07:42Z</time>
      </trkpt>
      <trkpt lat="45.06132" lon="5.50718">
        <ele>1256.51</ele>
        <time>2016-06-03T07:07:43Z</time>
      </trkpt>
      <trkpt lat="45.06148" lon="5.50728">
        <ele>1253.69</ele>
        <time>2016-06-03T07:07:51Z</time>
      </trkpt>
      <trkpt lat="45.06184" lon="5.50742">
        <ele>1250.28</ele>
        <time>2016-06-03T07:08:01Z</time>
      </trkpt>
      <trkpt lat="45.06191" lon="5.50746">
        <ele>1249.69</ele>
        <time>2016-06-03T07:08:03Z</time>
      </trkpt>
      <trkpt lat="45.06195" lon="5.50751">
        <ele>1248.36</ele>
        <time>2016-06-03T07:08:06Z</time>
      </trkpt>
      <trkpt lat="45.06191" lon="5.5076">
        <ele>1246.03</ele>
        <time>2016-06-03T07:08:13Z</time>
      </trkpt>
      <trkpt lat="45.06188" lon="5.50762">
        <ele>1244.81</ele>
        <time>2016-06-03T07:08:17Z</time>
      </trkpt>
      <trkpt lat="45.06177" lon="5.50764">
        <ele>1241.43</ele>
        <time>2016-06-03T07:08:29Z</time>
      </trkpt>
      <trkpt lat="45.0617" lon="5.50769">
        <ele>1238.32</ele>
        <time>2016-06-03T07:08:40Z</time>
      </trkpt>
      <trkpt lat="45.06154" lon="5.50777">
        <ele>1236.05</ele>
        <time>2016-06-03T07:08:55Z</time>
      </trkpt>
      <trkpt lat="45.06143" lon="5.50785">
        <ele>1234.52</ele>
        <time>2016-06-03T07:09:09Z</time>
      </trkpt>
      <trkpt lat="45.06135" lon="5.50792">
        <ele>1233.68</ele>
        <time>2016-06-03T07:09:19Z</time>
      </trkpt>
      <trkpt lat="45.06129" lon="5.50799">
        <ele>1232.27</ele>
        <time>2016-06-03T07:09:24Z</time>
      </trkpt>
      <trkpt lat="45.06125" lon="5.50808">
        <ele>1230.71</ele>
        <time>2016-06-03T07:09:28Z</time>
      </trkpt>
      <trkpt lat="45.06116" lon="5.50835">
        <ele>1227.3</ele>
        <time>2016-06-03T07:09:39Z</time>
      </trkpt>
      <trkpt lat="45.06117" lon="5.5084">
        <ele>1226.51</ele>
        <time>2016-06-03T07:09:42Z</time>
      </trkpt>
      <trkpt lat="45.0612" lon="5.50856">
        <ele>1224.71</ele>
        <time>2016-06-03T07:09:48Z</time>
      </trkpt>
      <trkpt lat="45.0612" lon="5.50864">
        <ele>1222.71</ele>
        <time>2016-06-03T07:09:52Z</time>
      </trkpt>
      <trkpt lat="45.06125" lon="5.50882">
        <ele>1219.15</ele>
        <time>2016-06-03T07:10:01Z</time>
      </trkpt>
      <trkpt lat="45.06127" lon="5.50887">
        <ele>1218.43</ele>
        <time>2016-06-03T07:10:03Z</time>
      </trkpt>
      <trkpt lat="45.06131" lon="5.50918">
        <ele>1215.2</ele>
        <time>2016-06-03T07:10:13Z</time>
      </trkpt>
      <trkpt lat="45.06122" lon="5.50929">
        <ele>1213.87</ele>
        <time>2016-06-03T07:10:17Z</time>
      </trkpt>
      <trkpt lat="45.06108" lon="5.50953">
        <ele>1210.9</ele>
        <time>2016-06-03T07:10:29Z</time>
      </trkpt>
      <trkpt lat="45.0611" lon="5.5096">
        <ele>1210.28</ele>
        <time>2016-06-03T07:10:46Z</time>
      </trkpt>
      <trkpt lat="45.06104" lon="5.50965">
        <ele>1210.2</ele>
        <time>2016-06-03T07:10:49Z</time>
      </trkpt>
      <trkpt lat="45.06067" lon="5.51008">
        <ele>1208.53</ele>
        <time>2016-06-03T07:11:02Z</time>
      </trkpt>
      <trkpt lat="45.06051" lon="5.51039">
        <ele>1207.67</ele>
        <time>2016-06-03T07:11:12Z</time>
      </trkpt>
      <trkpt lat="45.06039" lon="5.51061">
        <ele>1206.64</ele>
        <time>2016-06-03T07:11:22Z</time>
      </trkpt>
      <trkpt lat="45.06029" lon="5.51084">
        <ele>1207.62</ele>
        <time>2016-06-03T07:11:32Z</time>
      </trkpt>
      <trkpt lat="45.0601" lon="5.51124">
        <ele>1208.16</ele>
        <time>2016-06-03T07:11:44Z</time>
      </trkpt>
      <trkpt lat="45.06003" lon="5.51138">
        <ele>1208.27</ele>
        <time>2016-06-03T07:11:48Z</time>
      </trkpt>
      <trkpt lat="45.05982" lon="5.51181">
        <ele>1207.52</ele>
        <time>2016-06-03T07:11:57Z</time>
      </trkpt>
      <trkpt lat="45.05964" lon="5.51223">
        <ele>1204.08</ele>
        <time>2016-06-03T07:12:07Z</time>
      </trkpt>
      <trkpt lat="45.05959" lon="5.51231">
        <ele>1203</ele>
        <time>2016-06-03T07:12:09Z</time>
      </trkpt>
      <trkpt lat="45.05945" lon="5.51244">
        <ele>1200.74</ele>
        <time>2016-06-03T07:12:13Z</time>
      </trkpt>
      <trkpt lat="45.05927" lon="5.51267">
        <ele>1196.31</ele>
        <time>2016-06-03T07:12:19Z</time>
      </trkpt>
      <trkpt lat="45.05914" lon="5.51286">
        <ele>1194.59</ele>
        <time>2016-06-03T07:12:22Z</time>
      </trkpt>
      <trkpt lat="45.05904" lon="5.513">
        <ele>1193.47</ele>
        <time>2016-06-03T07:12:24Z</time>
      </trkpt>
      <trkpt lat="45.059" lon="5.51348">
        <ele>1191.21</ele>
        <time>2016-06-03T07:12:31Z</time>
      </trkpt>
      <trkpt lat="45.0591" lon="5.51393">
        <ele>1190.2</ele>
        <time>2016-06-03T07:12:38Z</time>
      </trkpt>
      <trkpt lat="45.05912" lon="5.51409">
        <ele>1189.94</ele>
        <time>2016-06-03T07:12:40Z</time>
      </trkpt>
      <trkpt lat="45.05912" lon="5.51427">
        <ele>1189.46</ele>
        <time>2016-06-03T07:12:42Z</time>
      </trkpt>
      <trkpt lat="45.05911" lon="5.51442">
        <ele>1188.57</ele>
        <time>2016-06-03T07:12:44Z</time>
      </trkpt>
      <trkpt lat="45.05912" lon="5.51472">
        <ele>1187.62</ele>
        <time>2016-06-03T07:12:48Z</time>
      </trkpt>
      <trkpt lat="45.05924" lon="5.51513">
        <ele>1185.37</ele>
        <time>2016-06-03T07:12:54Z</time>
      </trkpt>
      <trkpt lat="45.05926" lon="5.51587">
        <ele>1182.08</ele>
        <time>2016-06-03T07:13:02Z</time>
      </trkpt>
      <trkpt lat="45.05926" lon="5.51603">
        <ele>1181.64</ele>
        <time>2016-06-03T07:13:04Z</time>
      </trkpt>
      <trkpt lat="45.05937" lon="5.51659">
        <ele>1182.18</ele>
        <time>2016-06-03T07:13:13Z</time>
      </trkpt>
      <trkpt lat="45.05942" lon="5.51687">
        <ele>1183.78</ele>
        <time>2016-06-03T07:13:21Z</time>
      </trkpt>
      <trkpt lat="45.05943" lon="5.51692">
        <ele>1183.93</ele>
        <time>2016-06-03T07:13:22Z</time>
      </trkpt>
      <trkpt lat="45.05944" lon="5.51698">
        <ele>1184.07</ele>
        <time>2016-06-03T07:13:23Z</time>
      </trkpt>
      <trkpt lat="45.05955" lon="5.51744">
        <ele>1186.26</ele>
        <time>2016-06-03T07:13:34Z</time>
      </trkpt>
      <trkpt lat="45.05961" lon="5.5176">
        <ele>1187.05</ele>
        <time>2016-06-03T07:13:46Z</time>
      </trkpt>
      <trkpt lat="45.05963" lon="5.51768">
        <ele>1187.13</ele>
        <time>2016-06-03T07:13:54Z</time>
      </trkpt>
      <trkpt lat="45.05966" lon="5.51777">
        <ele>1187.26</ele>
        <time>2016-06-03T07:13:57Z</time>
      </trkpt>
      <trkpt lat="45.05967" lon="5.5178">
        <ele>1187.36</ele>
        <time>2016-06-03T07:13:58Z</time>
      </trkpt>
      <trkpt lat="45.05968" lon="5.51784">
        <ele>1187.42</ele>
        <time>2016-06-03T07:13:59Z</time>
      </trkpt>
      <trkpt lat="45.05978" lon="5.51805">
        <ele>1188.03</ele>
        <time>2016-06-03T07:14:06Z</time>
      </trkpt>
      <trkpt lat="45.05979" lon="5.51807">
        <ele>1188.16</ele>
        <time>2016-06-03T07:14:07Z</time>
      </trkpt>
      <trkpt lat="45.05981" lon="5.51808">
        <ele>1188.28</ele>
        <time>2016-06-03T07:14:08Z</time>
      </trkpt>
      <trkpt lat="45.05983" lon="5.5181">
        <ele>1188.37</ele>
        <time>2016-06-03T07:14:09Z</time>
      </trkpt>
      <trkpt lat="45.05987" lon="5.51814">
        <ele>1188.48</ele>
        <time>2016-06-03T07:14:12Z</time>
      </trkpt>
      <trkpt lat="45.05988" lon="5.51817">
        <ele>1188.45</ele>
        <time>2016-06-03T07:14:13Z</time>
      </trkpt>
      <trkpt lat="45.0599" lon="5.51821">
        <ele>1188.41</ele>
        <time>2016-06-03T07:14:14Z</time>
      </trkpt>
      <trkpt lat="45.05991" lon="5.51824">
        <ele>1188.36</ele>
        <time>2016-06-03T07:14:15Z</time>
      </trkpt>
      <trkpt lat="45.05992" lon="5.51827">
        <ele>1188.31</ele>
        <time>2016-06-03T07:14:16Z</time>
      </trkpt>
      <trkpt lat="45.05994" lon="5.51831">
        <ele>1188.27</ele>
        <time>2016-06-03T07:14:17Z</time>
      </trkpt>
      <trkpt lat="45.05995" lon="5.51836">
        <ele>1188.23</ele>
        <time>2016-06-03T07:14:18Z</time>
      </trkpt>
      <trkpt lat="45.05997" lon="5.51839">
        <ele>1188.2</ele>
        <time>2016-06-03T07:14:19Z</time>
      </trkpt>
      <trkpt lat="45.05999" lon="5.51842">
        <ele>1188.24</ele>
        <time>2016-06-03T07:14:20Z</time>
      </trkpt>
      <trkpt lat="45.06" lon="5.51845">
        <ele>1188.24</ele>
        <time>2016-06-03T07:14:21Z</time>
      </trkpt>
      <trkpt lat="45.06001" lon="5.51849">
        <ele>1188.32</ele>
        <time>2016-06-03T07:14:22Z</time>
      </trkpt>
      <trkpt lat="45.06006" lon="5.51864">
        <ele>1188.52</ele>
        <time>2016-06-03T07:14:26Z</time>
      </trkpt>
      <trkpt lat="45.06016" lon="5.51898">
        <ele>1189.25</ele>
        <time>2016-06-03T07:14:36Z</time>
      </trkpt>
      <trkpt lat="45.06017" lon="5.51902">
        <ele>1189.2</ele>
        <time>2016-06-03T07:14:37Z</time>
      </trkpt>
      <trkpt lat="45.06017" lon="5.51906">
        <ele>1189.11</ele>
        <time>2016-06-03T07:14:38Z</time>
      </trkpt>
      <trkpt lat="45.06019" lon="5.5191">
        <ele>1189.03</ele>
        <time>2016-06-03T07:14:39Z</time>
      </trkpt>
      <trkpt lat="45.06019" lon="5.51914">
        <ele>1188.94</ele>
        <time>2016-06-03T07:14:40Z</time>
      </trkpt>
      <trkpt lat="45.0602" lon="5.51918">
        <ele>1188.88</ele>
        <time>2016-06-03T07:14:41Z</time>
      </trkpt>
      <trkpt lat="45.0602" lon="5.51922">
        <ele>1188.84</ele>
        <time>2016-06-03T07:14:42Z</time>
      </trkpt>
      <trkpt lat="45.06021" lon="5.51926">
        <ele>1188.84</ele>
        <time>2016-06-03T07:14:43Z</time>
      </trkpt>
      <trkpt lat="45.06021" lon="5.5193">
        <ele>1188.86</ele>
        <time>2016-06-03T07:14:44Z</time>
      </trkpt>
      <trkpt lat="45.06021" lon="5.51934">
        <ele>1188.89</ele>
        <time>2016-06-03T07:14:45Z</time>
      </trkpt>
      <trkpt lat="45.06022" lon="5.51938">
        <ele>1188.99</ele>
        <time>2016-06-03T07:14:46Z</time>
      </trkpt>
      <trkpt lat="45.06023" lon="5.51942">
        <ele>1189.05</ele>
        <time>2016-06-03T07:14:47Z</time>
      </trkpt>
      <trkpt lat="45.06024" lon="5.51946">
        <ele>1189.12</ele>
        <time>2016-06-03T07:14:48Z</time>
      </trkpt>
      <trkpt lat="45.06026" lon="5.51965">
        <ele>1189.39</ele>
        <time>2016-06-03T07:14:53Z</time>
      </trkpt>
      <trkpt lat="45.06046" lon="5.51999">
        <ele>1190.08</ele>
        <time>2016-06-03T07:15:05Z</time>
      </trkpt>
      <trkpt lat="45.06065" lon="5.52027">
        <ele>1190.73</ele>
        <time>2016-06-03T07:15:16Z</time>
      </trkpt>
      <trkpt lat="45.06085" lon="5.52061">
        <ele>1191.47</ele>
        <time>2016-06-03T07:15:27Z</time>
      </trkpt>
      <trkpt lat="45.0612" lon="5.52109">
        <ele>1191.84</ele>
        <time>2016-06-03T07:15:40Z</time>
      </trkpt>
      <trkpt lat="45.06139" lon="5.52146">
        <ele>1192.19</ele>
        <time>2016-06-03T07:15:51Z</time>
      </trkpt>
      <trkpt lat="45.06165" lon="5.52176">
        <ele>1193.23</ele>
        <time>2016-06-03T07:16:02Z</time>
      </trkpt>
      <trkpt lat="45.06166" lon="5.52178">
        <ele>1193.36</ele>
        <time>2016-06-03T07:16:03Z</time>
      </trkpt>
      <trkpt lat="45.06177" lon="5.52193">
        <ele>1194.58</ele>
        <time>2016-06-03T07:16:15Z</time>
      </trkpt>
      <trkpt lat="45.06185" lon="5.52226">
        <ele>1197.02</ele>
        <time>2016-06-03T07:16:30Z</time>
      </trkpt>
      <trkpt lat="45.06202" lon="5.52245">
        <ele>1199.26</ele>
        <time>2016-06-03T07:16:43Z</time>
      </trkpt>
      <trkpt lat="45.06217" lon="5.52258">
        <ele>1201.2</ele>
        <time>2016-06-03T07:16:52Z</time>
      </trkpt>
      <trkpt lat="45.06218" lon="5.52259">
        <ele>1201.42</ele>
        <time>2016-06-03T07:16:53Z</time>
      </trkpt>
      <trkpt lat="45.0622" lon="5.5226">
        <ele>1201.63</ele>
        <time>2016-06-03T07:16:54Z</time>
      </trkpt>
      <trkpt lat="45.06221" lon="5.5226">
        <ele>1201.83</ele>
        <time>2016-06-03T07:16:55Z</time>
      </trkpt>
      <trkpt lat="45.06222" lon="5.52261">
        <ele>1202.04</ele>
        <time>2016-06-03T07:16:56Z</time>
      </trkpt>
      <trkpt lat="45.06227" lon="5.52264">
        <ele>1203.04</ele>
        <time>2016-06-03T07:17:07Z</time>
      </trkpt>
      <trkpt lat="45.06234" lon="5.52279">
        <ele>1203.97</ele>
        <time>2016-06-03T07:17:21Z</time>
      </trkpt>
      <trkpt lat="45.06235" lon="5.52285">
        <ele>1204.41</ele>
        <time>2016-06-03T07:17:24Z</time>
      </trkpt>
      <trkpt lat="45.06235" lon="5.52287">
        <ele>1204.57</ele>
        <time>2016-06-03T07:17:25Z</time>
      </trkpt>
      <trkpt lat="45.06235" lon="5.52289">
        <ele>1204.74</ele>
        <time>2016-06-03T07:17:26Z</time>
      </trkpt>
      <trkpt lat="45.06235" lon="5.52291">
        <ele>1204.93</ele>
        <time>2016-06-03T07:17:27Z</time>
      </trkpt>
      <trkpt lat="45.06235" lon="5.52294">
        <ele>1205.12</ele>
        <time>2016-06-03T07:17:28Z</time>
      </trkpt>
      <trkpt lat="45.06228" lon="5.52327">
        <ele>1207.54</ele>
        <time>2016-06-03T07:17:41Z</time>
      </trkpt>
      <trkpt lat="45.06217" lon="5.5236">
        <ele>1209.34</ele>
        <time>2016-06-03T07:17:55Z</time>
      </trkpt>
      <trkpt lat="45.06231" lon="5.52377">
        <ele>1210.93</ele>
        <time>2016-06-03T07:18:08Z</time>
      </trkpt>
      <trkpt lat="45.06232" lon="5.52377">
        <ele>1211.04</ele>
        <time>2016-06-03T07:18:09Z</time>
      </trkpt>
      <trkpt lat="45.06234" lon="5.52378">
        <ele>1211.16</ele>
        <time>2016-06-03T07:18:10Z</time>
      </trkpt>
      <trkpt lat="45.06236" lon="5.52377">
        <ele>1211.26</ele>
        <time>2016-06-03T07:18:11Z</time>
      </trkpt>
      <trkpt lat="45.06238" lon="5.52377">
        <ele>1211.37</ele>
        <time>2016-06-03T07:18:12Z</time>
      </trkpt>
      <trkpt lat="45.0624" lon="5.52377">
        <ele>1211.53</ele>
        <time>2016-06-03T07:18:13Z</time>
      </trkpt>
      <trkpt lat="45.06242" lon="5.52377">
        <ele>1211.73</ele>
        <time>2016-06-03T07:18:14Z</time>
      </trkpt>
      <trkpt lat="45.06244" lon="5.52377">
        <ele>1211.96</ele>
        <time>2016-06-03T07:18:15Z</time>
      </trkpt>
      <trkpt lat="45.06247" lon="5.52378">
        <ele>1212.16</ele>
        <time>2016-06-03T07:18:16Z</time>
      </trkpt>
      <trkpt lat="45.06271" lon="5.52376">
        <ele>1215.07</ele>
        <time>2016-06-03T07:18:28Z</time>
      </trkpt>
      <trkpt lat="45.06299" lon="5.52383">
        <ele>1217.84</ele>
        <time>2016-06-03T07:18:44Z</time>
      </trkpt>
      <trkpt lat="45.0632" lon="5.52387">
        <ele>1219.42</ele>
        <time>2016-06-03T07:18:55Z</time>
      </trkpt>
      <trkpt lat="45.06359" lon="5.52388">
        <ele>1220.03</ele>
        <time>2016-06-03T07:19:08Z</time>
      </trkpt>
      <trkpt lat="45.0639" lon="5.524">
        <ele>1220.96</ele>
        <time>2016-06-03T07:19:20Z</time>
      </trkpt>
      <trkpt lat="45.0641" lon="5.52409">
        <ele>1222.69</ele>
        <time>2016-06-03T07:19:31Z</time>
      </trkpt>
      <trkpt lat="45.06432" lon="5.5242">
        <ele>1225.46</ele>
        <time>2016-06-03T07:19:43Z</time>
      </trkpt>
      <trkpt lat="45.06441" lon="5.52427">
        <ele>1227.32</ele>
        <time>2016-06-03T07:19:49Z</time>
      </trkpt>
      <trkpt lat="45.06444" lon="5.52431">
        <ele>1228.06</ele>
        <time>2016-06-03T07:19:52Z</time>
      </trkpt>
      <trkpt lat="45.06447" lon="5.52432">
        <ele>1228.24</ele>
        <time>2016-06-03T07:19:53Z</time>
      </trkpt>
      <trkpt lat="45.06448" lon="5.52432">
        <ele>1228.4</ele>
        <time>2016-06-03T07:19:54Z</time>
      </trkpt>
      <trkpt lat="45.06451" lon="5.52433">
        <ele>1228.98</ele>
        <time>2016-06-03T07:20:05Z</time>
      </trkpt>
      <trkpt lat="45.06453" lon="5.52434">
        <ele>1229.24</ele>
        <time>2016-06-03T07:20:31Z</time>
      </trkpt>
      <trkpt lat="45.06451" lon="5.52433">
        <ele>1228.66</ele>
        <time>2016-06-03T07:20:56Z</time>
      </trkpt>
      <trkpt lat="45.06452" lon="5.52424">
        <ele>1228.59</ele>
        <time>2016-06-03T07:21:17Z</time>
      </trkpt>
      <trkpt lat="45.06453" lon="5.52418">
        <ele>1228.1</ele>
        <time>2016-06-03T07:21:35Z</time>
      </trkpt>
      <trkpt lat="45.06461" lon="5.52416">
        <ele>1226.87</ele>
        <time>2016-06-03T07:22:00Z</time>
      </trkpt>
      <trkpt lat="45.06457" lon="5.52419">
        <ele>1226.7</ele>
        <time>2016-06-03T07:22:35Z</time>
      </trkpt>
      <trkpt lat="45.06459" lon="5.52417">
        <ele>1226.67</ele>
        <time>2016-06-03T07:23:34Z</time>
      </trkpt>
      <trkpt lat="45.06461" lon="5.52418">
        <ele>1226.7</ele>
        <time>2016-06-03T07:24:35Z</time>
      </trkpt>
      <trkpt lat="45.0646" lon="5.52421">
        <ele>1226.91</ele>
        <time>2016-06-03T07:25:27Z</time>
      </trkpt>
      <trkpt lat="45.06458" lon="5.52419">
        <ele>1228.24</ele>
        <time>2016-06-03T07:26:07Z</time>
      </trkpt>
      <trkpt lat="45.06456" lon="5.52424">
        <ele>1228.22</ele>
        <time>2016-06-03T07:26:25Z</time>
      </trkpt>
      <trkpt lat="45.06455" lon="5.52427">
        <ele>1228.33</ele>
        <time>2016-06-03T07:26:27Z</time>
      </trkpt>
      <trkpt lat="45.06454" lon="5.52432">
        <ele>1228.46</ele>
        <time>2016-06-03T07:26:29Z</time>
      </trkpt>
      <trkpt lat="45.06454" lon="5.52435">
        <ele>1228.53</ele>
        <time>2016-06-03T07:26:30Z</time>
      </trkpt>
      <trkpt lat="45.06455" lon="5.52438">
        <ele>1228.59</ele>
        <time>2016-06-03T07:26:31Z</time>
      </trkpt>
      <trkpt lat="45.06456" lon="5.52441">
        <ele>1228.65</ele>
        <time>2016-06-03T07:26:32Z</time>
      </trkpt>
      <trkpt lat="45.06458" lon="5.52443">
        <ele>1228.74</ele>
        <time>2016-06-03T07:26:33Z</time>
      </trkpt>
      <trkpt lat="45.06461" lon="5.52446">
        <ele>1228.81</ele>
        <time>2016-06-03T07:26:34Z</time>
      </trkpt>
      <trkpt lat="45.06498" lon="5.52503">
        <ele>1229.21</ele>
        <time>2016-06-03T07:26:49Z</time>
      </trkpt>
      <trkpt lat="45.06521" lon="5.52581">
        <ele>1229.02</ele>
        <time>2016-06-03T07:27:03Z</time>
      </trkpt>
      <trkpt lat="45.06572" lon="5.52685">
        <ele>1227.99</ele>
        <time>2016-06-03T07:27:22Z</time>
      </trkpt>
      <trkpt lat="45.0661" lon="5.5276">
        <ele>1227.27</ele>
        <time>2016-06-03T07:27:38Z</time>
      </trkpt>
      <trkpt lat="45.0665" lon="5.52773">
        <ele>1225.04</ele>
        <time>2016-06-03T07:27:51Z</time>
      </trkpt>
      <trkpt lat="45.06684" lon="5.52765">
        <ele>1222.37</ele>
        <time>2016-06-03T07:28:02Z</time>
      </trkpt>
      <trkpt lat="45.06729" lon="5.52756">
        <ele>1219.63</ele>
        <time>2016-06-03T07:28:09Z</time>
      </trkpt>
      <trkpt lat="45.06774" lon="5.52755">
        <ele>1216.15</ele>
        <time>2016-06-03T07:28:14Z</time>
      </trkpt>
      <trkpt lat="45.06825" lon="5.52759">
        <ele>1213.09</ele>
        <time>2016-06-03T07:28:19Z</time>
      </trkpt>
      <trkpt lat="45.06864" lon="5.52762">
        <ele>1210.61</ele>
        <time>2016-06-03T07:28:23Z</time>
      </trkpt>
      <trkpt lat="45.06873" lon="5.52761">
        <ele>1210.14</ele>
        <time>2016-06-03T07:28:24Z</time>
      </trkpt>
      <trkpt lat="45.06945" lon="5.52735">
        <ele>1207.49</ele>
        <time>2016-06-03T07:28:34Z</time>
      </trkpt>
      <trkpt lat="45.07019" lon="5.5272">
        <ele>1204.35</ele>
        <time>2016-06-03T07:28:44Z</time>
      </trkpt>
      <trkpt lat="45.07044" lon="5.52718">
        <ele>1203.12</ele>
        <time>2016-06-03T07:28:48Z</time>
      </trkpt>
      <trkpt lat="45.0705" lon="5.52719">
        <ele>1202.86</ele>
        <time>2016-06-03T07:28:49Z</time>
      </trkpt>
      <trkpt lat="45.07055" lon="5.52721">
        <ele>1202.63</ele>
        <time>2016-06-03T07:28:50Z</time>
      </trkpt>
      <trkpt lat="45.07065" lon="5.52726">
        <ele>1202.14</ele>
        <time>2016-06-03T07:28:52Z</time>
      </trkpt>
      <trkpt lat="45.07098" lon="5.52736">
        <ele>1200.77</ele>
        <time>2016-06-03T07:28:58Z</time>
      </trkpt>
      <trkpt lat="45.07103" lon="5.52735">
        <ele>1200.6</ele>
        <time>2016-06-03T07:28:59Z</time>
      </trkpt>
      <trkpt lat="45.07108" lon="5.52733">
        <ele>1200.45</ele>
        <time>2016-06-03T07:29:00Z</time>
      </trkpt>
      <trkpt lat="45.07118" lon="5.52727">
        <ele>1200.1</ele>
        <time>2016-06-03T07:29:02Z</time>
      </trkpt>
      <trkpt lat="45.07158" lon="5.52697">
        <ele>1197.19</ele>
        <time>2016-06-03T07:29:10Z</time>
      </trkpt>
      <trkpt lat="45.07166" lon="5.52692">
        <ele>1195.98</ele>
        <time>2016-06-03T07:29:12Z</time>
      </trkpt>
      <trkpt lat="45.0717" lon="5.5269">
        <ele>1195.29</ele>
        <time>2016-06-03T07:29:13Z</time>
      </trkpt>
      <trkpt lat="45.07173" lon="5.52687">
        <ele>1194.61</ele>
        <time>2016-06-03T07:29:14Z</time>
      </trkpt>
      <trkpt lat="45.07177" lon="5.52683">
        <ele>1193.94</ele>
        <time>2016-06-03T07:29:15Z</time>
      </trkpt>
      <trkpt lat="45.0718" lon="5.52677">
        <ele>1193.21</ele>
        <time>2016-06-03T07:29:16Z</time>
      </trkpt>
      <trkpt lat="45.07183" lon="5.5267">
        <ele>1192.42</ele>
        <time>2016-06-03T07:29:17Z</time>
      </trkpt>
      <trkpt lat="45.07185" lon="5.52663">
        <ele>1191.6</ele>
        <time>2016-06-03T07:29:18Z</time>
      </trkpt>
      <trkpt lat="45.07187" lon="5.52655">
        <ele>1190.74</ele>
        <time>2016-06-03T07:29:19Z</time>
      </trkpt>
      <trkpt lat="45.07188" lon="5.52648">
        <ele>1189.79</ele>
        <time>2016-06-03T07:29:20Z</time>
      </trkpt>
      <trkpt lat="45.07187" lon="5.52639">
        <ele>1188.76</ele>
        <time>2016-06-03T07:29:21Z</time>
      </trkpt>
      <trkpt lat="45.07187" lon="5.5263">
        <ele>1187.75</ele>
        <time>2016-06-03T07:29:22Z</time>
      </trkpt>
      <trkpt lat="45.07188" lon="5.52613">
        <ele>1184.57</ele>
        <time>2016-06-03T07:29:24Z</time>
      </trkpt>
      <trkpt lat="45.07189" lon="5.52606">
        <ele>1183.46</ele>
        <time>2016-06-03T07:29:25Z</time>
      </trkpt>
      <trkpt lat="45.0719" lon="5.52599">
        <ele>1182.28</ele>
        <time>2016-06-03T07:29:26Z</time>
      </trkpt>
      <trkpt lat="45.07192" lon="5.52593">
        <ele>1181.02</ele>
        <time>2016-06-03T07:29:27Z</time>
      </trkpt>
      <trkpt lat="45.07195" lon="5.52587">
        <ele>1179.78</ele>
        <time>2016-06-03T07:29:28Z</time>
      </trkpt>
      <trkpt lat="45.07198" lon="5.52582">
        <ele>1178.61</ele>
        <time>2016-06-03T07:29:29Z</time>
      </trkpt>
      <trkpt lat="45.07203" lon="5.52577">
        <ele>1177.52</ele>
        <time>2016-06-03T07:29:30Z</time>
      </trkpt>
      <trkpt lat="45.0721" lon="5.52572">
        <ele>1176.46</ele>
        <time>2016-06-03T07:29:31Z</time>
      </trkpt>
      <trkpt lat="45.07217" lon="5.52567">
        <ele>1175.39</ele>
        <time>2016-06-03T07:29:32Z</time>
      </trkpt>
      <trkpt lat="45.07238" lon="5.5255">
        <ele>1172.19</ele>
        <time>2016-06-03T07:29:35Z</time>
      </trkpt>
      <trkpt lat="45.07256" lon="5.52535">
        <ele>1169.06</ele>
        <time>2016-06-03T07:29:38Z</time>
      </trkpt>
      <trkpt lat="45.07279" lon="5.52515">
        <ele>1165.28</ele>
        <time>2016-06-03T07:29:42Z</time>
      </trkpt>
      <trkpt lat="45.07302" lon="5.5249">
        <ele>1161.62</ele>
        <time>2016-06-03T07:29:46Z</time>
      </trkpt>
      <trkpt lat="45.07313" lon="5.52479">
        <ele>1158.4</ele>
        <time>2016-06-03T07:29:48Z</time>
      </trkpt>
      <trkpt lat="45.07319" lon="5.52475">
        <ele>1157.23</ele>
        <time>2016-06-03T07:29:49Z</time>
      </trkpt>
      <trkpt lat="45.07325" lon="5.52471">
        <ele>1156.06</ele>
        <time>2016-06-03T07:29:50Z</time>
      </trkpt>
      <trkpt lat="45.07341" lon="5.52462">
        <ele>1152.6</ele>
        <time>2016-06-03T07:29:53Z</time>
      </trkpt>
      <trkpt lat="45.07353" lon="5.52457">
        <ele>1150.2</ele>
        <time>2016-06-03T07:29:55Z</time>
      </trkpt>
      <trkpt lat="45.07365" lon="5.52452">
        <ele>1147.71</ele>
        <time>2016-06-03T07:29:57Z</time>
      </trkpt>
      <trkpt lat="45.07371" lon="5.52448">
        <ele>1146.49</ele>
        <time>2016-06-03T07:29:58Z</time>
      </trkpt>
      <trkpt lat="45.07378" lon="5.52443">
        <ele>1145.32</ele>
        <time>2016-06-03T07:29:59Z</time>
      </trkpt>
      <trkpt lat="45.0739" lon="5.52433">
        <ele>1143.32</ele>
        <time>2016-06-03T07:30:01Z</time>
      </trkpt>
      <trkpt lat="45.07396" lon="5.5243">
        <ele>1142.5</ele>
        <time>2016-06-03T07:30:02Z</time>
      </trkpt>
      <trkpt lat="45.07404" lon="5.52428">
        <ele>1141.75</ele>
        <time>2016-06-03T07:30:03Z</time>
      </trkpt>
      <trkpt lat="45.07431" lon="5.52425">
        <ele>1138.96</ele>
        <time>2016-06-03T07:30:07Z</time>
      </trkpt>
      <trkpt lat="45.0747" lon="5.52434">
        <ele>1135.86</ele>
        <time>2016-06-03T07:30:12Z</time>
      </trkpt>
      <trkpt lat="45.07536" lon="5.52446">
        <ele>1132.39</ele>
        <time>2016-06-03T07:30:19Z</time>
      </trkpt>
      <trkpt lat="45.07545" lon="5.52446">
        <ele>1131.87</ele>
        <time>2016-06-03T07:30:20Z</time>
      </trkpt>
      <trkpt lat="45.07618" lon="5.52429">
        <ele>1128.64</ele>
        <time>2016-06-03T07:30:28Z</time>
      </trkpt>
      <trkpt lat="45.07691" lon="5.52407">
        <ele>1125.26</ele>
        <time>2016-06-03T07:30:36Z</time>
      </trkpt>
      <trkpt lat="45.07738" lon="5.52392">
        <ele>1122.06</ele>
        <time>2016-06-03T07:30:41Z</time>
      </trkpt>
      <trkpt lat="45.07787" lon="5.52379">
        <ele>1118.76</ele>
        <time>2016-06-03T07:30:46Z</time>
      </trkpt>
      <trkpt lat="45.07831" lon="5.52366">
        <ele>1115.22</ele>
        <time>2016-06-03T07:30:51Z</time>
      </trkpt>
      <trkpt lat="45.07866" lon="5.52356">
        <ele>1111.8</ele>
        <time>2016-06-03T07:30:55Z</time>
      </trkpt>
      <trkpt lat="45.07897" lon="5.52346">
        <ele>1108.18</ele>
        <time>2016-06-03T07:30:59Z</time>
      </trkpt>
      <trkpt lat="45.0792" lon="5.52343">
        <ele>1104.75</ele>
        <time>2016-06-03T07:31:02Z</time>
      </trkpt>
      <trkpt lat="45.07953" lon="5.52342">
        <ele>1101.18</ele>
        <time>2016-06-03T07:31:06Z</time>
      </trkpt>
      <trkpt lat="45.07986" lon="5.52333">
        <ele>1097.63</ele>
        <time>2016-06-03T07:31:10Z</time>
      </trkpt>
      <trkpt lat="45.08021" lon="5.52323">
        <ele>1093.81</ele>
        <time>2016-06-03T07:31:14Z</time>
      </trkpt>
      <trkpt lat="45.08059" lon="5.52315">
        <ele>1089.88</ele>
        <time>2016-06-03T07:31:18Z</time>
      </trkpt>
      <trkpt lat="45.08097" lon="5.5231">
        <ele>1085.96</ele>
        <time>2016-06-03T07:31:22Z</time>
      </trkpt>
      <trkpt lat="45.08136" lon="5.52297">
        <ele>1081.4</ele>
        <time>2016-06-03T07:31:26Z</time>
      </trkpt>
      <trkpt lat="45.08173" lon="5.52271">
        <ele>1077.48</ele>
        <time>2016-06-03T07:31:30Z</time>
      </trkpt>
      <trkpt lat="45.08198" lon="5.52248">
        <ele>1074.68</ele>
        <time>2016-06-03T07:31:33Z</time>
      </trkpt>
      <trkpt lat="45.08205" lon="5.52238">
        <ele>1073.69</ele>
        <time>2016-06-03T07:31:34Z</time>
      </trkpt>
      <trkpt lat="45.08233" lon="5.52197">
        <ele>1069.79</ele>
        <time>2016-06-03T07:31:38Z</time>
      </trkpt>
      <trkpt lat="45.08254" lon="5.52167">
        <ele>1066.73</ele>
        <time>2016-06-03T07:31:41Z</time>
      </trkpt>
      <trkpt lat="45.08266" lon="5.52145">
        <ele>1064.67</ele>
        <time>2016-06-03T07:31:43Z</time>
      </trkpt>
      <trkpt lat="45.08271" lon="5.52133">
        <ele>1063.63</ele>
        <time>2016-06-03T07:31:44Z</time>
      </trkpt>
      <trkpt lat="45.08276" lon="5.5212">
        <ele>1062.62</ele>
        <time>2016-06-03T07:31:45Z</time>
      </trkpt>
      <trkpt lat="45.08292" lon="5.52079">
        <ele>1059</ele>
        <time>2016-06-03T07:31:49Z</time>
      </trkpt>
      <trkpt lat="45.08301" lon="5.52065">
        <ele>1055.91</ele>
        <time>2016-06-03T07:31:51Z</time>
      </trkpt>
      <trkpt lat="45.08307" lon="5.52059">
        <ele>1054.93</ele>
        <time>2016-06-03T07:31:52Z</time>
      </trkpt>
      <trkpt lat="45.08314" lon="5.52054">
        <ele>1054.01</ele>
        <time>2016-06-03T07:31:53Z</time>
      </trkpt>
      <trkpt lat="45.08321" lon="5.52049">
        <ele>1053.13</ele>
        <time>2016-06-03T07:31:54Z</time>
      </trkpt>
      <trkpt lat="45.08328" lon="5.52045">
        <ele>1052.31</ele>
        <time>2016-06-03T07:31:55Z</time>
      </trkpt>
      <trkpt lat="45.08336" lon="5.52042">
        <ele>1051.5</ele>
        <time>2016-06-03T07:31:56Z</time>
      </trkpt>
      <trkpt lat="45.08344" lon="5.5204">
        <ele>1050.67</ele>
        <time>2016-06-03T07:31:57Z</time>
      </trkpt>
      <trkpt lat="45.08352" lon="5.5204">
        <ele>1049.8</ele>
        <time>2016-06-03T07:31:58Z</time>
      </trkpt>
      <trkpt lat="45.08361" lon="5.52041">
        <ele>1048.9</ele>
        <time>2016-06-03T07:31:59Z</time>
      </trkpt>
      <trkpt lat="45.08369" lon="5.52042">
        <ele>1047.93</ele>
        <time>2016-06-03T07:32:00Z</time>
      </trkpt>
      <trkpt lat="45.08377" lon="5.52045">
        <ele>1046.94</ele>
        <time>2016-06-03T07:32:01Z</time>
      </trkpt>
      <trkpt lat="45.084" lon="5.52056">
        <ele>1043.88</ele>
        <time>2016-06-03T07:32:04Z</time>
      </trkpt>
      <trkpt lat="45.08407" lon="5.52061">
        <ele>1042.82</ele>
        <time>2016-06-03T07:32:05Z</time>
      </trkpt>
      <trkpt lat="45.08413" lon="5.52066">
        <ele>1041.74</ele>
        <time>2016-06-03T07:32:06Z</time>
      </trkpt>
      <trkpt lat="45.08424" lon="5.52077">
        <ele>1039.67</ele>
        <time>2016-06-03T07:32:08Z</time>
      </trkpt>
      <trkpt lat="45.0843" lon="5.5208">
        <ele>1038.67</ele>
        <time>2016-06-03T07:32:09Z</time>
      </trkpt>
      <trkpt lat="45.08436" lon="5.52081">
        <ele>1037.63</ele>
        <time>2016-06-03T07:32:10Z</time>
      </trkpt>
      <trkpt lat="45.08442" lon="5.5208">
        <ele>1036.61</ele>
        <time>2016-06-03T07:32:11Z</time>
      </trkpt>
      <trkpt lat="45.08448" lon="5.52079">
        <ele>1035.62</ele>
        <time>2016-06-03T07:32:12Z</time>
      </trkpt>
      <trkpt lat="45.08453" lon="5.52076">
        <ele>1034.64</ele>
        <time>2016-06-03T07:32:13Z</time>
      </trkpt>
      <trkpt lat="45.08462" lon="5.52071">
        <ele>1032.91</ele>
        <time>2016-06-03T07:32:15Z</time>
      </trkpt>
      <trkpt lat="45.08473" lon="5.52071">
        <ele>1029.35</ele>
        <time>2016-06-03T07:32:19Z</time>
      </trkpt>
      <trkpt lat="45.08474" lon="5.52073">
        <ele>1028.78</ele>
        <time>2016-06-03T07:32:20Z</time>
      </trkpt>
      <trkpt lat="45.08473" lon="5.52073">
        <ele>1026.52</ele>
        <time>2016-06-03T07:32:27Z</time>
      </trkpt>
      <trkpt lat="45.08472" lon="5.52071">
        <ele>1025.83</ele>
        <time>2016-06-03T07:32:41Z</time>
      </trkpt>
      <trkpt lat="45.08475" lon="5.52068">
        <ele>1025.79</ele>
        <time>2016-06-03T07:33:03Z</time>
      </trkpt>
      <trkpt lat="45.08473" lon="5.52068">
        <ele>1025.75</ele>
        <time>2016-06-03T07:33:05Z</time>
      </trkpt>
      <trkpt lat="45.08472" lon="5.52067">
        <ele>1024.68</ele>
        <time>2016-06-03T07:33:22Z</time>
      </trkpt>
      <trkpt lat="45.08473" lon="5.52068">
        <ele>1024.63</ele>
        <time>2016-06-03T07:34:05Z</time>
      </trkpt>
      <trkpt lat="45.08477" lon="5.52066">
        <ele>1024.66</ele>
        <time>2016-06-03T07:34:36Z</time>
      </trkpt>
      <trkpt lat="45.08473" lon="5.52069">
        <ele>1025.04</ele>
        <time>2016-06-03T07:35:10Z</time>
      </trkpt>
      <trkpt lat="45.08472" lon="5.52069">
        <ele>1024.65</ele>
        <time>2016-06-03T07:35:55Z</time>
      </trkpt>
      <trkpt lat="45.08475" lon="5.52069">
        <ele>1025.66</ele>
        <time>2016-06-03T07:36:35Z</time>
      </trkpt>
      <trkpt lat="45.08475" lon="5.52071">
        <ele>1025.56</ele>
        <time>2016-06-03T07:36:56Z</time>
      </trkpt>
      <trkpt lat="45.08481" lon="5.52066">
        <ele>1025.66</ele>
        <time>2016-06-03T07:37:12Z</time>
      </trkpt>
      <trkpt lat="45.08481" lon="5.52061">
        <ele>1025.64</ele>
        <time>2016-06-03T07:37:19Z</time>
      </trkpt>
      <trkpt lat="45.08481" lon="5.5206">
        <ele>1025.7</ele>
        <time>2016-06-03T07:37:20Z</time>
      </trkpt>
      <trkpt lat="45.0848" lon="5.52058">
        <ele>1025.75</ele>
        <time>2016-06-03T07:37:21Z</time>
      </trkpt>
      <trkpt lat="45.08477" lon="5.52054">
        <ele>1026.19</ele>
        <time>2016-06-03T07:37:28Z</time>
      </trkpt>
      <trkpt lat="45.08476" lon="5.52055">
        <ele>1026.24</ele>
        <time>2016-06-03T07:37:29Z</time>
      </trkpt>
      <trkpt lat="45.08475" lon="5.52058">
        <ele>1026.28</ele>
        <time>2016-06-03T07:37:30Z</time>
      </trkpt>
      <trkpt lat="45.08474" lon="5.52061">
        <ele>1026.32</ele>
        <time>2016-06-03T07:37:31Z</time>
      </trkpt>
      <trkpt lat="45.08475" lon="5.52064">
        <ele>1026.32</ele>
        <time>2016-06-03T07:37:32Z</time>
      </trkpt>
      <trkpt lat="45.08476" lon="5.52066">
        <ele>1026.27</ele>
        <time>2016-06-03T07:37:33Z</time>
      </trkpt>
      <trkpt lat="45.08478" lon="5.52066">
        <ele>1026.2</ele>
        <time>2016-06-03T07:37:34Z</time>
      </trkpt>
      <trkpt lat="45.0848" lon="5.52063">
        <ele>1026.15</ele>
        <time>2016-06-03T07:37:35Z</time>
      </trkpt>
      <trkpt lat="45.0848" lon="5.5206">
        <ele>1026.09</ele>
        <time>2016-06-03T07:37:36Z</time>
      </trkpt>
      <trkpt lat="45.08479" lon="5.52057">
        <ele>1026.02</ele>
        <time>2016-06-03T07:37:37Z</time>
      </trkpt>
      <trkpt lat="45.08479" lon="5.52055">
        <ele>1026</ele>
        <time>2016-06-03T07:37:38Z</time>
      </trkpt>
      <trkpt lat="45.08478" lon="5.52053">
        <ele>1026.03</ele>
        <time>2016-06-03T07:37:39Z</time>
      </trkpt>
      <trkpt lat="45.08477" lon="5.52051">
        <ele>1026.1</ele>
        <time>2016-06-03T07:37:40Z</time>
      </trkpt>
      <trkpt lat="45.08477" lon="5.52048">
        <ele>1026.19</ele>
        <time>2016-06-03T07:37:41Z</time>
      </trkpt>
      <trkpt lat="45.08476" lon="5.52046">
        <ele>1026.3</ele>
        <time>2016-06-03T07:37:42Z</time>
      </trkpt>
      <trkpt lat="45.08476" lon="5.52044">
        <ele>1026.39</ele>
        <time>2016-06-03T07:37:43Z</time>
      </trkpt>
      <trkpt lat="45.08475" lon="5.52042">
        <ele>1026.5</ele>
        <time>2016-06-03T07:37:44Z</time>
      </trkpt>
      <trkpt lat="45.08474" lon="5.5204">
        <ele>1026.65</ele>
        <time>2016-06-03T07:37:45Z</time>
      </trkpt>
      <trkpt lat="45.08457" lon="5.52013">
        <ele>1029.78</ele>
        <time>2016-06-03T07:38:02Z</time>
      </trkpt>
      <trkpt lat="45.08456" lon="5.52012">
        <ele>1029.92</ele>
        <time>2016-06-03T07:38:03Z</time>
      </trkpt>
      <trkpt lat="45.08454" lon="5.52011">
        <ele>1030.08</ele>
        <time>2016-06-03T07:38:04Z</time>
      </trkpt>
      <trkpt lat="45.08452" lon="5.52011">
        <ele>1030.28</ele>
        <time>2016-06-03T07:38:05Z</time>
      </trkpt>
      <trkpt lat="45.08446" lon="5.52008">
        <ele>1031.28</ele>
        <time>2016-06-03T07:38:10Z</time>
      </trkpt>
      <trkpt lat="45.08435" lon="5.52007">
        <ele>1032.22</ele>
        <time>2016-06-03T07:38:18Z</time>
      </trkpt>
      <trkpt lat="45.08434" lon="5.52006">
        <ele>1032.37</ele>
        <time>2016-06-03T07:38:19Z</time>
      </trkpt>
      <trkpt lat="45.08433" lon="5.52006">
        <ele>1032.52</ele>
        <time>2016-06-03T07:38:20Z</time>
      </trkpt>
      <trkpt lat="45.08431" lon="5.52007">
        <ele>1032.66</ele>
        <time>2016-06-03T07:38:21Z</time>
      </trkpt>
      <trkpt lat="45.0843" lon="5.52007">
        <ele>1032.81</ele>
        <time>2016-06-03T07:38:22Z</time>
      </trkpt>
      <trkpt lat="45.08429" lon="5.52006">
        <ele>1032.96</ele>
        <time>2016-06-03T07:38:23Z</time>
      </trkpt>
      <trkpt lat="45.08428" lon="5.52007">
        <ele>1033.11</ele>
        <time>2016-06-03T07:38:24Z</time>
      </trkpt>
      <trkpt lat="45.0842" lon="5.52007">
        <ele>1034.13</ele>
        <time>2016-06-03T07:38:29Z</time>
      </trkpt>
      <trkpt lat="45.08418" lon="5.52007">
        <ele>1034.33</ele>
        <time>2016-06-03T07:38:30Z</time>
      </trkpt>
      <trkpt lat="45.08417" lon="5.52007">
        <ele>1034.52</ele>
        <time>2016-06-03T07:38:31Z</time>
      </trkpt>
      <trkpt lat="45.08415" lon="5.52007">
        <ele>1034.68</ele>
        <time>2016-06-03T07:38:32Z</time>
      </trkpt>
      <trkpt lat="45.08414" lon="5.52006">
        <ele>1034.84</ele>
        <time>2016-06-03T07:38:33Z</time>
      </trkpt>
      <trkpt lat="45.08394" lon="5.52">
        <ele>1037.14</ele>
        <time>2016-06-03T07:38:50Z</time>
      </trkpt>
      <trkpt lat="45.08393" lon="5.52">
        <ele>1037.14</ele>
        <time>2016-06-03T07:38:51Z</time>
      </trkpt>
      <trkpt lat="45.08391" lon="5.51997">
        <ele>1037.75</ele>
        <time>2016-06-03T07:38:54Z</time>
      </trkpt>
      <trkpt lat="45.0839" lon="5.51997">
        <ele>1037.88</ele>
        <time>2016-06-03T07:38:55Z</time>
      </trkpt>
      <trkpt lat="45.08389" lon="5.51995">
        <ele>1038</ele>
        <time>2016-06-03T07:38:56Z</time>
      </trkpt>
      <trkpt lat="45.08388" lon="5.51994">
        <ele>1038.13</ele>
        <time>2016-06-03T07:38:57Z</time>
      </trkpt>
      <trkpt lat="45.08386" lon="5.51993">
        <ele>1038.28</ele>
        <time>2016-06-03T07:38:58Z</time>
      </trkpt>
      <trkpt lat="45.08385" lon="5.51993">
        <ele>1038.45</ele>
        <time>2016-06-03T07:38:59Z</time>
      </trkpt>
      <trkpt lat="45.08384" lon="5.51992">
        <ele>1038.64</ele>
        <time>2016-06-03T07:39:00Z</time>
      </trkpt>
      <trkpt lat="45.08373" lon="5.51983">
        <ele>1040.26</ele>
        <time>2016-06-03T07:39:12Z</time>
      </trkpt>
      <trkpt lat="45.08372" lon="5.51982">
        <ele>1040.35</ele>
        <time>2016-06-03T07:39:13Z</time>
      </trkpt>
      <trkpt lat="45.0837" lon="5.51981">
        <ele>1040.68</ele>
        <time>2016-06-03T07:39:14Z</time>
      </trkpt>
      <trkpt lat="45.08369" lon="5.51981">
        <ele>1040.68</ele>
        <time>2016-06-03T07:39:15Z</time>
      </trkpt>
      <trkpt lat="45.08367" lon="5.5198">
        <ele>1041.03</ele>
        <time>2016-06-03T07:39:16Z</time>
      </trkpt>
      <trkpt lat="45.08348" lon="5.51976">
        <ele>1042.86</ele>
        <time>2016-06-03T07:39:28Z</time>
      </trkpt>
      <trkpt lat="45.08331" lon="5.51973">
        <ele>1045.39</ele>
        <time>2016-06-03T07:39:42Z</time>
      </trkpt>
      <trkpt lat="45.08329" lon="5.51972">
        <ele>1045.78</ele>
        <time>2016-06-03T07:39:44Z</time>
      </trkpt>
      <trkpt lat="45.08328" lon="5.51972">
        <ele>1045.98</ele>
        <time>2016-06-03T07:39:45Z</time>
      </trkpt>
      <trkpt lat="45.08326" lon="5.51972">
        <ele>1046.17</ele>
        <time>2016-06-03T07:39:46Z</time>
      </trkpt>
      <trkpt lat="45.08325" lon="5.51972">
        <ele>1046.34</ele>
        <time>2016-06-03T07:39:47Z</time>
      </trkpt>
      <trkpt lat="45.08319" lon="5.51973">
        <ele>1047.26</ele>
        <time>2016-06-03T07:39:53Z</time>
      </trkpt>
      <trkpt lat="45.08311" lon="5.51973">
        <ele>1048.56</ele>
        <time>2016-06-03T07:40:02Z</time>
      </trkpt>
      <trkpt lat="45.08308" lon="5.51973">
        <ele>1048.85</ele>
        <time>2016-06-03T07:40:04Z</time>
      </trkpt>
      <trkpt lat="45.08296" lon="5.5197">
        <ele>1050.19</ele>
        <time>2016-06-03T07:40:12Z</time>
      </trkpt>
      <trkpt lat="45.0827" lon="5.51979">
        <ele>1053.34</ele>
        <time>2016-06-03T07:40:29Z</time>
      </trkpt>
      <trkpt lat="45.08248" lon="5.51987">
        <ele>1056.01</ele>
        <time>2016-06-03T07:40:41Z</time>
      </trkpt>
      <trkpt lat="45.08221" lon="5.51998">
        <ele>1058.35</ele>
        <time>2016-06-03T07:40:54Z</time>
      </trkpt>
      <trkpt lat="45.0819" lon="5.52008">
        <ele>1060.3</ele>
        <time>2016-06-03T07:41:07Z</time>
      </trkpt>
      <trkpt lat="45.08165" lon="5.52024">
        <ele>1063.25</ele>
        <time>2016-06-03T07:41:24Z</time>
      </trkpt>
      <trkpt lat="45.08143" lon="5.52028">
        <ele>1065.79</ele>
        <time>2016-06-03T07:41:39Z</time>
      </trkpt>
      <trkpt lat="45.0812" lon="5.52026">
        <ele>1068.8</ele>
        <time>2016-06-03T07:41:55Z</time>
      </trkpt>
      <trkpt lat="45.08094" lon="5.52021">
        <ele>1071.82</ele>
        <time>2016-06-03T07:42:12Z</time>
      </trkpt>
      <trkpt lat="45.08076" lon="5.52011">
        <ele>1074.04</ele>
        <time>2016-06-03T07:42:25Z</time>
      </trkpt>
      <trkpt lat="45.08076" lon="5.52008">
        <ele>1074.25</ele>
        <time>2016-06-03T07:42:26Z</time>
      </trkpt>
      <trkpt lat="45.08077" lon="5.52006">
        <ele>1074.42</ele>
        <time>2016-06-03T07:42:27Z</time>
      </trkpt>
      <trkpt lat="45.08078" lon="5.52004">
        <ele>1074.59</ele>
        <time>2016-06-03T07:42:28Z</time>
      </trkpt>
      <trkpt lat="45.08079" lon="5.52002">
        <ele>1074.76</ele>
        <time>2016-06-03T07:42:29Z</time>
      </trkpt>
      <trkpt lat="45.08079" lon="5.51999">
        <ele>1074.91</ele>
        <time>2016-06-03T07:42:30Z</time>
      </trkpt>
      <trkpt lat="45.08099" lon="5.51971">
        <ele>1077.78</ele>
        <time>2016-06-03T07:42:47Z</time>
      </trkpt>
      <trkpt lat="45.08132" lon="5.51938">
        <ele>1080.8</ele>
        <time>2016-06-03T07:43:10Z</time>
      </trkpt>
      <trkpt lat="45.08158" lon="5.51913">
        <ele>1082.5</ele>
        <time>2016-06-03T07:43:26Z</time>
      </trkpt>
      <trkpt lat="45.08186" lon="5.51886">
        <ele>1084.38</ele>
        <time>2016-06-03T07:43:44Z</time>
      </trkpt>
      <trkpt lat="45.08208" lon="5.51894">
        <ele>1085.19</ele>
        <time>2016-06-03T07:43:57Z</time>
      </trkpt>
      <trkpt lat="45.08221" lon="5.51898">
        <ele>1085.85</ele>
        <time>2016-06-03T07:44:04Z</time>
      </trkpt>
      <trkpt lat="45.08243" lon="5.51897">
        <ele>1086.5</ele>
        <time>2016-06-03T07:44:16Z</time>
      </trkpt>
      <trkpt lat="45.08247" lon="5.51896">
        <ele>1086.59</ele>
        <time>2016-06-03T07:44:18Z</time>
      </trkpt>
      <trkpt lat="45.08249" lon="5.51895">
        <ele>1086.65</ele>
        <time>2016-06-03T07:44:19Z</time>
      </trkpt>
      <trkpt lat="45.0825" lon="5.51895">
        <ele>1086.69</ele>
        <time>2016-06-03T07:44:20Z</time>
      </trkpt>
      <trkpt lat="45.08253" lon="5.51894">
        <ele>1086.73</ele>
        <time>2016-06-03T07:44:21Z</time>
      </trkpt>
      <trkpt lat="45.08255" lon="5.51895">
        <ele>1086.76</ele>
        <time>2016-06-03T07:44:22Z</time>
      </trkpt>
      <trkpt lat="45.08256" lon="5.51895">
        <ele>1086.79</ele>
        <time>2016-06-03T07:44:23Z</time>
      </trkpt>
      <trkpt lat="45.08294" lon="5.51895">
        <ele>1087.31</ele>
        <time>2016-06-03T07:44:36Z</time>
      </trkpt>
      <trkpt lat="45.08334" lon="5.51892">
        <ele>1088.43</ele>
        <time>2016-06-03T07:44:52Z</time>
      </trkpt>
      <trkpt lat="45.08371" lon="5.51884">
        <ele>1089.78</ele>
        <time>2016-06-03T07:45:09Z</time>
      </trkpt>
      <trkpt lat="45.08412" lon="5.51867">
        <ele>1092.16</ele>
        <time>2016-06-03T07:45:29Z</time>
      </trkpt>
      <trkpt lat="45.0845" lon="5.51843">
        <ele>1093.63</ele>
        <time>2016-06-03T07:45:48Z</time>
      </trkpt>
      <trkpt lat="45.08488" lon="5.51851">
        <ele>1095.18</ele>
        <time>2016-06-03T07:46:05Z</time>
      </trkpt>
      <trkpt lat="45.0852" lon="5.51819">
        <ele>1095.72</ele>
        <time>2016-06-03T07:46:20Z</time>
      </trkpt>
      <trkpt lat="45.08548" lon="5.51791">
        <ele>1096.45</ele>
        <time>2016-06-03T07:46:33Z</time>
      </trkpt>
      <trkpt lat="45.0856" lon="5.51816">
        <ele>1096.6</ele>
        <time>2016-06-03T07:46:43Z</time>
      </trkpt>
      <trkpt lat="45.08555" lon="5.51866">
        <ele>1097.02</ele>
        <time>2016-06-03T07:46:57Z</time>
      </trkpt>
      <trkpt lat="45.08557" lon="5.5187">
        <ele>1097.05</ele>
        <time>2016-06-03T07:46:58Z</time>
      </trkpt>
      <trkpt lat="45.08558" lon="5.51873">
        <ele>1097.09</ele>
        <time>2016-06-03T07:46:59Z</time>
      </trkpt>
      <trkpt lat="45.0856" lon="5.51877">
        <ele>1097.14</ele>
        <time>2016-06-03T07:47:00Z</time>
      </trkpt>
      <trkpt lat="45.08563" lon="5.51879">
        <ele>1097.17</ele>
        <time>2016-06-03T07:47:01Z</time>
      </trkpt>
      <trkpt lat="45.08565" lon="5.51881">
        <ele>1097.23</ele>
        <time>2016-06-03T07:47:02Z</time>
      </trkpt>
      <trkpt lat="45.08568" lon="5.51883">
        <ele>1097.23</ele>
        <time>2016-06-03T07:47:03Z</time>
      </trkpt>
      <trkpt lat="45.0857" lon="5.51884">
        <ele>1097.29</ele>
        <time>2016-06-03T07:47:04Z</time>
      </trkpt>
      <trkpt lat="45.0861" lon="5.51896">
        <ele>1097.5</ele>
        <time>2016-06-03T07:47:20Z</time>
      </trkpt>
      <trkpt lat="45.08639" lon="5.51873">
        <ele>1098.07</ele>
        <time>2016-06-03T07:47:33Z</time>
      </trkpt>
      <trkpt lat="45.08661" lon="5.51847">
        <ele>1098.46</ele>
        <time>2016-06-03T07:47:44Z</time>
      </trkpt>
      <trkpt lat="45.08674" lon="5.51801">
        <ele>1098.72</ele>
        <time>2016-06-03T07:47:56Z</time>
      </trkpt>
      <trkpt lat="45.08698" lon="5.51774">
        <ele>1098.79</ele>
        <time>2016-06-03T07:48:08Z</time>
      </trkpt>
      <trkpt lat="45.08726" lon="5.51746">
        <ele>1099.33</ele>
        <time>2016-06-03T07:48:21Z</time>
      </trkpt>
      <trkpt lat="45.08729" lon="5.51744">
        <ele>1099.49</ele>
        <time>2016-06-03T07:48:23Z</time>
      </trkpt>
      <trkpt lat="45.08731" lon="5.51744">
        <ele>1099.57</ele>
        <time>2016-06-03T07:48:24Z</time>
      </trkpt>
      <trkpt lat="45.08734" lon="5.51745">
        <ele>1099.65</ele>
        <time>2016-06-03T07:48:25Z</time>
      </trkpt>
      <trkpt lat="45.08737" lon="5.51746">
        <ele>1099.7</ele>
        <time>2016-06-03T07:48:26Z</time>
      </trkpt>
      <trkpt lat="45.08739" lon="5.51748">
        <ele>1099.76</ele>
        <time>2016-06-03T07:48:27Z</time>
      </trkpt>
      <trkpt lat="45.0874" lon="5.5175">
        <ele>1099.79</ele>
        <time>2016-06-03T07:48:28Z</time>
      </trkpt>
      <trkpt lat="45.08741" lon="5.51758">
        <ele>1099.89</ele>
        <time>2016-06-03T07:48:31Z</time>
      </trkpt>
      <trkpt lat="45.08741" lon="5.5176">
        <ele>1099.92</ele>
        <time>2016-06-03T07:48:32Z</time>
      </trkpt>
      <trkpt lat="45.08742" lon="5.51762">
        <ele>1099.96</ele>
        <time>2016-06-03T07:48:33Z</time>
      </trkpt>
      <trkpt lat="45.08741" lon="5.51764">
        <ele>1100.02</ele>
        <time>2016-06-03T07:48:34Z</time>
      </trkpt>
      <trkpt lat="45.08741" lon="5.51767">
        <ele>1100.1</ele>
        <time>2016-06-03T07:48:35Z</time>
      </trkpt>
      <trkpt lat="45.08741" lon="5.51769">
        <ele>1100.22</ele>
        <time>2016-06-03T07:48:36Z</time>
      </trkpt>
      <trkpt lat="45.08741" lon="5.51772">
        <ele>1100.35</ele>
        <time>2016-06-03T07:48:37Z</time>
      </trkpt>
      <trkpt lat="45.08741" lon="5.51776">
        <ele>1100.48</ele>
        <time>2016-06-03T07:48:38Z</time>
      </trkpt>
      <trkpt lat="45.08741" lon="5.51779">
        <ele>1100.61</ele>
        <time>2016-06-03T07:48:39Z</time>
      </trkpt>
      <trkpt lat="45.08743" lon="5.51782">
        <ele>1100.76</ele>
        <time>2016-06-03T07:48:40Z</time>
      </trkpt>
      <trkpt lat="45.08744" lon="5.51785">
        <ele>1100.93</ele>
        <time>2016-06-03T07:48:41Z</time>
      </trkpt>
      <trkpt lat="45.08746" lon="5.51788">
        <ele>1101.11</ele>
        <time>2016-06-03T07:48:42Z</time>
      </trkpt>
      <trkpt lat="45.08748" lon="5.5179">
        <ele>1101.3</ele>
        <time>2016-06-03T07:48:43Z</time>
      </trkpt>
      <trkpt lat="45.08776" lon="5.51803">
        <ele>1103.37</ele>
        <time>2016-06-03T07:48:56Z</time>
      </trkpt>
      <trkpt lat="45.08804" lon="5.51812">
        <ele>1105.71</ele>
        <time>2016-06-03T07:49:11Z</time>
      </trkpt>
      <trkpt lat="45.08839" lon="5.5181">
        <ele>1108.54</ele>
        <time>2016-06-03T07:49:28Z</time>
      </trkpt>
      <trkpt lat="45.08865" lon="5.51764">
        <ele>1110.78</ele>
        <time>2016-06-03T07:49:46Z</time>
      </trkpt>
      <trkpt lat="45.08889" lon="5.5173">
        <ele>1112.52</ele>
        <time>2016-06-03T07:50:02Z</time>
      </trkpt>
      <trkpt lat="45.08899" lon="5.51696">
        <ele>1114.15</ele>
        <time>2016-06-03T07:50:15Z</time>
      </trkpt>
      <trkpt lat="45.08903" lon="5.51688">
        <ele>1114.74</ele>
        <time>2016-06-03T07:50:19Z</time>
      </trkpt>
      <trkpt lat="45.08904" lon="5.51687">
        <ele>1114.89</ele>
        <time>2016-06-03T07:50:20Z</time>
      </trkpt>
      <trkpt lat="45.08906" lon="5.51686">
        <ele>1115.02</ele>
        <time>2016-06-03T07:50:21Z</time>
      </trkpt>
      <trkpt lat="45.08908" lon="5.51685">
        <ele>1115.15</ele>
        <time>2016-06-03T07:50:22Z</time>
      </trkpt>
      <trkpt lat="45.0891" lon="5.51685">
        <ele>1115.28</ele>
        <time>2016-06-03T07:50:23Z</time>
      </trkpt>
      <trkpt lat="45.08912" lon="5.51686">
        <ele>1115.42</ele>
        <time>2016-06-03T07:50:24Z</time>
      </trkpt>
      <trkpt lat="45.08914" lon="5.51687">
        <ele>1115.56</ele>
        <time>2016-06-03T07:50:25Z</time>
      </trkpt>
      <trkpt lat="45.08915" lon="5.51687">
        <ele>1115.69</ele>
        <time>2016-06-03T07:50:26Z</time>
      </trkpt>
      <trkpt lat="45.08916" lon="5.51689">
        <ele>1115.82</ele>
        <time>2016-06-03T07:50:27Z</time>
      </trkpt>
      <trkpt lat="45.08918" lon="5.5169">
        <ele>1115.97</ele>
        <time>2016-06-03T07:50:28Z</time>
      </trkpt>
      <trkpt lat="45.08919" lon="5.51692">
        <ele>1116.13</ele>
        <time>2016-06-03T07:50:29Z</time>
      </trkpt>
      <trkpt lat="45.0892" lon="5.51694">
        <ele>1116.27</ele>
        <time>2016-06-03T07:50:30Z</time>
      </trkpt>
      <trkpt lat="45.08921" lon="5.51696">
        <ele>1116.39</ele>
        <time>2016-06-03T07:50:31Z</time>
      </trkpt>
      <trkpt lat="45.08922" lon="5.51698">
        <ele>1116.63</ele>
        <time>2016-06-03T07:50:32Z</time>
      </trkpt>
      <trkpt lat="45.08922" lon="5.51701">
        <ele>1116.74</ele>
        <time>2016-06-03T07:50:33Z</time>
      </trkpt>
      <trkpt lat="45.08925" lon="5.51741">
        <ele>1118.67</ele>
        <time>2016-06-03T07:50:47Z</time>
      </trkpt>
      <trkpt lat="45.08947" lon="5.51772">
        <ele>1121.13</ele>
        <time>2016-06-03T07:51:03Z</time>
      </trkpt>
      <trkpt lat="45.08981" lon="5.51781">
        <ele>1123.83</ele>
        <time>2016-06-03T07:51:21Z</time>
      </trkpt>
      <trkpt lat="45.09015" lon="5.51792">
        <ele>1126.86</ele>
        <time>2016-06-03T07:51:39Z</time>
      </trkpt>
      <trkpt lat="45.09039" lon="5.51797">
        <ele>1129.46</ele>
        <time>2016-06-03T07:51:53Z</time>
      </trkpt>
      <trkpt lat="45.09071" lon="5.51819">
        <ele>1131.54</ele>
        <time>2016-06-03T07:52:11Z</time>
      </trkpt>
      <trkpt lat="45.09099" lon="5.51844">
        <ele>1132.41</ele>
        <time>2016-06-03T07:52:28Z</time>
      </trkpt>
      <trkpt lat="45.09117" lon="5.51879">
        <ele>1134.48</ele>
        <time>2016-06-03T07:52:45Z</time>
      </trkpt>
      <trkpt lat="45.09124" lon="5.51902">
        <ele>1135.82</ele>
        <time>2016-06-03T07:53:01Z</time>
      </trkpt>
      <trkpt lat="45.0913" lon="5.51908">
        <ele>1136.66</ele>
        <time>2016-06-03T07:53:07Z</time>
      </trkpt>
      <trkpt lat="45.09131" lon="5.51909">
        <ele>1136.86</ele>
        <time>2016-06-03T07:53:08Z</time>
      </trkpt>
      <trkpt lat="45.09132" lon="5.51911">
        <ele>1137.05</ele>
        <time>2016-06-03T07:53:09Z</time>
      </trkpt>
      <trkpt lat="45.09143" lon="5.51928">
        <ele>1139.06</ele>
        <time>2016-06-03T07:53:24Z</time>
      </trkpt>
      <trkpt lat="45.09151" lon="5.51939">
        <ele>1140.96</ele>
        <time>2016-06-03T07:53:35Z</time>
      </trkpt>
      <trkpt lat="45.09153" lon="5.51941">
        <ele>1141.32</ele>
        <time>2016-06-03T07:53:37Z</time>
      </trkpt>
      <trkpt lat="45.09154" lon="5.51942">
        <ele>1141.48</ele>
        <time>2016-06-03T07:53:38Z</time>
      </trkpt>
      <trkpt lat="45.09155" lon="5.51944">
        <ele>1141.65</ele>
        <time>2016-06-03T07:53:39Z</time>
      </trkpt>
      <trkpt lat="45.09166" lon="5.51973">
        <ele>1144.72</ele>
        <time>2016-06-03T07:53:56Z</time>
      </trkpt>
      <trkpt lat="45.09165" lon="5.51983">
        <ele>1145.81</ele>
        <time>2016-06-03T07:54:01Z</time>
      </trkpt>
      <trkpt lat="45.09165" lon="5.51986">
        <ele>1146.01</ele>
        <time>2016-06-03T07:54:02Z</time>
      </trkpt>
      <trkpt lat="45.09166" lon="5.52004">
        <ele>1147.69</ele>
        <time>2016-06-03T07:54:11Z</time>
      </trkpt>
      <trkpt lat="45.09167" lon="5.52006">
        <ele>1147.88</ele>
        <time>2016-06-03T07:54:12Z</time>
      </trkpt>
      <trkpt lat="45.09167" lon="5.52011">
        <ele>1148.88</ele>
        <time>2016-06-03T07:54:15Z</time>
      </trkpt>
      <trkpt lat="45.09168" lon="5.52026">
        <ele>1151.61</ele>
        <time>2016-06-03T07:54:27Z</time>
      </trkpt>
      <trkpt lat="45.09169" lon="5.52032">
        <ele>1152.33</ele>
        <time>2016-06-03T07:54:55Z</time>
      </trkpt>
      <trkpt lat="45.09178" lon="5.52038">
        <ele>1154.52</ele>
        <time>2016-06-03T07:55:14Z</time>
      </trkpt>
      <trkpt lat="45.09187" lon="5.5204">
        <ele>1157.36</ele>
        <time>2016-06-03T07:55:31Z</time>
      </trkpt>
      <trkpt lat="45.09198" lon="5.52047">
        <ele>1160.51</ele>
        <time>2016-06-03T07:55:49Z</time>
      </trkpt>
      <trkpt lat="45.09211" lon="5.52056">
        <ele>1163.62</ele>
        <time>2016-06-03T07:56:07Z</time>
      </trkpt>
      <trkpt lat="45.09226" lon="5.52068">
        <ele>1166.35</ele>
        <time>2016-06-03T07:56:28Z</time>
      </trkpt>
      <trkpt lat="45.09239" lon="5.52076">
        <ele>1169.35</ele>
        <time>2016-06-03T07:56:46Z</time>
      </trkpt>
      <trkpt lat="45.09251" lon="5.52084">
        <ele>1171.69</ele>
        <time>2016-06-03T07:57:02Z</time>
      </trkpt>
      <trkpt lat="45.09264" lon="5.52093">
        <ele>1174.77</ele>
        <time>2016-06-03T07:57:21Z</time>
      </trkpt>
      <trkpt lat="45.09275" lon="5.52103">
        <ele>1177.79</ele>
        <time>2016-06-03T07:57:39Z</time>
      </trkpt>
      <trkpt lat="45.09285" lon="5.52111">
        <ele>1180.16</ele>
        <time>2016-06-03T07:57:56Z</time>
      </trkpt>
      <trkpt lat="45.09294" lon="5.52117">
        <ele>1183.22</ele>
        <time>2016-06-03T07:58:13Z</time>
      </trkpt>
      <trkpt lat="45.09303" lon="5.52117">
        <ele>1186.27</ele>
        <time>2016-06-03T07:58:33Z</time>
      </trkpt>
      <trkpt lat="45.09304" lon="5.52107">
        <ele>1188.09</ele>
        <time>2016-06-03T07:58:46Z</time>
      </trkpt>
      <trkpt lat="45.09302" lon="5.52089">
        <ele>1191.21</ele>
        <time>2016-06-03T07:59:06Z</time>
      </trkpt>
      <trkpt lat="45.093" lon="5.52075">
        <ele>1193.66</ele>
        <time>2016-06-03T07:59:23Z</time>
      </trkpt>
      <trkpt lat="45.09301" lon="5.5206">
        <ele>1196.79</ele>
        <time>2016-06-03T07:59:42Z</time>
      </trkpt>
      <trkpt lat="45.09302" lon="5.52049">
        <ele>1199.88</ele>
        <time>2016-06-03T08:00:00Z</time>
      </trkpt>
      <trkpt lat="45.09303" lon="5.5204">
        <ele>1201.69</ele>
        <time>2016-06-03T08:00:18Z</time>
      </trkpt>
      <trkpt lat="45.09306" lon="5.52029">
        <ele>1204.37</ele>
        <time>2016-06-03T08:00:38Z</time>
      </trkpt>
      <trkpt lat="45.09307" lon="5.52012">
        <ele>1207.41</ele>
        <time>2016-06-03T08:00:59Z</time>
      </trkpt>
      <trkpt lat="45.09307" lon="5.51995">
        <ele>1210.42</ele>
        <time>2016-06-03T08:01:18Z</time>
      </trkpt>
      <trkpt lat="45.09308" lon="5.51984">
        <ele>1213.02</ele>
        <time>2016-06-03T08:01:33Z</time>
      </trkpt>
      <trkpt lat="45.09309" lon="5.51968">
        <ele>1216.05</ele>
        <time>2016-06-03T08:01:52Z</time>
      </trkpt>
      <trkpt lat="45.09308" lon="5.51962">
        <ele>1218.26</ele>
        <time>2016-06-03T08:02:14Z</time>
      </trkpt>
      <trkpt lat="45.0931" lon="5.51945">
        <ele>1221.33</ele>
        <time>2016-06-03T08:02:35Z</time>
      </trkpt>
      <trkpt lat="45.09312" lon="5.51931">
        <ele>1224.28</ele>
        <time>2016-06-03T08:02:53Z</time>
      </trkpt>
      <trkpt lat="45.09314" lon="5.5192">
        <ele>1227.39</ele>
        <time>2016-06-03T08:03:08Z</time>
      </trkpt>
      <trkpt lat="45.09316" lon="5.51906">
        <ele>1230.46</ele>
        <time>2016-06-03T08:03:25Z</time>
      </trkpt>
      <trkpt lat="45.09317" lon="5.51895">
        <ele>1233.48</ele>
        <time>2016-06-03T08:03:41Z</time>
      </trkpt>
      <trkpt lat="45.0932" lon="5.51886">
        <ele>1235.98</ele>
        <time>2016-06-03T08:04:02Z</time>
      </trkpt>
      <trkpt lat="45.09321" lon="5.51869">
        <ele>1239.03</ele>
        <time>2016-06-03T08:04:21Z</time>
      </trkpt>
      <trkpt lat="45.09323" lon="5.51852">
        <ele>1241.49</ele>
        <time>2016-06-03T08:04:38Z</time>
      </trkpt>
      <trkpt lat="45.09325" lon="5.51834">
        <ele>1244.34</ele>
        <time>2016-06-03T08:04:57Z</time>
      </trkpt>
      <trkpt lat="45.09331" lon="5.51815">
        <ele>1247.35</ele>
        <time>2016-06-03T08:05:19Z</time>
      </trkpt>
      <trkpt lat="45.09336" lon="5.51801">
        <ele>1250.25</ele>
        <time>2016-06-03T08:05:40Z</time>
      </trkpt>
      <trkpt lat="45.0934" lon="5.51795">
        <ele>1252.93</ele>
        <time>2016-06-03T08:06:03Z</time>
      </trkpt>
      <trkpt lat="45.09345" lon="5.5179">
        <ele>1254.25</ele>
        <time>2016-06-03T08:06:22Z</time>
      </trkpt>
      <trkpt lat="45.09351" lon="5.51786">
        <ele>1256.76</ele>
        <time>2016-06-03T08:06:40Z</time>
      </trkpt>
      <trkpt lat="45.09364" lon="5.51784">
        <ele>1259.86</ele>
        <time>2016-06-03T08:07:02Z</time>
      </trkpt>
      <trkpt lat="45.09375" lon="5.51789">
        <ele>1262.9</ele>
        <time>2016-06-03T08:07:21Z</time>
      </trkpt>
      <trkpt lat="45.09383" lon="5.51798">
        <ele>1265.95</ele>
        <time>2016-06-03T08:07:40Z</time>
      </trkpt>
      <trkpt lat="45.09391" lon="5.51803">
        <ele>1268.71</ele>
        <time>2016-06-03T08:08:03Z</time>
      </trkpt>
      <trkpt lat="45.09394" lon="5.51801">
        <ele>1268.96</ele>
        <time>2016-06-03T08:08:22Z</time>
      </trkpt>
      <trkpt lat="45.09403" lon="5.5181">
        <ele>1271.14</ele>
        <time>2016-06-03T08:08:50Z</time>
      </trkpt>
      <trkpt lat="45.09415" lon="5.51806">
        <ele>1273.91</ele>
        <time>2016-06-03T08:09:11Z</time>
      </trkpt>
      <trkpt lat="45.0942" lon="5.51798">
        <ele>1276.73</ele>
        <time>2016-06-03T08:09:31Z</time>
      </trkpt>
      <trkpt lat="45.09425" lon="5.51784">
        <ele>1279.81</ele>
        <time>2016-06-03T08:09:47Z</time>
      </trkpt>
      <trkpt lat="45.0943" lon="5.51771">
        <ele>1282.85</ele>
        <time>2016-06-03T08:10:03Z</time>
      </trkpt>
      <trkpt lat="45.09432" lon="5.51765">
        <ele>1284.84</ele>
        <time>2016-06-03T08:10:25Z</time>
      </trkpt>
      <trkpt lat="45.09438" lon="5.51749">
        <ele>1287.95</ele>
        <time>2016-06-03T08:10:47Z</time>
      </trkpt>
      <trkpt lat="45.09447" lon="5.51732">
        <ele>1291.08</ele>
        <time>2016-06-03T08:11:07Z</time>
      </trkpt>
      <trkpt lat="45.0945" lon="5.51717">
        <ele>1294.18</ele>
        <time>2016-06-03T08:11:24Z</time>
      </trkpt>
      <trkpt lat="45.0945" lon="5.51711">
        <ele>1295.57</ele>
        <time>2016-06-03T08:11:39Z</time>
      </trkpt>
      <trkpt lat="45.09452" lon="5.51696">
        <ele>1298.27</ele>
        <time>2016-06-03T08:11:56Z</time>
      </trkpt>
      <trkpt lat="45.09455" lon="5.51695">
        <ele>1300.55</ele>
        <time>2016-06-03T08:12:09Z</time>
      </trkpt>
      <trkpt lat="45.09456" lon="5.51694">
        <ele>1300.77</ele>
        <time>2016-06-03T08:12:33Z</time>
      </trkpt>
      <trkpt lat="45.09457" lon="5.51692">
        <ele>1301.23</ele>
        <time>2016-06-03T08:13:09Z</time>
      </trkpt>
      <trkpt lat="45.09456" lon="5.51694">
        <ele>1301.02</ele>
        <time>2016-06-03T08:13:40Z</time>
      </trkpt>
      <trkpt lat="45.09455" lon="5.51694">
        <ele>1301.07</ele>
        <time>2016-06-03T08:13:58Z</time>
      </trkpt>
      <trkpt lat="45.09455" lon="5.51695">
        <ele>1300.95</ele>
        <time>2016-06-03T08:14:30Z</time>
      </trkpt>
      <trkpt lat="45.09455" lon="5.51698">
        <ele>1301.01</ele>
        <time>2016-06-03T08:14:57Z</time>
      </trkpt>
      <trkpt lat="45.09454" lon="5.51699">
        <ele>1300.89</ele>
        <time>2016-06-03T08:15:34Z</time>
      </trkpt>
      <trkpt lat="45.09455" lon="5.51698">
        <ele>1300.99</ele>
        <time>2016-06-03T08:15:54Z</time>
      </trkpt>
      <trkpt lat="45.09456" lon="5.51697">
        <ele>1300.99</ele>
        <time>2016-06-03T08:16:22Z</time>
      </trkpt>
      <trkpt lat="45.09455" lon="5.51698">
        <ele>1301.05</ele>
        <time>2016-06-03T08:16:42Z</time>
      </trkpt>
      <trkpt lat="45.09455" lon="5.51698">
        <ele>1300.87</ele>
        <time>2016-06-03T08:17:05Z</time>
      </trkpt>
      <trkpt lat="45.09455" lon="5.51695">
        <ele>1301.18</ele>
        <time>2016-06-03T08:17:28Z</time>
      </trkpt>
      <trkpt lat="45.09456" lon="5.51695">
        <ele>1301.03</ele>
        <time>2016-06-03T08:17:46Z</time>
      </trkpt>
      <trkpt lat="45.09459" lon="5.51698">
        <ele>1301.13</ele>
        <time>2016-06-03T08:18:03Z</time>
      </trkpt>
      <trkpt lat="45.09463" lon="5.51712">
        <ele>1299.18</ele>
        <time>2016-06-03T08:18:20Z</time>
      </trkpt>
      <trkpt lat="45.09469" lon="5.51715">
        <ele>1296.08</ele>
        <time>2016-06-03T08:18:35Z</time>
      </trkpt>
      <trkpt lat="45.09472" lon="5.51718">
        <ele>1292.93</ele>
        <time>2016-06-03T08:18:55Z</time>
      </trkpt>
      <trkpt lat="45.09479" lon="5.51719">
        <ele>1289.78</ele>
        <time>2016-06-03T08:19:14Z</time>
      </trkpt>
      <trkpt lat="45.09487" lon="5.51724">
        <ele>1286.69</ele>
        <time>2016-06-03T08:19:30Z</time>
      </trkpt>
      <trkpt lat="45.09493" lon="5.51732">
        <ele>1283.56</ele>
        <time>2016-06-03T08:19:46Z</time>
      </trkpt>
      <trkpt lat="45.09497" lon="5.51739">
        <ele>1282.51</ele>
        <time>2016-06-03T08:19:52Z</time>
      </trkpt>
      <trkpt lat="45.09501" lon="5.51748">
        <ele>1281.75</ele>
        <time>2016-06-03T08:20:07Z</time>
      </trkpt>
      <trkpt lat="45.09503" lon="5.5175">
        <ele>1281.77</ele>
        <time>2016-06-03T08:20:09Z</time>
      </trkpt>
      <trkpt lat="45.09507" lon="5.51754">
        <ele>1281.91</ele>
        <time>2016-06-03T08:20:13Z</time>
      </trkpt>
      <trkpt lat="45.09521" lon="5.51776">
        <ele>1284.02</ele>
        <time>2016-06-03T08:20:31Z</time>
      </trkpt>
      <trkpt lat="45.09538" lon="5.51789">
        <ele>1286.59</ele>
        <time>2016-06-03T08:20:46Z</time>
      </trkpt>
      <trkpt lat="45.0956" lon="5.51795">
        <ele>1288.93</ele>
        <time>2016-06-03T08:21:03Z</time>
      </trkpt>
      <trkpt lat="45.09562" lon="5.51795">
        <ele>1289.06</ele>
        <time>2016-06-03T08:21:04Z</time>
      </trkpt>
      <trkpt lat="45.09578" lon="5.518">
        <ele>1290.7</ele>
        <time>2016-06-03T08:21:17Z</time>
      </trkpt>
      <trkpt lat="45.09589" lon="5.51801">
        <ele>1292.3</ele>
        <time>2016-06-03T08:21:27Z</time>
      </trkpt>
      <trkpt lat="45.09608" lon="5.51798">
        <ele>1294.08</ele>
        <time>2016-06-03T08:21:40Z</time>
      </trkpt>
      <trkpt lat="45.09618" lon="5.51797">
        <ele>1294.94</ele>
        <time>2016-06-03T08:21:46Z</time>
      </trkpt>
      <trkpt lat="45.09627" lon="5.51792">
        <ele>1295.67</ele>
        <time>2016-06-03T08:21:52Z</time>
      </trkpt>
      <trkpt lat="45.09647" lon="5.5178">
        <ele>1297.59</ele>
        <time>2016-06-03T08:22:06Z</time>
      </trkpt>
      <trkpt lat="45.0965" lon="5.51776">
        <ele>1298.16</ele>
        <time>2016-06-03T08:22:10Z</time>
      </trkpt>
      <trkpt lat="45.09657" lon="5.51766">
        <ele>1299.1</ele>
        <time>2016-06-03T08:22:16Z</time>
      </trkpt>
      <trkpt lat="45.09661" lon="5.51759">
        <ele>1299.67</ele>
        <time>2016-06-03T08:22:20Z</time>
      </trkpt>
      <trkpt lat="45.09666" lon="5.51749">
        <ele>1300.42</ele>
        <time>2016-06-03T08:22:25Z</time>
      </trkpt>
      <trkpt lat="45.09679" lon="5.51727">
        <ele>1302.4</ele>
        <time>2016-06-03T08:22:40Z</time>
      </trkpt>
      <trkpt lat="45.09688" lon="5.51723">
        <ele>1303.33</ele>
        <time>2016-06-03T08:22:49Z</time>
      </trkpt>
      <trkpt lat="45.09705" lon="5.51728">
        <ele>1305.48</ele>
        <time>2016-06-03T08:23:02Z</time>
      </trkpt>
      <trkpt lat="45.09718" lon="5.51739">
        <ele>1308.45</ele>
        <time>2016-06-03T08:23:19Z</time>
      </trkpt>
      <trkpt lat="45.09719" lon="5.5174">
        <ele>1308.78</ele>
        <time>2016-06-03T08:23:21Z</time>
      </trkpt>
      <trkpt lat="45.09734" lon="5.51744">
        <ele>1310.09</ele>
        <time>2016-06-03T08:23:30Z</time>
      </trkpt>
      <trkpt lat="45.09741" lon="5.51746">
        <ele>1310.77</ele>
        <time>2016-06-03T08:23:35Z</time>
      </trkpt>
      <trkpt lat="45.09753" lon="5.51748">
        <ele>1311.79</ele>
        <time>2016-06-03T08:23:43Z</time>
      </trkpt>
      <trkpt lat="45.09756" lon="5.51748">
        <ele>1312.02</ele>
        <time>2016-06-03T08:23:45Z</time>
      </trkpt>
      <trkpt lat="45.09768" lon="5.51748">
        <ele>1313.39</ele>
        <time>2016-06-03T08:23:53Z</time>
      </trkpt>
      <trkpt lat="45.09774" lon="5.51748">
        <ele>1314.22</ele>
        <time>2016-06-03T08:23:58Z</time>
      </trkpt>
      <trkpt lat="45.09784" lon="5.51744">
        <ele>1315.66</ele>
        <time>2016-06-03T08:24:06Z</time>
      </trkpt>
      <trkpt lat="45.09795" lon="5.51745">
        <ele>1316.48</ele>
        <time>2016-06-03T08:24:12Z</time>
      </trkpt>
      <trkpt lat="45.0982" lon="5.51742">
        <ele>1318.98</ele>
        <time>2016-06-03T08:24:27Z</time>
      </trkpt>
      <trkpt lat="45.09822" lon="5.51742">
        <ele>1319.14</ele>
        <time>2016-06-03T08:24:28Z</time>
      </trkpt>
      <trkpt lat="45.09825" lon="5.51742">
        <ele>1319.48</ele>
        <time>2016-06-03T08:24:30Z</time>
      </trkpt>
      <trkpt lat="45.09832" lon="5.51741">
        <ele>1320.51</ele>
        <time>2016-06-03T08:24:36Z</time>
      </trkpt>
      <trkpt lat="45.09855" lon="5.51735">
        <ele>1322.77</ele>
        <time>2016-06-03T08:24:51Z</time>
      </trkpt>
      <trkpt lat="45.09873" lon="5.5173">
        <ele>1324.77</ele>
        <time>2016-06-03T08:25:04Z</time>
      </trkpt>
      <trkpt lat="45.09877" lon="5.51729">
        <ele>1325.35</ele>
        <time>2016-06-03T08:25:07Z</time>
      </trkpt>
      <trkpt lat="45.09881" lon="5.51724">
        <ele>1326.05</ele>
        <time>2016-06-03T08:25:11Z</time>
      </trkpt>
      <trkpt lat="45.09892" lon="5.51711">
        <ele>1327.86</ele>
        <time>2016-06-03T08:25:21Z</time>
      </trkpt>
      <trkpt lat="45.09904" lon="5.51681">
        <ele>1330.24</ele>
        <time>2016-06-03T08:25:37Z</time>
      </trkpt>
      <trkpt lat="45.09908" lon="5.51673">
        <ele>1330.81</ele>
        <time>2016-06-03T08:25:41Z</time>
      </trkpt>
      <trkpt lat="45.09916" lon="5.51647">
        <ele>1332.91</ele>
        <time>2016-06-03T08:25:55Z</time>
      </trkpt>
      <trkpt lat="45.09916" lon="5.51645">
        <ele>1333.06</ele>
        <time>2016-06-03T08:25:56Z</time>
      </trkpt>
      <trkpt lat="45.09919" lon="5.51634">
        <ele>1333.85</ele>
        <time>2016-06-03T08:26:02Z</time>
      </trkpt>
      <trkpt lat="45.09924" lon="5.51616">
        <ele>1335.41</ele>
        <time>2016-06-03T08:26:12Z</time>
      </trkpt>
      <trkpt lat="45.09927" lon="5.51612">
        <ele>1335.84</ele>
        <time>2016-06-03T08:26:15Z</time>
      </trkpt>
      <trkpt lat="45.0993" lon="5.51608">
        <ele>1336.54</ele>
        <time>2016-06-03T08:26:19Z</time>
      </trkpt>
      <trkpt lat="45.09942" lon="5.51604">
        <ele>1337.89</ele>
        <time>2016-06-03T08:26:28Z</time>
      </trkpt>
      <trkpt lat="45.09958" lon="5.51608">
        <ele>1340.35</ele>
        <time>2016-06-03T08:26:42Z</time>
      </trkpt>
      <trkpt lat="45.09974" lon="5.51616">
        <ele>1342.07</ele>
        <time>2016-06-03T08:26:52Z</time>
      </trkpt>
      <trkpt lat="45.09978" lon="5.51619">
        <ele>1342.57</ele>
        <time>2016-06-03T08:26:55Z</time>
      </trkpt>
      <trkpt lat="45.09988" lon="5.51638">
        <ele>1345.17</ele>
        <time>2016-06-03T08:27:10Z</time>
      </trkpt>
      <trkpt lat="45.09988" lon="5.5164">
        <ele>1345.32</ele>
        <time>2016-06-03T08:27:11Z</time>
      </trkpt>
      <trkpt lat="45.09994" lon="5.51656">
        <ele>1346.84</ele>
        <time>2016-06-03T08:27:22Z</time>
      </trkpt>
      <trkpt lat="45.1" lon="5.51662">
        <ele>1347.66</ele>
        <time>2016-06-03T08:27:29Z</time>
      </trkpt>
      <trkpt lat="45.10018" lon="5.51668">
        <ele>1349.23</ele>
        <time>2016-06-03T08:27:43Z</time>
      </trkpt>
      <trkpt lat="45.10036" lon="5.51668">
        <ele>1351.33</ele>
        <time>2016-06-03T08:27:57Z</time>
      </trkpt>
      <trkpt lat="45.10044" lon="5.51669">
        <ele>1351.84</ele>
        <time>2016-06-03T08:28:02Z</time>
      </trkpt>
      <trkpt lat="45.10049" lon="5.51668">
        <ele>1352.16</ele>
        <time>2016-06-03T08:28:06Z</time>
      </trkpt>
      <trkpt lat="45.10082" lon="5.51668">
        <ele>1354.23</ele>
        <time>2016-06-03T08:28:24Z</time>
      </trkpt>
      <trkpt lat="45.10103" lon="5.51665">
        <ele>1355.99</ele>
        <time>2016-06-03T08:28:38Z</time>
      </trkpt>
      <trkpt lat="45.10116" lon="5.51662">
        <ele>1357.78</ele>
        <time>2016-06-03T08:28:49Z</time>
      </trkpt>
      <trkpt lat="45.10135" lon="5.51652">
        <ele>1360.79</ele>
        <time>2016-06-03T08:29:03Z</time>
      </trkpt>
      <trkpt lat="45.10136" lon="5.5165">
        <ele>1361.02</ele>
        <time>2016-06-03T08:29:04Z</time>
      </trkpt>
      <trkpt lat="45.10146" lon="5.51641">
        <ele>1362.18</ele>
        <time>2016-06-03T08:29:11Z</time>
      </trkpt>
      <trkpt lat="45.1016" lon="5.51599">
        <ele>1365.02</ele>
        <time>2016-06-03T08:29:29Z</time>
      </trkpt>
      <trkpt lat="45.10166" lon="5.5157">
        <ele>1367.17</ele>
        <time>2016-06-03T08:29:44Z</time>
      </trkpt>
      <trkpt lat="45.10167" lon="5.51563">
        <ele>1367.76</ele>
        <time>2016-06-03T08:29:48Z</time>
      </trkpt>
      <trkpt lat="45.1017" lon="5.51548">
        <ele>1369.31</ele>
        <time>2016-06-03T08:29:56Z</time>
      </trkpt>
      <trkpt lat="45.1017" lon="5.51542">
        <ele>1369.72</ele>
        <time>2016-06-03T08:29:59Z</time>
      </trkpt>
      <trkpt lat="45.10167" lon="5.51524">
        <ele>1370.9</ele>
        <time>2016-06-03T08:30:10Z</time>
      </trkpt>
      <trkpt lat="45.10165" lon="5.51508">
        <ele>1372.07</ele>
        <time>2016-06-03T08:30:20Z</time>
      </trkpt>
      <trkpt lat="45.10167" lon="5.51487">
        <ele>1373.31</ele>
        <time>2016-06-03T08:30:30Z</time>
      </trkpt>
      <trkpt lat="45.10168" lon="5.51481">
        <ele>1373.89</ele>
        <time>2016-06-03T08:30:33Z</time>
      </trkpt>
      <trkpt lat="45.10167" lon="5.51471">
        <ele>1374.89</ele>
        <time>2016-06-03T08:30:38Z</time>
      </trkpt>
      <trkpt lat="45.10166" lon="5.51462">
        <ele>1375.56</ele>
        <time>2016-06-03T08:30:43Z</time>
      </trkpt>
      <trkpt lat="45.10165" lon="5.51454">
        <ele>1376.14</ele>
        <time>2016-06-03T08:30:47Z</time>
      </trkpt>
      <trkpt lat="45.10163" lon="5.51443">
        <ele>1376.83</ele>
        <time>2016-06-03T08:30:53Z</time>
      </trkpt>
      <trkpt lat="45.10163" lon="5.51431">
        <ele>1377.28</ele>
        <time>2016-06-03T08:30:58Z</time>
      </trkpt>
      <trkpt lat="45.10163" lon="5.5142">
        <ele>1377.59</ele>
        <time>2016-06-03T08:31:02Z</time>
      </trkpt>
      <trkpt lat="45.10166" lon="5.51386">
        <ele>1378.3</ele>
        <time>2016-06-03T08:31:16Z</time>
      </trkpt>
      <trkpt lat="45.10168" lon="5.51382">
        <ele>1378.37</ele>
        <time>2016-06-03T08:31:18Z</time>
      </trkpt>
      <trkpt lat="45.10187" lon="5.51388">
        <ele>1378.88</ele>
        <time>2016-06-03T08:31:31Z</time>
      </trkpt>
      <trkpt lat="45.102" lon="5.51403">
        <ele>1379.73</ele>
        <time>2016-06-03T08:31:42Z</time>
      </trkpt>
      <trkpt lat="45.10204" lon="5.51408">
        <ele>1380.17</ele>
        <time>2016-06-03T08:31:48Z</time>
      </trkpt>
      <trkpt lat="45.10204" lon="5.51408">
        <ele>1380.27</ele>
        <time>2016-06-03T08:31:49Z</time>
      </trkpt>
      <trkpt lat="45.10204" lon="5.51408">
        <ele>1380.4</ele>
        <time>2016-06-03T08:31:50Z</time>
      </trkpt>
      <trkpt lat="45.10205" lon="5.51409">
        <ele>1380.53</ele>
        <time>2016-06-03T08:31:51Z</time>
      </trkpt>
      <trkpt lat="45.10206" lon="5.5141">
        <ele>1380.65</ele>
        <time>2016-06-03T08:31:52Z</time>
      </trkpt>
      <trkpt lat="45.10206" lon="5.5141">
        <ele>1380.78</ele>
        <time>2016-06-03T08:31:53Z</time>
      </trkpt>
      <trkpt lat="45.10207" lon="5.5141">
        <ele>1381.08</ele>
        <time>2016-06-03T08:31:54Z</time>
      </trkpt>
      <trkpt lat="45.10208" lon="5.5141">
        <ele>1381.22</ele>
        <time>2016-06-03T08:31:55Z</time>
      </trkpt>
      <trkpt lat="45.10209" lon="5.51411">
        <ele>1381.34</ele>
        <time>2016-06-03T08:31:56Z</time>
      </trkpt>
      <trkpt lat="45.10211" lon="5.51411">
        <ele>1381.55</ele>
        <time>2016-06-03T08:31:58Z</time>
      </trkpt>
      <trkpt lat="45.10212" lon="5.51411">
        <ele>1381.65</ele>
        <time>2016-06-03T08:31:59Z</time>
      </trkpt>
      <trkpt lat="45.10214" lon="5.51411">
        <ele>1381.75</ele>
        <time>2016-06-03T08:32:00Z</time>
      </trkpt>
      <trkpt lat="45.10215" lon="5.5141">
        <ele>1381.83</ele>
        <time>2016-06-03T08:32:01Z</time>
      </trkpt>
      <trkpt lat="45.10217" lon="5.51411">
        <ele>1381.92</ele>
        <time>2016-06-03T08:32:02Z</time>
      </trkpt>
      <trkpt lat="45.10219" lon="5.51411">
        <ele>1382.01</ele>
        <time>2016-06-03T08:32:03Z</time>
      </trkpt>
      <trkpt lat="45.10221" lon="5.51412">
        <ele>1382.09</ele>
        <time>2016-06-03T08:32:04Z</time>
      </trkpt>
      <trkpt lat="45.10224" lon="5.51412">
        <ele>1382.13</ele>
        <time>2016-06-03T08:32:05Z</time>
      </trkpt>
      <trkpt lat="45.10226" lon="5.51412">
        <ele>1382.2</ele>
        <time>2016-06-03T08:32:06Z</time>
      </trkpt>
      <trkpt lat="45.10229" lon="5.51412">
        <ele>1382.24</ele>
        <time>2016-06-03T08:32:07Z</time>
      </trkpt>
      <trkpt lat="45.10231" lon="5.51412">
        <ele>1382.31</ele>
        <time>2016-06-03T08:32:08Z</time>
      </trkpt>
      <trkpt lat="45.10233" lon="5.51412">
        <ele>1382.36</ele>
        <time>2016-06-03T08:32:09Z</time>
      </trkpt>
      <trkpt lat="45.10235" lon="5.51411">
        <ele>1382.38</ele>
        <time>2016-06-03T08:32:10Z</time>
      </trkpt>
      <trkpt lat="45.10238" lon="5.5141">
        <ele>1382.41</ele>
        <time>2016-06-03T08:32:11Z</time>
      </trkpt>
      <trkpt lat="45.1024" lon="5.5141">
        <ele>1382.43</ele>
        <time>2016-06-03T08:32:12Z</time>
      </trkpt>
      <trkpt lat="45.1025" lon="5.51411">
        <ele>1382.5</ele>
        <time>2016-06-03T08:32:16Z</time>
      </trkpt>
      <trkpt lat="45.10253" lon="5.5141">
        <ele>1382.51</ele>
        <time>2016-06-03T08:32:17Z</time>
      </trkpt>
      <trkpt lat="45.10278" lon="5.51405">
        <ele>1382.66</ele>
        <time>2016-06-03T08:32:27Z</time>
      </trkpt>
      <trkpt lat="45.1031" lon="5.51407">
        <ele>1383</ele>
        <time>2016-06-03T08:32:38Z</time>
      </trkpt>
      <trkpt lat="45.10317" lon="5.51409">
        <ele>1383.04</ele>
        <time>2016-06-03T08:32:41Z</time>
      </trkpt>
      <trkpt lat="45.10318" lon="5.5141">
        <ele>1383.04</ele>
        <time>2016-06-03T08:32:42Z</time>
      </trkpt>
      <trkpt lat="45.10319" lon="5.5141">
        <ele>1383.04</ele>
        <time>2016-06-03T08:32:43Z</time>
      </trkpt>
      <trkpt lat="45.10322" lon="5.51412">
        <ele>1383.07</ele>
        <time>2016-06-03T08:32:45Z</time>
      </trkpt>
      <trkpt lat="45.10324" lon="5.51414">
        <ele>1383.13</ele>
        <time>2016-06-03T08:32:46Z</time>
      </trkpt>
      <trkpt lat="45.10344" lon="5.51427">
        <ele>1384.56</ele>
        <time>2016-06-03T08:32:58Z</time>
      </trkpt>
      <trkpt lat="45.10365" lon="5.51443">
        <ele>1386.43</ele>
        <time>2016-06-03T08:33:10Z</time>
      </trkpt>
      <trkpt lat="45.10373" lon="5.51448">
        <ele>1386.99</ele>
        <time>2016-06-03T08:33:15Z</time>
      </trkpt>
      <trkpt lat="45.10376" lon="5.51448">
        <ele>1387.1</ele>
        <time>2016-06-03T08:33:16Z</time>
      </trkpt>
      <trkpt lat="45.10378" lon="5.51449">
        <ele>1387.23</ele>
        <time>2016-06-03T08:33:17Z</time>
      </trkpt>
      <trkpt lat="45.1038" lon="5.5145">
        <ele>1387.36</ele>
        <time>2016-06-03T08:33:18Z</time>
      </trkpt>
      <trkpt lat="45.10383" lon="5.51451">
        <ele>1387.49</ele>
        <time>2016-06-03T08:33:19Z</time>
      </trkpt>
      <trkpt lat="45.10385" lon="5.51451">
        <ele>1387.65</ele>
        <time>2016-06-03T08:33:20Z</time>
      </trkpt>
      <trkpt lat="45.10432" lon="5.51456">
        <ele>1390.5</ele>
        <time>2016-06-03T08:33:38Z</time>
      </trkpt>
      <trkpt lat="45.10471" lon="5.51455">
        <ele>1392.3</ele>
        <time>2016-06-03T08:33:56Z</time>
      </trkpt>
      <trkpt lat="45.10493" lon="5.51458">
        <ele>1392.69</ele>
        <time>2016-06-03T08:34:09Z</time>
      </trkpt>
      <trkpt lat="45.10521" lon="5.51483">
        <ele>1393.02</ele>
        <time>2016-06-03T08:34:26Z</time>
      </trkpt>
      <trkpt lat="45.10522" lon="5.51481">
        <ele>1393.29</ele>
        <time>2016-06-03T08:34:54Z</time>
      </trkpt>
      <trkpt lat="45.1052" lon="5.51483">
        <ele>1393.66</ele>
        <time>2016-06-03T08:35:27Z</time>
      </trkpt>
      <trkpt lat="45.10519" lon="5.51486">
        <ele>1393.98</ele>
        <time>2016-06-03T08:35:51Z</time>
      </trkpt>
      <trkpt lat="45.10519" lon="5.51491">
        <ele>1394.07</ele>
        <time>2016-06-03T08:36:13Z</time>
      </trkpt>
      <trkpt lat="45.10519" lon="5.51487">
        <ele>1393.86</ele>
        <time>2016-06-03T08:36:37Z</time>
      </trkpt>
      <trkpt lat="45.10519" lon="5.51486">
        <ele>1393.72</ele>
        <time>2016-06-03T08:37:09Z</time>
      </trkpt>
      <trkpt lat="45.10519" lon="5.51487">
        <ele>1393.99</ele>
        <time>2016-06-03T08:37:31Z</time>
      </trkpt>
      <trkpt lat="45.1052" lon="5.51486">
        <ele>1393.65</ele>
        <time>2016-06-03T08:37:54Z</time>
      </trkpt>
      <trkpt lat="45.1052" lon="5.51486">
        <ele>1393.85</ele>
        <time>2016-06-03T08:38:32Z</time>
      </trkpt>
      <trkpt lat="45.10519" lon="5.51486">
        <ele>1393.86</ele>
        <time>2016-06-03T08:39:04Z</time>
      </trkpt>
      <trkpt lat="45.1052" lon="5.51483">
        <ele>1393.5</ele>
        <time>2016-06-03T08:39:31Z</time>
      </trkpt>
      <trkpt lat="45.10524" lon="5.5148">
        <ele>1393.35</ele>
        <time>2016-06-03T08:40:06Z</time>
      </trkpt>
      <trkpt lat="45.10524" lon="5.51481">
        <ele>1393.3</ele>
        <time>2016-06-03T08:40:24Z</time>
      </trkpt>
      <trkpt lat="45.10523" lon="5.5148">
        <ele>1393.44</ele>
        <time>2016-06-03T08:40:43Z</time>
      </trkpt>
      <trkpt lat="45.10522" lon="5.51478">
        <ele>1393.07</ele>
        <time>2016-06-03T08:41:08Z</time>
      </trkpt>
      <trkpt lat="45.10521" lon="5.51478">
        <ele>1392.78</ele>
        <time>2016-06-03T08:41:32Z</time>
      </trkpt>
      <trkpt lat="45.1052" lon="5.51478">
        <ele>1392.84</ele>
        <time>2016-06-03T08:42:20Z</time>
      </trkpt>
      <trkpt lat="45.10521" lon="5.51481">
        <ele>1393.49</ele>
        <time>2016-06-03T08:42:29Z</time>
      </trkpt>
      <trkpt lat="45.10521" lon="5.51481">
        <ele>1393.48</ele>
        <time>2016-06-03T08:42:41Z</time>
      </trkpt>
      <trkpt lat="45.1052" lon="5.51479">
        <ele>1393.4</ele>
        <time>2016-06-03T08:43:06Z</time>
      </trkpt>
      <trkpt lat="45.1052" lon="5.51478">
        <ele>1393.25</ele>
        <time>2016-06-03T08:43:40Z</time>
      </trkpt>
      <trkpt lat="45.10519" lon="5.51475">
        <ele>1393.52</ele>
        <time>2016-06-03T08:44:02Z</time>
      </trkpt>
      <trkpt lat="45.10522" lon="5.51464">
        <ele>1393.44</ele>
        <time>2016-06-03T08:44:07Z</time>
      </trkpt>
      <trkpt lat="45.10535" lon="5.51429">
        <ele>1394.1</ele>
        <time>2016-06-03T08:44:24Z</time>
      </trkpt>
      <trkpt lat="45.1055" lon="5.51397">
        <ele>1395.54</ele>
        <time>2016-06-03T08:44:43Z</time>
      </trkpt>
      <trkpt lat="45.1057" lon="5.51373">
        <ele>1398.5</ele>
        <time>2016-06-03T08:45:01Z</time>
      </trkpt>
      <trkpt lat="45.10577" lon="5.5136">
        <ele>1400.27</ele>
        <time>2016-06-03T08:45:11Z</time>
      </trkpt>
      <trkpt lat="45.1059" lon="5.51346">
        <ele>1402.53</ele>
        <time>2016-06-03T08:45:25Z</time>
      </trkpt>
      <trkpt lat="45.10596" lon="5.51336">
        <ele>1404.01</ele>
        <time>2016-06-03T08:45:39Z</time>
      </trkpt>
      <trkpt lat="45.10606" lon="5.51318">
        <ele>1407.11</ele>
        <time>2016-06-03T08:45:59Z</time>
      </trkpt>
      <trkpt lat="45.10617" lon="5.51302">
        <ele>1410.14</ele>
        <time>2016-06-03T08:46:20Z</time>
      </trkpt>
      <trkpt lat="45.10628" lon="5.51288">
        <ele>1413.46</ele>
        <time>2016-06-03T08:46:38Z</time>
      </trkpt>
      <trkpt lat="45.1063" lon="5.51272">
        <ele>1416.53</ele>
        <time>2016-06-03T08:46:57Z</time>
      </trkpt>
      <trkpt lat="45.10631" lon="5.51251">
        <ele>1419.69</ele>
        <time>2016-06-03T08:47:13Z</time>
      </trkpt>
      <trkpt lat="45.10626" lon="5.51227">
        <ele>1422.61</ele>
        <time>2016-06-03T08:47:30Z</time>
      </trkpt>
      <trkpt lat="45.10627" lon="5.51213">
        <ele>1423.86</ele>
        <time>2016-06-03T08:47:39Z</time>
      </trkpt>
      <trkpt lat="45.10627" lon="5.5121">
        <ele>1424.17</ele>
        <time>2016-06-03T08:47:41Z</time>
      </trkpt>
      <trkpt lat="45.10627" lon="5.51204">
        <ele>1424.73</ele>
        <time>2016-06-03T08:47:45Z</time>
      </trkpt>
      <trkpt lat="45.10625" lon="5.51188">
        <ele>1426.24</ele>
        <time>2016-06-03T08:47:59Z</time>
      </trkpt>
      <trkpt lat="45.10618" lon="5.51172">
        <ele>1427.72</ele>
        <time>2016-06-03T08:48:16Z</time>
      </trkpt>
      <trkpt lat="45.10617" lon="5.5117">
        <ele>1427.86</ele>
        <time>2016-06-03T08:48:41Z</time>
      </trkpt>
      <trkpt lat="45.10618" lon="5.51169">
        <ele>1427.99</ele>
        <time>2016-06-03T08:49:20Z</time>
      </trkpt>
      <trkpt lat="45.10621" lon="5.5116">
        <ele>1428.13</ele>
        <time>2016-06-03T08:49:30Z</time>
      </trkpt>
      <trkpt lat="45.10624" lon="5.51154">
        <ele>1428.37</ele>
        <time>2016-06-03T08:49:34Z</time>
      </trkpt>
      <trkpt lat="45.10633" lon="5.51141">
        <ele>1428.69</ele>
        <time>2016-06-03T08:49:42Z</time>
      </trkpt>
      <trkpt lat="45.10636" lon="5.51135">
        <ele>1428.93</ele>
        <time>2016-06-03T08:49:46Z</time>
      </trkpt>
      <trkpt lat="45.10647" lon="5.51114">
        <ele>1429.76</ele>
        <time>2016-06-03T08:50:02Z</time>
      </trkpt>
      <trkpt lat="45.10655" lon="5.51106">
        <ele>1430.27</ele>
        <time>2016-06-03T08:50:12Z</time>
      </trkpt>
      <trkpt lat="45.10658" lon="5.51102">
        <ele>1430.53</ele>
        <time>2016-06-03T08:50:16Z</time>
      </trkpt>
      <trkpt lat="45.10673" lon="5.5109">
        <ele>1432.13</ele>
        <time>2016-06-03T08:50:30Z</time>
      </trkpt>
      <trkpt lat="45.10681" lon="5.51083">
        <ele>1432.85</ele>
        <time>2016-06-03T08:50:37Z</time>
      </trkpt>
      <trkpt lat="45.10686" lon="5.51077">
        <ele>1433.46</ele>
        <time>2016-06-03T08:50:43Z</time>
      </trkpt>
      <trkpt lat="45.10696" lon="5.51062">
        <ele>1434.79</ele>
        <time>2016-06-03T08:50:54Z</time>
      </trkpt>
      <trkpt lat="45.10699" lon="5.5106">
        <ele>1435.05</ele>
        <time>2016-06-03T08:50:56Z</time>
      </trkpt>
      <trkpt lat="45.10706" lon="5.51048">
        <ele>1435.87</ele>
        <time>2016-06-03T08:51:02Z</time>
      </trkpt>
      <trkpt lat="45.10713" lon="5.51033">
        <ele>1437.77</ele>
        <time>2016-06-03T08:51:17Z</time>
      </trkpt>
      <trkpt lat="45.10722" lon="5.51016">
        <ele>1440.3</ele>
        <time>2016-06-03T08:51:37Z</time>
      </trkpt>
      <trkpt lat="45.10726" lon="5.51">
        <ele>1443.44</ele>
        <time>2016-06-03T08:51:57Z</time>
      </trkpt>
      <trkpt lat="45.1073" lon="5.50981">
        <ele>1446.54</ele>
        <time>2016-06-03T08:52:18Z</time>
      </trkpt>
      <trkpt lat="45.10737" lon="5.50968">
        <ele>1449.57</ele>
        <time>2016-06-03T08:52:36Z</time>
      </trkpt>
      <trkpt lat="45.10742" lon="5.50948">
        <ele>1452.74</ele>
        <time>2016-06-03T08:52:56Z</time>
      </trkpt>
      <trkpt lat="45.10751" lon="5.50926">
        <ele>1455.47</ele>
        <time>2016-06-03T08:53:14Z</time>
      </trkpt>
      <trkpt lat="45.10761" lon="5.5091">
        <ele>1456.98</ele>
        <time>2016-06-03T08:53:30Z</time>
      </trkpt>
      <trkpt lat="45.10763" lon="5.50907">
        <ele>1457.15</ele>
        <time>2016-06-03T08:53:32Z</time>
      </trkpt>
      <trkpt lat="45.10774" lon="5.50865">
        <ele>1458.92</ele>
        <time>2016-06-03T08:53:51Z</time>
      </trkpt>
      <trkpt lat="45.10788" lon="5.50837">
        <ele>1460.32</ele>
        <time>2016-06-03T08:54:06Z</time>
      </trkpt>
      <trkpt lat="45.10801" lon="5.50826">
        <ele>1460.99</ele>
        <time>2016-06-03T08:54:14Z</time>
      </trkpt>
      <trkpt lat="45.108" lon="5.50817">
        <ele>1461.38</ele>
        <time>2016-06-03T08:54:18Z</time>
      </trkpt>
      <trkpt lat="45.10792" lon="5.50763">
        <ele>1461.61</ele>
        <time>2016-06-03T08:54:38Z</time>
      </trkpt>
      <trkpt lat="45.10785" lon="5.50693">
        <ele>1461.27</ele>
        <time>2016-06-03T08:54:53Z</time>
      </trkpt>
      <trkpt lat="45.1075" lon="5.50643">
        <ele>1461.78</ele>
        <time>2016-06-03T08:55:09Z</time>
      </trkpt>
      <trkpt lat="45.10746" lon="5.50639">
        <ele>1461.93</ele>
        <time>2016-06-03T08:55:11Z</time>
      </trkpt>
      <trkpt lat="45.10743" lon="5.50636">
        <ele>1462</ele>
        <time>2016-06-03T08:55:12Z</time>
      </trkpt>
      <trkpt lat="45.10717" lon="5.50599">
        <ele>1462.99</ele>
        <time>2016-06-03T08:55:27Z</time>
      </trkpt>
      <trkpt lat="45.10716" lon="5.50597">
        <ele>1463.04</ele>
        <time>2016-06-03T08:55:28Z</time>
      </trkpt>
      <trkpt lat="45.10715" lon="5.50595">
        <ele>1463.08</ele>
        <time>2016-06-03T08:55:29Z</time>
      </trkpt>
      <trkpt lat="45.10714" lon="5.50593">
        <ele>1463.12</ele>
        <time>2016-06-03T08:55:30Z</time>
      </trkpt>
      <trkpt lat="45.10694" lon="5.50564">
        <ele>1463.92</ele>
        <time>2016-06-03T08:55:43Z</time>
      </trkpt>
      <trkpt lat="45.10668" lon="5.50527">
        <ele>1464.57</ele>
        <time>2016-06-03T08:55:57Z</time>
      </trkpt>
      <trkpt lat="45.10642" lon="5.50481">
        <ele>1465.53</ele>
        <time>2016-06-03T08:56:11Z</time>
      </trkpt>
      <trkpt lat="45.10632" lon="5.5043">
        <ele>1465.99</ele>
        <time>2016-06-03T08:56:24Z</time>
      </trkpt>
      <trkpt lat="45.10614" lon="5.50396">
        <ele>1466.29</ele>
        <time>2016-06-03T08:56:33Z</time>
      </trkpt>
      <trkpt lat="45.10574" lon="5.50353">
        <ele>1467.05</ele>
        <time>2016-06-03T08:56:46Z</time>
      </trkpt>
      <trkpt lat="45.1053" lon="5.50307">
        <ele>1467.76</ele>
        <time>2016-06-03T08:57:03Z</time>
      </trkpt>
      <trkpt lat="45.1049" lon="5.50274">
        <ele>1468.56</ele>
        <time>2016-06-03T08:57:19Z</time>
      </trkpt>
      <trkpt lat="45.1045" lon="5.50233">
        <ele>1468.93</ele>
        <time>2016-06-03T08:57:35Z</time>
      </trkpt>
      <trkpt lat="45.1041" lon="5.50185">
        <ele>1469.99</ele>
        <time>2016-06-03T08:57:50Z</time>
      </trkpt>
      <trkpt lat="45.10376" lon="5.50151">
        <ele>1470.32</ele>
        <time>2016-06-03T08:58:03Z</time>
      </trkpt>
      <trkpt lat="45.10335" lon="5.50125">
        <ele>1471.03</ele>
        <time>2016-06-03T08:58:17Z</time>
      </trkpt>
      <trkpt lat="45.10303" lon="5.50098">
        <ele>1471.63</ele>
        <time>2016-06-03T08:58:29Z</time>
      </trkpt>
      <trkpt lat="45.10266" lon="5.50053">
        <ele>1471.9</ele>
        <time>2016-06-03T08:58:42Z</time>
      </trkpt>
      <trkpt lat="45.10225" lon="5.50008">
        <ele>1471.54</ele>
        <time>2016-06-03T08:58:56Z</time>
      </trkpt>
      <trkpt lat="45.10189" lon="5.49969">
        <ele>1471.4</ele>
        <time>2016-06-03T08:59:08Z</time>
      </trkpt>
      <trkpt lat="45.10173" lon="5.49954">
        <ele>1471.15</ele>
        <time>2016-06-03T08:59:13Z</time>
      </trkpt>
      <trkpt lat="45.1017" lon="5.49951">
        <ele>1471.08</ele>
        <time>2016-06-03T08:59:14Z</time>
      </trkpt>
      <trkpt lat="45.10166" lon="5.49948">
        <ele>1471.02</ele>
        <time>2016-06-03T08:59:15Z</time>
      </trkpt>
      <trkpt lat="45.10163" lon="5.49944">
        <ele>1470.95</ele>
        <time>2016-06-03T08:59:16Z</time>
      </trkpt>
      <trkpt lat="45.1016" lon="5.49941">
        <ele>1470.89</ele>
        <time>2016-06-03T08:59:17Z</time>
      </trkpt>
      <trkpt lat="45.10115" lon="5.49901">
        <ele>1470.4</ele>
        <time>2016-06-03T08:59:32Z</time>
      </trkpt>
      <trkpt lat="45.1009" lon="5.49874">
        <ele>1469.98</ele>
        <time>2016-06-03T08:59:40Z</time>
      </trkpt>
      <trkpt lat="45.1004" lon="5.4984">
        <ele>1469.31</ele>
        <time>2016-06-03T08:59:54Z</time>
      </trkpt>
      <trkpt lat="45.09998" lon="5.498">
        <ele>1469.16</ele>
        <time>2016-06-03T09:00:08Z</time>
      </trkpt>
      <trkpt lat="45.09998" lon="5.49797">
        <ele>1469.16</ele>
        <time>2016-06-03T09:00:09Z</time>
      </trkpt>
      <trkpt lat="45.09998" lon="5.49793">
        <ele>1469.15</ele>
        <time>2016-06-03T09:00:10Z</time>
      </trkpt>
      <trkpt lat="45.09999" lon="5.4979">
        <ele>1469.15</ele>
        <time>2016-06-03T09:00:11Z</time>
      </trkpt>
      <trkpt lat="45.10001" lon="5.49783">
        <ele>1469.15</ele>
        <time>2016-06-03T09:00:12Z</time>
      </trkpt>
      <trkpt lat="45.10003" lon="5.49778">
        <ele>1469.15</ele>
        <time>2016-06-03T09:00:13Z</time>
      </trkpt>
      <trkpt lat="45.10005" lon="5.4977">
        <ele>1469.15</ele>
        <time>2016-06-03T09:00:14Z</time>
      </trkpt>
      <trkpt lat="45.10008" lon="5.49767">
        <ele>1469.15</ele>
        <time>2016-06-03T09:00:15Z</time>
      </trkpt>
      <trkpt lat="45.10011" lon="5.49765">
        <ele>1469.15</ele>
        <time>2016-06-03T09:00:16Z</time>
      </trkpt>
      <trkpt lat="45.10014" lon="5.49764">
        <ele>1469.17</ele>
        <time>2016-06-03T09:00:17Z</time>
      </trkpt>
      <trkpt lat="45.10019" lon="5.49764">
        <ele>1469.21</ele>
        <time>2016-06-03T09:00:18Z</time>
      </trkpt>
      <trkpt lat="45.10023" lon="5.49765">
        <ele>1469.32</ele>
        <time>2016-06-03T09:00:19Z</time>
      </trkpt>
      <trkpt lat="45.10026" lon="5.49766">
        <ele>1469.37</ele>
        <time>2016-06-03T09:00:20Z</time>
      </trkpt>
      <trkpt lat="45.1003" lon="5.49767">
        <ele>1469.43</ele>
        <time>2016-06-03T09:00:21Z</time>
      </trkpt>
      <trkpt lat="45.10065" lon="5.49777">
        <ele>1469.64</ele>
        <time>2016-06-03T09:00:32Z</time>
      </trkpt>
      <trkpt lat="45.10123" lon="5.49786">
        <ele>1469.57</ele>
        <time>2016-06-03T09:00:48Z</time>
      </trkpt>
      <trkpt lat="45.10163" lon="5.49792">
        <ele>1470.33</ele>
        <time>2016-06-03T09:01:02Z</time>
      </trkpt>
      <trkpt lat="45.10196" lon="5.49794">
        <ele>1471.11</ele>
        <time>2016-06-03T09:01:13Z</time>
      </trkpt>
      <trkpt lat="45.10238" lon="5.49786">
        <ele>1472.17</ele>
        <time>2016-06-03T09:01:26Z</time>
      </trkpt>
      <trkpt lat="45.1027" lon="5.49776">
        <ele>1472.9</ele>
        <time>2016-06-03T09:01:37Z</time>
      </trkpt>
      <trkpt lat="45.10293" lon="5.49768">
        <ele>1473.63</ele>
        <time>2016-06-03T09:01:45Z</time>
      </trkpt>
      <trkpt lat="45.10325" lon="5.49748">
        <ele>1474.65</ele>
        <time>2016-06-03T09:01:58Z</time>
      </trkpt>
      <trkpt lat="45.10345" lon="5.49706">
        <ele>1474.86</ele>
        <time>2016-06-03T09:02:09Z</time>
      </trkpt>
      <trkpt lat="45.10357" lon="5.49655">
        <ele>1473.99</ele>
        <time>2016-06-03T09:02:19Z</time>
      </trkpt>
      <trkpt lat="45.10381" lon="5.49645">
        <ele>1473.11</ele>
        <time>2016-06-03T09:02:26Z</time>
      </trkpt>
      <trkpt lat="45.10386" lon="5.49646">
        <ele>1472.97</ele>
        <time>2016-06-03T09:02:27Z</time>
      </trkpt>
      <trkpt lat="45.10394" lon="5.49648">
        <ele>1472.76</ele>
        <time>2016-06-03T09:02:29Z</time>
      </trkpt>
      <trkpt lat="45.10399" lon="5.49648">
        <ele>1472.68</ele>
        <time>2016-06-03T09:02:30Z</time>
      </trkpt>
      <trkpt lat="45.10417" lon="5.49653">
        <ele>1472.14</ele>
        <time>2016-06-03T09:02:34Z</time>
      </trkpt>
      <trkpt lat="45.10472" lon="5.49669">
        <ele>1470.07</ele>
        <time>2016-06-03T09:02:47Z</time>
      </trkpt>
      <trkpt lat="45.1048" lon="5.49672">
        <ele>1468.3</ele>
        <time>2016-06-03T09:02:59Z</time>
      </trkpt>
      <trkpt lat="45.10482" lon="5.49671">
        <ele>1467.83</ele>
        <time>2016-06-03T09:03:16Z</time>
      </trkpt>
      <trkpt lat="45.10479" lon="5.49671">
        <ele>1466.99</ele>
        <time>2016-06-03T09:03:46Z</time>
      </trkpt>
      <trkpt lat="45.10474" lon="5.49668">
        <ele>1466.88</ele>
        <time>2016-06-03T09:04:21Z</time>
      </trkpt>
      <trkpt lat="45.10476" lon="5.49667">
        <ele>1467.64</ele>
        <time>2016-06-03T09:04:43Z</time>
      </trkpt>
      <trkpt lat="45.1048" lon="5.49669">
        <ele>1467.58</ele>
        <time>2016-06-03T09:05:12Z</time>
      </trkpt>
      <trkpt lat="45.10481" lon="5.49669">
        <ele>1467.62</ele>
        <time>2016-06-03T09:05:29Z</time>
      </trkpt>
      <trkpt lat="45.10484" lon="5.4967">
        <ele>1467.56</ele>
        <time>2016-06-03T09:05:49Z</time>
      </trkpt>
      <trkpt lat="45.10488" lon="5.49669">
        <ele>1467.41</ele>
        <time>2016-06-03T09:06:18Z</time>
      </trkpt>
      <trkpt lat="45.10491" lon="5.49669">
        <ele>1467.49</ele>
        <time>2016-06-03T09:06:20Z</time>
      </trkpt>
      <trkpt lat="45.10493" lon="5.49669">
        <ele>1467.56</ele>
        <time>2016-06-03T09:06:21Z</time>
      </trkpt>
      <trkpt lat="45.10496" lon="5.4967">
        <ele>1467.57</ele>
        <time>2016-06-03T09:06:22Z</time>
      </trkpt>
      <trkpt lat="45.10498" lon="5.4967">
        <ele>1467.58</ele>
        <time>2016-06-03T09:06:23Z</time>
      </trkpt>
      <trkpt lat="45.10501" lon="5.4967">
        <ele>1467.56</ele>
        <time>2016-06-03T09:06:24Z</time>
      </trkpt>
      <trkpt lat="45.10504" lon="5.49671">
        <ele>1467.54</ele>
        <time>2016-06-03T09:06:25Z</time>
      </trkpt>
      <trkpt lat="45.10507" lon="5.49671">
        <ele>1467.51</ele>
        <time>2016-06-03T09:06:26Z</time>
      </trkpt>
      <trkpt lat="45.10549" lon="5.49677">
        <ele>1466.68</ele>
        <time>2016-06-03T09:06:37Z</time>
      </trkpt>
      <trkpt lat="45.10553" lon="5.49678">
        <ele>1466.63</ele>
        <time>2016-06-03T09:06:38Z</time>
      </trkpt>
      <trkpt lat="45.10558" lon="5.49679">
        <ele>1466.59</ele>
        <time>2016-06-03T09:06:39Z</time>
      </trkpt>
      <trkpt lat="45.10563" lon="5.4968">
        <ele>1466.55</ele>
        <time>2016-06-03T09:06:40Z</time>
      </trkpt>
      <trkpt lat="45.10568" lon="5.49681">
        <ele>1466.46</ele>
        <time>2016-06-03T09:06:41Z</time>
      </trkpt>
      <trkpt lat="45.10572" lon="5.49681">
        <ele>1466.37</ele>
        <time>2016-06-03T09:06:42Z</time>
      </trkpt>
      <trkpt lat="45.10577" lon="5.49682">
        <ele>1466.27</ele>
        <time>2016-06-03T09:06:43Z</time>
      </trkpt>
      <trkpt lat="45.10582" lon="5.49683">
        <ele>1466.15</ele>
        <time>2016-06-03T09:06:44Z</time>
      </trkpt>
      <trkpt lat="45.10643" lon="5.49693">
        <ele>1464.6</ele>
        <time>2016-06-03T09:06:55Z</time>
      </trkpt>
      <trkpt lat="45.1065" lon="5.49694">
        <ele>1464.4</ele>
        <time>2016-06-03T09:06:56Z</time>
      </trkpt>
      <trkpt lat="45.10718" lon="5.49702">
        <ele>1462.4</ele>
        <time>2016-06-03T09:07:07Z</time>
      </trkpt>
      <trkpt lat="45.10795" lon="5.49724">
        <ele>1459.72</ele>
        <time>2016-06-03T09:07:18Z</time>
      </trkpt>
      <trkpt lat="45.1082" lon="5.49735">
        <ele>1458.72</ele>
        <time>2016-06-03T09:07:22Z</time>
      </trkpt>
      <trkpt lat="45.10842" lon="5.49749">
        <ele>1458.23</ele>
        <time>2016-06-03T09:07:26Z</time>
      </trkpt>
      <trkpt lat="45.10886" lon="5.49777">
        <ele>1457.7</ele>
        <time>2016-06-03T09:07:36Z</time>
      </trkpt>
      <trkpt lat="45.10889" lon="5.4978">
        <ele>1457.65</ele>
        <time>2016-06-03T09:07:37Z</time>
      </trkpt>
      <trkpt lat="45.10893" lon="5.49783">
        <ele>1457.6</ele>
        <time>2016-06-03T09:07:38Z</time>
      </trkpt>
      <trkpt lat="45.10901" lon="5.49787">
        <ele>1457.5</ele>
        <time>2016-06-03T09:07:40Z</time>
      </trkpt>
      <trkpt lat="45.10906" lon="5.49789">
        <ele>1457.45</ele>
        <time>2016-06-03T09:07:41Z</time>
      </trkpt>
      <trkpt lat="45.10925" lon="5.49796">
        <ele>1457.17</ele>
        <time>2016-06-03T09:07:46Z</time>
      </trkpt>
      <trkpt lat="45.1093" lon="5.49797">
        <ele>1457.09</ele>
        <time>2016-06-03T09:07:47Z</time>
      </trkpt>
      <trkpt lat="45.10969" lon="5.49813">
        <ele>1456.18</ele>
        <time>2016-06-03T09:07:55Z</time>
      </trkpt>
      <trkpt lat="45.10975" lon="5.49815">
        <ele>1456.01</ele>
        <time>2016-06-03T09:07:56Z</time>
      </trkpt>
      <trkpt lat="45.10985" lon="5.49818">
        <ele>1455.66</ele>
        <time>2016-06-03T09:07:58Z</time>
      </trkpt>
      <trkpt lat="45.10991" lon="5.49819">
        <ele>1455.5</ele>
        <time>2016-06-03T09:07:59Z</time>
      </trkpt>
      <trkpt lat="45.11002" lon="5.49822">
        <ele>1455.23</ele>
        <time>2016-06-03T09:08:01Z</time>
      </trkpt>
      <trkpt lat="45.11007" lon="5.49824">
        <ele>1455.09</ele>
        <time>2016-06-03T09:08:02Z</time>
      </trkpt>
      <trkpt lat="45.11063" lon="5.4983">
        <ele>1452.42</ele>
        <time>2016-06-03T09:08:11Z</time>
      </trkpt>
      <trkpt lat="45.1107" lon="5.49832">
        <ele>1452.07</ele>
        <time>2016-06-03T09:08:12Z</time>
      </trkpt>
      <trkpt lat="45.11076" lon="5.49836">
        <ele>1451.71</ele>
        <time>2016-06-03T09:08:13Z</time>
      </trkpt>
      <trkpt lat="45.11082" lon="5.4984">
        <ele>1451.36</ele>
        <time>2016-06-03T09:08:14Z</time>
      </trkpt>
      <trkpt lat="45.11089" lon="5.49843">
        <ele>1450.99</ele>
        <time>2016-06-03T09:08:15Z</time>
      </trkpt>
      <trkpt lat="45.11095" lon="5.49846">
        <ele>1450.61</ele>
        <time>2016-06-03T09:08:16Z</time>
      </trkpt>
      <trkpt lat="45.11101" lon="5.49851">
        <ele>1450.22</ele>
        <time>2016-06-03T09:08:17Z</time>
      </trkpt>
      <trkpt lat="45.11117" lon="5.49868">
        <ele>1448.99</ele>
        <time>2016-06-03T09:08:20Z</time>
      </trkpt>
      <trkpt lat="45.11124" lon="5.49874">
        <ele>1448.57</ele>
        <time>2016-06-03T09:08:21Z</time>
      </trkpt>
      <trkpt lat="45.11129" lon="5.49881">
        <ele>1448.13</ele>
        <time>2016-06-03T09:08:22Z</time>
      </trkpt>
      <trkpt lat="45.11137" lon="5.49895">
        <ele>1447.17</ele>
        <time>2016-06-03T09:08:24Z</time>
      </trkpt>
      <trkpt lat="45.1114" lon="5.49902">
        <ele>1446.67</ele>
        <time>2016-06-03T09:08:25Z</time>
      </trkpt>
      <trkpt lat="45.1114" lon="5.49909">
        <ele>1446.17</ele>
        <time>2016-06-03T09:08:26Z</time>
      </trkpt>
      <trkpt lat="45.11138" lon="5.49916">
        <ele>1445.64</ele>
        <time>2016-06-03T09:08:27Z</time>
      </trkpt>
      <trkpt lat="45.11135" lon="5.49924">
        <ele>1445.1</ele>
        <time>2016-06-03T09:08:28Z</time>
      </trkpt>
      <trkpt lat="45.11131" lon="5.49931">
        <ele>1444.59</ele>
        <time>2016-06-03T09:08:29Z</time>
      </trkpt>
      <trkpt lat="45.11126" lon="5.49938">
        <ele>1444.12</ele>
        <time>2016-06-03T09:08:30Z</time>
      </trkpt>
      <trkpt lat="45.1112" lon="5.49944">
        <ele>1443.68</ele>
        <time>2016-06-03T09:08:31Z</time>
      </trkpt>
      <trkpt lat="45.1111" lon="5.49956">
        <ele>1442.56</ele>
        <time>2016-06-03T09:08:33Z</time>
      </trkpt>
      <trkpt lat="45.11101" lon="5.49969">
        <ele>1441.88</ele>
        <time>2016-06-03T09:08:35Z</time>
      </trkpt>
      <trkpt lat="45.11099" lon="5.49977">
        <ele>1441.52</ele>
        <time>2016-06-03T09:08:36Z</time>
      </trkpt>
      <trkpt lat="45.11097" lon="5.49985">
        <ele>1441.15</ele>
        <time>2016-06-03T09:08:37Z</time>
      </trkpt>
      <trkpt lat="45.11097" lon="5.49994">
        <ele>1440.77</ele>
        <time>2016-06-03T09:08:38Z</time>
      </trkpt>
      <trkpt lat="45.11097" lon="5.50002">
        <ele>1440.37</ele>
        <time>2016-06-03T09:08:39Z</time>
      </trkpt>
      <trkpt lat="45.11099" lon="5.50011">
        <ele>1439.98</ele>
        <time>2016-06-03T09:08:40Z</time>
      </trkpt>
      <trkpt lat="45.11101" lon="5.5002">
        <ele>1439.57</ele>
        <time>2016-06-03T09:08:41Z</time>
      </trkpt>
      <trkpt lat="45.11104" lon="5.50029">
        <ele>1439.14</ele>
        <time>2016-06-03T09:08:42Z</time>
      </trkpt>
      <trkpt lat="45.11107" lon="5.50037">
        <ele>1438.71</ele>
        <time>2016-06-03T09:08:43Z</time>
      </trkpt>
      <trkpt lat="45.11117" lon="5.50054">
        <ele>1437.83</ele>
        <time>2016-06-03T09:08:45Z</time>
      </trkpt>
      <trkpt lat="45.11127" lon="5.50071">
        <ele>1436.8</ele>
        <time>2016-06-03T09:08:47Z</time>
      </trkpt>
      <trkpt lat="45.1113" lon="5.5008">
        <ele>1436.32</ele>
        <time>2016-06-03T09:08:48Z</time>
      </trkpt>
      <trkpt lat="45.1114" lon="5.50109">
        <ele>1434.71</ele>
        <time>2016-06-03T09:08:51Z</time>
      </trkpt>
      <trkpt lat="45.11145" lon="5.50116">
        <ele>1434.21</ele>
        <time>2016-06-03T09:08:52Z</time>
      </trkpt>
      <trkpt lat="45.11149" lon="5.50123">
        <ele>1433.7</ele>
        <time>2016-06-03T09:08:53Z</time>
      </trkpt>
      <trkpt lat="45.11155" lon="5.50129">
        <ele>1433.16</ele>
        <time>2016-06-03T09:08:54Z</time>
      </trkpt>
      <trkpt lat="45.11162" lon="5.50134">
        <ele>1432.64</ele>
        <time>2016-06-03T09:08:55Z</time>
      </trkpt>
      <trkpt lat="45.11169" lon="5.50139">
        <ele>1431.72</ele>
        <time>2016-06-03T09:08:56Z</time>
      </trkpt>
      <trkpt lat="45.11176" lon="5.50145">
        <ele>1431.72</ele>
        <time>2016-06-03T09:08:57Z</time>
      </trkpt>
      <trkpt lat="45.11205" lon="5.50163">
        <ele>1429.78</ele>
        <time>2016-06-03T09:09:01Z</time>
      </trkpt>
      <trkpt lat="45.11221" lon="5.50167">
        <ele>1429.05</ele>
        <time>2016-06-03T09:09:03Z</time>
      </trkpt>
      <trkpt lat="45.11298" lon="5.50158">
        <ele>1425.79</ele>
        <time>2016-06-03T09:09:12Z</time>
      </trkpt>
      <trkpt lat="45.11332" lon="5.50154">
        <ele>1424.04</ele>
        <time>2016-06-03T09:09:16Z</time>
      </trkpt>
      <trkpt lat="45.11374" lon="5.50159">
        <ele>1421.82</ele>
        <time>2016-06-03T09:09:21Z</time>
      </trkpt>
      <trkpt lat="45.11382" lon="5.50159">
        <ele>1420.8</ele>
        <time>2016-06-03T09:09:22Z</time>
      </trkpt>
      <trkpt lat="45.11397" lon="5.50156">
        <ele>1419.77</ele>
        <time>2016-06-03T09:09:24Z</time>
      </trkpt>
      <trkpt lat="45.11413" lon="5.5015">
        <ele>1418.78</ele>
        <time>2016-06-03T09:09:26Z</time>
      </trkpt>
      <trkpt lat="45.11441" lon="5.50137">
        <ele>1416.78</ele>
        <time>2016-06-03T09:09:30Z</time>
      </trkpt>
      <trkpt lat="45.11448" lon="5.50137">
        <ele>1416.3</ele>
        <time>2016-06-03T09:09:31Z</time>
      </trkpt>
      <trkpt lat="45.11454" lon="5.50138">
        <ele>1415.85</ele>
        <time>2016-06-03T09:09:32Z</time>
      </trkpt>
      <trkpt lat="45.1146" lon="5.50142">
        <ele>1415.43</ele>
        <time>2016-06-03T09:09:33Z</time>
      </trkpt>
      <trkpt lat="45.11464" lon="5.50148">
        <ele>1415.01</ele>
        <time>2016-06-03T09:09:34Z</time>
      </trkpt>
      <trkpt lat="45.11468" lon="5.50152">
        <ele>1414.58</ele>
        <time>2016-06-03T09:09:35Z</time>
      </trkpt>
      <trkpt lat="45.11471" lon="5.5016">
        <ele>1414.15</ele>
        <time>2016-06-03T09:09:36Z</time>
      </trkpt>
      <trkpt lat="45.11475" lon="5.50168">
        <ele>1413.72</ele>
        <time>2016-06-03T09:09:37Z</time>
      </trkpt>
      <trkpt lat="45.11478" lon="5.50176">
        <ele>1413.31</ele>
        <time>2016-06-03T09:09:38Z</time>
      </trkpt>
      <trkpt lat="45.11486" lon="5.50193">
        <ele>1412.61</ele>
        <time>2016-06-03T09:09:40Z</time>
      </trkpt>
      <trkpt lat="45.11489" lon="5.50201">
        <ele>1412.28</ele>
        <time>2016-06-03T09:09:41Z</time>
      </trkpt>
      <trkpt lat="45.11494" lon="5.50208">
        <ele>1411.98</ele>
        <time>2016-06-03T09:09:42Z</time>
      </trkpt>
      <trkpt lat="45.11499" lon="5.50215">
        <ele>1411.72</ele>
        <time>2016-06-03T09:09:43Z</time>
      </trkpt>
      <trkpt lat="45.11505" lon="5.5022">
        <ele>1411.49</ele>
        <time>2016-06-03T09:09:44Z</time>
      </trkpt>
      <trkpt lat="45.11511" lon="5.50223">
        <ele>1411.27</ele>
        <time>2016-06-03T09:09:45Z</time>
      </trkpt>
      <trkpt lat="45.11517" lon="5.50226">
        <ele>1411.06</ele>
        <time>2016-06-03T09:09:46Z</time>
      </trkpt>
      <trkpt lat="45.11524" lon="5.50227">
        <ele>1410.83</ele>
        <time>2016-06-03T09:09:47Z</time>
      </trkpt>
      <trkpt lat="45.1153" lon="5.50228">
        <ele>1410.31</ele>
        <time>2016-06-03T09:09:48Z</time>
      </trkpt>
      <trkpt lat="45.11537" lon="5.50229">
        <ele>1410.03</ele>
        <time>2016-06-03T09:09:49Z</time>
      </trkpt>
      <trkpt lat="45.11543" lon="5.5023">
        <ele>1409.77</ele>
        <time>2016-06-03T09:09:50Z</time>
      </trkpt>
      <trkpt lat="45.1155" lon="5.5023">
        <ele>1409.51</ele>
        <time>2016-06-03T09:09:51Z</time>
      </trkpt>
      <trkpt lat="45.11572" lon="5.50229">
        <ele>1408.7</ele>
        <time>2016-06-03T09:09:54Z</time>
      </trkpt>
      <trkpt lat="45.11578" lon="5.50228">
        <ele>1408.44</ele>
        <time>2016-06-03T09:09:55Z</time>
      </trkpt>
      <trkpt lat="45.11584" lon="5.50225">
        <ele>1408.21</ele>
        <time>2016-06-03T09:09:56Z</time>
      </trkpt>
      <trkpt lat="45.11638" lon="5.502">
        <ele>1406.3</ele>
        <time>2016-06-03T09:10:04Z</time>
      </trkpt>
      <trkpt lat="45.1165" lon="5.50191">
        <ele>1405.85</ele>
        <time>2016-06-03T09:10:06Z</time>
      </trkpt>
      <trkpt lat="45.11661" lon="5.50181">
        <ele>1405.48</ele>
        <time>2016-06-03T09:10:08Z</time>
      </trkpt>
      <trkpt lat="45.11666" lon="5.50176">
        <ele>1405.28</ele>
        <time>2016-06-03T09:10:09Z</time>
      </trkpt>
      <trkpt lat="45.11672" lon="5.50173">
        <ele>1405.08</ele>
        <time>2016-06-03T09:10:10Z</time>
      </trkpt>
      <trkpt lat="45.11677" lon="5.50174">
        <ele>1404.86</ele>
        <time>2016-06-03T09:10:11Z</time>
      </trkpt>
      <trkpt lat="45.11682" lon="5.50179">
        <ele>1404.65</ele>
        <time>2016-06-03T09:10:12Z</time>
      </trkpt>
      <trkpt lat="45.11686" lon="5.50185">
        <ele>1404.22</ele>
        <time>2016-06-03T09:10:13Z</time>
      </trkpt>
      <trkpt lat="45.11689" lon="5.50192">
        <ele>1404</ele>
        <time>2016-06-03T09:10:14Z</time>
      </trkpt>
      <trkpt lat="45.11692" lon="5.502">
        <ele>1403.8</ele>
        <time>2016-06-03T09:10:15Z</time>
      </trkpt>
      <trkpt lat="45.11695" lon="5.50208">
        <ele>1403.6</ele>
        <time>2016-06-03T09:10:16Z</time>
      </trkpt>
      <trkpt lat="45.11699" lon="5.50215">
        <ele>1403.4</ele>
        <time>2016-06-03T09:10:17Z</time>
      </trkpt>
      <trkpt lat="45.11704" lon="5.50219">
        <ele>1403.18</ele>
        <time>2016-06-03T09:10:18Z</time>
      </trkpt>
      <trkpt lat="45.1171" lon="5.50223">
        <ele>1402.97</ele>
        <time>2016-06-03T09:10:19Z</time>
      </trkpt>
      <trkpt lat="45.11716" lon="5.50225">
        <ele>1402.76</ele>
        <time>2016-06-03T09:10:20Z</time>
      </trkpt>
      <trkpt lat="45.11723" lon="5.50225">
        <ele>1402.58</ele>
        <time>2016-06-03T09:10:21Z</time>
      </trkpt>
      <trkpt lat="45.1173" lon="5.50224">
        <ele>1402.39</ele>
        <time>2016-06-03T09:10:22Z</time>
      </trkpt>
      <trkpt lat="45.11737" lon="5.50222">
        <ele>1402.18</ele>
        <time>2016-06-03T09:10:23Z</time>
      </trkpt>
      <trkpt lat="45.11744" lon="5.50222">
        <ele>1401.99</ele>
        <time>2016-06-03T09:10:24Z</time>
      </trkpt>
      <trkpt lat="45.11751" lon="5.50221">
        <ele>1401.78</ele>
        <time>2016-06-03T09:10:25Z</time>
      </trkpt>
      <trkpt lat="45.11758" lon="5.50221">
        <ele>1401.56</ele>
        <time>2016-06-03T09:10:26Z</time>
      </trkpt>
      <trkpt lat="45.11763" lon="5.50224">
        <ele>1401.32</ele>
        <time>2016-06-03T09:10:27Z</time>
      </trkpt>
      <trkpt lat="45.11767" lon="5.50228">
        <ele>1401.06</ele>
        <time>2016-06-03T09:10:28Z</time>
      </trkpt>
      <trkpt lat="45.1177" lon="5.50234">
        <ele>1400.77</ele>
        <time>2016-06-03T09:10:29Z</time>
      </trkpt>
      <trkpt lat="45.11772" lon="5.50242">
        <ele>1400.45</ele>
        <time>2016-06-03T09:10:30Z</time>
      </trkpt>
      <trkpt lat="45.11774" lon="5.5025">
        <ele>1400.12</ele>
        <time>2016-06-03T09:10:31Z</time>
      </trkpt>
      <trkpt lat="45.11772" lon="5.50257">
        <ele>1399.81</ele>
        <time>2016-06-03T09:10:32Z</time>
      </trkpt>
      <trkpt lat="45.11769" lon="5.50271">
        <ele>1399.3</ele>
        <time>2016-06-03T09:10:34Z</time>
      </trkpt>
      <trkpt lat="45.11765" lon="5.50285">
        <ele>1398.83</ele>
        <time>2016-06-03T09:10:36Z</time>
      </trkpt>
      <trkpt lat="45.11762" lon="5.50292">
        <ele>1398.44</ele>
        <time>2016-06-03T09:10:37Z</time>
      </trkpt>
      <trkpt lat="45.11751" lon="5.5031">
        <ele>1397.98</ele>
        <time>2016-06-03T09:10:40Z</time>
      </trkpt>
      <trkpt lat="45.11747" lon="5.50316">
        <ele>1397.74</ele>
        <time>2016-06-03T09:10:41Z</time>
      </trkpt>
      <trkpt lat="45.11744" lon="5.50323">
        <ele>1397.47</ele>
        <time>2016-06-03T09:10:42Z</time>
      </trkpt>
      <trkpt lat="45.11741" lon="5.50329">
        <ele>1397.22</ele>
        <time>2016-06-03T09:10:43Z</time>
      </trkpt>
      <trkpt lat="45.11738" lon="5.50336">
        <ele>1396.98</ele>
        <time>2016-06-03T09:10:44Z</time>
      </trkpt>
      <trkpt lat="45.11735" lon="5.50343">
        <ele>1396.74</ele>
        <time>2016-06-03T09:10:45Z</time>
      </trkpt>
      <trkpt lat="45.11729" lon="5.50359">
        <ele>1396.31</ele>
        <time>2016-06-03T09:10:47Z</time>
      </trkpt>
      <trkpt lat="45.11719" lon="5.50396">
        <ele>1395.39</ele>
        <time>2016-06-03T09:10:51Z</time>
      </trkpt>
      <trkpt lat="45.11717" lon="5.50405">
        <ele>1395.17</ele>
        <time>2016-06-03T09:10:52Z</time>
      </trkpt>
      <trkpt lat="45.11717" lon="5.50414">
        <ele>1394.95</ele>
        <time>2016-06-03T09:10:53Z</time>
      </trkpt>
      <trkpt lat="45.11718" lon="5.50423">
        <ele>1394.73</ele>
        <time>2016-06-03T09:10:54Z</time>
      </trkpt>
      <trkpt lat="45.1172" lon="5.50431">
        <ele>1394.49</ele>
        <time>2016-06-03T09:10:55Z</time>
      </trkpt>
      <trkpt lat="45.11723" lon="5.50439">
        <ele>1394.28</ele>
        <time>2016-06-03T09:10:56Z</time>
      </trkpt>
      <trkpt lat="45.11728" lon="5.50446">
        <ele>1394.06</ele>
        <time>2016-06-03T09:10:57Z</time>
      </trkpt>
      <trkpt lat="45.11734" lon="5.50452">
        <ele>1393.8</ele>
        <time>2016-06-03T09:10:58Z</time>
      </trkpt>
      <trkpt lat="45.11742" lon="5.50456">
        <ele>1393.51</ele>
        <time>2016-06-03T09:10:59Z</time>
      </trkpt>
      <trkpt lat="45.11749" lon="5.50458">
        <ele>1393.2</ele>
        <time>2016-06-03T09:11:00Z</time>
      </trkpt>
      <trkpt lat="45.11756" lon="5.50459">
        <ele>1392.63</ele>
        <time>2016-06-03T09:11:01Z</time>
      </trkpt>
      <trkpt lat="45.11763" lon="5.5046">
        <ele>1392.37</ele>
        <time>2016-06-03T09:11:02Z</time>
      </trkpt>
      <trkpt lat="45.11811" lon="5.50462">
        <ele>1390.2</ele>
        <time>2016-06-03T09:11:09Z</time>
      </trkpt>
      <trkpt lat="45.11817" lon="5.50465">
        <ele>1389.91</ele>
        <time>2016-06-03T09:11:10Z</time>
      </trkpt>
      <trkpt lat="45.11823" lon="5.50469">
        <ele>1389.6</ele>
        <time>2016-06-03T09:11:11Z</time>
      </trkpt>
      <trkpt lat="45.11829" lon="5.50473">
        <ele>1389.26</ele>
        <time>2016-06-03T09:11:12Z</time>
      </trkpt>
      <trkpt lat="45.11835" lon="5.50479">
        <ele>1388.96</ele>
        <time>2016-06-03T09:11:13Z</time>
      </trkpt>
      <trkpt lat="45.1184" lon="5.50485">
        <ele>1388.69</ele>
        <time>2016-06-03T09:11:14Z</time>
      </trkpt>
      <trkpt lat="45.11847" lon="5.50491">
        <ele>1388.4</ele>
        <time>2016-06-03T09:11:15Z</time>
      </trkpt>
      <trkpt lat="45.11853" lon="5.50496">
        <ele>1388.12</ele>
        <time>2016-06-03T09:11:16Z</time>
      </trkpt>
      <trkpt lat="45.11861" lon="5.505">
        <ele>1387.84</ele>
        <time>2016-06-03T09:11:17Z</time>
      </trkpt>
      <trkpt lat="45.11875" lon="5.50505">
        <ele>1387.21</ele>
        <time>2016-06-03T09:11:19Z</time>
      </trkpt>
      <trkpt lat="45.11889" lon="5.50508">
        <ele>1386.57</ele>
        <time>2016-06-03T09:11:21Z</time>
      </trkpt>
      <trkpt lat="45.11903" lon="5.50508">
        <ele>1386.07</ele>
        <time>2016-06-03T09:11:23Z</time>
      </trkpt>
      <trkpt lat="45.1191" lon="5.50507">
        <ele>1385.81</ele>
        <time>2016-06-03T09:11:24Z</time>
      </trkpt>
      <trkpt lat="45.11916" lon="5.50505">
        <ele>1385.53</ele>
        <time>2016-06-03T09:11:25Z</time>
      </trkpt>
      <trkpt lat="45.11923" lon="5.50502">
        <ele>1384.97</ele>
        <time>2016-06-03T09:11:26Z</time>
      </trkpt>
      <trkpt lat="45.11929" lon="5.50497">
        <ele>1384.71</ele>
        <time>2016-06-03T09:11:27Z</time>
      </trkpt>
      <trkpt lat="45.11934" lon="5.50492">
        <ele>1384.47</ele>
        <time>2016-06-03T09:11:28Z</time>
      </trkpt>
      <trkpt lat="45.11939" lon="5.50486">
        <ele>1384.26</ele>
        <time>2016-06-03T09:11:29Z</time>
      </trkpt>
      <trkpt lat="45.11952" lon="5.5047">
        <ele>1383.56</ele>
        <time>2016-06-03T09:11:32Z</time>
      </trkpt>
      <trkpt lat="45.11957" lon="5.50465">
        <ele>1383.31</ele>
        <time>2016-06-03T09:11:33Z</time>
      </trkpt>
      <trkpt lat="45.11961" lon="5.50461">
        <ele>1383.06</ele>
        <time>2016-06-03T09:11:34Z</time>
      </trkpt>
      <trkpt lat="45.11966" lon="5.50462">
        <ele>1382.79</ele>
        <time>2016-06-03T09:11:35Z</time>
      </trkpt>
      <trkpt lat="45.11971" lon="5.50463">
        <ele>1382.48</ele>
        <time>2016-06-03T09:11:36Z</time>
      </trkpt>
      <trkpt lat="45.11976" lon="5.50466">
        <ele>1382.14</ele>
        <time>2016-06-03T09:11:37Z</time>
      </trkpt>
      <trkpt lat="45.11981" lon="5.5047">
        <ele>1381.81</ele>
        <time>2016-06-03T09:11:38Z</time>
      </trkpt>
      <trkpt lat="45.11985" lon="5.50474">
        <ele>1381.5</ele>
        <time>2016-06-03T09:11:39Z</time>
      </trkpt>
      <trkpt lat="45.11989" lon="5.5048">
        <ele>1381.24</ele>
        <time>2016-06-03T09:11:40Z</time>
      </trkpt>
      <trkpt lat="45.11992" lon="5.50487">
        <ele>1381.02</ele>
        <time>2016-06-03T09:11:41Z</time>
      </trkpt>
      <trkpt lat="45.11995" lon="5.50493">
        <ele>1380.83</ele>
        <time>2016-06-03T09:11:42Z</time>
      </trkpt>
      <trkpt lat="45.12003" lon="5.50505">
        <ele>1380.53</ele>
        <time>2016-06-03T09:11:44Z</time>
      </trkpt>
      <trkpt lat="45.12015" lon="5.50521">
        <ele>1380.12</ele>
        <time>2016-06-03T09:11:47Z</time>
      </trkpt>
      <trkpt lat="45.12018" lon="5.50528">
        <ele>1379.98</ele>
        <time>2016-06-03T09:11:48Z</time>
      </trkpt>
      <trkpt lat="45.1202" lon="5.50536">
        <ele>1379.79</ele>
        <time>2016-06-03T09:11:49Z</time>
      </trkpt>
      <trkpt lat="45.12023" lon="5.50542">
        <ele>1379.4</ele>
        <time>2016-06-03T09:11:50Z</time>
      </trkpt>
      <trkpt lat="45.12026" lon="5.50548">
        <ele>1379.23</ele>
        <time>2016-06-03T09:11:51Z</time>
      </trkpt>
      <trkpt lat="45.12029" lon="5.50554">
        <ele>1379.06</ele>
        <time>2016-06-03T09:11:52Z</time>
      </trkpt>
      <trkpt lat="45.12032" lon="5.50559">
        <ele>1378.88</ele>
        <time>2016-06-03T09:11:53Z</time>
      </trkpt>
      <trkpt lat="45.12045" lon="5.50572">
        <ele>1378.4</ele>
        <time>2016-06-03T09:11:56Z</time>
      </trkpt>
      <trkpt lat="45.12049" lon="5.50577">
        <ele>1378.18</ele>
        <time>2016-06-03T09:11:57Z</time>
      </trkpt>
      <trkpt lat="45.12053" lon="5.50581">
        <ele>1377.93</ele>
        <time>2016-06-03T09:11:58Z</time>
      </trkpt>
      <trkpt lat="45.12076" lon="5.50597">
        <ele>1376.78</ele>
        <time>2016-06-03T09:12:02Z</time>
      </trkpt>
      <trkpt lat="45.12092" lon="5.50604">
        <ele>1376.19</ele>
        <time>2016-06-03T09:12:04Z</time>
      </trkpt>
      <trkpt lat="45.12107" lon="5.50609">
        <ele>1375.51</ele>
        <time>2016-06-03T09:12:06Z</time>
      </trkpt>
      <trkpt lat="45.12136" lon="5.50613">
        <ele>1374.06</ele>
        <time>2016-06-03T09:12:10Z</time>
      </trkpt>
      <trkpt lat="45.12142" lon="5.50612">
        <ele>1373.66</ele>
        <time>2016-06-03T09:12:11Z</time>
      </trkpt>
      <trkpt lat="45.12171" lon="5.50606">
        <ele>1371.62</ele>
        <time>2016-06-03T09:12:15Z</time>
      </trkpt>
      <trkpt lat="45.12179" lon="5.50604">
        <ele>1371.22</ele>
        <time>2016-06-03T09:12:16Z</time>
      </trkpt>
      <trkpt lat="45.12192" lon="5.50598">
        <ele>1370.43</ele>
        <time>2016-06-03T09:12:18Z</time>
      </trkpt>
      <trkpt lat="45.122" lon="5.50596">
        <ele>1370</ele>
        <time>2016-06-03T09:12:19Z</time>
      </trkpt>
      <trkpt lat="45.12237" lon="5.50581">
        <ele>1367.88</ele>
        <time>2016-06-03T09:12:24Z</time>
      </trkpt>
      <trkpt lat="45.12252" lon="5.50572">
        <ele>1367.03</ele>
        <time>2016-06-03T09:12:26Z</time>
      </trkpt>
      <trkpt lat="45.12258" lon="5.50566">
        <ele>1366.57</ele>
        <time>2016-06-03T09:12:27Z</time>
      </trkpt>
      <trkpt lat="45.12264" lon="5.50558">
        <ele>1366.12</ele>
        <time>2016-06-03T09:12:28Z</time>
      </trkpt>
      <trkpt lat="45.12269" lon="5.50549">
        <ele>1365.68</ele>
        <time>2016-06-03T09:12:29Z</time>
      </trkpt>
      <trkpt lat="45.12274" lon="5.50542">
        <ele>1365.27</ele>
        <time>2016-06-03T09:12:30Z</time>
      </trkpt>
      <trkpt lat="45.12283" lon="5.50524">
        <ele>1364.44</ele>
        <time>2016-06-03T09:12:32Z</time>
      </trkpt>
      <trkpt lat="45.1229" lon="5.5051">
        <ele>1363.56</ele>
        <time>2016-06-03T09:12:34Z</time>
      </trkpt>
      <trkpt lat="45.12295" lon="5.50506">
        <ele>1363.08</ele>
        <time>2016-06-03T09:12:35Z</time>
      </trkpt>
      <trkpt lat="45.12301" lon="5.50504">
        <ele>1362.58</ele>
        <time>2016-06-03T09:12:36Z</time>
      </trkpt>
      <trkpt lat="45.12307" lon="5.50506">
        <ele>1362.1</ele>
        <time>2016-06-03T09:12:37Z</time>
      </trkpt>
      <trkpt lat="45.12311" lon="5.50509">
        <ele>1361.26</ele>
        <time>2016-06-03T09:12:38Z</time>
      </trkpt>
      <trkpt lat="45.12315" lon="5.50513">
        <ele>1361.26</ele>
        <time>2016-06-03T09:12:39Z</time>
      </trkpt>
      <trkpt lat="45.12335" lon="5.50531">
        <ele>1359.72</ele>
        <time>2016-06-03T09:12:43Z</time>
      </trkpt>
      <trkpt lat="45.1234" lon="5.50535">
        <ele>1359.49</ele>
        <time>2016-06-03T09:12:44Z</time>
      </trkpt>
      <trkpt lat="45.12345" lon="5.5054">
        <ele>1359.26</ele>
        <time>2016-06-03T09:12:45Z</time>
      </trkpt>
      <trkpt lat="45.12349" lon="5.50545">
        <ele>1359.03</ele>
        <time>2016-06-03T09:12:46Z</time>
      </trkpt>
      <trkpt lat="45.12354" lon="5.50551">
        <ele>1358.81</ele>
        <time>2016-06-03T09:12:47Z</time>
      </trkpt>
      <trkpt lat="45.12362" lon="5.50566">
        <ele>1358.41</ele>
        <time>2016-06-03T09:12:49Z</time>
      </trkpt>
      <trkpt lat="45.12365" lon="5.50575">
        <ele>1358.23</ele>
        <time>2016-06-03T09:12:50Z</time>
      </trkpt>
      <trkpt lat="45.12372" lon="5.50592">
        <ele>1357.83</ele>
        <time>2016-06-03T09:12:52Z</time>
      </trkpt>
      <trkpt lat="45.12376" lon="5.50599">
        <ele>1357.65</ele>
        <time>2016-06-03T09:12:53Z</time>
      </trkpt>
      <trkpt lat="45.12384" lon="5.5061">
        <ele>1357.24</ele>
        <time>2016-06-03T09:12:55Z</time>
      </trkpt>
      <trkpt lat="45.12389" lon="5.50614">
        <ele>1356.99</ele>
        <time>2016-06-03T09:12:56Z</time>
      </trkpt>
      <trkpt lat="45.12401" lon="5.5062">
        <ele>1356.5</ele>
        <time>2016-06-03T09:12:58Z</time>
      </trkpt>
      <trkpt lat="45.12414" lon="5.50623">
        <ele>1356.08</ele>
        <time>2016-06-03T09:13:00Z</time>
      </trkpt>
      <trkpt lat="45.1242" lon="5.50622">
        <ele>1355.88</ele>
        <time>2016-06-03T09:13:01Z</time>
      </trkpt>
      <trkpt lat="45.12427" lon="5.50621">
        <ele>1355.46</ele>
        <time>2016-06-03T09:13:02Z</time>
      </trkpt>
      <trkpt lat="45.12433" lon="5.50618">
        <ele>1355.46</ele>
        <time>2016-06-03T09:13:03Z</time>
      </trkpt>
      <trkpt lat="45.12439" lon="5.50613">
        <ele>1354.93</ele>
        <time>2016-06-03T09:13:04Z</time>
      </trkpt>
      <trkpt lat="45.12445" lon="5.50608">
        <ele>1354.64</ele>
        <time>2016-06-03T09:13:05Z</time>
      </trkpt>
      <trkpt lat="45.12451" lon="5.50602">
        <ele>1354.34</ele>
        <time>2016-06-03T09:13:06Z</time>
      </trkpt>
      <trkpt lat="45.12455" lon="5.50596">
        <ele>1354</ele>
        <time>2016-06-03T09:13:07Z</time>
      </trkpt>
      <trkpt lat="45.12458" lon="5.50587">
        <ele>1353.65</ele>
        <time>2016-06-03T09:13:08Z</time>
      </trkpt>
      <trkpt lat="45.12461" lon="5.50579">
        <ele>1353.26</ele>
        <time>2016-06-03T09:13:09Z</time>
      </trkpt>
      <trkpt lat="45.12469" lon="5.50566">
        <ele>1352.39</ele>
        <time>2016-06-03T09:13:11Z</time>
      </trkpt>
      <trkpt lat="45.12473" lon="5.50562">
        <ele>1351.91</ele>
        <time>2016-06-03T09:13:12Z</time>
      </trkpt>
      <trkpt lat="45.12478" lon="5.5056">
        <ele>1351.46</ele>
        <time>2016-06-03T09:13:13Z</time>
      </trkpt>
      <trkpt lat="45.12483" lon="5.5056">
        <ele>1351.07</ele>
        <time>2016-06-03T09:13:14Z</time>
      </trkpt>
      <trkpt lat="45.12488" lon="5.50565">
        <ele>1350.71</ele>
        <time>2016-06-03T09:13:15Z</time>
      </trkpt>
      <trkpt lat="45.12493" lon="5.5057">
        <ele>1350.36</ele>
        <time>2016-06-03T09:13:16Z</time>
      </trkpt>
      <trkpt lat="45.12497" lon="5.50574">
        <ele>1350.04</ele>
        <time>2016-06-03T09:13:17Z</time>
      </trkpt>
      <trkpt lat="45.12508" lon="5.50584">
        <ele>1349.47</ele>
        <time>2016-06-03T09:13:19Z</time>
      </trkpt>
      <trkpt lat="45.12518" lon="5.50596">
        <ele>1348.99</ele>
        <time>2016-06-03T09:13:21Z</time>
      </trkpt>
      <trkpt lat="45.12525" lon="5.50614">
        <ele>1348.56</ele>
        <time>2016-06-03T09:13:23Z</time>
      </trkpt>
      <trkpt lat="45.12528" lon="5.50624">
        <ele>1348.29</ele>
        <time>2016-06-03T09:13:24Z</time>
      </trkpt>
      <trkpt lat="45.12531" lon="5.50633">
        <ele>1347.96</ele>
        <time>2016-06-03T09:13:25Z</time>
      </trkpt>
      <trkpt lat="45.12534" lon="5.50642">
        <ele>1347.3</ele>
        <time>2016-06-03T09:13:26Z</time>
      </trkpt>
      <trkpt lat="45.12538" lon="5.50651">
        <ele>1347.3</ele>
        <time>2016-06-03T09:13:27Z</time>
      </trkpt>
      <trkpt lat="45.12541" lon="5.50659">
        <ele>1346.67</ele>
        <time>2016-06-03T09:13:28Z</time>
      </trkpt>
      <trkpt lat="45.12545" lon="5.50667">
        <ele>1346.36</ele>
        <time>2016-06-03T09:13:29Z</time>
      </trkpt>
      <trkpt lat="45.12556" lon="5.50682">
        <ele>1345.77</ele>
        <time>2016-06-03T09:13:31Z</time>
      </trkpt>
      <trkpt lat="45.12562" lon="5.50688">
        <ele>1345.48</ele>
        <time>2016-06-03T09:13:32Z</time>
      </trkpt>
      <trkpt lat="45.12568" lon="5.50692">
        <ele>1345.17</ele>
        <time>2016-06-03T09:13:33Z</time>
      </trkpt>
      <trkpt lat="45.12574" lon="5.50694">
        <ele>1344.87</ele>
        <time>2016-06-03T09:13:34Z</time>
      </trkpt>
      <trkpt lat="45.1258" lon="5.50695">
        <ele>1344.55</ele>
        <time>2016-06-03T09:13:35Z</time>
      </trkpt>
      <trkpt lat="45.12586" lon="5.50695">
        <ele>1344.23</ele>
        <time>2016-06-03T09:13:36Z</time>
      </trkpt>
      <trkpt lat="45.12599" lon="5.50697">
        <ele>1343.59</ele>
        <time>2016-06-03T09:13:38Z</time>
      </trkpt>
      <trkpt lat="45.12604" lon="5.50699">
        <ele>1343.23</ele>
        <time>2016-06-03T09:13:39Z</time>
      </trkpt>
      <trkpt lat="45.12609" lon="5.50701">
        <ele>1342.9</ele>
        <time>2016-06-03T09:13:40Z</time>
      </trkpt>
      <trkpt lat="45.12614" lon="5.50706">
        <ele>1342.59</ele>
        <time>2016-06-03T09:13:41Z</time>
      </trkpt>
      <trkpt lat="45.12617" lon="5.50712">
        <ele>1342.28</ele>
        <time>2016-06-03T09:13:42Z</time>
      </trkpt>
      <trkpt lat="45.12619" lon="5.5072">
        <ele>1341.94</ele>
        <time>2016-06-03T09:13:43Z</time>
      </trkpt>
      <trkpt lat="45.12619" lon="5.50729">
        <ele>1341.59</ele>
        <time>2016-06-03T09:13:44Z</time>
      </trkpt>
      <trkpt lat="45.12619" lon="5.50737">
        <ele>1341.23</ele>
        <time>2016-06-03T09:13:45Z</time>
      </trkpt>
      <trkpt lat="45.12617" lon="5.50744">
        <ele>1340.88</ele>
        <time>2016-06-03T09:13:46Z</time>
      </trkpt>
      <trkpt lat="45.12615" lon="5.50751">
        <ele>1340.58</ele>
        <time>2016-06-03T09:13:47Z</time>
      </trkpt>
      <trkpt lat="45.12608" lon="5.50794">
        <ele>1337.77</ele>
        <time>2016-06-03T09:13:57Z</time>
      </trkpt>
      <trkpt lat="45.12607" lon="5.50792">
        <ele>1336.01</ele>
        <time>2016-06-03T09:14:26Z</time>
      </trkpt>
      <trkpt lat="45.12601" lon="5.50786">
        <ele>1335.96</ele>
        <time>2016-06-03T09:15:03Z</time>
      </trkpt>
      <trkpt lat="45.12608" lon="5.50791">
        <ele>1336.07</ele>
        <time>2016-06-03T09:15:28Z</time>
      </trkpt>
      <trkpt lat="45.1261" lon="5.50793">
        <ele>1336.13</ele>
        <time>2016-06-03T09:16:38Z</time>
      </trkpt>
      <trkpt lat="45.12613" lon="5.50795">
        <ele>1336.27</ele>
        <time>2016-06-03T09:17:18Z</time>
      </trkpt>
      <trkpt lat="45.12616" lon="5.50796">
        <ele>1336.26</ele>
        <time>2016-06-03T09:17:20Z</time>
      </trkpt>
      <trkpt lat="45.12618" lon="5.50797">
        <ele>1336.24</ele>
        <time>2016-06-03T09:17:21Z</time>
      </trkpt>
      <trkpt lat="45.12652" lon="5.50804">
        <ele>1335.64</ele>
        <time>2016-06-03T09:17:31Z</time>
      </trkpt>
      <trkpt lat="45.12674" lon="5.50806">
        <ele>1334.61</ele>
        <time>2016-06-03T09:17:36Z</time>
      </trkpt>
      <trkpt lat="45.12685" lon="5.50807">
        <ele>1334.21</ele>
        <time>2016-06-03T09:17:38Z</time>
      </trkpt>
      <trkpt lat="45.12751" lon="5.50816">
        <ele>1331.12</ele>
        <time>2016-06-03T09:17:49Z</time>
      </trkpt>
      <trkpt lat="45.128" lon="5.50809">
        <ele>1328.41</ele>
        <time>2016-06-03T09:17:57Z</time>
      </trkpt>
      <trkpt lat="45.12812" lon="5.50801">
        <ele>1327.9</ele>
        <time>2016-06-03T09:17:59Z</time>
      </trkpt>
      <trkpt lat="45.1285" lon="5.50754">
        <ele>1325.3</ele>
        <time>2016-06-03T09:18:08Z</time>
      </trkpt>
      <trkpt lat="45.12855" lon="5.50752">
        <ele>1325.04</ele>
        <time>2016-06-03T09:18:09Z</time>
      </trkpt>
      <trkpt lat="45.1286" lon="5.50751">
        <ele>1324.75</ele>
        <time>2016-06-03T09:18:10Z</time>
      </trkpt>
      <trkpt lat="45.12865" lon="5.50751">
        <ele>1324.44</ele>
        <time>2016-06-03T09:18:11Z</time>
      </trkpt>
      <trkpt lat="45.12869" lon="5.50756">
        <ele>1324.14</ele>
        <time>2016-06-03T09:18:12Z</time>
      </trkpt>
      <trkpt lat="45.12873" lon="5.50761">
        <ele>1323.87</ele>
        <time>2016-06-03T09:18:13Z</time>
      </trkpt>
      <trkpt lat="45.12878" lon="5.50765">
        <ele>1323.6</ele>
        <time>2016-06-03T09:18:14Z</time>
      </trkpt>
      <trkpt lat="45.12881" lon="5.50769">
        <ele>1323.3</ele>
        <time>2016-06-03T09:18:15Z</time>
      </trkpt>
      <trkpt lat="45.12885" lon="5.50773">
        <ele>1323.01</ele>
        <time>2016-06-03T09:18:16Z</time>
      </trkpt>
      <trkpt lat="45.12889" lon="5.50776">
        <ele>1322.75</ele>
        <time>2016-06-03T09:18:17Z</time>
      </trkpt>
      <trkpt lat="45.12894" lon="5.50779">
        <ele>1322.51</ele>
        <time>2016-06-03T09:18:18Z</time>
      </trkpt>
      <trkpt lat="45.12899" lon="5.50781">
        <ele>1322.24</ele>
        <time>2016-06-03T09:18:19Z</time>
      </trkpt>
      <trkpt lat="45.12904" lon="5.50781">
        <ele>1321.94</ele>
        <time>2016-06-03T09:18:20Z</time>
      </trkpt>
      <trkpt lat="45.12921" lon="5.50782">
        <ele>1321.02</ele>
        <time>2016-06-03T09:18:23Z</time>
      </trkpt>
      <trkpt lat="45.12933" lon="5.50779">
        <ele>1320.08</ele>
        <time>2016-06-03T09:18:25Z</time>
      </trkpt>
      <trkpt lat="45.12939" lon="5.50775">
        <ele>1319.74</ele>
        <time>2016-06-03T09:18:26Z</time>
      </trkpt>
      <trkpt lat="45.12944" lon="5.50772">
        <ele>1319.43</ele>
        <time>2016-06-03T09:18:27Z</time>
      </trkpt>
      <trkpt lat="45.12949" lon="5.5077">
        <ele>1319.15</ele>
        <time>2016-06-03T09:18:28Z</time>
      </trkpt>
      <trkpt lat="45.12953" lon="5.50766">
        <ele>1318.87</ele>
        <time>2016-06-03T09:18:29Z</time>
      </trkpt>
      <trkpt lat="45.12958" lon="5.50762">
        <ele>1318.59</ele>
        <time>2016-06-03T09:18:30Z</time>
      </trkpt>
      <trkpt lat="45.12964" lon="5.50759">
        <ele>1318.26</ele>
        <time>2016-06-03T09:18:31Z</time>
      </trkpt>
      <trkpt lat="45.12969" lon="5.50756">
        <ele>1317.9</ele>
        <time>2016-06-03T09:18:32Z</time>
      </trkpt>
      <trkpt lat="45.1298" lon="5.50755">
        <ele>1317.12</ele>
        <time>2016-06-03T09:18:34Z</time>
      </trkpt>
      <trkpt lat="45.12986" lon="5.5076">
        <ele>1316.72</ele>
        <time>2016-06-03T09:18:35Z</time>
      </trkpt>
      <trkpt lat="45.12997" lon="5.50773">
        <ele>1315.89</ele>
        <time>2016-06-03T09:18:37Z</time>
      </trkpt>
      <trkpt lat="45.13002" lon="5.50782">
        <ele>1315.51</ele>
        <time>2016-06-03T09:18:38Z</time>
      </trkpt>
      <trkpt lat="45.13012" lon="5.50797">
        <ele>1314.75</ele>
        <time>2016-06-03T09:18:40Z</time>
      </trkpt>
      <trkpt lat="45.13039" lon="5.50832">
        <ele>1312.94</ele>
        <time>2016-06-03T09:18:45Z</time>
      </trkpt>
      <trkpt lat="45.13053" lon="5.50842">
        <ele>1312.24</ele>
        <time>2016-06-03T09:18:47Z</time>
      </trkpt>
      <trkpt lat="45.13111" lon="5.50868">
        <ele>1309.11</ele>
        <time>2016-06-03T09:18:54Z</time>
      </trkpt>
      <trkpt lat="45.1312" lon="5.50869">
        <ele>1308.62</ele>
        <time>2016-06-03T09:18:55Z</time>
      </trkpt>
      <trkpt lat="45.13128" lon="5.50868">
        <ele>1308.1</ele>
        <time>2016-06-03T09:18:56Z</time>
      </trkpt>
      <trkpt lat="45.13136" lon="5.50866">
        <ele>1307.61</ele>
        <time>2016-06-03T09:18:57Z</time>
      </trkpt>
      <trkpt lat="45.13143" lon="5.50863">
        <ele>1307.15</ele>
        <time>2016-06-03T09:18:58Z</time>
      </trkpt>
      <trkpt lat="45.1315" lon="5.50856">
        <ele>1306.69</ele>
        <time>2016-06-03T09:18:59Z</time>
      </trkpt>
      <trkpt lat="45.13156" lon="5.50849">
        <ele>1306.25</ele>
        <time>2016-06-03T09:19:00Z</time>
      </trkpt>
      <trkpt lat="45.1317" lon="5.50831">
        <ele>1304.97</ele>
        <time>2016-06-03T09:19:03Z</time>
      </trkpt>
      <trkpt lat="45.13174" lon="5.50828">
        <ele>1304.47</ele>
        <time>2016-06-03T09:19:04Z</time>
      </trkpt>
      <trkpt lat="45.13179" lon="5.50825">
        <ele>1303.98</ele>
        <time>2016-06-03T09:19:05Z</time>
      </trkpt>
      <trkpt lat="45.13185" lon="5.50823">
        <ele>1303.5</ele>
        <time>2016-06-03T09:19:06Z</time>
      </trkpt>
      <trkpt lat="45.13192" lon="5.50823">
        <ele>1303.01</ele>
        <time>2016-06-03T09:19:07Z</time>
      </trkpt>
      <trkpt lat="45.13197" lon="5.50824">
        <ele>1302.5</ele>
        <time>2016-06-03T09:19:08Z</time>
      </trkpt>
      <trkpt lat="45.13203" lon="5.50828">
        <ele>1302.03</ele>
        <time>2016-06-03T09:19:09Z</time>
      </trkpt>
      <trkpt lat="45.13209" lon="5.50834">
        <ele>1301.6</ele>
        <time>2016-06-03T09:19:10Z</time>
      </trkpt>
      <trkpt lat="45.13215" lon="5.50841">
        <ele>1301.17</ele>
        <time>2016-06-03T09:19:11Z</time>
      </trkpt>
      <trkpt lat="45.1322" lon="5.50849">
        <ele>1300.7</ele>
        <time>2016-06-03T09:19:12Z</time>
      </trkpt>
      <trkpt lat="45.13226" lon="5.50856">
        <ele>1299.86</ele>
        <time>2016-06-03T09:19:13Z</time>
      </trkpt>
      <trkpt lat="45.13231" lon="5.50863">
        <ele>1299.49</ele>
        <time>2016-06-03T09:19:14Z</time>
      </trkpt>
      <trkpt lat="45.13238" lon="5.50869">
        <ele>1299.14</ele>
        <time>2016-06-03T09:19:15Z</time>
      </trkpt>
      <trkpt lat="45.13244" lon="5.50873">
        <ele>1298.81</ele>
        <time>2016-06-03T09:19:16Z</time>
      </trkpt>
      <trkpt lat="45.13251" lon="5.50876">
        <ele>1298.48</ele>
        <time>2016-06-03T09:19:17Z</time>
      </trkpt>
      <trkpt lat="45.13259" lon="5.50877">
        <ele>1298.15</ele>
        <time>2016-06-03T09:19:18Z</time>
      </trkpt>
      <trkpt lat="45.13267" lon="5.50877">
        <ele>1297.75</ele>
        <time>2016-06-03T09:19:19Z</time>
      </trkpt>
      <trkpt lat="45.13275" lon="5.50875">
        <ele>1297.31</ele>
        <time>2016-06-03T09:19:20Z</time>
      </trkpt>
      <trkpt lat="45.13282" lon="5.50871">
        <ele>1296.85</ele>
        <time>2016-06-03T09:19:21Z</time>
      </trkpt>
      <trkpt lat="45.13288" lon="5.50868">
        <ele>1296.42</ele>
        <time>2016-06-03T09:19:22Z</time>
      </trkpt>
      <trkpt lat="45.13302" lon="5.50864">
        <ele>1295.54</ele>
        <time>2016-06-03T09:19:24Z</time>
      </trkpt>
      <trkpt lat="45.13309" lon="5.50864">
        <ele>1295.04</ele>
        <time>2016-06-03T09:19:25Z</time>
      </trkpt>
      <trkpt lat="45.13314" lon="5.50867">
        <ele>1294.49</ele>
        <time>2016-06-03T09:19:26Z</time>
      </trkpt>
      <trkpt lat="45.13319" lon="5.50872">
        <ele>1293.94</ele>
        <time>2016-06-03T09:19:27Z</time>
      </trkpt>
      <trkpt lat="45.13324" lon="5.50879">
        <ele>1293.37</ele>
        <time>2016-06-03T09:19:28Z</time>
      </trkpt>
      <trkpt lat="45.13328" lon="5.50887">
        <ele>1292.81</ele>
        <time>2016-06-03T09:19:29Z</time>
      </trkpt>
      <trkpt lat="45.13331" lon="5.50895">
        <ele>1292.29</ele>
        <time>2016-06-03T09:19:30Z</time>
      </trkpt>
      <trkpt lat="45.13333" lon="5.50902">
        <ele>1291.79</ele>
        <time>2016-06-03T09:19:31Z</time>
      </trkpt>
      <trkpt lat="45.13334" lon="5.50909">
        <ele>1291.34</ele>
        <time>2016-06-03T09:19:32Z</time>
      </trkpt>
      <trkpt lat="45.13339" lon="5.50932">
        <ele>1290.32</ele>
        <time>2016-06-03T09:19:35Z</time>
      </trkpt>
      <trkpt lat="45.13343" lon="5.5094">
        <ele>1290.05</ele>
        <time>2016-06-03T09:19:36Z</time>
      </trkpt>
      <trkpt lat="45.13348" lon="5.50947">
        <ele>1289.8</ele>
        <time>2016-06-03T09:19:37Z</time>
      </trkpt>
      <trkpt lat="45.13353" lon="5.50954">
        <ele>1289.35</ele>
        <time>2016-06-03T09:19:38Z</time>
      </trkpt>
      <trkpt lat="45.13359" lon="5.50959">
        <ele>1289.11</ele>
        <time>2016-06-03T09:19:39Z</time>
      </trkpt>
      <trkpt lat="45.13366" lon="5.50964">
        <ele>1288.88</ele>
        <time>2016-06-03T09:19:40Z</time>
      </trkpt>
      <trkpt lat="45.13373" lon="5.50966">
        <ele>1288.63</ele>
        <time>2016-06-03T09:19:41Z</time>
      </trkpt>
      <trkpt lat="45.13381" lon="5.50967">
        <ele>1288.34</ele>
        <time>2016-06-03T09:19:42Z</time>
      </trkpt>
      <trkpt lat="45.13388" lon="5.50968">
        <ele>1288.03</ele>
        <time>2016-06-03T09:19:43Z</time>
      </trkpt>
      <trkpt lat="45.13395" lon="5.50968">
        <ele>1287.72</ele>
        <time>2016-06-03T09:19:44Z</time>
      </trkpt>
      <trkpt lat="45.13403" lon="5.50966">
        <ele>1287.4</ele>
        <time>2016-06-03T09:19:45Z</time>
      </trkpt>
      <trkpt lat="45.13446" lon="5.50962">
        <ele>1285.43</ele>
        <time>2016-06-03T09:19:50Z</time>
      </trkpt>
      <trkpt lat="45.13501" lon="5.50973">
        <ele>1282.31</ele>
        <time>2016-06-03T09:19:56Z</time>
      </trkpt>
      <trkpt lat="45.13554" lon="5.50981">
        <ele>1279.12</ele>
        <time>2016-06-03T09:20:02Z</time>
      </trkpt>
      <trkpt lat="45.13562" lon="5.50982">
        <ele>1278.64</ele>
        <time>2016-06-03T09:20:03Z</time>
      </trkpt>
      <trkpt lat="45.13612" lon="5.50989">
        <ele>1275.33</ele>
        <time>2016-06-03T09:20:09Z</time>
      </trkpt>
      <trkpt lat="45.13654" lon="5.50985">
        <ele>1272.98</ele>
        <time>2016-06-03T09:20:14Z</time>
      </trkpt>
      <trkpt lat="45.13662" lon="5.50982">
        <ele>1272.5</ele>
        <time>2016-06-03T09:20:15Z</time>
      </trkpt>
      <trkpt lat="45.13669" lon="5.50978">
        <ele>1272.05</ele>
        <time>2016-06-03T09:20:16Z</time>
      </trkpt>
      <trkpt lat="45.13676" lon="5.50972">
        <ele>1271.62</ele>
        <time>2016-06-03T09:20:17Z</time>
      </trkpt>
      <trkpt lat="45.13682" lon="5.50965">
        <ele>1271.22</ele>
        <time>2016-06-03T09:20:18Z</time>
      </trkpt>
      <trkpt lat="45.13689" lon="5.50956">
        <ele>1270.82</ele>
        <time>2016-06-03T09:20:19Z</time>
      </trkpt>
      <trkpt lat="45.13694" lon="5.50947">
        <ele>1270.4</ele>
        <time>2016-06-03T09:20:20Z</time>
      </trkpt>
      <trkpt lat="45.13697" lon="5.50937">
        <ele>1269.97</ele>
        <time>2016-06-03T09:20:21Z</time>
      </trkpt>
      <trkpt lat="45.137" lon="5.50924">
        <ele>1269.47</ele>
        <time>2016-06-03T09:20:22Z</time>
      </trkpt>
      <trkpt lat="45.13701" lon="5.50912">
        <ele>1268.91</ele>
        <time>2016-06-03T09:20:23Z</time>
      </trkpt>
      <trkpt lat="45.13703" lon="5.50901">
        <ele>1268.34</ele>
        <time>2016-06-03T09:20:24Z</time>
      </trkpt>
      <trkpt lat="45.13703" lon="5.50877">
        <ele>1266.58</ele>
        <time>2016-06-03T09:20:26Z</time>
      </trkpt>
      <trkpt lat="45.13703" lon="5.50865">
        <ele>1266.58</ele>
        <time>2016-06-03T09:20:27Z</time>
      </trkpt>
      <trkpt lat="45.13704" lon="5.50853">
        <ele>1265.4</ele>
        <time>2016-06-03T09:20:28Z</time>
      </trkpt>
      <trkpt lat="45.13706" lon="5.50841">
        <ele>1264.84</ele>
        <time>2016-06-03T09:20:29Z</time>
      </trkpt>
      <trkpt lat="45.1371" lon="5.50832">
        <ele>1264.29</ele>
        <time>2016-06-03T09:20:30Z</time>
      </trkpt>
      <trkpt lat="45.1372" lon="5.50814">
        <ele>1263.38</ele>
        <time>2016-06-03T09:20:32Z</time>
      </trkpt>
      <trkpt lat="45.13727" lon="5.50808">
        <ele>1262.99</ele>
        <time>2016-06-03T09:20:33Z</time>
      </trkpt>
      <trkpt lat="45.13738" lon="5.50797">
        <ele>1262.09</ele>
        <time>2016-06-03T09:20:35Z</time>
      </trkpt>
      <trkpt lat="45.13744" lon="5.50794">
        <ele>1261.61</ele>
        <time>2016-06-03T09:20:36Z</time>
      </trkpt>
      <trkpt lat="45.13757" lon="5.50791">
        <ele>1260.56</ele>
        <time>2016-06-03T09:20:38Z</time>
      </trkpt>
      <trkpt lat="45.13761" lon="5.50794">
        <ele>1260.03</ele>
        <time>2016-06-03T09:20:39Z</time>
      </trkpt>
      <trkpt lat="45.13765" lon="5.508">
        <ele>1259.55</ele>
        <time>2016-06-03T09:20:40Z</time>
      </trkpt>
      <trkpt lat="45.13806" lon="5.50855">
        <ele>1256.72</ele>
        <time>2016-06-03T09:20:48Z</time>
      </trkpt>
      <trkpt lat="45.13811" lon="5.5086">
        <ele>1256.31</ele>
        <time>2016-06-03T09:20:49Z</time>
      </trkpt>
      <trkpt lat="45.13816" lon="5.50864">
        <ele>1255.85</ele>
        <time>2016-06-03T09:20:50Z</time>
      </trkpt>
      <trkpt lat="45.13823" lon="5.50865">
        <ele>1255.37</ele>
        <time>2016-06-03T09:20:51Z</time>
      </trkpt>
      <trkpt lat="45.1383" lon="5.50865">
        <ele>1254.39</ele>
        <time>2016-06-03T09:20:52Z</time>
      </trkpt>
      <trkpt lat="45.13837" lon="5.50862">
        <ele>1253.91</ele>
        <time>2016-06-03T09:20:53Z</time>
      </trkpt>
      <trkpt lat="45.13842" lon="5.50857">
        <ele>1253.45</ele>
        <time>2016-06-03T09:20:54Z</time>
      </trkpt>
      <trkpt lat="45.13848" lon="5.5085">
        <ele>1253.02</ele>
        <time>2016-06-03T09:20:55Z</time>
      </trkpt>
      <trkpt lat="45.13854" lon="5.50842">
        <ele>1252.58</ele>
        <time>2016-06-03T09:20:56Z</time>
      </trkpt>
      <trkpt lat="45.13859" lon="5.50833">
        <ele>1252.15</ele>
        <time>2016-06-03T09:20:57Z</time>
      </trkpt>
      <trkpt lat="45.13863" lon="5.50824">
        <ele>1251.72</ele>
        <time>2016-06-03T09:20:58Z</time>
      </trkpt>
      <trkpt lat="45.13881" lon="5.50782">
        <ele>1249.52</ele>
        <time>2016-06-03T09:21:03Z</time>
      </trkpt>
      <trkpt lat="45.13885" lon="5.50776">
        <ele>1249.06</ele>
        <time>2016-06-03T09:21:04Z</time>
      </trkpt>
      <trkpt lat="45.13891" lon="5.5077">
        <ele>1248.61</ele>
        <time>2016-06-03T09:21:05Z</time>
      </trkpt>
      <trkpt lat="45.13899" lon="5.50773">
        <ele>1248.18</ele>
        <time>2016-06-03T09:21:06Z</time>
      </trkpt>
      <trkpt lat="45.13908" lon="5.50775">
        <ele>1247.75</ele>
        <time>2016-06-03T09:21:07Z</time>
      </trkpt>
      <trkpt lat="45.13916" lon="5.5078">
        <ele>1247.32</ele>
        <time>2016-06-03T09:21:08Z</time>
      </trkpt>
      <trkpt lat="45.13921" lon="5.50787">
        <ele>1246.92</ele>
        <time>2016-06-03T09:21:09Z</time>
      </trkpt>
      <trkpt lat="45.13926" lon="5.50795">
        <ele>1246.58</ele>
        <time>2016-06-03T09:21:10Z</time>
      </trkpt>
      <trkpt lat="45.13931" lon="5.50803">
        <ele>1246.26</ele>
        <time>2016-06-03T09:21:11Z</time>
      </trkpt>
      <trkpt lat="45.13945" lon="5.50826">
        <ele>1245.41</ele>
        <time>2016-06-03T09:21:14Z</time>
      </trkpt>
      <trkpt lat="45.13951" lon="5.50832">
        <ele>1245.08</ele>
        <time>2016-06-03T09:21:15Z</time>
      </trkpt>
      <trkpt lat="45.13958" lon="5.50837">
        <ele>1244.28</ele>
        <time>2016-06-03T09:21:16Z</time>
      </trkpt>
      <trkpt lat="45.14019" lon="5.50877">
        <ele>1240.77</ele>
        <time>2016-06-03T09:21:24Z</time>
      </trkpt>
      <trkpt lat="45.14083" lon="5.50907">
        <ele>1237.36</ele>
        <time>2016-06-03T09:21:31Z</time>
      </trkpt>
      <trkpt lat="45.14102" lon="5.50911">
        <ele>1236.22</ele>
        <time>2016-06-03T09:21:33Z</time>
      </trkpt>
      <trkpt lat="45.14132" lon="5.50916">
        <ele>1234.53</ele>
        <time>2016-06-03T09:21:36Z</time>
      </trkpt>
      <trkpt lat="45.14162" lon="5.50925">
        <ele>1232.84</ele>
        <time>2016-06-03T09:21:39Z</time>
      </trkpt>
      <trkpt lat="45.1417" lon="5.50929">
        <ele>1231.74</ele>
        <time>2016-06-03T09:21:40Z</time>
      </trkpt>
      <trkpt lat="45.14178" lon="5.50936">
        <ele>1231.74</ele>
        <time>2016-06-03T09:21:41Z</time>
      </trkpt>
      <trkpt lat="45.14185" lon="5.50944">
        <ele>1230.62</ele>
        <time>2016-06-03T09:21:42Z</time>
      </trkpt>
      <trkpt lat="45.14189" lon="5.50954">
        <ele>1230.07</ele>
        <time>2016-06-03T09:21:43Z</time>
      </trkpt>
      <trkpt lat="45.14192" lon="5.50965">
        <ele>1229.53</ele>
        <time>2016-06-03T09:21:44Z</time>
      </trkpt>
      <trkpt lat="45.14193" lon="5.50975">
        <ele>1229.05</ele>
        <time>2016-06-03T09:21:45Z</time>
      </trkpt>
      <trkpt lat="45.14194" lon="5.50984">
        <ele>1228.67</ele>
        <time>2016-06-03T09:21:46Z</time>
      </trkpt>
      <trkpt lat="45.14195" lon="5.50993">
        <ele>1228.33</ele>
        <time>2016-06-03T09:21:47Z</time>
      </trkpt>
      <trkpt lat="45.14195" lon="5.51001">
        <ele>1228.04</ele>
        <time>2016-06-03T09:21:48Z</time>
      </trkpt>
      <trkpt lat="45.14195" lon="5.5101">
        <ele>1227.81</ele>
        <time>2016-06-03T09:21:49Z</time>
      </trkpt>
      <trkpt lat="45.14193" lon="5.5105">
        <ele>1227.05</ele>
        <time>2016-06-03T09:21:53Z</time>
      </trkpt>
      <trkpt lat="45.14195" lon="5.51057">
        <ele>1226.82</ele>
        <time>2016-06-03T09:21:54Z</time>
      </trkpt>
      <trkpt lat="45.14198" lon="5.51064">
        <ele>1226.57</ele>
        <time>2016-06-03T09:21:55Z</time>
      </trkpt>
      <trkpt lat="45.14202" lon="5.51069">
        <ele>1226.26</ele>
        <time>2016-06-03T09:21:56Z</time>
      </trkpt>
      <trkpt lat="45.14208" lon="5.51073">
        <ele>1225.91</ele>
        <time>2016-06-03T09:21:57Z</time>
      </trkpt>
      <trkpt lat="45.14214" lon="5.51075">
        <ele>1225.53</ele>
        <time>2016-06-03T09:21:58Z</time>
      </trkpt>
      <trkpt lat="45.14221" lon="5.51074">
        <ele>1225.16</ele>
        <time>2016-06-03T09:21:59Z</time>
      </trkpt>
      <trkpt lat="45.14228" lon="5.51071">
        <ele>1224.82</ele>
        <time>2016-06-03T09:22:00Z</time>
      </trkpt>
      <trkpt lat="45.14233" lon="5.51068">
        <ele>1224.46</ele>
        <time>2016-06-03T09:22:01Z</time>
      </trkpt>
      <trkpt lat="45.14239" lon="5.51065">
        <ele>1224.1</ele>
        <time>2016-06-03T09:22:02Z</time>
      </trkpt>
      <trkpt lat="45.14259" lon="5.5106">
        <ele>1223.13</ele>
        <time>2016-06-03T09:22:05Z</time>
      </trkpt>
      <trkpt lat="45.14274" lon="5.51062">
        <ele>1222.12</ele>
        <time>2016-06-03T09:22:07Z</time>
      </trkpt>
      <trkpt lat="45.1428" lon="5.51064">
        <ele>1221.77</ele>
        <time>2016-06-03T09:22:08Z</time>
      </trkpt>
      <trkpt lat="45.14285" lon="5.51067">
        <ele>1221.46</ele>
        <time>2016-06-03T09:22:09Z</time>
      </trkpt>
      <trkpt lat="45.14298" lon="5.51076">
        <ele>1220.79</ele>
        <time>2016-06-03T09:22:11Z</time>
      </trkpt>
      <trkpt lat="45.14305" lon="5.51081">
        <ele>1220.47</ele>
        <time>2016-06-03T09:22:12Z</time>
      </trkpt>
      <trkpt lat="45.14312" lon="5.51083">
        <ele>1220.17</ele>
        <time>2016-06-03T09:22:13Z</time>
      </trkpt>
      <trkpt lat="45.1432" lon="5.51084">
        <ele>1219.87</ele>
        <time>2016-06-03T09:22:14Z</time>
      </trkpt>
      <trkpt lat="45.14328" lon="5.51084">
        <ele>1219.57</ele>
        <time>2016-06-03T09:22:15Z</time>
      </trkpt>
      <trkpt lat="45.14344" lon="5.5108">
        <ele>1218.89</ele>
        <time>2016-06-03T09:22:17Z</time>
      </trkpt>
      <trkpt lat="45.14352" lon="5.51076">
        <ele>1218.51</ele>
        <time>2016-06-03T09:22:18Z</time>
      </trkpt>
      <trkpt lat="45.14375" lon="5.51068">
        <ele>1217.28</ele>
        <time>2016-06-03T09:22:21Z</time>
      </trkpt>
      <trkpt lat="45.14382" lon="5.51069">
        <ele>1216.82</ele>
        <time>2016-06-03T09:22:22Z</time>
      </trkpt>
      <trkpt lat="45.14388" lon="5.51073">
        <ele>1216.33</ele>
        <time>2016-06-03T09:22:23Z</time>
      </trkpt>
      <trkpt lat="45.14393" lon="5.5108">
        <ele>1215.8</ele>
        <time>2016-06-03T09:22:24Z</time>
      </trkpt>
      <trkpt lat="45.14397" lon="5.51089">
        <ele>1215.27</ele>
        <time>2016-06-03T09:22:25Z</time>
      </trkpt>
      <trkpt lat="45.144" lon="5.51098">
        <ele>1214.73</ele>
        <time>2016-06-03T09:22:26Z</time>
      </trkpt>
      <trkpt lat="45.14402" lon="5.51108">
        <ele>1214.23</ele>
        <time>2016-06-03T09:22:27Z</time>
      </trkpt>
      <trkpt lat="45.14404" lon="5.51116">
        <ele>1213.79</ele>
        <time>2016-06-03T09:22:28Z</time>
      </trkpt>
      <trkpt lat="45.14406" lon="5.51123">
        <ele>1213.4</ele>
        <time>2016-06-03T09:22:29Z</time>
      </trkpt>
      <trkpt lat="45.14409" lon="5.5113">
        <ele>1213.05</ele>
        <time>2016-06-03T09:22:30Z</time>
      </trkpt>
      <trkpt lat="45.14417" lon="5.51143">
        <ele>1212.01</ele>
        <time>2016-06-03T09:22:32Z</time>
      </trkpt>
      <trkpt lat="45.14424" lon="5.51149">
        <ele>1211.66</ele>
        <time>2016-06-03T09:22:33Z</time>
      </trkpt>
      <trkpt lat="45.14429" lon="5.51156">
        <ele>1211.28</ele>
        <time>2016-06-03T09:22:34Z</time>
      </trkpt>
      <trkpt lat="45.14435" lon="5.51163">
        <ele>1210.85</ele>
        <time>2016-06-03T09:22:35Z</time>
      </trkpt>
      <trkpt lat="45.14441" lon="5.5117">
        <ele>1210.44</ele>
        <time>2016-06-03T09:22:36Z</time>
      </trkpt>
      <trkpt lat="45.14448" lon="5.51176">
        <ele>1210.04</ele>
        <time>2016-06-03T09:22:37Z</time>
      </trkpt>
      <trkpt lat="45.14462" lon="5.51189">
        <ele>1209.17</ele>
        <time>2016-06-03T09:22:39Z</time>
      </trkpt>
      <trkpt lat="45.14468" lon="5.512">
        <ele>1208.74</ele>
        <time>2016-06-03T09:22:40Z</time>
      </trkpt>
      <trkpt lat="45.14474" lon="5.51213">
        <ele>1208.31</ele>
        <time>2016-06-03T09:22:41Z</time>
      </trkpt>
      <trkpt lat="45.14481" lon="5.51225">
        <ele>1207.86</ele>
        <time>2016-06-03T09:22:42Z</time>
      </trkpt>
      <trkpt lat="45.14487" lon="5.51236">
        <ele>1207.44</ele>
        <time>2016-06-03T09:22:43Z</time>
      </trkpt>
      <trkpt lat="45.14493" lon="5.51248">
        <ele>1207.04</ele>
        <time>2016-06-03T09:22:44Z</time>
      </trkpt>
      <trkpt lat="45.14498" lon="5.5126">
        <ele>1206.62</ele>
        <time>2016-06-03T09:22:45Z</time>
      </trkpt>
      <trkpt lat="45.14501" lon="5.51272">
        <ele>1206.21</ele>
        <time>2016-06-03T09:22:46Z</time>
      </trkpt>
      <trkpt lat="45.14506" lon="5.51282">
        <ele>1205.81</ele>
        <time>2016-06-03T09:22:47Z</time>
      </trkpt>
      <trkpt lat="45.14516" lon="5.51301">
        <ele>1204.87</ele>
        <time>2016-06-03T09:22:49Z</time>
      </trkpt>
      <trkpt lat="45.14523" lon="5.51308">
        <ele>1204.34</ele>
        <time>2016-06-03T09:22:50Z</time>
      </trkpt>
      <trkpt lat="45.14529" lon="5.51315">
        <ele>1203.77</ele>
        <time>2016-06-03T09:22:51Z</time>
      </trkpt>
      <trkpt lat="45.14573" lon="5.51347">
        <ele>1200.51</ele>
        <time>2016-06-03T09:22:57Z</time>
      </trkpt>
      <trkpt lat="45.14598" lon="5.5136">
        <ele>1199.43</ele>
        <time>2016-06-03T09:23:00Z</time>
      </trkpt>
      <trkpt lat="45.14621" lon="5.5138">
        <ele>1197.93</ele>
        <time>2016-06-03T09:23:03Z</time>
      </trkpt>
      <trkpt lat="45.14627" lon="5.51388">
        <ele>1197.37</ele>
        <time>2016-06-03T09:23:04Z</time>
      </trkpt>
      <trkpt lat="45.14638" lon="5.51406">
        <ele>1196.26</ele>
        <time>2016-06-03T09:23:06Z</time>
      </trkpt>
      <trkpt lat="45.14644" lon="5.51414">
        <ele>1195.75</ele>
        <time>2016-06-03T09:23:07Z</time>
      </trkpt>
      <trkpt lat="45.1465" lon="5.51422">
        <ele>1195.28</ele>
        <time>2016-06-03T09:23:08Z</time>
      </trkpt>
      <trkpt lat="45.14656" lon="5.51429">
        <ele>1194.83</ele>
        <time>2016-06-03T09:23:09Z</time>
      </trkpt>
      <trkpt lat="45.14663" lon="5.51436">
        <ele>1194.41</ele>
        <time>2016-06-03T09:23:10Z</time>
      </trkpt>
      <trkpt lat="45.14687" lon="5.51465">
        <ele>1193.16</ele>
        <time>2016-06-03T09:23:14Z</time>
      </trkpt>
      <trkpt lat="45.14712" lon="5.51505">
        <ele>1191.54</ele>
        <time>2016-06-03T09:23:19Z</time>
      </trkpt>
      <trkpt lat="45.14717" lon="5.51514">
        <ele>1190.89</ele>
        <time>2016-06-03T09:23:20Z</time>
      </trkpt>
      <trkpt lat="45.14722" lon="5.51523">
        <ele>1190.56</ele>
        <time>2016-06-03T09:23:21Z</time>
      </trkpt>
      <trkpt lat="45.14727" lon="5.51531">
        <ele>1190.26</ele>
        <time>2016-06-03T09:23:22Z</time>
      </trkpt>
      <trkpt lat="45.14732" lon="5.51539">
        <ele>1189.97</ele>
        <time>2016-06-03T09:23:23Z</time>
      </trkpt>
      <trkpt lat="45.1477" lon="5.51581">
        <ele>1187.85</ele>
        <time>2016-06-03T09:23:29Z</time>
      </trkpt>
      <trkpt lat="45.14807" lon="5.5161">
        <ele>1186.01</ele>
        <time>2016-06-03T09:23:34Z</time>
      </trkpt>
      <trkpt lat="45.14814" lon="5.51615">
        <ele>1185.71</ele>
        <time>2016-06-03T09:23:35Z</time>
      </trkpt>
      <trkpt lat="45.14837" lon="5.51629">
        <ele>1184.8</ele>
        <time>2016-06-03T09:23:38Z</time>
      </trkpt>
      <trkpt lat="45.14845" lon="5.51633">
        <ele>1184.49</ele>
        <time>2016-06-03T09:23:39Z</time>
      </trkpt>
      <trkpt lat="45.14858" lon="5.51643">
        <ele>1183.91</ele>
        <time>2016-06-03T09:23:41Z</time>
      </trkpt>
      <trkpt lat="45.14866" lon="5.51647">
        <ele>1183.65</ele>
        <time>2016-06-03T09:23:42Z</time>
      </trkpt>
      <trkpt lat="45.14882" lon="5.51654">
        <ele>1182.87</ele>
        <time>2016-06-03T09:23:44Z</time>
      </trkpt>
      <trkpt lat="45.14889" lon="5.51655">
        <ele>1182.87</ele>
        <time>2016-06-03T09:23:45Z</time>
      </trkpt>
      <trkpt lat="45.14896" lon="5.51655">
        <ele>1182.35</ele>
        <time>2016-06-03T09:23:46Z</time>
      </trkpt>
      <trkpt lat="45.14904" lon="5.51653">
        <ele>1182.07</ele>
        <time>2016-06-03T09:23:47Z</time>
      </trkpt>
      <trkpt lat="45.14911" lon="5.5165">
        <ele>1181.71</ele>
        <time>2016-06-03T09:23:48Z</time>
      </trkpt>
      <trkpt lat="45.14916" lon="5.51645">
        <ele>1181.3</ele>
        <time>2016-06-03T09:23:49Z</time>
      </trkpt>
      <trkpt lat="45.1492" lon="5.51638">
        <ele>1180.92</ele>
        <time>2016-06-03T09:23:50Z</time>
      </trkpt>
      <trkpt lat="45.14922" lon="5.51631">
        <ele>1180.61</ele>
        <time>2016-06-03T09:23:51Z</time>
      </trkpt>
      <trkpt lat="45.14935" lon="5.51606">
        <ele>1179.61</ele>
        <time>2016-06-03T09:23:55Z</time>
      </trkpt>
      <trkpt lat="45.1494" lon="5.51602">
        <ele>1179.39</ele>
        <time>2016-06-03T09:23:56Z</time>
      </trkpt>
      <trkpt lat="45.14945" lon="5.51598">
        <ele>1179.18</ele>
        <time>2016-06-03T09:23:57Z</time>
      </trkpt>
      <trkpt lat="45.14952" lon="5.51597">
        <ele>1178.97</ele>
        <time>2016-06-03T09:23:58Z</time>
      </trkpt>
      <trkpt lat="45.14958" lon="5.51597">
        <ele>1178.77</ele>
        <time>2016-06-03T09:23:59Z</time>
      </trkpt>
      <trkpt lat="45.14966" lon="5.51598">
        <ele>1178.53</ele>
        <time>2016-06-03T09:24:00Z</time>
      </trkpt>
      <trkpt lat="45.14973" lon="5.516">
        <ele>1178.27</ele>
        <time>2016-06-03T09:24:01Z</time>
      </trkpt>
      <trkpt lat="45.14979" lon="5.51604">
        <ele>1178.05</ele>
        <time>2016-06-03T09:24:02Z</time>
      </trkpt>
      <trkpt lat="45.14984" lon="5.5161">
        <ele>1177.85</ele>
        <time>2016-06-03T09:24:03Z</time>
      </trkpt>
      <trkpt lat="45.14989" lon="5.51617">
        <ele>1177.67</ele>
        <time>2016-06-03T09:24:04Z</time>
      </trkpt>
      <trkpt lat="45.14994" lon="5.51626">
        <ele>1177.48</ele>
        <time>2016-06-03T09:24:05Z</time>
      </trkpt>
      <trkpt lat="45.15008" lon="5.5165">
        <ele>1176.84</ele>
        <time>2016-06-03T09:24:08Z</time>
      </trkpt>
      <trkpt lat="45.15021" lon="5.51672">
        <ele>1176.46</ele>
        <time>2016-06-03T09:24:11Z</time>
      </trkpt>
      <trkpt lat="45.15025" lon="5.51679">
        <ele>1176.32</ele>
        <time>2016-06-03T09:24:12Z</time>
      </trkpt>
      <trkpt lat="45.15045" lon="5.51715">
        <ele>1175.62</ele>
        <time>2016-06-03T09:24:17Z</time>
      </trkpt>
      <trkpt lat="45.15048" lon="5.51722">
        <ele>1175.53</ele>
        <time>2016-06-03T09:24:18Z</time>
      </trkpt>
      <trkpt lat="45.15052" lon="5.51728">
        <ele>1175.43</ele>
        <time>2016-06-03T09:24:19Z</time>
      </trkpt>
      <trkpt lat="45.15057" lon="5.51733">
        <ele>1175.3</ele>
        <time>2016-06-03T09:24:20Z</time>
      </trkpt>
      <trkpt lat="45.15062" lon="5.51739">
        <ele>1175.15</ele>
        <time>2016-06-03T09:24:21Z</time>
      </trkpt>
      <trkpt lat="45.15067" lon="5.51744">
        <ele>1174.96</ele>
        <time>2016-06-03T09:24:22Z</time>
      </trkpt>
      <trkpt lat="45.15071" lon="5.5175">
        <ele>1174.73</ele>
        <time>2016-06-03T09:24:23Z</time>
      </trkpt>
      <trkpt lat="45.15073" lon="5.51758">
        <ele>1174.47</ele>
        <time>2016-06-03T09:24:24Z</time>
      </trkpt>
      <trkpt lat="45.15074" lon="5.51765">
        <ele>1174.16</ele>
        <time>2016-06-03T09:24:25Z</time>
      </trkpt>
      <trkpt lat="45.15075" lon="5.51772">
        <ele>1173.81</ele>
        <time>2016-06-03T09:24:26Z</time>
      </trkpt>
      <trkpt lat="45.15074" lon="5.51778">
        <ele>1173.48</ele>
        <time>2016-06-03T09:24:27Z</time>
      </trkpt>
      <trkpt lat="45.15074" lon="5.51785">
        <ele>1173.18</ele>
        <time>2016-06-03T09:24:28Z</time>
      </trkpt>
      <trkpt lat="45.15072" lon="5.51791">
        <ele>1172.9</ele>
        <time>2016-06-03T09:24:29Z</time>
      </trkpt>
      <trkpt lat="45.15069" lon="5.51796">
        <ele>1172.63</ele>
        <time>2016-06-03T09:24:30Z</time>
      </trkpt>
      <trkpt lat="45.15065" lon="5.51802">
        <ele>1172.37</ele>
        <time>2016-06-03T09:24:31Z</time>
      </trkpt>
      <trkpt lat="45.15061" lon="5.51806">
        <ele>1171.89</ele>
        <time>2016-06-03T09:24:32Z</time>
      </trkpt>
      <trkpt lat="45.15055" lon="5.51808">
        <ele>1171.89</ele>
        <time>2016-06-03T09:24:33Z</time>
      </trkpt>
      <trkpt lat="45.1505" lon="5.51809">
        <ele>1171.49</ele>
        <time>2016-06-03T09:24:34Z</time>
      </trkpt>
      <trkpt lat="45.15046" lon="5.51809">
        <ele>1171.3</ele>
        <time>2016-06-03T09:24:35Z</time>
      </trkpt>
      <trkpt lat="45.15042" lon="5.51807">
        <ele>1171.14</ele>
        <time>2016-06-03T09:24:36Z</time>
      </trkpt>
      <trkpt lat="45.15038" lon="5.51804">
        <ele>1170.98</ele>
        <time>2016-06-03T09:24:37Z</time>
      </trkpt>
      <trkpt lat="45.15032" lon="5.51797">
        <ele>1170.63</ele>
        <time>2016-06-03T09:24:39Z</time>
      </trkpt>
      <trkpt lat="45.1503" lon="5.51791">
        <ele>1170.46</ele>
        <time>2016-06-03T09:24:40Z</time>
      </trkpt>
      <trkpt lat="45.15028" lon="5.51783">
        <ele>1170.29</ele>
        <time>2016-06-03T09:24:41Z</time>
      </trkpt>
      <trkpt lat="45.15027" lon="5.51774">
        <ele>1170.13</ele>
        <time>2016-06-03T09:24:42Z</time>
      </trkpt>
      <trkpt lat="45.15026" lon="5.51765">
        <ele>1169.97</ele>
        <time>2016-06-03T09:24:43Z</time>
      </trkpt>
      <trkpt lat="45.15026" lon="5.51756">
        <ele>1169.77</ele>
        <time>2016-06-03T09:24:44Z</time>
      </trkpt>
      <trkpt lat="45.15024" lon="5.51747">
        <ele>1169.54</ele>
        <time>2016-06-03T09:24:45Z</time>
      </trkpt>
      <trkpt lat="45.15023" lon="5.51739">
        <ele>1169.29</ele>
        <time>2016-06-03T09:24:46Z</time>
      </trkpt>
      <trkpt lat="45.15022" lon="5.51731">
        <ele>1169</ele>
        <time>2016-06-03T09:24:47Z</time>
      </trkpt>
      <trkpt lat="45.15016" lon="5.51703">
        <ele>1167.08</ele>
        <time>2016-06-03T09:24:53Z</time>
      </trkpt>
      <trkpt lat="45.15012" lon="5.51692">
        <ele>1164.61</ele>
        <time>2016-06-03T09:25:04Z</time>
      </trkpt>
      <trkpt lat="45.15008" lon="5.51687">
        <ele>1164.35</ele>
        <time>2016-06-03T09:25:25Z</time>
      </trkpt>
      <trkpt lat="45.15003" lon="5.51685">
        <ele>1164.26</ele>
        <time>2016-06-03T09:25:44Z</time>
      </trkpt>
      <trkpt lat="45.15003" lon="5.5169">
        <ele>1164.23</ele>
        <time>2016-06-03T09:26:07Z</time>
      </trkpt>
      <trkpt lat="45.15005" lon="5.5169">
        <ele>1164.12</ele>
        <time>2016-06-03T09:26:23Z</time>
      </trkpt>
      <trkpt lat="45.15009" lon="5.51683">
        <ele>1164.36</ele>
        <time>2016-06-03T09:26:43Z</time>
      </trkpt>
      <trkpt lat="45.15011" lon="5.51683">
        <ele>1164.39</ele>
        <time>2016-06-03T09:27:03Z</time>
      </trkpt>
      <trkpt lat="45.15014" lon="5.51681">
        <ele>1164.62</ele>
        <time>2016-06-03T09:27:26Z</time>
      </trkpt>
      <trkpt lat="45.15011" lon="5.51679">
        <ele>1164.37</ele>
        <time>2016-06-03T09:27:49Z</time>
      </trkpt>
      <trkpt lat="45.15011" lon="5.51692">
        <ele>1164.86</ele>
        <time>2016-06-03T09:28:09Z</time>
      </trkpt>
      <trkpt lat="45.15011" lon="5.51696">
        <ele>1164.89</ele>
        <time>2016-06-03T09:28:11Z</time>
      </trkpt>
      <trkpt lat="45.15014" lon="5.51737">
        <ele>1165.72</ele>
        <time>2016-06-03T09:28:28Z</time>
      </trkpt>
      <trkpt lat="45.15023" lon="5.51784">
        <ele>1167.4</ele>
        <time>2016-06-03T09:28:41Z</time>
      </trkpt>
      <trkpt lat="45.15041" lon="5.51803">
        <ele>1168.59</ele>
        <time>2016-06-03T09:28:53Z</time>
      </trkpt>
      <trkpt lat="45.15064" lon="5.51805">
        <ele>1169.52</ele>
        <time>2016-06-03T09:29:05Z</time>
      </trkpt>
      <trkpt lat="45.15082" lon="5.51787">
        <ele>1170.81</ele>
        <time>2016-06-03T09:29:18Z</time>
      </trkpt>
      <trkpt lat="45.151" lon="5.51765">
        <ele>1172.74</ele>
        <time>2016-06-03T09:29:31Z</time>
      </trkpt>
      <trkpt lat="45.15119" lon="5.51744">
        <ele>1174.69</ele>
        <time>2016-06-03T09:29:43Z</time>
      </trkpt>
      <trkpt lat="45.15137" lon="5.51725">
        <ele>1175.6</ele>
        <time>2016-06-03T09:29:55Z</time>
      </trkpt>
      <trkpt lat="45.15144" lon="5.51718">
        <ele>1176.01</ele>
        <time>2016-06-03T09:30:02Z</time>
      </trkpt>
      <trkpt lat="45.15146" lon="5.51715">
        <ele>1176.09</ele>
        <time>2016-06-03T09:30:03Z</time>
      </trkpt>
      <trkpt lat="45.15153" lon="5.51709">
        <ele>1176.49</ele>
        <time>2016-06-03T09:30:08Z</time>
      </trkpt>
      <trkpt lat="45.15175" lon="5.51703">
        <ele>1177.1</ele>
        <time>2016-06-03T09:30:19Z</time>
      </trkpt>
      <trkpt lat="45.15176" lon="5.51704">
        <ele>1177.22</ele>
        <time>2016-06-03T09:30:20Z</time>
      </trkpt>
      <trkpt lat="45.15178" lon="5.51704">
        <ele>1177.36</ele>
        <time>2016-06-03T09:30:21Z</time>
      </trkpt>
      <trkpt lat="45.1518" lon="5.51704">
        <ele>1177.48</ele>
        <time>2016-06-03T09:30:22Z</time>
      </trkpt>
      <trkpt lat="45.15182" lon="5.51704">
        <ele>1177.58</ele>
        <time>2016-06-03T09:30:23Z</time>
      </trkpt>
      <trkpt lat="45.15184" lon="5.51704">
        <ele>1177.68</ele>
        <time>2016-06-03T09:30:24Z</time>
      </trkpt>
      <trkpt lat="45.15213" lon="5.51694">
        <ele>1179.11</ele>
        <time>2016-06-03T09:30:39Z</time>
      </trkpt>
      <trkpt lat="45.15224" lon="5.51673">
        <ele>1179.98</ele>
        <time>2016-06-03T09:30:49Z</time>
      </trkpt>
      <trkpt lat="45.15225" lon="5.51672">
        <ele>1180.08</ele>
        <time>2016-06-03T09:30:50Z</time>
      </trkpt>
      <trkpt lat="45.15227" lon="5.51668">
        <ele>1180.27</ele>
        <time>2016-06-03T09:30:52Z</time>
      </trkpt>
      <trkpt lat="45.15227" lon="5.51666">
        <ele>1180.36</ele>
        <time>2016-06-03T09:30:53Z</time>
      </trkpt>
      <trkpt lat="45.15228" lon="5.51661">
        <ele>1180.59</ele>
        <time>2016-06-03T09:30:55Z</time>
      </trkpt>
      <trkpt lat="45.15228" lon="5.51658">
        <ele>1180.71</ele>
        <time>2016-06-03T09:30:56Z</time>
      </trkpt>
      <trkpt lat="45.15229" lon="5.51656">
        <ele>1180.84</ele>
        <time>2016-06-03T09:30:57Z</time>
      </trkpt>
      <trkpt lat="45.1523" lon="5.51654">
        <ele>1180.97</ele>
        <time>2016-06-03T09:30:58Z</time>
      </trkpt>
      <trkpt lat="45.1523" lon="5.51652">
        <ele>1181.09</ele>
        <time>2016-06-03T09:30:59Z</time>
      </trkpt>
      <trkpt lat="45.15231" lon="5.5165">
        <ele>1181.21</ele>
        <time>2016-06-03T09:31:00Z</time>
      </trkpt>
      <trkpt lat="45.15232" lon="5.51647">
        <ele>1181.32</ele>
        <time>2016-06-03T09:31:01Z</time>
      </trkpt>
      <trkpt lat="45.15232" lon="5.51645">
        <ele>1181.42</ele>
        <time>2016-06-03T09:31:02Z</time>
      </trkpt>
      <trkpt lat="45.15232" lon="5.51642">
        <ele>1181.52</ele>
        <time>2016-06-03T09:31:03Z</time>
      </trkpt>
      <trkpt lat="45.15232" lon="5.51633">
        <ele>1181.79</ele>
        <time>2016-06-03T09:31:06Z</time>
      </trkpt>
      <trkpt lat="45.15235" lon="5.51611">
        <ele>1182.32</ele>
        <time>2016-06-03T09:31:14Z</time>
      </trkpt>
      <trkpt lat="45.15237" lon="5.51608">
        <ele>1182.36</ele>
        <time>2016-06-03T09:31:15Z</time>
      </trkpt>
      <trkpt lat="45.15239" lon="5.51606">
        <ele>1182.4</ele>
        <time>2016-06-03T09:31:16Z</time>
      </trkpt>
      <trkpt lat="45.1524" lon="5.51603">
        <ele>1182.43</ele>
        <time>2016-06-03T09:31:17Z</time>
      </trkpt>
      <trkpt lat="45.15242" lon="5.51602">
        <ele>1182.46</ele>
        <time>2016-06-03T09:31:18Z</time>
      </trkpt>
      <trkpt lat="45.15244" lon="5.51601">
        <ele>1182.5</ele>
        <time>2016-06-03T09:31:19Z</time>
      </trkpt>
      <trkpt lat="45.15246" lon="5.516">
        <ele>1182.57</ele>
        <time>2016-06-03T09:31:20Z</time>
      </trkpt>
      <trkpt lat="45.15249" lon="5.51599">
        <ele>1182.69</ele>
        <time>2016-06-03T09:31:21Z</time>
      </trkpt>
      <trkpt lat="45.15251" lon="5.51598">
        <ele>1182.83</ele>
        <time>2016-06-03T09:31:22Z</time>
      </trkpt>
      <trkpt lat="45.15252" lon="5.51599">
        <ele>1182.98</ele>
        <time>2016-06-03T09:31:23Z</time>
      </trkpt>
      <trkpt lat="45.15253" lon="5.516">
        <ele>1183.15</ele>
        <time>2016-06-03T09:31:24Z</time>
      </trkpt>
      <trkpt lat="45.15255" lon="5.51601">
        <ele>1183.34</ele>
        <time>2016-06-03T09:31:25Z</time>
      </trkpt>
      <trkpt lat="45.15272" lon="5.51621">
        <ele>1184.58</ele>
        <time>2016-06-03T09:31:36Z</time>
      </trkpt>
      <trkpt lat="45.15281" lon="5.51636">
        <ele>1185.3</ele>
        <time>2016-06-03T09:31:42Z</time>
      </trkpt>
      <trkpt lat="45.15282" lon="5.51639">
        <ele>1185.38</ele>
        <time>2016-06-03T09:31:43Z</time>
      </trkpt>
      <trkpt lat="45.15286" lon="5.51644">
        <ele>1185.59</ele>
        <time>2016-06-03T09:31:46Z</time>
      </trkpt>
      <trkpt lat="45.15287" lon="5.51646">
        <ele>1185.68</ele>
        <time>2016-06-03T09:31:47Z</time>
      </trkpt>
      <trkpt lat="45.15288" lon="5.51648">
        <ele>1185.78</ele>
        <time>2016-06-03T09:31:48Z</time>
      </trkpt>
      <trkpt lat="45.15289" lon="5.5165">
        <ele>1185.87</ele>
        <time>2016-06-03T09:31:49Z</time>
      </trkpt>
      <trkpt lat="45.1529" lon="5.51653">
        <ele>1185.96</ele>
        <time>2016-06-03T09:31:50Z</time>
      </trkpt>
      <trkpt lat="45.15295" lon="5.51665">
        <ele>1186.5</ele>
        <time>2016-06-03T09:31:56Z</time>
      </trkpt>
      <trkpt lat="45.15296" lon="5.51667">
        <ele>1186.59</ele>
        <time>2016-06-03T09:31:57Z</time>
      </trkpt>
      <trkpt lat="45.15305" lon="5.51678">
        <ele>1187.44</ele>
        <time>2016-06-03T09:32:06Z</time>
      </trkpt>
      <trkpt lat="45.15307" lon="5.51679">
        <ele>1187.52</ele>
        <time>2016-06-03T09:32:07Z</time>
      </trkpt>
      <trkpt lat="45.15341" lon="5.51676">
        <ele>1188.74</ele>
        <time>2016-06-03T09:32:22Z</time>
      </trkpt>
      <trkpt lat="45.1536" lon="5.51664">
        <ele>1189.98</ele>
        <time>2016-06-03T09:32:34Z</time>
      </trkpt>
      <trkpt lat="45.15361" lon="5.51662">
        <ele>1190.08</ele>
        <time>2016-06-03T09:32:35Z</time>
      </trkpt>
      <trkpt lat="45.15362" lon="5.5166">
        <ele>1190.17</ele>
        <time>2016-06-03T09:32:36Z</time>
      </trkpt>
      <trkpt lat="45.1538" lon="5.51641">
        <ele>1191.12</ele>
        <time>2016-06-03T09:32:49Z</time>
      </trkpt>
      <trkpt lat="45.15384" lon="5.5164">
        <ele>1191.57</ele>
        <time>2016-06-03T09:32:52Z</time>
      </trkpt>
      <trkpt lat="45.15386" lon="5.51642">
        <ele>1191.57</ele>
        <time>2016-06-03T09:32:53Z</time>
      </trkpt>
      <trkpt lat="45.15388" lon="5.51643">
        <ele>1191.83</ele>
        <time>2016-06-03T09:32:54Z</time>
      </trkpt>
      <trkpt lat="45.15389" lon="5.51644">
        <ele>1191.97</ele>
        <time>2016-06-03T09:32:55Z</time>
      </trkpt>
      <trkpt lat="45.1539" lon="5.51645">
        <ele>1192.13</ele>
        <time>2016-06-03T09:32:56Z</time>
      </trkpt>
      <trkpt lat="45.15392" lon="5.51646">
        <ele>1192.32</ele>
        <time>2016-06-03T09:32:57Z</time>
      </trkpt>
      <trkpt lat="45.15393" lon="5.51648">
        <ele>1192.5</ele>
        <time>2016-06-03T09:32:58Z</time>
      </trkpt>
      <trkpt lat="45.15394" lon="5.51649">
        <ele>1192.67</ele>
        <time>2016-06-03T09:32:59Z</time>
      </trkpt>
      <trkpt lat="45.15397" lon="5.51652">
        <ele>1193.14</ele>
        <time>2016-06-03T09:33:02Z</time>
      </trkpt>
      <trkpt lat="45.15415" lon="5.51659">
        <ele>1194.44</ele>
        <time>2016-06-03T09:33:12Z</time>
      </trkpt>
      <trkpt lat="45.15417" lon="5.51659">
        <ele>1194.54</ele>
        <time>2016-06-03T09:33:13Z</time>
      </trkpt>
      <trkpt lat="45.15419" lon="5.51658">
        <ele>1194.63</ele>
        <time>2016-06-03T09:33:14Z</time>
      </trkpt>
      <trkpt lat="45.15421" lon="5.51657">
        <ele>1194.71</ele>
        <time>2016-06-03T09:33:15Z</time>
      </trkpt>
      <trkpt lat="45.15423" lon="5.51657">
        <ele>1194.77</ele>
        <time>2016-06-03T09:33:16Z</time>
      </trkpt>
      <trkpt lat="45.15425" lon="5.51657">
        <ele>1194.85</ele>
        <time>2016-06-03T09:33:17Z</time>
      </trkpt>
      <trkpt lat="45.15427" lon="5.51657">
        <ele>1195.02</ele>
        <time>2016-06-03T09:33:18Z</time>
      </trkpt>
      <trkpt lat="45.15429" lon="5.51657">
        <ele>1195.11</ele>
        <time>2016-06-03T09:33:19Z</time>
      </trkpt>
      <trkpt lat="45.15432" lon="5.51657">
        <ele>1195.19</ele>
        <time>2016-06-03T09:33:20Z</time>
      </trkpt>
      <trkpt lat="45.15442" lon="5.51652">
        <ele>1195.71</ele>
        <time>2016-06-03T09:33:25Z</time>
      </trkpt>
      <trkpt lat="45.15466" lon="5.51642">
        <ele>1196.78</ele>
        <time>2016-06-03T09:33:37Z</time>
      </trkpt>
      <trkpt lat="45.15468" lon="5.51642">
        <ele>1196.91</ele>
        <time>2016-06-03T09:33:38Z</time>
      </trkpt>
      <trkpt lat="45.1547" lon="5.51642">
        <ele>1197.04</ele>
        <time>2016-06-03T09:33:39Z</time>
      </trkpt>
      <trkpt lat="45.15472" lon="5.51641">
        <ele>1197.16</ele>
        <time>2016-06-03T09:33:40Z</time>
      </trkpt>
      <trkpt lat="45.15487" lon="5.51633">
        <ele>1198.4</ele>
        <time>2016-06-03T09:33:49Z</time>
      </trkpt>
      <trkpt lat="45.15501" lon="5.51617">
        <ele>1199.18</ele>
        <time>2016-06-03T09:33:58Z</time>
      </trkpt>
      <trkpt lat="45.15503" lon="5.51616">
        <ele>1199.27</ele>
        <time>2016-06-03T09:33:59Z</time>
      </trkpt>
      <trkpt lat="45.15505" lon="5.51615">
        <ele>1199.36</ele>
        <time>2016-06-03T09:34:00Z</time>
      </trkpt>
      <trkpt lat="45.15507" lon="5.51615">
        <ele>1199.46</ele>
        <time>2016-06-03T09:34:01Z</time>
      </trkpt>
      <trkpt lat="45.15509" lon="5.51613">
        <ele>1199.56</ele>
        <time>2016-06-03T09:34:02Z</time>
      </trkpt>
      <trkpt lat="45.1551" lon="5.51613">
        <ele>1199.64</ele>
        <time>2016-06-03T09:34:03Z</time>
      </trkpt>
      <trkpt lat="45.15513" lon="5.51614">
        <ele>1199.73</ele>
        <time>2016-06-03T09:34:04Z</time>
      </trkpt>
      <trkpt lat="45.15516" lon="5.51615">
        <ele>1199.83</ele>
        <time>2016-06-03T09:34:05Z</time>
      </trkpt>
      <trkpt lat="45.15518" lon="5.51617">
        <ele>1199.94</ele>
        <time>2016-06-03T09:34:06Z</time>
      </trkpt>
      <trkpt lat="45.15522" lon="5.5162">
        <ele>1200.36</ele>
        <time>2016-06-03T09:34:08Z</time>
      </trkpt>
      <trkpt lat="45.15524" lon="5.51624">
        <ele>1200.77</ele>
        <time>2016-06-03T09:34:11Z</time>
      </trkpt>
      <trkpt lat="45.15525" lon="5.51626">
        <ele>1200.88</ele>
        <time>2016-06-03T09:34:12Z</time>
      </trkpt>
      <trkpt lat="45.15531" lon="5.5164">
        <ele>1202.11</ele>
        <time>2016-06-03T09:34:21Z</time>
      </trkpt>
      <trkpt lat="45.15532" lon="5.51641">
        <ele>1202.27</ele>
        <time>2016-06-03T09:34:22Z</time>
      </trkpt>
      <trkpt lat="45.15538" lon="5.51646">
        <ele>1202.76</ele>
        <time>2016-06-03T09:34:25Z</time>
      </trkpt>
      <trkpt lat="45.1554" lon="5.51647">
        <ele>1202.91</ele>
        <time>2016-06-03T09:34:26Z</time>
      </trkpt>
      <trkpt lat="45.15542" lon="5.51648">
        <ele>1203.07</ele>
        <time>2016-06-03T09:34:27Z</time>
      </trkpt>
      <trkpt lat="45.15543" lon="5.51648">
        <ele>1203.22</ele>
        <time>2016-06-03T09:34:28Z</time>
      </trkpt>
      <trkpt lat="45.15545" lon="5.51648">
        <ele>1203.36</ele>
        <time>2016-06-03T09:34:29Z</time>
      </trkpt>
      <trkpt lat="45.15547" lon="5.51648">
        <ele>1203.47</ele>
        <time>2016-06-03T09:34:30Z</time>
      </trkpt>
      <trkpt lat="45.15549" lon="5.51649">
        <ele>1203.57</ele>
        <time>2016-06-03T09:34:31Z</time>
      </trkpt>
      <trkpt lat="45.1555" lon="5.51649">
        <ele>1203.8</ele>
        <time>2016-06-03T09:34:32Z</time>
      </trkpt>
      <trkpt lat="45.15552" lon="5.5165">
        <ele>1203.92</ele>
        <time>2016-06-03T09:34:33Z</time>
      </trkpt>
      <trkpt lat="45.15554" lon="5.5165">
        <ele>1204.04</ele>
        <time>2016-06-03T09:34:34Z</time>
      </trkpt>
      <trkpt lat="45.15556" lon="5.51651">
        <ele>1204.14</ele>
        <time>2016-06-03T09:34:35Z</time>
      </trkpt>
      <trkpt lat="45.15558" lon="5.51651">
        <ele>1204.24</ele>
        <time>2016-06-03T09:34:36Z</time>
      </trkpt>
      <trkpt lat="45.1556" lon="5.51652">
        <ele>1204.34</ele>
        <time>2016-06-03T09:34:37Z</time>
      </trkpt>
      <trkpt lat="45.15563" lon="5.51652">
        <ele>1204.41</ele>
        <time>2016-06-03T09:34:38Z</time>
      </trkpt>
      <trkpt lat="45.15565" lon="5.51651">
        <ele>1204.49</ele>
        <time>2016-06-03T09:34:39Z</time>
      </trkpt>
      <trkpt lat="45.15568" lon="5.51651">
        <ele>1204.59</ele>
        <time>2016-06-03T09:34:40Z</time>
      </trkpt>
      <trkpt lat="45.15588" lon="5.51644">
        <ele>1205.46</ele>
        <time>2016-06-03T09:34:49Z</time>
      </trkpt>
      <trkpt lat="45.15594" lon="5.51642">
        <ele>1205.73</ele>
        <time>2016-06-03T09:34:52Z</time>
      </trkpt>
      <trkpt lat="45.15596" lon="5.5164">
        <ele>1205.8</ele>
        <time>2016-06-03T09:34:53Z</time>
      </trkpt>
      <trkpt lat="45.15599" lon="5.51638">
        <ele>1205.87</ele>
        <time>2016-06-03T09:34:54Z</time>
      </trkpt>
      <trkpt lat="45.15601" lon="5.51636">
        <ele>1205.94</ele>
        <time>2016-06-03T09:34:55Z</time>
      </trkpt>
      <trkpt lat="45.15603" lon="5.51634">
        <ele>1206.03</ele>
        <time>2016-06-03T09:34:56Z</time>
      </trkpt>
      <trkpt lat="45.15605" lon="5.51632">
        <ele>1206.26</ele>
        <time>2016-06-03T09:34:57Z</time>
      </trkpt>
      <trkpt lat="45.15607" lon="5.51631">
        <ele>1206.35</ele>
        <time>2016-06-03T09:34:58Z</time>
      </trkpt>
      <trkpt lat="45.15625" lon="5.51628">
        <ele>1207.19</ele>
        <time>2016-06-03T09:35:06Z</time>
      </trkpt>
      <trkpt lat="45.15627" lon="5.51628">
        <ele>1207.31</ele>
        <time>2016-06-03T09:35:07Z</time>
      </trkpt>
      <trkpt lat="45.15629" lon="5.51629">
        <ele>1207.42</ele>
        <time>2016-06-03T09:35:08Z</time>
      </trkpt>
      <trkpt lat="45.1563" lon="5.51629">
        <ele>1207.53</ele>
        <time>2016-06-03T09:35:09Z</time>
      </trkpt>
      <trkpt lat="45.15632" lon="5.51631">
        <ele>1207.65</ele>
        <time>2016-06-03T09:35:10Z</time>
      </trkpt>
      <trkpt lat="45.15634" lon="5.51635">
        <ele>1207.89</ele>
        <time>2016-06-03T09:35:12Z</time>
      </trkpt>
      <trkpt lat="45.15636" lon="5.51637">
        <ele>1208.02</ele>
        <time>2016-06-03T09:35:13Z</time>
      </trkpt>
      <trkpt lat="45.15637" lon="5.5164">
        <ele>1208.16</ele>
        <time>2016-06-03T09:35:14Z</time>
      </trkpt>
      <trkpt lat="45.15637" lon="5.51643">
        <ele>1208.29</ele>
        <time>2016-06-03T09:35:15Z</time>
      </trkpt>
      <trkpt lat="45.15638" lon="5.51645">
        <ele>1208.41</ele>
        <time>2016-06-03T09:35:16Z</time>
      </trkpt>
      <trkpt lat="45.15639" lon="5.51648">
        <ele>1208.52</ele>
        <time>2016-06-03T09:35:17Z</time>
      </trkpt>
      <trkpt lat="45.15639" lon="5.5165">
        <ele>1208.64</ele>
        <time>2016-06-03T09:35:18Z</time>
      </trkpt>
      <trkpt lat="45.15649" lon="5.51664">
        <ele>1209.44</ele>
        <time>2016-06-03T09:35:25Z</time>
      </trkpt>
      <trkpt lat="45.1565" lon="5.51666">
        <ele>1209.5</ele>
        <time>2016-06-03T09:35:26Z</time>
      </trkpt>
      <trkpt lat="45.15652" lon="5.51667">
        <ele>1209.6</ele>
        <time>2016-06-03T09:35:27Z</time>
      </trkpt>
      <trkpt lat="45.15665" lon="5.51671">
        <ele>1210.13</ele>
        <time>2016-06-03T09:35:33Z</time>
      </trkpt>
      <trkpt lat="45.15667" lon="5.51672">
        <ele>1210.26</ele>
        <time>2016-06-03T09:35:34Z</time>
      </trkpt>
      <trkpt lat="45.1567" lon="5.51672">
        <ele>1210.37</ele>
        <time>2016-06-03T09:35:35Z</time>
      </trkpt>
      <trkpt lat="45.15701" lon="5.51684">
        <ele>1211.72</ele>
        <time>2016-06-03T09:35:48Z</time>
      </trkpt>
      <trkpt lat="45.15703" lon="5.51684">
        <ele>1211.8</ele>
        <time>2016-06-03T09:35:49Z</time>
      </trkpt>
      <trkpt lat="45.15705" lon="5.51685">
        <ele>1211.87</ele>
        <time>2016-06-03T09:35:50Z</time>
      </trkpt>
      <trkpt lat="45.15707" lon="5.51685">
        <ele>1211.94</ele>
        <time>2016-06-03T09:35:51Z</time>
      </trkpt>
      <trkpt lat="45.15709" lon="5.51685">
        <ele>1212</ele>
        <time>2016-06-03T09:35:52Z</time>
      </trkpt>
      <trkpt lat="45.1571" lon="5.51685">
        <ele>1212.05</ele>
        <time>2016-06-03T09:35:53Z</time>
      </trkpt>
      <trkpt lat="45.15715" lon="5.51685">
        <ele>1212.23</ele>
        <time>2016-06-03T09:35:55Z</time>
      </trkpt>
      <trkpt lat="45.15717" lon="5.51686">
        <ele>1212.34</ele>
        <time>2016-06-03T09:35:56Z</time>
      </trkpt>
      <trkpt lat="45.15719" lon="5.51687">
        <ele>1212.43</ele>
        <time>2016-06-03T09:35:57Z</time>
      </trkpt>
      <trkpt lat="45.15722" lon="5.51687">
        <ele>1212.52</ele>
        <time>2016-06-03T09:35:58Z</time>
      </trkpt>
      <trkpt lat="45.15724" lon="5.51688">
        <ele>1212.61</ele>
        <time>2016-06-03T09:35:59Z</time>
      </trkpt>
      <trkpt lat="45.15726" lon="5.51688">
        <ele>1212.69</ele>
        <time>2016-06-03T09:36:00Z</time>
      </trkpt>
      <trkpt lat="45.15728" lon="5.51688">
        <ele>1212.76</ele>
        <time>2016-06-03T09:36:01Z</time>
      </trkpt>
      <trkpt lat="45.1573" lon="5.51688">
        <ele>1212.84</ele>
        <time>2016-06-03T09:36:02Z</time>
      </trkpt>
      <trkpt lat="45.15746" lon="5.51687">
        <ele>1213.3</ele>
        <time>2016-06-03T09:36:09Z</time>
      </trkpt>
      <trkpt lat="45.1575" lon="5.51685">
        <ele>1213.43</ele>
        <time>2016-06-03T09:36:10Z</time>
      </trkpt>
      <trkpt lat="45.15782" lon="5.51666">
        <ele>1214.35</ele>
        <time>2016-06-03T09:36:22Z</time>
      </trkpt>
      <trkpt lat="45.15791" lon="5.51659">
        <ele>1214.69</ele>
        <time>2016-06-03T09:36:26Z</time>
      </trkpt>
      <trkpt lat="45.15793" lon="5.51657">
        <ele>1214.78</ele>
        <time>2016-06-03T09:36:27Z</time>
      </trkpt>
      <trkpt lat="45.15795" lon="5.51655">
        <ele>1214.85</ele>
        <time>2016-06-03T09:36:28Z</time>
      </trkpt>
      <trkpt lat="45.15797" lon="5.51654">
        <ele>1214.94</ele>
        <time>2016-06-03T09:36:29Z</time>
      </trkpt>
      <trkpt lat="45.15799" lon="5.51651">
        <ele>1215.03</ele>
        <time>2016-06-03T09:36:30Z</time>
      </trkpt>
      <trkpt lat="45.15801" lon="5.51649">
        <ele>1215.11</ele>
        <time>2016-06-03T09:36:31Z</time>
      </trkpt>
      <trkpt lat="45.15823" lon="5.51619">
        <ele>1215.81</ele>
        <time>2016-06-03T09:36:42Z</time>
      </trkpt>
      <trkpt lat="45.15839" lon="5.51608">
        <ele>1216.41</ele>
        <time>2016-06-03T09:36:49Z</time>
      </trkpt>
      <trkpt lat="45.15842" lon="5.51609">
        <ele>1216.51</ele>
        <time>2016-06-03T09:36:50Z</time>
      </trkpt>
      <trkpt lat="45.15845" lon="5.5161">
        <ele>1216.67</ele>
        <time>2016-06-03T09:36:51Z</time>
      </trkpt>
      <trkpt lat="45.15847" lon="5.51611">
        <ele>1216.74</ele>
        <time>2016-06-03T09:36:52Z</time>
      </trkpt>
      <trkpt lat="45.15848" lon="5.51612">
        <ele>1216.83</ele>
        <time>2016-06-03T09:36:53Z</time>
      </trkpt>
      <trkpt lat="45.1585" lon="5.51613">
        <ele>1216.96</ele>
        <time>2016-06-03T09:36:54Z</time>
      </trkpt>
      <trkpt lat="45.15851" lon="5.51615">
        <ele>1217.11</ele>
        <time>2016-06-03T09:36:55Z</time>
      </trkpt>
      <trkpt lat="45.15852" lon="5.51617">
        <ele>1217.25</ele>
        <time>2016-06-03T09:36:56Z</time>
      </trkpt>
      <trkpt lat="45.15853" lon="5.5162">
        <ele>1217.38</ele>
        <time>2016-06-03T09:36:57Z</time>
      </trkpt>
      <trkpt lat="45.15855" lon="5.51622">
        <ele>1217.51</ele>
        <time>2016-06-03T09:36:58Z</time>
      </trkpt>
      <trkpt lat="45.15856" lon="5.51626">
        <ele>1217.64</ele>
        <time>2016-06-03T09:36:59Z</time>
      </trkpt>
      <trkpt lat="45.15856" lon="5.5163">
        <ele>1217.78</ele>
        <time>2016-06-03T09:37:00Z</time>
      </trkpt>
      <trkpt lat="45.15868" lon="5.51667">
        <ele>1219.26</ele>
        <time>2016-06-03T09:37:11Z</time>
      </trkpt>
      <trkpt lat="45.15889" lon="5.51682">
        <ele>1220.1</ele>
        <time>2016-06-03T09:37:21Z</time>
      </trkpt>
      <trkpt lat="45.15909" lon="5.51689">
        <ele>1220.69</ele>
        <time>2016-06-03T09:37:30Z</time>
      </trkpt>
      <trkpt lat="45.15912" lon="5.51689">
        <ele>1220.76</ele>
        <time>2016-06-03T09:37:31Z</time>
      </trkpt>
      <trkpt lat="45.15914" lon="5.51691">
        <ele>1220.83</ele>
        <time>2016-06-03T09:37:32Z</time>
      </trkpt>
      <trkpt lat="45.15916" lon="5.51692">
        <ele>1220.91</ele>
        <time>2016-06-03T09:37:33Z</time>
      </trkpt>
      <trkpt lat="45.15918" lon="5.51692">
        <ele>1220.99</ele>
        <time>2016-06-03T09:37:34Z</time>
      </trkpt>
      <trkpt lat="45.15946" lon="5.51704">
        <ele>1222.19</ele>
        <time>2016-06-03T09:37:46Z</time>
      </trkpt>
      <trkpt lat="45.15964" lon="5.51713">
        <ele>1222.79</ele>
        <time>2016-06-03T09:37:53Z</time>
      </trkpt>
      <trkpt lat="45.15966" lon="5.51714">
        <ele>1222.9</ele>
        <time>2016-06-03T09:37:54Z</time>
      </trkpt>
      <trkpt lat="45.15977" lon="5.51715">
        <ele>1223.63</ele>
        <time>2016-06-03T09:38:00Z</time>
      </trkpt>
      <trkpt lat="45.15994" lon="5.51714">
        <ele>1225.08</ele>
        <time>2016-06-03T09:38:08Z</time>
      </trkpt>
      <trkpt lat="45.15996" lon="5.51713">
        <ele>1225.29</ele>
        <time>2016-06-03T09:38:09Z</time>
      </trkpt>
      <trkpt lat="45.15998" lon="5.51712">
        <ele>1225.51</ele>
        <time>2016-06-03T09:38:10Z</time>
      </trkpt>
      <trkpt lat="45.16001" lon="5.51714">
        <ele>1226.08</ele>
        <time>2016-06-03T09:38:13Z</time>
      </trkpt>
      <trkpt lat="45.16003" lon="5.51714">
        <ele>1226.27</ele>
        <time>2016-06-03T09:38:14Z</time>
      </trkpt>
      <trkpt lat="45.16004" lon="5.51714">
        <ele>1226.5</ele>
        <time>2016-06-03T09:38:15Z</time>
      </trkpt>
      <trkpt lat="45.16006" lon="5.51715">
        <ele>1226.72</ele>
        <time>2016-06-03T09:38:16Z</time>
      </trkpt>
      <trkpt lat="45.16022" lon="5.51715">
        <ele>1228.79</ele>
        <time>2016-06-03T09:38:26Z</time>
      </trkpt>
      <trkpt lat="45.16024" lon="5.51715">
        <ele>1228.98</ele>
        <time>2016-06-03T09:38:27Z</time>
      </trkpt>
      <trkpt lat="45.16026" lon="5.51715">
        <ele>1229.14</ele>
        <time>2016-06-03T09:38:28Z</time>
      </trkpt>
      <trkpt lat="45.16027" lon="5.51716">
        <ele>1229.29</ele>
        <time>2016-06-03T09:38:29Z</time>
      </trkpt>
      <trkpt lat="45.16029" lon="5.51716">
        <ele>1229.43</ele>
        <time>2016-06-03T09:38:30Z</time>
      </trkpt>
      <trkpt lat="45.1603" lon="5.51716">
        <ele>1229.58</ele>
        <time>2016-06-03T09:38:31Z</time>
      </trkpt>
      <trkpt lat="45.16032" lon="5.51716">
        <ele>1229.92</ele>
        <time>2016-06-03T09:38:32Z</time>
      </trkpt>
      <trkpt lat="45.16034" lon="5.51716">
        <ele>1230.11</ele>
        <time>2016-06-03T09:38:33Z</time>
      </trkpt>
      <trkpt lat="45.16036" lon="5.51716">
        <ele>1230.31</ele>
        <time>2016-06-03T09:38:34Z</time>
      </trkpt>
      <trkpt lat="45.16038" lon="5.51714">
        <ele>1230.53</ele>
        <time>2016-06-03T09:38:35Z</time>
      </trkpt>
      <trkpt lat="45.16041" lon="5.51714">
        <ele>1230.74</ele>
        <time>2016-06-03T09:38:36Z</time>
      </trkpt>
      <trkpt lat="45.16043" lon="5.51713">
        <ele>1230.97</ele>
        <time>2016-06-03T09:38:37Z</time>
      </trkpt>
      <trkpt lat="45.16057" lon="5.5171">
        <ele>1232.4</ele>
        <time>2016-06-03T09:38:45Z</time>
      </trkpt>
      <trkpt lat="45.16059" lon="5.51709">
        <ele>1232.58</ele>
        <time>2016-06-03T09:38:46Z</time>
      </trkpt>
      <trkpt lat="45.16075" lon="5.51695">
        <ele>1234.44</ele>
        <time>2016-06-03T09:38:57Z</time>
      </trkpt>
      <trkpt lat="45.16081" lon="5.51687">
        <ele>1235.29</ele>
        <time>2016-06-03T09:39:02Z</time>
      </trkpt>
      <trkpt lat="45.16089" lon="5.5168">
        <ele>1236.43</ele>
        <time>2016-06-03T09:39:08Z</time>
      </trkpt>
      <trkpt lat="45.16091" lon="5.51679">
        <ele>1236.66</ele>
        <time>2016-06-03T09:39:09Z</time>
      </trkpt>
      <trkpt lat="45.16105" lon="5.51673">
        <ele>1238.12</ele>
        <time>2016-06-03T09:39:16Z</time>
      </trkpt>
      <trkpt lat="45.16108" lon="5.51672">
        <ele>1238.6</ele>
        <time>2016-06-03T09:39:18Z</time>
      </trkpt>
      <trkpt lat="45.16109" lon="5.51671">
        <ele>1238.84</ele>
        <time>2016-06-03T09:39:19Z</time>
      </trkpt>
      <trkpt lat="45.16123" lon="5.51666">
        <ele>1240.72</ele>
        <time>2016-06-03T09:39:29Z</time>
      </trkpt>
      <trkpt lat="45.16125" lon="5.51667">
        <ele>1240.86</ele>
        <time>2016-06-03T09:39:30Z</time>
      </trkpt>
      <trkpt lat="45.16141" lon="5.51671">
        <ele>1242.59</ele>
        <time>2016-06-03T09:39:41Z</time>
      </trkpt>
      <trkpt lat="45.16148" lon="5.51675">
        <ele>1243.59</ele>
        <time>2016-06-03T09:39:46Z</time>
      </trkpt>
      <trkpt lat="45.1615" lon="5.51676">
        <ele>1243.74</ele>
        <time>2016-06-03T09:39:47Z</time>
      </trkpt>
      <trkpt lat="45.16152" lon="5.51676">
        <ele>1243.88</ele>
        <time>2016-06-03T09:39:48Z</time>
      </trkpt>
      <trkpt lat="45.16153" lon="5.51677">
        <ele>1244.01</ele>
        <time>2016-06-03T09:39:49Z</time>
      </trkpt>
      <trkpt lat="45.16155" lon="5.51678">
        <ele>1244.14</ele>
        <time>2016-06-03T09:39:50Z</time>
      </trkpt>
      <trkpt lat="45.16176" lon="5.51695">
        <ele>1246.16</ele>
        <time>2016-06-03T09:40:02Z</time>
      </trkpt>
      <trkpt lat="45.16178" lon="5.51698">
        <ele>1246.78</ele>
        <time>2016-06-03T09:40:05Z</time>
      </trkpt>
      <trkpt lat="45.16189" lon="5.5171">
        <ele>1248.91</ele>
        <time>2016-06-03T09:40:16Z</time>
      </trkpt>
      <trkpt lat="45.16193" lon="5.51713">
        <ele>1249.46</ele>
        <time>2016-06-03T09:40:19Z</time>
      </trkpt>
      <trkpt lat="45.16204" lon="5.51719">
        <ele>1250.47</ele>
        <time>2016-06-03T09:40:26Z</time>
      </trkpt>
      <trkpt lat="45.16219" lon="5.51728">
        <ele>1252.04</ele>
        <time>2016-06-03T09:40:35Z</time>
      </trkpt>
      <trkpt lat="45.16237" lon="5.51737">
        <ele>1254.33</ele>
        <time>2016-06-03T09:40:46Z</time>
      </trkpt>
      <trkpt lat="45.16262" lon="5.5173">
        <ele>1256.54</ele>
        <time>2016-06-03T09:40:59Z</time>
      </trkpt>
      <trkpt lat="45.16282" lon="5.51725">
        <ele>1258.79</ele>
        <time>2016-06-03T09:41:11Z</time>
      </trkpt>
      <trkpt lat="45.16286" lon="5.51724">
        <ele>1259.29</ele>
        <time>2016-06-03T09:41:14Z</time>
      </trkpt>
      <trkpt lat="45.16292" lon="5.51725">
        <ele>1260.06</ele>
        <time>2016-06-03T09:41:18Z</time>
      </trkpt>
      <trkpt lat="45.16293" lon="5.51726">
        <ele>1260.26</ele>
        <time>2016-06-03T09:41:19Z</time>
      </trkpt>
      <trkpt lat="45.16295" lon="5.51726">
        <ele>1260.45</ele>
        <time>2016-06-03T09:41:20Z</time>
      </trkpt>
      <trkpt lat="45.16297" lon="5.51726">
        <ele>1260.62</ele>
        <time>2016-06-03T09:41:21Z</time>
      </trkpt>
      <trkpt lat="45.16299" lon="5.51727">
        <ele>1260.76</ele>
        <time>2016-06-03T09:41:22Z</time>
      </trkpt>
      <trkpt lat="45.16311" lon="5.51727">
        <ele>1262.23</ele>
        <time>2016-06-03T09:41:29Z</time>
      </trkpt>
      <trkpt lat="45.16313" lon="5.51727">
        <ele>1262.45</ele>
        <time>2016-06-03T09:41:30Z</time>
      </trkpt>
      <trkpt lat="45.16333" lon="5.51723">
        <ele>1265.03</ele>
        <time>2016-06-03T09:41:43Z</time>
      </trkpt>
      <trkpt lat="45.16342" lon="5.51721">
        <ele>1266.19</ele>
        <time>2016-06-03T09:41:48Z</time>
      </trkpt>
      <trkpt lat="45.16347" lon="5.51719">
        <ele>1267.1</ele>
        <time>2016-06-03T09:41:51Z</time>
      </trkpt>
      <trkpt lat="45.16349" lon="5.51718">
        <ele>1267.32</ele>
        <time>2016-06-03T09:41:52Z</time>
      </trkpt>
      <trkpt lat="45.16351" lon="5.51718">
        <ele>1267.52</ele>
        <time>2016-06-03T09:41:53Z</time>
      </trkpt>
      <trkpt lat="45.16368" lon="5.51712">
        <ele>1269.35</ele>
        <time>2016-06-03T09:42:02Z</time>
      </trkpt>
      <trkpt lat="45.16369" lon="5.51712">
        <ele>1269.49</ele>
        <time>2016-06-03T09:42:03Z</time>
      </trkpt>
      <trkpt lat="45.16372" lon="5.51712">
        <ele>1269.62</ele>
        <time>2016-06-03T09:42:04Z</time>
      </trkpt>
      <trkpt lat="45.16374" lon="5.51712">
        <ele>1269.77</ele>
        <time>2016-06-03T09:42:05Z</time>
      </trkpt>
      <trkpt lat="45.16377" lon="5.51711">
        <ele>1270.13</ele>
        <time>2016-06-03T09:42:07Z</time>
      </trkpt>
      <trkpt lat="45.16379" lon="5.5171">
        <ele>1270.28</ele>
        <time>2016-06-03T09:42:08Z</time>
      </trkpt>
      <trkpt lat="45.16382" lon="5.51712">
        <ele>1270.56</ele>
        <time>2016-06-03T09:42:10Z</time>
      </trkpt>
      <trkpt lat="45.16384" lon="5.51713">
        <ele>1270.66</ele>
        <time>2016-06-03T09:42:11Z</time>
      </trkpt>
      <trkpt lat="45.16386" lon="5.51714">
        <ele>1270.75</ele>
        <time>2016-06-03T09:42:12Z</time>
      </trkpt>
      <trkpt lat="45.16387" lon="5.51715">
        <ele>1270.84</ele>
        <time>2016-06-03T09:42:13Z</time>
      </trkpt>
      <trkpt lat="45.16393" lon="5.5172">
        <ele>1271.72</ele>
        <time>2016-06-03T09:42:18Z</time>
      </trkpt>
      <trkpt lat="45.16395" lon="5.51722">
        <ele>1271.86</ele>
        <time>2016-06-03T09:42:19Z</time>
      </trkpt>
      <trkpt lat="45.16396" lon="5.51724">
        <ele>1272.02</ele>
        <time>2016-06-03T09:42:20Z</time>
      </trkpt>
      <trkpt lat="45.16397" lon="5.51726">
        <ele>1272.18</ele>
        <time>2016-06-03T09:42:21Z</time>
      </trkpt>
      <trkpt lat="45.16399" lon="5.51728">
        <ele>1272.31</ele>
        <time>2016-06-03T09:42:22Z</time>
      </trkpt>
      <trkpt lat="45.16421" lon="5.51738">
        <ele>1274.34</ele>
        <time>2016-06-03T09:42:34Z</time>
      </trkpt>
      <trkpt lat="45.16435" lon="5.51746">
        <ele>1276.12</ele>
        <time>2016-06-03T09:42:47Z</time>
      </trkpt>
      <trkpt lat="45.16433" lon="5.51752">
        <ele>1276.55</ele>
        <time>2016-06-03T09:43:17Z</time>
      </trkpt>
      <trkpt lat="45.16443" lon="5.51749">
        <ele>1276.35</ele>
        <time>2016-06-03T09:43:43Z</time>
      </trkpt>
      <trkpt lat="45.16448" lon="5.51752">
        <ele>1276.63</ele>
        <time>2016-06-03T09:44:08Z</time>
      </trkpt>
      <trkpt lat="45.16444" lon="5.51756">
        <ele>1276.57</ele>
        <time>2016-06-03T09:44:39Z</time>
      </trkpt>
      <trkpt lat="45.16445" lon="5.51755">
        <ele>1276.56</ele>
        <time>2016-06-03T09:45:10Z</time>
      </trkpt>
      <trkpt lat="45.1644" lon="5.51757">
        <ele>1276.94</ele>
        <time>2016-06-03T09:45:37Z</time>
      </trkpt>
      <trkpt lat="45.16438" lon="5.51757">
        <ele>1276.59</ele>
        <time>2016-06-03T09:46:06Z</time>
      </trkpt>
      <trkpt lat="45.16442" lon="5.51747">
        <ele>1276.83</ele>
        <time>2016-06-03T09:46:36Z</time>
      </trkpt>
      <trkpt lat="45.16439" lon="5.51754">
        <ele>1276.83</ele>
        <time>2016-06-03T09:46:44Z</time>
      </trkpt>
      <trkpt lat="45.16437" lon="5.5176">
        <ele>1276.8</ele>
        <time>2016-06-03T09:46:49Z</time>
      </trkpt>
      <trkpt lat="45.16438" lon="5.51761">
        <ele>1276.71</ele>
        <time>2016-06-03T09:47:04Z</time>
      </trkpt>
      <trkpt lat="45.16449" lon="5.5175">
        <ele>1276.4</ele>
        <time>2016-06-03T09:47:36Z</time>
      </trkpt>
      <trkpt lat="45.16452" lon="5.51748">
        <ele>1276.55</ele>
        <time>2016-06-03T09:47:42Z</time>
      </trkpt>
      <trkpt lat="45.16454" lon="5.51749">
        <ele>1276.65</ele>
        <time>2016-06-03T09:47:43Z</time>
      </trkpt>
      <trkpt lat="45.16455" lon="5.51748">
        <ele>1276.74</ele>
        <time>2016-06-03T09:47:44Z</time>
      </trkpt>
      <trkpt lat="45.16457" lon="5.51748">
        <ele>1276.83</ele>
        <time>2016-06-03T09:47:45Z</time>
      </trkpt>
      <trkpt lat="45.16458" lon="5.51748">
        <ele>1276.91</ele>
        <time>2016-06-03T09:47:46Z</time>
      </trkpt>
      <trkpt lat="45.16459" lon="5.51748">
        <ele>1276.98</ele>
        <time>2016-06-03T09:47:47Z</time>
      </trkpt>
      <trkpt lat="45.1646" lon="5.51749">
        <ele>1277.08</ele>
        <time>2016-06-03T09:47:48Z</time>
      </trkpt>
      <trkpt lat="45.16461" lon="5.51748">
        <ele>1277.17</ele>
        <time>2016-06-03T09:47:49Z</time>
      </trkpt>
      <trkpt lat="45.16462" lon="5.51748">
        <ele>1277.27</ele>
        <time>2016-06-03T09:47:50Z</time>
      </trkpt>
      <trkpt lat="45.16475" lon="5.51745">
        <ele>1278.84</ele>
        <time>2016-06-03T09:47:59Z</time>
      </trkpt>
      <trkpt lat="45.16482" lon="5.51743">
        <ele>1279.71</ele>
        <time>2016-06-03T09:48:04Z</time>
      </trkpt>
      <trkpt lat="45.16484" lon="5.51742">
        <ele>1279.91</ele>
        <time>2016-06-03T09:48:05Z</time>
      </trkpt>
      <trkpt lat="45.16485" lon="5.51742">
        <ele>1280.1</ele>
        <time>2016-06-03T09:48:06Z</time>
      </trkpt>
      <trkpt lat="45.16487" lon="5.51741">
        <ele>1280.27</ele>
        <time>2016-06-03T09:48:07Z</time>
      </trkpt>
      <trkpt lat="45.16489" lon="5.5174">
        <ele>1280.43</ele>
        <time>2016-06-03T09:48:08Z</time>
      </trkpt>
      <trkpt lat="45.1649" lon="5.51739">
        <ele>1280.58</ele>
        <time>2016-06-03T09:48:09Z</time>
      </trkpt>
      <trkpt lat="45.16499" lon="5.51731">
        <ele>1281.08</ele>
        <time>2016-06-03T09:48:15Z</time>
      </trkpt>
      <trkpt lat="45.165" lon="5.5173">
        <ele>1281.1</ele>
        <time>2016-06-03T09:48:16Z</time>
      </trkpt>
      <trkpt lat="45.16502" lon="5.51727">
        <ele>1281.13</ele>
        <time>2016-06-03T09:48:17Z</time>
      </trkpt>
      <trkpt lat="45.16504" lon="5.51725">
        <ele>1281.15</ele>
        <time>2016-06-03T09:48:18Z</time>
      </trkpt>
      <trkpt lat="45.16507" lon="5.51722">
        <ele>1281.16</ele>
        <time>2016-06-03T09:48:19Z</time>
      </trkpt>
      <trkpt lat="45.16529" lon="5.51694">
        <ele>1281.63</ele>
        <time>2016-06-03T09:48:31Z</time>
      </trkpt>
      <trkpt lat="45.16556" lon="5.51678">
        <ele>1282.62</ele>
        <time>2016-06-03T09:48:43Z</time>
      </trkpt>
      <trkpt lat="45.16566" lon="5.5168">
        <ele>1282.98</ele>
        <time>2016-06-03T09:48:48Z</time>
      </trkpt>
      <trkpt lat="45.16567" lon="5.51681">
        <ele>1283.09</ele>
        <time>2016-06-03T09:48:49Z</time>
      </trkpt>
      <trkpt lat="45.16571" lon="5.51683">
        <ele>1283.36</ele>
        <time>2016-06-03T09:48:52Z</time>
      </trkpt>
      <trkpt lat="45.16572" lon="5.51685">
        <ele>1283.48</ele>
        <time>2016-06-03T09:48:53Z</time>
      </trkpt>
      <trkpt lat="45.16572" lon="5.51687">
        <ele>1283.6</ele>
        <time>2016-06-03T09:48:54Z</time>
      </trkpt>
      <trkpt lat="45.16572" lon="5.51689">
        <ele>1283.73</ele>
        <time>2016-06-03T09:48:55Z</time>
      </trkpt>
      <trkpt lat="45.16572" lon="5.51691">
        <ele>1283.89</ele>
        <time>2016-06-03T09:48:56Z</time>
      </trkpt>
      <trkpt lat="45.16575" lon="5.51721">
        <ele>1285.47</ele>
        <time>2016-06-03T09:49:08Z</time>
      </trkpt>
      <trkpt lat="45.1657" lon="5.51759">
        <ele>1286.03</ele>
        <time>2016-06-03T09:49:18Z</time>
      </trkpt>
      <trkpt lat="45.16575" lon="5.51773">
        <ele>1286.54</ele>
        <time>2016-06-03T09:49:22Z</time>
      </trkpt>
      <trkpt lat="45.16578" lon="5.51775">
        <ele>1286.72</ele>
        <time>2016-06-03T09:49:23Z</time>
      </trkpt>
      <trkpt lat="45.16582" lon="5.51777">
        <ele>1286.99</ele>
        <time>2016-06-03T09:49:25Z</time>
      </trkpt>
      <trkpt lat="45.16584" lon="5.51778">
        <ele>1287.14</ele>
        <time>2016-06-03T09:49:26Z</time>
      </trkpt>
      <trkpt lat="45.16587" lon="5.51779">
        <ele>1287.24</ele>
        <time>2016-06-03T09:49:27Z</time>
      </trkpt>
      <trkpt lat="45.16589" lon="5.5178">
        <ele>1287.37</ele>
        <time>2016-06-03T09:49:28Z</time>
      </trkpt>
      <trkpt lat="45.16591" lon="5.51781">
        <ele>1287.53</ele>
        <time>2016-06-03T09:49:29Z</time>
      </trkpt>
      <trkpt lat="45.16593" lon="5.51782">
        <ele>1287.69</ele>
        <time>2016-06-03T09:49:30Z</time>
      </trkpt>
      <trkpt lat="45.16595" lon="5.51783">
        <ele>1287.82</ele>
        <time>2016-06-03T09:49:31Z</time>
      </trkpt>
      <trkpt lat="45.16597" lon="5.51783">
        <ele>1287.96</ele>
        <time>2016-06-03T09:49:32Z</time>
      </trkpt>
      <trkpt lat="45.16598" lon="5.51783">
        <ele>1288.12</ele>
        <time>2016-06-03T09:49:33Z</time>
      </trkpt>
      <trkpt lat="45.166" lon="5.51784">
        <ele>1288.29</ele>
        <time>2016-06-03T09:49:34Z</time>
      </trkpt>
      <trkpt lat="45.16601" lon="5.51784">
        <ele>1288.48</ele>
        <time>2016-06-03T09:49:35Z</time>
      </trkpt>
      <trkpt lat="45.16603" lon="5.51785">
        <ele>1288.68</ele>
        <time>2016-06-03T09:49:36Z</time>
      </trkpt>
      <trkpt lat="45.16604" lon="5.51786">
        <ele>1288.88</ele>
        <time>2016-06-03T09:49:37Z</time>
      </trkpt>
      <trkpt lat="45.16606" lon="5.51786">
        <ele>1289.31</ele>
        <time>2016-06-03T09:49:38Z</time>
      </trkpt>
      <trkpt lat="45.16607" lon="5.51786">
        <ele>1289.31</ele>
        <time>2016-06-03T09:49:39Z</time>
      </trkpt>
      <trkpt lat="45.16609" lon="5.51787">
        <ele>1289.7</ele>
        <time>2016-06-03T09:49:40Z</time>
      </trkpt>
      <trkpt lat="45.16611" lon="5.51787">
        <ele>1289.88</ele>
        <time>2016-06-03T09:49:41Z</time>
      </trkpt>
      <trkpt lat="45.16613" lon="5.51787">
        <ele>1290.08</ele>
        <time>2016-06-03T09:49:42Z</time>
      </trkpt>
      <trkpt lat="45.16615" lon="5.51787">
        <ele>1290.3</ele>
        <time>2016-06-03T09:49:43Z</time>
      </trkpt>
      <trkpt lat="45.16617" lon="5.51788">
        <ele>1290.53</ele>
        <time>2016-06-03T09:49:44Z</time>
      </trkpt>
      <trkpt lat="45.16618" lon="5.51789">
        <ele>1290.76</ele>
        <time>2016-06-03T09:49:45Z</time>
      </trkpt>
      <trkpt lat="45.16619" lon="5.51789">
        <ele>1290.97</ele>
        <time>2016-06-03T09:49:46Z</time>
      </trkpt>
      <trkpt lat="45.16621" lon="5.51789">
        <ele>1291.18</ele>
        <time>2016-06-03T09:49:47Z</time>
      </trkpt>
      <trkpt lat="45.16623" lon="5.51789">
        <ele>1291.4</ele>
        <time>2016-06-03T09:49:48Z</time>
      </trkpt>
      <trkpt lat="45.16625" lon="5.51788">
        <ele>1291.63</ele>
        <time>2016-06-03T09:49:49Z</time>
      </trkpt>
      <trkpt lat="45.16627" lon="5.51788">
        <ele>1291.85</ele>
        <time>2016-06-03T09:49:50Z</time>
      </trkpt>
      <trkpt lat="45.16629" lon="5.51788">
        <ele>1292.07</ele>
        <time>2016-06-03T09:49:51Z</time>
      </trkpt>
      <trkpt lat="45.1663" lon="5.51788">
        <ele>1292.3</ele>
        <time>2016-06-03T09:49:52Z</time>
      </trkpt>
      <trkpt lat="45.16632" lon="5.51789">
        <ele>1292.52</ele>
        <time>2016-06-03T09:49:53Z</time>
      </trkpt>
      <trkpt lat="45.16641" lon="5.51793">
        <ele>1293.44</ele>
        <time>2016-06-03T09:49:59Z</time>
      </trkpt>
      <trkpt lat="45.16643" lon="5.51793">
        <ele>1293.63</ele>
        <time>2016-06-03T09:50:00Z</time>
      </trkpt>
      <trkpt lat="45.16662" lon="5.51802">
        <ele>1295.64</ele>
        <time>2016-06-03T09:50:12Z</time>
      </trkpt>
      <trkpt lat="45.16671" lon="5.51803">
        <ele>1296.49</ele>
        <time>2016-06-03T09:50:17Z</time>
      </trkpt>
      <trkpt lat="45.16673" lon="5.51804">
        <ele>1296.68</ele>
        <time>2016-06-03T09:50:18Z</time>
      </trkpt>
      <trkpt lat="45.16675" lon="5.51804">
        <ele>1296.85</ele>
        <time>2016-06-03T09:50:19Z</time>
      </trkpt>
      <trkpt lat="45.16678" lon="5.51804">
        <ele>1297.01</ele>
        <time>2016-06-03T09:50:20Z</time>
      </trkpt>
      <trkpt lat="45.16679" lon="5.51804">
        <ele>1297.17</ele>
        <time>2016-06-03T09:50:21Z</time>
      </trkpt>
      <trkpt lat="45.167" lon="5.51807">
        <ele>1299.14</ele>
        <time>2016-06-03T09:50:33Z</time>
      </trkpt>
      <trkpt lat="45.1672" lon="5.51804">
        <ele>1301.73</ele>
        <time>2016-06-03T09:50:45Z</time>
      </trkpt>
      <trkpt lat="45.16728" lon="5.51803">
        <ele>1302.83</ele>
        <time>2016-06-03T09:50:50Z</time>
      </trkpt>
      <trkpt lat="45.1673" lon="5.51803">
        <ele>1303.04</ele>
        <time>2016-06-03T09:50:51Z</time>
      </trkpt>
      <trkpt lat="45.1675" lon="5.51804">
        <ele>1305.12</ele>
        <time>2016-06-03T09:51:03Z</time>
      </trkpt>
      <trkpt lat="45.16769" lon="5.51809">
        <ele>1306.85</ele>
        <time>2016-06-03T09:51:14Z</time>
      </trkpt>
      <trkpt lat="45.16788" lon="5.51806">
        <ele>1308.82</ele>
        <time>2016-06-03T09:51:27Z</time>
      </trkpt>
      <trkpt lat="45.16794" lon="5.51802">
        <ele>1309.46</ele>
        <time>2016-06-03T09:51:33Z</time>
      </trkpt>
      <trkpt lat="45.16807" lon="5.51798">
        <ele>1310.29</ele>
        <time>2016-06-03T09:51:40Z</time>
      </trkpt>
      <trkpt lat="45.16809" lon="5.51797">
        <ele>1310.49</ele>
        <time>2016-06-03T09:51:41Z</time>
      </trkpt>
      <trkpt lat="45.16822" lon="5.51781">
        <ele>1312.21</ele>
        <time>2016-06-03T09:51:51Z</time>
      </trkpt>
      <trkpt lat="45.16823" lon="5.5178">
        <ele>1312.3</ele>
        <time>2016-06-03T09:51:52Z</time>
      </trkpt>
      <trkpt lat="45.16824" lon="5.51777">
        <ele>1312.38</ele>
        <time>2016-06-03T09:51:53Z</time>
      </trkpt>
      <trkpt lat="45.16829" lon="5.5176">
        <ele>1313.08</ele>
        <time>2016-06-03T09:52:01Z</time>
      </trkpt>
      <trkpt lat="45.1683" lon="5.51758">
        <ele>1313.21</ele>
        <time>2016-06-03T09:52:02Z</time>
      </trkpt>
      <trkpt lat="45.16831" lon="5.51756">
        <ele>1313.34</ele>
        <time>2016-06-03T09:52:03Z</time>
      </trkpt>
      <trkpt lat="45.16832" lon="5.51754">
        <ele>1313.65</ele>
        <time>2016-06-03T09:52:04Z</time>
      </trkpt>
      <trkpt lat="45.16834" lon="5.51751">
        <ele>1313.84</ele>
        <time>2016-06-03T09:52:05Z</time>
      </trkpt>
      <trkpt lat="45.16855" lon="5.51727">
        <ele>1315.69</ele>
        <time>2016-06-03T09:52:18Z</time>
      </trkpt>
      <trkpt lat="45.16866" lon="5.5172">
        <ele>1316.4</ele>
        <time>2016-06-03T09:52:24Z</time>
      </trkpt>
      <trkpt lat="45.16876" lon="5.51718">
        <ele>1317.14</ele>
        <time>2016-06-03T09:52:29Z</time>
      </trkpt>
      <trkpt lat="45.16878" lon="5.51717">
        <ele>1317.37</ele>
        <time>2016-06-03T09:52:30Z</time>
      </trkpt>
      <trkpt lat="45.1688" lon="5.51716">
        <ele>1317.37</ele>
        <time>2016-06-03T09:52:31Z</time>
      </trkpt>
      <trkpt lat="45.16887" lon="5.51711">
        <ele>1317.91</ele>
        <time>2016-06-03T09:52:40Z</time>
      </trkpt>
      <trkpt lat="45.1689" lon="5.51714">
        <ele>1317.89</ele>
        <time>2016-06-03T09:52:55Z</time>
      </trkpt>
      <trkpt lat="45.16895" lon="5.51712">
        <ele>1317.73</ele>
        <time>2016-06-03T09:53:01Z</time>
      </trkpt>
      <trkpt lat="45.16897" lon="5.51713">
        <ele>1317.72</ele>
        <time>2016-06-03T09:53:02Z</time>
      </trkpt>
      <trkpt lat="45.16899" lon="5.51713">
        <ele>1317.73</ele>
        <time>2016-06-03T09:53:03Z</time>
      </trkpt>
      <trkpt lat="45.16901" lon="5.51713">
        <ele>1317.77</ele>
        <time>2016-06-03T09:53:04Z</time>
      </trkpt>
      <trkpt lat="45.16903" lon="5.51713">
        <ele>1317.83</ele>
        <time>2016-06-03T09:53:05Z</time>
      </trkpt>
      <trkpt lat="45.16912" lon="5.51714">
        <ele>1318.29</ele>
        <time>2016-06-03T09:53:11Z</time>
      </trkpt>
      <trkpt lat="45.16913" lon="5.51715">
        <ele>1318.41</ele>
        <time>2016-06-03T09:53:12Z</time>
      </trkpt>
      <trkpt lat="45.16915" lon="5.51716">
        <ele>1318.53</ele>
        <time>2016-06-03T09:53:13Z</time>
      </trkpt>
      <trkpt lat="45.16917" lon="5.51716">
        <ele>1318.63</ele>
        <time>2016-06-03T09:53:14Z</time>
      </trkpt>
      <trkpt lat="45.16919" lon="5.51716">
        <ele>1318.71</ele>
        <time>2016-06-03T09:53:15Z</time>
      </trkpt>
      <trkpt lat="45.16921" lon="5.51717">
        <ele>1318.78</ele>
        <time>2016-06-03T09:53:16Z</time>
      </trkpt>
      <trkpt lat="45.16923" lon="5.51718">
        <ele>1318.82</ele>
        <time>2016-06-03T09:53:17Z</time>
      </trkpt>
      <trkpt lat="45.16925" lon="5.51719">
        <ele>1318.87</ele>
        <time>2016-06-03T09:53:18Z</time>
      </trkpt>
      <trkpt lat="45.16927" lon="5.5172">
        <ele>1318.91</ele>
        <time>2016-06-03T09:53:19Z</time>
      </trkpt>
      <trkpt lat="45.16937" lon="5.51724">
        <ele>1319.43</ele>
        <time>2016-06-03T09:53:25Z</time>
      </trkpt>
      <trkpt lat="45.16939" lon="5.51725">
        <ele>1319.54</ele>
        <time>2016-06-03T09:53:26Z</time>
      </trkpt>
      <trkpt lat="45.16948" lon="5.51729">
        <ele>1320.41</ele>
        <time>2016-06-03T09:53:32Z</time>
      </trkpt>
      <trkpt lat="45.16949" lon="5.5173">
        <ele>1320.61</ele>
        <time>2016-06-03T09:53:33Z</time>
      </trkpt>
      <trkpt lat="45.1695" lon="5.5173">
        <ele>1320.85</ele>
        <time>2016-06-03T09:53:34Z</time>
      </trkpt>
      <trkpt lat="45.16952" lon="5.5173">
        <ele>1321.09</ele>
        <time>2016-06-03T09:53:35Z</time>
      </trkpt>
      <trkpt lat="45.16954" lon="5.51731">
        <ele>1321.31</ele>
        <time>2016-06-03T09:53:36Z</time>
      </trkpt>
      <trkpt lat="45.16955" lon="5.51731">
        <ele>1321.49</ele>
        <time>2016-06-03T09:53:37Z</time>
      </trkpt>
      <trkpt lat="45.16957" lon="5.51732">
        <ele>1321.66</ele>
        <time>2016-06-03T09:53:38Z</time>
      </trkpt>
      <trkpt lat="45.16958" lon="5.51733">
        <ele>1321.82</ele>
        <time>2016-06-03T09:53:39Z</time>
      </trkpt>
      <trkpt lat="45.1696" lon="5.51733">
        <ele>1321.96</ele>
        <time>2016-06-03T09:53:40Z</time>
      </trkpt>
      <trkpt lat="45.16961" lon="5.51735">
        <ele>1322.08</ele>
        <time>2016-06-03T09:53:41Z</time>
      </trkpt>
      <trkpt lat="45.16968" lon="5.51742">
        <ele>1323.46</ele>
        <time>2016-06-03T09:53:47Z</time>
      </trkpt>
      <trkpt lat="45.1697" lon="5.51743">
        <ele>1323.64</ele>
        <time>2016-06-03T09:53:48Z</time>
      </trkpt>
      <trkpt lat="45.16971" lon="5.51745">
        <ele>1323.82</ele>
        <time>2016-06-03T09:53:49Z</time>
      </trkpt>
      <trkpt lat="45.16973" lon="5.51747">
        <ele>1323.98</ele>
        <time>2016-06-03T09:53:50Z</time>
      </trkpt>
      <trkpt lat="45.16974" lon="5.51748">
        <ele>1324.16</ele>
        <time>2016-06-03T09:53:51Z</time>
      </trkpt>
      <trkpt lat="45.16977" lon="5.51752">
        <ele>1324.7</ele>
        <time>2016-06-03T09:53:54Z</time>
      </trkpt>
      <trkpt lat="45.16978" lon="5.51753">
        <ele>1324.89</ele>
        <time>2016-06-03T09:53:55Z</time>
      </trkpt>
      <trkpt lat="45.1698" lon="5.51754">
        <ele>1325.09</ele>
        <time>2016-06-03T09:53:56Z</time>
      </trkpt>
      <trkpt lat="45.16987" lon="5.51762">
        <ele>1326.03</ele>
        <time>2016-06-03T09:54:01Z</time>
      </trkpt>
      <trkpt lat="45.16988" lon="5.51763">
        <ele>1326.19</ele>
        <time>2016-06-03T09:54:02Z</time>
      </trkpt>
      <trkpt lat="45.16994" lon="5.51765">
        <ele>1326.98</ele>
        <time>2016-06-03T09:54:06Z</time>
      </trkpt>
      <trkpt lat="45.17004" lon="5.5177">
        <ele>1328.46</ele>
        <time>2016-06-03T09:54:14Z</time>
      </trkpt>
      <trkpt lat="45.17021" lon="5.51779">
        <ele>1330.47</ele>
        <time>2016-06-03T09:54:26Z</time>
      </trkpt>
      <trkpt lat="45.17024" lon="5.51781">
        <ele>1330.85</ele>
        <time>2016-06-03T09:54:28Z</time>
      </trkpt>
      <trkpt lat="45.17029" lon="5.51785">
        <ele>1331.39</ele>
        <time>2016-06-03T09:54:31Z</time>
      </trkpt>
      <trkpt lat="45.1703" lon="5.51786">
        <ele>1331.52</ele>
        <time>2016-06-03T09:54:32Z</time>
      </trkpt>
      <trkpt lat="45.17036" lon="5.51787">
        <ele>1332.17</ele>
        <time>2016-06-03T09:54:36Z</time>
      </trkpt>
      <trkpt lat="45.17038" lon="5.51789">
        <ele>1332.34</ele>
        <time>2016-06-03T09:54:37Z</time>
      </trkpt>
      <trkpt lat="45.17039" lon="5.5179">
        <ele>1332.53</ele>
        <time>2016-06-03T09:54:38Z</time>
      </trkpt>
      <trkpt lat="45.1704" lon="5.51791">
        <ele>1332.71</ele>
        <time>2016-06-03T09:54:39Z</time>
      </trkpt>
      <trkpt lat="45.17042" lon="5.51792">
        <ele>1332.88</ele>
        <time>2016-06-03T09:54:40Z</time>
      </trkpt>
      <trkpt lat="45.17043" lon="5.51793">
        <ele>1333.02</ele>
        <time>2016-06-03T09:54:41Z</time>
      </trkpt>
      <trkpt lat="45.17044" lon="5.51794">
        <ele>1333.18</ele>
        <time>2016-06-03T09:54:42Z</time>
      </trkpt>
      <trkpt lat="45.17046" lon="5.51795">
        <ele>1333.39</ele>
        <time>2016-06-03T09:54:43Z</time>
      </trkpt>
      <trkpt lat="45.17047" lon="5.51795">
        <ele>1333.65</ele>
        <time>2016-06-03T09:54:44Z</time>
      </trkpt>
      <trkpt lat="45.17049" lon="5.51796">
        <ele>1333.92</ele>
        <time>2016-06-03T09:54:45Z</time>
      </trkpt>
      <trkpt lat="45.17051" lon="5.51796">
        <ele>1334.17</ele>
        <time>2016-06-03T09:54:46Z</time>
      </trkpt>
      <trkpt lat="45.17052" lon="5.51796">
        <ele>1334.41</ele>
        <time>2016-06-03T09:54:47Z</time>
      </trkpt>
      <trkpt lat="45.17068" lon="5.51807">
        <ele>1336.11</ele>
        <time>2016-06-03T09:54:58Z</time>
      </trkpt>
      <trkpt lat="45.1707" lon="5.51807">
        <ele>1336.5</ele>
        <time>2016-06-03T09:54:59Z</time>
      </trkpt>
      <trkpt lat="45.17072" lon="5.51807">
        <ele>1336.69</ele>
        <time>2016-06-03T09:55:00Z</time>
      </trkpt>
      <trkpt lat="45.17073" lon="5.51808">
        <ele>1336.86</ele>
        <time>2016-06-03T09:55:01Z</time>
      </trkpt>
      <trkpt lat="45.17075" lon="5.51809">
        <ele>1337.01</ele>
        <time>2016-06-03T09:55:02Z</time>
      </trkpt>
      <trkpt lat="45.17094" lon="5.51818">
        <ele>1339.43</ele>
        <time>2016-06-03T09:55:16Z</time>
      </trkpt>
      <trkpt lat="45.17123" lon="5.51817">
        <ele>1342.61</ele>
        <time>2016-06-03T09:55:33Z</time>
      </trkpt>
      <trkpt lat="45.17138" lon="5.51818">
        <ele>1344.03</ele>
        <time>2016-06-03T09:55:42Z</time>
      </trkpt>
      <trkpt lat="45.1714" lon="5.51817">
        <ele>1344.17</ele>
        <time>2016-06-03T09:55:43Z</time>
      </trkpt>
      <trkpt lat="45.17143" lon="5.51817">
        <ele>1344.31</ele>
        <time>2016-06-03T09:55:44Z</time>
      </trkpt>
      <trkpt lat="45.17145" lon="5.51816">
        <ele>1344.46</ele>
        <time>2016-06-03T09:55:45Z</time>
      </trkpt>
      <trkpt lat="45.17147" lon="5.51816">
        <ele>1344.64</ele>
        <time>2016-06-03T09:55:46Z</time>
      </trkpt>
      <trkpt lat="45.17149" lon="5.51817">
        <ele>1344.84</ele>
        <time>2016-06-03T09:55:47Z</time>
      </trkpt>
      <trkpt lat="45.17162" lon="5.5182">
        <ele>1346.55</ele>
        <time>2016-06-03T09:55:56Z</time>
      </trkpt>
      <trkpt lat="45.17164" lon="5.51821">
        <ele>1346.68</ele>
        <time>2016-06-03T09:55:57Z</time>
      </trkpt>
      <trkpt lat="45.17166" lon="5.5182">
        <ele>1346.82</ele>
        <time>2016-06-03T09:55:58Z</time>
      </trkpt>
      <trkpt lat="45.17167" lon="5.5182">
        <ele>1346.96</ele>
        <time>2016-06-03T09:55:59Z</time>
      </trkpt>
      <trkpt lat="45.17169" lon="5.51821">
        <ele>1347.1</ele>
        <time>2016-06-03T09:56:00Z</time>
      </trkpt>
      <trkpt lat="45.17171" lon="5.51822">
        <ele>1347.27</ele>
        <time>2016-06-03T09:56:01Z</time>
      </trkpt>
      <trkpt lat="45.17173" lon="5.51822">
        <ele>1347.48</ele>
        <time>2016-06-03T09:56:02Z</time>
      </trkpt>
      <trkpt lat="45.17176" lon="5.51823">
        <ele>1347.88</ele>
        <time>2016-06-03T09:56:04Z</time>
      </trkpt>
      <trkpt lat="45.17178" lon="5.51824">
        <ele>1348.06</ele>
        <time>2016-06-03T09:56:05Z</time>
      </trkpt>
      <trkpt lat="45.1718" lon="5.51825">
        <ele>1348.24</ele>
        <time>2016-06-03T09:56:06Z</time>
      </trkpt>
      <trkpt lat="45.17182" lon="5.51826">
        <ele>1348.42</ele>
        <time>2016-06-03T09:56:07Z</time>
      </trkpt>
      <trkpt lat="45.17184" lon="5.51827">
        <ele>1348.58</ele>
        <time>2016-06-03T09:56:08Z</time>
      </trkpt>
      <trkpt lat="45.17187" lon="5.51827">
        <ele>1348.73</ele>
        <time>2016-06-03T09:56:09Z</time>
      </trkpt>
      <trkpt lat="45.17189" lon="5.51829">
        <ele>1348.91</ele>
        <time>2016-06-03T09:56:10Z</time>
      </trkpt>
      <trkpt lat="45.17192" lon="5.51829">
        <ele>1349.27</ele>
        <time>2016-06-03T09:56:12Z</time>
      </trkpt>
      <trkpt lat="45.17201" lon="5.51831">
        <ele>1350.08</ele>
        <time>2016-06-03T09:56:17Z</time>
      </trkpt>
      <trkpt lat="45.17202" lon="5.51832">
        <ele>1350.27</ele>
        <time>2016-06-03T09:56:18Z</time>
      </trkpt>
      <trkpt lat="45.17219" lon="5.51836">
        <ele>1352.11</ele>
        <time>2016-06-03T09:56:29Z</time>
      </trkpt>
      <trkpt lat="45.17221" lon="5.51836">
        <ele>1352.26</ele>
        <time>2016-06-03T09:56:30Z</time>
      </trkpt>
      <trkpt lat="45.17223" lon="5.51837">
        <ele>1352.45</ele>
        <time>2016-06-03T09:56:31Z</time>
      </trkpt>
      <trkpt lat="45.17225" lon="5.51838">
        <ele>1352.67</ele>
        <time>2016-06-03T09:56:32Z</time>
      </trkpt>
      <trkpt lat="45.17227" lon="5.51839">
        <ele>1352.88</ele>
        <time>2016-06-03T09:56:33Z</time>
      </trkpt>
      <trkpt lat="45.1723" lon="5.51841">
        <ele>1353.09</ele>
        <time>2016-06-03T09:56:34Z</time>
      </trkpt>
      <trkpt lat="45.17232" lon="5.51842">
        <ele>1353.32</ele>
        <time>2016-06-03T09:56:35Z</time>
      </trkpt>
      <trkpt lat="45.17241" lon="5.51846">
        <ele>1354.5</ele>
        <time>2016-06-03T09:56:40Z</time>
      </trkpt>
      <trkpt lat="45.17243" lon="5.51847">
        <ele>1354.69</ele>
        <time>2016-06-03T09:56:41Z</time>
      </trkpt>
      <trkpt lat="45.17254" lon="5.51851">
        <ele>1355.74</ele>
        <time>2016-06-03T09:56:47Z</time>
      </trkpt>
      <trkpt lat="45.17255" lon="5.51851">
        <ele>1355.9</ele>
        <time>2016-06-03T09:56:48Z</time>
      </trkpt>
      <trkpt lat="45.17257" lon="5.51852">
        <ele>1356.05</ele>
        <time>2016-06-03T09:56:49Z</time>
      </trkpt>
      <trkpt lat="45.17264" lon="5.51853">
        <ele>1356.91</ele>
        <time>2016-06-03T09:56:55Z</time>
      </trkpt>
      <trkpt lat="45.17266" lon="5.51854">
        <ele>1357.06</ele>
        <time>2016-06-03T09:56:56Z</time>
      </trkpt>
      <trkpt lat="45.17268" lon="5.51854">
        <ele>1357.21</ele>
        <time>2016-06-03T09:56:57Z</time>
      </trkpt>
      <trkpt lat="45.17269" lon="5.51854">
        <ele>1357.37</ele>
        <time>2016-06-03T09:56:58Z</time>
      </trkpt>
      <trkpt lat="45.17271" lon="5.51854">
        <ele>1357.55</ele>
        <time>2016-06-03T09:56:59Z</time>
      </trkpt>
      <trkpt lat="45.17273" lon="5.51855">
        <ele>1357.73</ele>
        <time>2016-06-03T09:57:00Z</time>
      </trkpt>
      <trkpt lat="45.17287" lon="5.51857">
        <ele>1359.24</ele>
        <time>2016-06-03T09:57:08Z</time>
      </trkpt>
      <trkpt lat="45.17288" lon="5.51857">
        <ele>1359.39</ele>
        <time>2016-06-03T09:57:09Z</time>
      </trkpt>
      <trkpt lat="45.17309" lon="5.51863">
        <ele>1361.14</ele>
        <time>2016-06-03T09:57:22Z</time>
      </trkpt>
      <trkpt lat="45.17311" lon="5.51863">
        <ele>1361.28</ele>
        <time>2016-06-03T09:57:23Z</time>
      </trkpt>
      <trkpt lat="45.17313" lon="5.51863">
        <ele>1361.42</ele>
        <time>2016-06-03T09:57:24Z</time>
      </trkpt>
      <trkpt lat="45.17315" lon="5.51864">
        <ele>1361.57</ele>
        <time>2016-06-03T09:57:25Z</time>
      </trkpt>
      <trkpt lat="45.17326" lon="5.51866">
        <ele>1363.1</ele>
        <time>2016-06-03T09:57:33Z</time>
      </trkpt>
      <trkpt lat="45.17348" lon="5.51867">
        <ele>1365.42</ele>
        <time>2016-06-03T09:57:46Z</time>
      </trkpt>
      <trkpt lat="45.17361" lon="5.51867">
        <ele>1366.69</ele>
        <time>2016-06-03T09:57:53Z</time>
      </trkpt>
      <trkpt lat="45.17363" lon="5.51866">
        <ele>1366.85</ele>
        <time>2016-06-03T09:57:54Z</time>
      </trkpt>
      <trkpt lat="45.17365" lon="5.51866">
        <ele>1367</ele>
        <time>2016-06-03T09:57:55Z</time>
      </trkpt>
      <trkpt lat="45.17367" lon="5.51866">
        <ele>1367.13</ele>
        <time>2016-06-03T09:57:56Z</time>
      </trkpt>
      <trkpt lat="45.17369" lon="5.51865">
        <ele>1367.24</ele>
        <time>2016-06-03T09:57:57Z</time>
      </trkpt>
      <trkpt lat="45.17378" lon="5.51866">
        <ele>1368.21</ele>
        <time>2016-06-03T09:58:03Z</time>
      </trkpt>
      <trkpt lat="45.17397" lon="5.51865">
        <ele>1371.19</ele>
        <time>2016-06-03T09:58:16Z</time>
      </trkpt>
      <trkpt lat="45.17402" lon="5.51864">
        <ele>1371.63</ele>
        <time>2016-06-03T09:58:19Z</time>
      </trkpt>
      <trkpt lat="45.17404" lon="5.51863">
        <ele>1371.78</ele>
        <time>2016-06-03T09:58:20Z</time>
      </trkpt>
      <trkpt lat="45.17423" lon="5.5185">
        <ele>1372.73</ele>
        <time>2016-06-03T09:58:38Z</time>
      </trkpt>
      <trkpt lat="45.17427" lon="5.51845">
        <ele>1372.87</ele>
        <time>2016-06-03T09:58:46Z</time>
      </trkpt>
      <trkpt lat="45.17434" lon="5.51841">
        <ele>1373.12</ele>
        <time>2016-06-03T09:58:53Z</time>
      </trkpt>
      <trkpt lat="45.17452" lon="5.5183">
        <ele>1374.68</ele>
        <time>2016-06-03T09:59:06Z</time>
      </trkpt>
      <trkpt lat="45.17475" lon="5.51818">
        <ele>1376.19</ele>
        <time>2016-06-03T09:59:19Z</time>
      </trkpt>
      <trkpt lat="45.17492" lon="5.51812">
        <ele>1378.09</ele>
        <time>2016-06-03T09:59:32Z</time>
      </trkpt>
      <trkpt lat="45.17506" lon="5.51804">
        <ele>1380.77</ele>
        <time>2016-06-03T09:59:43Z</time>
      </trkpt>
      <trkpt lat="45.17525" lon="5.51804">
        <ele>1383.16</ele>
        <time>2016-06-03T09:59:54Z</time>
      </trkpt>
      <trkpt lat="45.17539" lon="5.51807">
        <ele>1384.89</ele>
        <time>2016-06-03T10:00:03Z</time>
      </trkpt>
      <trkpt lat="45.17553" lon="5.51814">
        <ele>1386.41</ele>
        <time>2016-06-03T10:00:15Z</time>
      </trkpt>
      <trkpt lat="45.17577" lon="5.51817">
        <ele>1389.5</ele>
        <time>2016-06-03T10:00:30Z</time>
      </trkpt>
      <trkpt lat="45.17591" lon="5.5182">
        <ele>1390.38</ele>
        <time>2016-06-03T10:00:37Z</time>
      </trkpt>
      <trkpt lat="45.17592" lon="5.51821">
        <ele>1390.54</ele>
        <time>2016-06-03T10:00:38Z</time>
      </trkpt>
      <trkpt lat="45.17604" lon="5.51827">
        <ele>1391.99</ele>
        <time>2016-06-03T10:00:45Z</time>
      </trkpt>
      <trkpt lat="45.17605" lon="5.51828">
        <ele>1392.47</ele>
        <time>2016-06-03T10:00:46Z</time>
      </trkpt>
      <trkpt lat="45.17606" lon="5.5183">
        <ele>1392.69</ele>
        <time>2016-06-03T10:00:47Z</time>
      </trkpt>
      <trkpt lat="45.17608" lon="5.51832">
        <ele>1392.92</ele>
        <time>2016-06-03T10:00:48Z</time>
      </trkpt>
      <trkpt lat="45.1761" lon="5.51833">
        <ele>1393.14</ele>
        <time>2016-06-03T10:00:49Z</time>
      </trkpt>
      <trkpt lat="45.17616" lon="5.51841">
        <ele>1394.22</ele>
        <time>2016-06-03T10:00:54Z</time>
      </trkpt>
      <trkpt lat="45.17629" lon="5.51856">
        <ele>1396.54</ele>
        <time>2016-06-03T10:01:06Z</time>
      </trkpt>
      <trkpt lat="45.17653" lon="5.51881">
        <ele>1399.17</ele>
        <time>2016-06-03T10:01:21Z</time>
      </trkpt>
      <trkpt lat="45.17654" lon="5.51883">
        <ele>1399.37</ele>
        <time>2016-06-03T10:01:22Z</time>
      </trkpt>
      <trkpt lat="45.17656" lon="5.51883">
        <ele>1399.61</ele>
        <time>2016-06-03T10:01:23Z</time>
      </trkpt>
      <trkpt lat="45.17661" lon="5.51887">
        <ele>1400.31</ele>
        <time>2016-06-03T10:01:26Z</time>
      </trkpt>
      <trkpt lat="45.17662" lon="5.51889">
        <ele>1400.5</ele>
        <time>2016-06-03T10:01:27Z</time>
      </trkpt>
      <trkpt lat="45.17664" lon="5.5189">
        <ele>1400.71</ele>
        <time>2016-06-03T10:01:28Z</time>
      </trkpt>
      <trkpt lat="45.17665" lon="5.51891">
        <ele>1400.91</ele>
        <time>2016-06-03T10:01:29Z</time>
      </trkpt>
      <trkpt lat="45.17678" lon="5.51907">
        <ele>1402.42</ele>
        <time>2016-06-03T10:01:40Z</time>
      </trkpt>
      <trkpt lat="45.17677" lon="5.519">
        <ele>1402.5</ele>
        <time>2016-06-03T10:01:52Z</time>
      </trkpt>
      <trkpt lat="45.17678" lon="5.51899">
        <ele>1402.51</ele>
        <time>2016-06-03T10:01:54Z</time>
      </trkpt>
      <trkpt lat="45.17684" lon="5.519">
        <ele>1402.64</ele>
        <time>2016-06-03T10:02:22Z</time>
      </trkpt>
      <trkpt lat="45.17681" lon="5.51902">
        <ele>1402.65</ele>
        <time>2016-06-03T10:02:35Z</time>
      </trkpt>
      <trkpt lat="45.17685" lon="5.51903">
        <ele>1402.48</ele>
        <time>2016-06-03T10:03:02Z</time>
      </trkpt>
      <trkpt lat="45.17685" lon="5.51903">
        <ele>1402.51</ele>
        <time>2016-06-03T10:03:36Z</time>
      </trkpt>
      <trkpt lat="45.17688" lon="5.51895">
        <ele>1402.55</ele>
        <time>2016-06-03T10:03:58Z</time>
      </trkpt>
      <trkpt lat="45.17688" lon="5.5189">
        <ele>1402.38</ele>
        <time>2016-06-03T10:04:16Z</time>
      </trkpt>
      <trkpt lat="45.17683" lon="5.51886">
        <ele>1402.24</ele>
        <time>2016-06-03T10:04:36Z</time>
      </trkpt>
      <trkpt lat="45.17684" lon="5.51885">
        <ele>1401.47</ele>
        <time>2016-06-03T10:04:56Z</time>
      </trkpt>
      <trkpt lat="45.17686" lon="5.5188">
        <ele>1352.69</ele>
        <time>2016-06-03T10:33:56Z</time>
      </trkpt>
      <trkpt lat="45.17684" lon="5.51885">
        <ele>1352.69</ele>
        <time>2016-06-03T10:33:58Z</time>
      </trkpt>
      <trkpt lat="45.17683" lon="5.51888">
        <ele>1352.69</ele>
        <time>2016-06-03T10:33:59Z</time>
      </trkpt>
      <trkpt lat="45.17683" lon="5.51888">
        <ele>1352.69</ele>
        <time>2016-06-03T10:34:00Z</time>
      </trkpt>
      <trkpt lat="45.17683" lon="5.51883">
        <ele>1352.52</ele>
        <time>2016-06-03T10:34:37Z</time>
      </trkpt>
      <trkpt lat="45.17686" lon="5.51879">
        <ele>1351.79</ele>
        <time>2016-06-03T10:35:05Z</time>
      </trkpt>
      <trkpt lat="45.17692" lon="5.51873">
        <ele>1351.33</ele>
        <time>2016-06-03T10:35:43Z</time>
      </trkpt>
      <trkpt lat="45.17695" lon="5.51879">
        <ele>1351.35</ele>
        <time>2016-06-03T10:36:10Z</time>
      </trkpt>
      <trkpt lat="45.17691" lon="5.51886">
        <ele>1351.33</ele>
        <time>2016-06-03T10:36:34Z</time>
      </trkpt>
      <trkpt lat="45.17689" lon="5.51896">
        <ele>1350.94</ele>
        <time>2016-06-03T10:37:02Z</time>
      </trkpt>
      <trkpt lat="45.17692" lon="5.51892">
        <ele>1350.7</ele>
        <time>2016-06-03T10:37:27Z</time>
      </trkpt>
      <trkpt lat="45.1769" lon="5.51893">
        <ele>1350.13</ele>
        <time>2016-06-03T10:38:01Z</time>
      </trkpt>
      <trkpt lat="45.17692" lon="5.51892">
        <ele>1349.66</ele>
        <time>2016-06-03T10:38:33Z</time>
      </trkpt>
      <trkpt lat="45.17692" lon="5.51892">
        <ele>1349.3</ele>
        <time>2016-06-03T10:38:59Z</time>
      </trkpt>
      <trkpt lat="45.17689" lon="5.51892">
        <ele>1348.72</ele>
        <time>2016-06-03T10:39:26Z</time>
      </trkpt>
      <trkpt lat="45.17689" lon="5.519">
        <ele>1348.74</ele>
        <time>2016-06-03T10:39:42Z</time>
      </trkpt>
      <trkpt lat="45.17692" lon="5.51902">
        <ele>1348.58</ele>
        <time>2016-06-03T10:39:59Z</time>
      </trkpt>
      <trkpt lat="45.17693" lon="5.51904">
        <ele>1348.6</ele>
        <time>2016-06-03T10:40:01Z</time>
      </trkpt>
      <trkpt lat="45.17723" lon="5.51922">
        <ele>1347.98</ele>
        <time>2016-06-03T10:40:13Z</time>
      </trkpt>
      <trkpt lat="45.17754" lon="5.51938">
        <ele>1346.56</ele>
        <time>2016-06-03T10:40:18Z</time>
      </trkpt>
      <trkpt lat="45.17804" lon="5.51957">
        <ele>1343.66</ele>
        <time>2016-06-03T10:40:27Z</time>
      </trkpt>
      <trkpt lat="45.17816" lon="5.51965">
        <ele>1343.19</ele>
        <time>2016-06-03T10:40:36Z</time>
      </trkpt>
      <trkpt lat="45.17836" lon="5.51978">
        <ele>1344.47</ele>
        <time>2016-06-03T10:40:52Z</time>
      </trkpt>
      <trkpt lat="45.17859" lon="5.51986">
        <ele>1346.14</ele>
        <time>2016-06-03T10:41:08Z</time>
      </trkpt>
      <trkpt lat="45.17866" lon="5.51987">
        <ele>1346.79</ele>
        <time>2016-06-03T10:41:13Z</time>
      </trkpt>
      <trkpt lat="45.17889" lon="5.51997">
        <ele>1347.36</ele>
        <time>2016-06-03T10:41:27Z</time>
      </trkpt>
      <trkpt lat="45.17919" lon="5.52022">
        <ele>1346.7</ele>
        <time>2016-06-03T10:41:36Z</time>
      </trkpt>
      <trkpt lat="45.17924" lon="5.52026">
        <ele>1346.46</ele>
        <time>2016-06-03T10:41:37Z</time>
      </trkpt>
      <trkpt lat="45.17929" lon="5.52031">
        <ele>1346.21</ele>
        <time>2016-06-03T10:41:38Z</time>
      </trkpt>
      <trkpt lat="45.17934" lon="5.52036">
        <ele>1345.95</ele>
        <time>2016-06-03T10:41:39Z</time>
      </trkpt>
      <trkpt lat="45.1794" lon="5.52039">
        <ele>1345.65</ele>
        <time>2016-06-03T10:41:40Z</time>
      </trkpt>
      <trkpt lat="45.17951" lon="5.52048">
        <ele>1344.97</ele>
        <time>2016-06-03T10:41:42Z</time>
      </trkpt>
      <trkpt lat="45.17956" lon="5.52053">
        <ele>1344.6</ele>
        <time>2016-06-03T10:41:43Z</time>
      </trkpt>
      <trkpt lat="45.17961" lon="5.52058">
        <ele>1344.18</ele>
        <time>2016-06-03T10:41:44Z</time>
      </trkpt>
      <trkpt lat="45.1799" lon="5.52086">
        <ele>1341.38</ele>
        <time>2016-06-03T10:41:50Z</time>
      </trkpt>
      <trkpt lat="45.18024" lon="5.52123">
        <ele>1338.02</ele>
        <time>2016-06-03T10:41:57Z</time>
      </trkpt>
      <trkpt lat="45.18052" lon="5.52149">
        <ele>1334.65</ele>
        <time>2016-06-03T10:42:03Z</time>
      </trkpt>
      <trkpt lat="45.18056" lon="5.52151">
        <ele>1334.21</ele>
        <time>2016-06-03T10:42:04Z</time>
      </trkpt>
      <trkpt lat="45.1806" lon="5.52152">
        <ele>1333.77</ele>
        <time>2016-06-03T10:42:05Z</time>
      </trkpt>
      <trkpt lat="45.18063" lon="5.52153">
        <ele>1333.42</ele>
        <time>2016-06-03T10:42:06Z</time>
      </trkpt>
      <trkpt lat="45.18066" lon="5.52154">
        <ele>1333.13</ele>
        <time>2016-06-03T10:42:07Z</time>
      </trkpt>
      <trkpt lat="45.18069" lon="5.52155">
        <ele>1332.89</ele>
        <time>2016-06-03T10:42:08Z</time>
      </trkpt>
      <trkpt lat="45.18071" lon="5.52155">
        <ele>1332.72</ele>
        <time>2016-06-03T10:42:09Z</time>
      </trkpt>
      <trkpt lat="45.18073" lon="5.52156">
        <ele>1332.6</ele>
        <time>2016-06-03T10:42:10Z</time>
      </trkpt>
      <trkpt lat="45.18107" lon="5.52173">
        <ele>1334.56</ele>
        <time>2016-06-03T10:42:29Z</time>
      </trkpt>
      <trkpt lat="45.18135" lon="5.52194">
        <ele>1337.39</ele>
        <time>2016-06-03T10:42:50Z</time>
      </trkpt>
      <trkpt lat="45.18154" lon="5.52213">
        <ele>1339.44</ele>
        <time>2016-06-03T10:43:08Z</time>
      </trkpt>
      <trkpt lat="45.18173" lon="5.52228">
        <ele>1341.46</ele>
        <time>2016-06-03T10:43:24Z</time>
      </trkpt>
      <trkpt lat="45.1819" lon="5.5224">
        <ele>1343.61</ele>
        <time>2016-06-03T10:43:39Z</time>
      </trkpt>
      <trkpt lat="45.18207" lon="5.52257">
        <ele>1345.15</ele>
        <time>2016-06-03T10:43:53Z</time>
      </trkpt>
      <trkpt lat="45.18226" lon="5.52272">
        <ele>1346.5</ele>
        <time>2016-06-03T10:44:06Z</time>
      </trkpt>
      <trkpt lat="45.18254" lon="5.52291">
        <ele>1347.15</ele>
        <time>2016-06-03T10:44:21Z</time>
      </trkpt>
      <trkpt lat="45.18279" lon="5.52312">
        <ele>1347.8</ele>
        <time>2016-06-03T10:44:35Z</time>
      </trkpt>
      <trkpt lat="45.18297" lon="5.52325">
        <ele>1348.77</ele>
        <time>2016-06-03T10:44:46Z</time>
      </trkpt>
      <trkpt lat="45.18309" lon="5.52334">
        <ele>1349.65</ele>
        <time>2016-06-03T10:44:54Z</time>
      </trkpt>
      <trkpt lat="45.1831" lon="5.52336">
        <ele>1349.72</ele>
        <time>2016-06-03T10:44:55Z</time>
      </trkpt>
      <trkpt lat="45.18322" lon="5.52346">
        <ele>1350.22</ele>
        <time>2016-06-03T10:45:03Z</time>
      </trkpt>
      <trkpt lat="45.18323" lon="5.52347">
        <ele>1350.29</ele>
        <time>2016-06-03T10:45:04Z</time>
      </trkpt>
      <trkpt lat="45.18325" lon="5.52347">
        <ele>1350.37</ele>
        <time>2016-06-03T10:45:05Z</time>
      </trkpt>
      <trkpt lat="45.18348" lon="5.52362">
        <ele>1352.34</ele>
        <time>2016-06-03T10:45:20Z</time>
      </trkpt>
      <trkpt lat="45.18368" lon="5.52374">
        <ele>1354.62</ele>
        <time>2016-06-03T10:45:37Z</time>
      </trkpt>
      <trkpt lat="45.18386" lon="5.52387">
        <ele>1356.91</ele>
        <time>2016-06-03T10:45:55Z</time>
      </trkpt>
      <trkpt lat="45.18403" lon="5.52404">
        <ele>1359.03</ele>
        <time>2016-06-03T10:46:11Z</time>
      </trkpt>
      <trkpt lat="45.18417" lon="5.52421">
        <ele>1360.93</ele>
        <time>2016-06-03T10:46:25Z</time>
      </trkpt>
      <trkpt lat="45.18431" lon="5.52435">
        <ele>1362.29</ele>
        <time>2016-06-03T10:46:36Z</time>
      </trkpt>
      <trkpt lat="45.18432" lon="5.52436">
        <ele>1362.37</ele>
        <time>2016-06-03T10:46:37Z</time>
      </trkpt>
      <trkpt lat="45.18434" lon="5.52437">
        <ele>1362.46</ele>
        <time>2016-06-03T10:46:38Z</time>
      </trkpt>
      <trkpt lat="45.18435" lon="5.52439">
        <ele>1362.54</ele>
        <time>2016-06-03T10:46:39Z</time>
      </trkpt>
      <trkpt lat="45.18436" lon="5.5244">
        <ele>1362.63</ele>
        <time>2016-06-03T10:46:40Z</time>
      </trkpt>
      <trkpt lat="45.18438" lon="5.52441">
        <ele>1362.73</ele>
        <time>2016-06-03T10:46:41Z</time>
      </trkpt>
      <trkpt lat="45.18456" lon="5.52458">
        <ele>1364.16</ele>
        <time>2016-06-03T10:46:55Z</time>
      </trkpt>
      <trkpt lat="45.18471" lon="5.52477">
        <ele>1364.73</ele>
        <time>2016-06-03T10:47:06Z</time>
      </trkpt>
      <trkpt lat="45.18495" lon="5.52506">
        <ele>1364.91</ele>
        <time>2016-06-03T10:47:17Z</time>
      </trkpt>
      <trkpt lat="45.18516" lon="5.52539">
        <ele>1364.12</ele>
        <time>2016-06-03T10:47:27Z</time>
      </trkpt>
      <trkpt lat="45.18524" lon="5.5255">
        <ele>1363.99</ele>
        <time>2016-06-03T10:47:31Z</time>
      </trkpt>
      <trkpt lat="45.18526" lon="5.52552">
        <ele>1363.98</ele>
        <time>2016-06-03T10:47:32Z</time>
      </trkpt>
      <trkpt lat="45.18527" lon="5.52554">
        <ele>1363.99</ele>
        <time>2016-06-03T10:47:33Z</time>
      </trkpt>
      <trkpt lat="45.18529" lon="5.52556">
        <ele>1364.01</ele>
        <time>2016-06-03T10:47:34Z</time>
      </trkpt>
      <trkpt lat="45.1853" lon="5.52558">
        <ele>1364.04</ele>
        <time>2016-06-03T10:47:35Z</time>
      </trkpt>
      <trkpt lat="45.18548" lon="5.52576">
        <ele>1365.27</ele>
        <time>2016-06-03T10:47:47Z</time>
      </trkpt>
      <trkpt lat="45.18567" lon="5.52591">
        <ele>1366.68</ele>
        <time>2016-06-03T10:48:01Z</time>
      </trkpt>
      <trkpt lat="45.18598" lon="5.52612">
        <ele>1367.18</ele>
        <time>2016-06-03T10:48:17Z</time>
      </trkpt>
      <trkpt lat="45.18631" lon="5.5264">
        <ele>1367.28</ele>
        <time>2016-06-03T10:48:32Z</time>
      </trkpt>
      <trkpt lat="45.18659" lon="5.52663">
        <ele>1366.48</ele>
        <time>2016-06-03T10:48:44Z</time>
      </trkpt>
      <trkpt lat="45.18696" lon="5.52707">
        <ele>1365.1</ele>
        <time>2016-06-03T10:48:57Z</time>
      </trkpt>
      <trkpt lat="45.18699" lon="5.52712">
        <ele>1364.93</ele>
        <time>2016-06-03T10:48:58Z</time>
      </trkpt>
      <trkpt lat="45.18703" lon="5.52717">
        <ele>1364.69</ele>
        <time>2016-06-03T10:48:59Z</time>
      </trkpt>
      <trkpt lat="45.18706" lon="5.52722">
        <ele>1364.4</ele>
        <time>2016-06-03T10:49:00Z</time>
      </trkpt>
      <trkpt lat="45.1871" lon="5.52727">
        <ele>1364.1</ele>
        <time>2016-06-03T10:49:01Z</time>
      </trkpt>
      <trkpt lat="45.18747" lon="5.52776">
        <ele>1361.16</ele>
        <time>2016-06-03T10:49:09Z</time>
      </trkpt>
      <trkpt lat="45.1877" lon="5.52802">
        <ele>1359.01</ele>
        <time>2016-06-03T10:49:14Z</time>
      </trkpt>
      <trkpt lat="45.18785" lon="5.52817">
        <ele>1357.92</ele>
        <time>2016-06-03T10:49:18Z</time>
      </trkpt>
      <trkpt lat="45.18789" lon="5.5282">
        <ele>1357.69</ele>
        <time>2016-06-03T10:49:19Z</time>
      </trkpt>
      <trkpt lat="45.18792" lon="5.52823">
        <ele>1357.47</ele>
        <time>2016-06-03T10:49:20Z</time>
      </trkpt>
      <trkpt lat="45.18826" lon="5.5285">
        <ele>1355.84</ele>
        <time>2016-06-03T10:49:30Z</time>
      </trkpt>
      <trkpt lat="45.18852" lon="5.52866">
        <ele>1354.51</ele>
        <time>2016-06-03T10:49:36Z</time>
      </trkpt>
      <trkpt lat="45.18893" lon="5.52884">
        <ele>1352.5</ele>
        <time>2016-06-03T10:49:46Z</time>
      </trkpt>
      <trkpt lat="45.18922" lon="5.52887">
        <ele>1352.64</ele>
        <time>2016-06-03T10:49:58Z</time>
      </trkpt>
      <trkpt lat="45.18947" lon="5.52888">
        <ele>1355.09</ele>
        <time>2016-06-03T10:50:12Z</time>
      </trkpt>
      <trkpt lat="45.18978" lon="5.52881">
        <ele>1357.11</ele>
        <time>2016-06-03T10:50:27Z</time>
      </trkpt>
      <trkpt lat="45.19007" lon="5.52898">
        <ele>1357.62</ele>
        <time>2016-06-03T10:50:39Z</time>
      </trkpt>
      <trkpt lat="45.19028" lon="5.52908">
        <ele>1357.99</ele>
        <time>2016-06-03T10:50:51Z</time>
      </trkpt>
      <trkpt lat="45.19047" lon="5.5292">
        <ele>1358.95</ele>
        <time>2016-06-03T10:51:02Z</time>
      </trkpt>
      <trkpt lat="45.19068" lon="5.52933">
        <ele>1359.44</ele>
        <time>2016-06-03T10:51:13Z</time>
      </trkpt>
      <trkpt lat="45.19069" lon="5.52934">
        <ele>1359.51</ele>
        <time>2016-06-03T10:51:14Z</time>
      </trkpt>
      <trkpt lat="45.19071" lon="5.52936">
        <ele>1359.58</ele>
        <time>2016-06-03T10:51:15Z</time>
      </trkpt>
      <trkpt lat="45.19073" lon="5.52937">
        <ele>1359.78</ele>
        <time>2016-06-03T10:51:16Z</time>
      </trkpt>
      <trkpt lat="45.19075" lon="5.52938">
        <ele>1359.92</ele>
        <time>2016-06-03T10:51:17Z</time>
      </trkpt>
      <trkpt lat="45.19077" lon="5.5294">
        <ele>1360.08</ele>
        <time>2016-06-03T10:51:18Z</time>
      </trkpt>
      <trkpt lat="45.19079" lon="5.52941">
        <ele>1360.23</ele>
        <time>2016-06-03T10:51:19Z</time>
      </trkpt>
      <trkpt lat="45.19112" lon="5.52957">
        <ele>1362.31</ele>
        <time>2016-06-03T10:51:33Z</time>
      </trkpt>
      <trkpt lat="45.19152" lon="5.52975">
        <ele>1364.12</ele>
        <time>2016-06-03T10:51:51Z</time>
      </trkpt>
      <trkpt lat="45.19187" lon="5.5299">
        <ele>1365.23</ele>
        <time>2016-06-03T10:52:06Z</time>
      </trkpt>
      <trkpt lat="45.19222" lon="5.53006">
        <ele>1365.87</ele>
        <time>2016-06-03T10:52:23Z</time>
      </trkpt>
      <trkpt lat="45.19252" lon="5.53018">
        <ele>1366.46</ele>
        <time>2016-06-03T10:52:36Z</time>
      </trkpt>
      <trkpt lat="45.19279" lon="5.53027">
        <ele>1367.45</ele>
        <time>2016-06-03T10:52:48Z</time>
      </trkpt>
      <trkpt lat="45.19313" lon="5.53034">
        <ele>1368.98</ele>
        <time>2016-06-03T10:53:02Z</time>
      </trkpt>
      <trkpt lat="45.1934" lon="5.53046">
        <ele>1370.18</ele>
        <time>2016-06-03T10:53:14Z</time>
      </trkpt>
      <trkpt lat="45.19371" lon="5.53056">
        <ele>1371.66</ele>
        <time>2016-06-03T10:53:27Z</time>
      </trkpt>
      <trkpt lat="45.19395" lon="5.53068">
        <ele>1372.05</ele>
        <time>2016-06-03T10:53:39Z</time>
      </trkpt>
      <trkpt lat="45.19398" lon="5.53067">
        <ele>1372</ele>
        <time>2016-06-03T10:53:41Z</time>
      </trkpt>
      <trkpt lat="45.19402" lon="5.53069">
        <ele>1371.26</ele>
        <time>2016-06-03T10:54:08Z</time>
      </trkpt>
      <trkpt lat="45.19405" lon="5.5307">
        <ele>1371.12</ele>
        <time>2016-06-03T10:54:13Z</time>
      </trkpt>
      <trkpt lat="45.19408" lon="5.53072">
        <ele>1371.17</ele>
        <time>2016-06-03T10:54:15Z</time>
      </trkpt>
      <trkpt lat="45.19438" lon="5.53084">
        <ele>1370.82</ele>
        <time>2016-06-03T10:54:27Z</time>
      </trkpt>
      <trkpt lat="45.19447" lon="5.5309">
        <ele>1370.6</ele>
        <time>2016-06-03T10:54:29Z</time>
      </trkpt>
      <trkpt lat="45.19452" lon="5.53092">
        <ele>1370.47</ele>
        <time>2016-06-03T10:54:30Z</time>
      </trkpt>
      <trkpt lat="45.19458" lon="5.53094">
        <ele>1370.32</ele>
        <time>2016-06-03T10:54:31Z</time>
      </trkpt>
      <trkpt lat="45.19469" lon="5.53099">
        <ele>1369.9</ele>
        <time>2016-06-03T10:54:33Z</time>
      </trkpt>
      <trkpt lat="45.19475" lon="5.53101">
        <ele>1369.63</ele>
        <time>2016-06-03T10:54:34Z</time>
      </trkpt>
      <trkpt lat="45.19482" lon="5.53104">
        <ele>1369.32</ele>
        <time>2016-06-03T10:54:35Z</time>
      </trkpt>
      <trkpt lat="45.19488" lon="5.53105">
        <ele>1368.6</ele>
        <time>2016-06-03T10:54:36Z</time>
      </trkpt>
      <trkpt lat="45.19495" lon="5.53109">
        <ele>1368.28</ele>
        <time>2016-06-03T10:54:37Z</time>
      </trkpt>
      <trkpt lat="45.19502" lon="5.53112">
        <ele>1367.99</ele>
        <time>2016-06-03T10:54:38Z</time>
      </trkpt>
      <trkpt lat="45.19556" lon="5.5313">
        <ele>1365.17</ele>
        <time>2016-06-03T10:54:47Z</time>
      </trkpt>
      <trkpt lat="45.1956" lon="5.53132">
        <ele>1364.92</ele>
        <time>2016-06-03T10:54:48Z</time>
      </trkpt>
      <trkpt lat="45.19602" lon="5.53148">
        <ele>1362.64</ele>
        <time>2016-06-03T10:54:58Z</time>
      </trkpt>
      <trkpt lat="45.19657" lon="5.53159">
        <ele>1359.6</ele>
        <time>2016-06-03T10:55:09Z</time>
      </trkpt>
      <trkpt lat="45.19688" lon="5.53175">
        <ele>1357.21</ele>
        <time>2016-06-03T10:55:22Z</time>
      </trkpt>
      <trkpt lat="45.19693" lon="5.53173">
        <ele>1356.97</ele>
        <time>2016-06-03T10:55:39Z</time>
      </trkpt>
      <trkpt lat="45.19689" lon="5.53172">
        <ele>1356.58</ele>
        <time>2016-06-03T10:56:00Z</time>
      </trkpt>
      <trkpt lat="45.19693" lon="5.53175">
        <ele>1356.32</ele>
        <time>2016-06-03T10:56:22Z</time>
      </trkpt>
      <trkpt lat="45.19695" lon="5.53172">
        <ele>1356.4</ele>
        <time>2016-06-03T10:56:46Z</time>
      </trkpt>
      <trkpt lat="45.19692" lon="5.53175">
        <ele>1355.79</ele>
        <time>2016-06-03T10:57:14Z</time>
      </trkpt>
      <trkpt lat="45.19686" lon="5.53175">
        <ele>1355.39</ele>
        <time>2016-06-03T10:57:47Z</time>
      </trkpt>
      <trkpt lat="45.19684" lon="5.53173">
        <ele>1354.85</ele>
        <time>2016-06-03T10:58:17Z</time>
      </trkpt>
      <trkpt lat="45.19688" lon="5.53172">
        <ele>1354.97</ele>
        <time>2016-06-03T10:58:49Z</time>
      </trkpt>
      <trkpt lat="45.19704" lon="5.53178">
        <ele>1356.91</ele>
        <time>2016-06-03T10:59:11Z</time>
      </trkpt>
      <trkpt lat="45.19725" lon="5.53179">
        <ele>1359.85</ele>
        <time>2016-06-03T10:59:36Z</time>
      </trkpt>
      <trkpt lat="45.19741" lon="5.53174">
        <ele>1362.81</ele>
        <time>2016-06-03T10:59:59Z</time>
      </trkpt>
      <trkpt lat="45.19756" lon="5.5318">
        <ele>1365.68</ele>
        <time>2016-06-03T11:00:22Z</time>
      </trkpt>
      <trkpt lat="45.19772" lon="5.5318">
        <ele>1368.74</ele>
        <time>2016-06-03T11:00:43Z</time>
      </trkpt>
      <trkpt lat="45.19785" lon="5.53185">
        <ele>1371.9</ele>
        <time>2016-06-03T11:01:05Z</time>
      </trkpt>
      <trkpt lat="45.19803" lon="5.53191">
        <ele>1374.14</ele>
        <time>2016-06-03T11:01:28Z</time>
      </trkpt>
      <trkpt lat="45.19821" lon="5.5319">
        <ele>1376.65</ele>
        <time>2016-06-03T11:01:52Z</time>
      </trkpt>
      <trkpt lat="45.19839" lon="5.53191">
        <ele>1378.33</ele>
        <time>2016-06-03T11:02:16Z</time>
      </trkpt>
      <trkpt lat="45.19858" lon="5.53195">
        <ele>1381.02</ele>
        <time>2016-06-03T11:02:40Z</time>
      </trkpt>
      <trkpt lat="45.19879" lon="5.53202">
        <ele>1383.07</ele>
        <time>2016-06-03T11:03:03Z</time>
      </trkpt>
      <trkpt lat="45.19897" lon="5.53205">
        <ele>1384.64</ele>
        <time>2016-06-03T11:03:26Z</time>
      </trkpt>
      <trkpt lat="45.19912" lon="5.53205">
        <ele>1386.73</ele>
        <time>2016-06-03T11:03:47Z</time>
      </trkpt>
      <trkpt lat="45.19919" lon="5.53209">
        <ele>1387.3</ele>
        <time>2016-06-03T11:04:06Z</time>
      </trkpt>
      <trkpt lat="45.19921" lon="5.53211">
        <ele>1387.61</ele>
        <time>2016-06-03T11:04:30Z</time>
      </trkpt>
      <trkpt lat="45.19928" lon="5.53211">
        <ele>1387.81</ele>
        <time>2016-06-03T11:04:57Z</time>
      </trkpt>
      <trkpt lat="45.19935" lon="5.53213">
        <ele>1387.86</ele>
        <time>2016-06-03T11:05:08Z</time>
      </trkpt>
      <trkpt lat="45.19936" lon="5.53214">
        <ele>1387.87</ele>
        <time>2016-06-03T11:05:09Z</time>
      </trkpt>
      <trkpt lat="45.19953" lon="5.53218">
        <ele>1388.08</ele>
        <time>2016-06-03T11:05:25Z</time>
      </trkpt>
      <trkpt lat="45.19964" lon="5.53221">
        <ele>1389.44</ele>
        <time>2016-06-03T11:05:40Z</time>
      </trkpt>
      <trkpt lat="45.19984" lon="5.53227">
        <ele>1392.48</ele>
        <time>2016-06-03T11:06:02Z</time>
      </trkpt>
      <trkpt lat="45.20004" lon="5.53231">
        <ele>1394.54</ele>
        <time>2016-06-03T11:06:22Z</time>
      </trkpt>
      <trkpt lat="45.20014" lon="5.53229">
        <ele>1397.19</ele>
        <time>2016-06-03T11:06:39Z</time>
      </trkpt>
      <trkpt lat="45.20031" lon="5.53231">
        <ele>1400.27</ele>
        <time>2016-06-03T11:07:00Z</time>
      </trkpt>
      <trkpt lat="45.20042" lon="5.53236">
        <ele>1402.88</ele>
        <time>2016-06-03T11:07:22Z</time>
      </trkpt>
      <trkpt lat="45.20057" lon="5.53239">
        <ele>1405.83</ele>
        <time>2016-06-03T11:07:44Z</time>
      </trkpt>
      <trkpt lat="45.20068" lon="5.53242">
        <ele>1408.36</ele>
        <time>2016-06-03T11:08:05Z</time>
      </trkpt>
      <trkpt lat="45.20084" lon="5.53248">
        <ele>1411.49</ele>
        <time>2016-06-03T11:08:26Z</time>
      </trkpt>
      <trkpt lat="45.20096" lon="5.53253">
        <ele>1414.49</ele>
        <time>2016-06-03T11:08:46Z</time>
      </trkpt>
      <trkpt lat="45.20118" lon="5.53271">
        <ele>1416.4</ele>
        <time>2016-06-03T11:09:12Z</time>
      </trkpt>
      <trkpt lat="45.20137" lon="5.53279">
        <ele>1419.51</ele>
        <time>2016-06-03T11:09:33Z</time>
      </trkpt>
      <trkpt lat="45.20152" lon="5.53283">
        <ele>1422.67</ele>
        <time>2016-06-03T11:09:50Z</time>
      </trkpt>
      <trkpt lat="45.2017" lon="5.53289">
        <ele>1425.8</ele>
        <time>2016-06-03T11:10:11Z</time>
      </trkpt>
      <trkpt lat="45.20185" lon="5.53301">
        <ele>1428.33</ele>
        <time>2016-06-03T11:10:28Z</time>
      </trkpt>
      <trkpt lat="45.20208" lon="5.53315">
        <ele>1429.22</ele>
        <time>2016-06-03T11:10:48Z</time>
      </trkpt>
      <trkpt lat="45.20213" lon="5.53318">
        <ele>1429.99</ele>
        <time>2016-06-03T11:10:54Z</time>
      </trkpt>
      <trkpt lat="45.20222" lon="5.53319">
        <ele>1430.87</ele>
        <time>2016-06-03T11:11:01Z</time>
      </trkpt>
      <trkpt lat="45.20231" lon="5.53326">
        <ele>1432.11</ele>
        <time>2016-06-03T11:11:08Z</time>
      </trkpt>
      <trkpt lat="45.20233" lon="5.53327">
        <ele>1432.33</ele>
        <time>2016-06-03T11:11:09Z</time>
      </trkpt>
      <trkpt lat="45.20234" lon="5.53328">
        <ele>1432.53</ele>
        <time>2016-06-03T11:11:10Z</time>
      </trkpt>
      <trkpt lat="45.20236" lon="5.53329">
        <ele>1432.69</ele>
        <time>2016-06-03T11:11:11Z</time>
      </trkpt>
      <trkpt lat="45.20238" lon="5.5333">
        <ele>1432.85</ele>
        <time>2016-06-03T11:11:12Z</time>
      </trkpt>
      <trkpt lat="45.20239" lon="5.53331">
        <ele>1433.05</ele>
        <time>2016-06-03T11:11:13Z</time>
      </trkpt>
      <trkpt lat="45.20241" lon="5.53332">
        <ele>1433.25</ele>
        <time>2016-06-03T11:11:14Z</time>
      </trkpt>
      <trkpt lat="45.20244" lon="5.53334">
        <ele>1433.6</ele>
        <time>2016-06-03T11:11:16Z</time>
      </trkpt>
      <trkpt lat="45.20245" lon="5.53335">
        <ele>1433.78</ele>
        <time>2016-06-03T11:11:17Z</time>
      </trkpt>
      <trkpt lat="45.20255" lon="5.5334">
        <ele>1434.89</ele>
        <time>2016-06-03T11:11:24Z</time>
      </trkpt>
      <trkpt lat="45.20274" lon="5.53355">
        <ele>1436.1</ele>
        <time>2016-06-03T11:11:37Z</time>
      </trkpt>
      <trkpt lat="45.20277" lon="5.53356">
        <ele>1436.26</ele>
        <time>2016-06-03T11:11:39Z</time>
      </trkpt>
      <trkpt lat="45.20279" lon="5.53357">
        <ele>1436.33</ele>
        <time>2016-06-03T11:11:40Z</time>
      </trkpt>
      <trkpt lat="45.20302" lon="5.53368">
        <ele>1438.02</ele>
        <time>2016-06-03T11:11:55Z</time>
      </trkpt>
      <trkpt lat="45.20305" lon="5.53371">
        <ele>1438.18</ele>
        <time>2016-06-03T11:11:58Z</time>
      </trkpt>
      <trkpt lat="45.20306" lon="5.53372">
        <ele>1438.24</ele>
        <time>2016-06-03T11:11:59Z</time>
      </trkpt>
      <trkpt lat="45.20317" lon="5.53376">
        <ele>1439.08</ele>
        <time>2016-06-03T11:12:08Z</time>
      </trkpt>
      <trkpt lat="45.20319" lon="5.53377">
        <ele>1439.23</ele>
        <time>2016-06-03T11:12:09Z</time>
      </trkpt>
      <trkpt lat="45.2032" lon="5.53377">
        <ele>1439.41</ele>
        <time>2016-06-03T11:12:10Z</time>
      </trkpt>
      <trkpt lat="45.20321" lon="5.53378">
        <ele>1439.62</ele>
        <time>2016-06-03T11:12:11Z</time>
      </trkpt>
      <trkpt lat="45.20323" lon="5.53378">
        <ele>1439.83</ele>
        <time>2016-06-03T11:12:12Z</time>
      </trkpt>
      <trkpt lat="45.2034" lon="5.53387">
        <ele>1441.82</ele>
        <time>2016-06-03T11:12:27Z</time>
      </trkpt>
      <trkpt lat="45.20377" lon="5.53403">
        <ele>1444.15</ele>
        <time>2016-06-03T11:12:53Z</time>
      </trkpt>
      <trkpt lat="45.20384" lon="5.53405">
        <ele>1444.32</ele>
        <time>2016-06-03T11:12:57Z</time>
      </trkpt>
      <trkpt lat="45.20385" lon="5.53405">
        <ele>1444.34</ele>
        <time>2016-06-03T11:12:58Z</time>
      </trkpt>
      <trkpt lat="45.20387" lon="5.53405">
        <ele>1444.36</ele>
        <time>2016-06-03T11:12:59Z</time>
      </trkpt>
      <trkpt lat="45.20388" lon="5.53405">
        <ele>1444.38</ele>
        <time>2016-06-03T11:13:00Z</time>
      </trkpt>
      <trkpt lat="45.2039" lon="5.53406">
        <ele>1444.38</ele>
        <time>2016-06-03T11:13:01Z</time>
      </trkpt>
      <trkpt lat="45.20391" lon="5.53406">
        <ele>1444.38</ele>
        <time>2016-06-03T11:13:02Z</time>
      </trkpt>
      <trkpt lat="45.20393" lon="5.53407">
        <ele>1444.37</ele>
        <time>2016-06-03T11:13:03Z</time>
      </trkpt>
      <trkpt lat="45.20394" lon="5.53408">
        <ele>1444.35</ele>
        <time>2016-06-03T11:13:04Z</time>
      </trkpt>
      <trkpt lat="45.20396" lon="5.53409">
        <ele>1444.31</ele>
        <time>2016-06-03T11:13:05Z</time>
      </trkpt>
      <trkpt lat="45.20402" lon="5.53416">
        <ele>1444.04</ele>
        <time>2016-06-03T11:13:10Z</time>
      </trkpt>
      <trkpt lat="45.20404" lon="5.53416">
        <ele>1443.99</ele>
        <time>2016-06-03T11:13:11Z</time>
      </trkpt>
      <trkpt lat="45.20406" lon="5.53417">
        <ele>1443.96</ele>
        <time>2016-06-03T11:13:12Z</time>
      </trkpt>
      <trkpt lat="45.20433" lon="5.5343">
        <ele>1443.37</ele>
        <time>2016-06-03T11:13:23Z</time>
      </trkpt>
      <trkpt lat="45.20463" lon="5.5345">
        <ele>1442.69</ele>
        <time>2016-06-03T11:13:34Z</time>
      </trkpt>
      <trkpt lat="45.20489" lon="5.53476">
        <ele>1441.4</ele>
        <time>2016-06-03T11:13:47Z</time>
      </trkpt>
      <trkpt lat="45.2051" lon="5.53489">
        <ele>1440.71</ele>
        <time>2016-06-03T11:13:58Z</time>
      </trkpt>
      <trkpt lat="45.20515" lon="5.53493">
        <ele>1440.59</ele>
        <time>2016-06-03T11:14:02Z</time>
      </trkpt>
      <trkpt lat="45.20517" lon="5.53494">
        <ele>1440.61</ele>
        <time>2016-06-03T11:14:03Z</time>
      </trkpt>
      <trkpt lat="45.2052" lon="5.53495">
        <ele>1440.64</ele>
        <time>2016-06-03T11:14:04Z</time>
      </trkpt>
      <trkpt lat="45.20522" lon="5.53496">
        <ele>1440.69</ele>
        <time>2016-06-03T11:14:05Z</time>
      </trkpt>
      <trkpt lat="45.20523" lon="5.53497">
        <ele>1440.78</ele>
        <time>2016-06-03T11:14:06Z</time>
      </trkpt>
      <trkpt lat="45.20526" lon="5.53499">
        <ele>1441.07</ele>
        <time>2016-06-03T11:14:08Z</time>
      </trkpt>
      <trkpt lat="45.20528" lon="5.535">
        <ele>1441.23</ele>
        <time>2016-06-03T11:14:09Z</time>
      </trkpt>
      <trkpt lat="45.20536" lon="5.53505">
        <ele>1441.9</ele>
        <time>2016-06-03T11:14:13Z</time>
      </trkpt>
      <trkpt lat="45.20538" lon="5.53507">
        <ele>1442.12</ele>
        <time>2016-06-03T11:14:14Z</time>
      </trkpt>
      <trkpt lat="45.20539" lon="5.53508">
        <ele>1442.33</ele>
        <time>2016-06-03T11:14:15Z</time>
      </trkpt>
      <trkpt lat="45.20541" lon="5.53509">
        <ele>1442.55</ele>
        <time>2016-06-03T11:14:16Z</time>
      </trkpt>
      <trkpt lat="45.20543" lon="5.53509">
        <ele>1442.76</ele>
        <time>2016-06-03T11:14:17Z</time>
      </trkpt>
      <trkpt lat="45.20544" lon="5.5351">
        <ele>1442.97</ele>
        <time>2016-06-03T11:14:18Z</time>
      </trkpt>
      <trkpt lat="45.20563" lon="5.53515">
        <ele>1444.42</ele>
        <time>2016-06-03T11:14:29Z</time>
      </trkpt>
      <trkpt lat="45.20576" lon="5.53523">
        <ele>1447.18</ele>
        <time>2016-06-03T11:14:45Z</time>
      </trkpt>
      <trkpt lat="45.20586" lon="5.53529">
        <ele>1447.73</ele>
        <time>2016-06-03T11:14:59Z</time>
      </trkpt>
      <trkpt lat="45.20588" lon="5.5353">
        <ele>1447.79</ele>
        <time>2016-06-03T11:15:00Z</time>
      </trkpt>
      <trkpt lat="45.2059" lon="5.53531">
        <ele>1447.85</ele>
        <time>2016-06-03T11:15:01Z</time>
      </trkpt>
      <trkpt lat="45.20591" lon="5.53531">
        <ele>1447.89</ele>
        <time>2016-06-03T11:15:02Z</time>
      </trkpt>
      <trkpt lat="45.20593" lon="5.53532">
        <ele>1447.93</ele>
        <time>2016-06-03T11:15:03Z</time>
      </trkpt>
      <trkpt lat="45.20595" lon="5.53532">
        <ele>1447.99</ele>
        <time>2016-06-03T11:15:04Z</time>
      </trkpt>
      <trkpt lat="45.20596" lon="5.53533">
        <ele>1448.05</ele>
        <time>2016-06-03T11:15:05Z</time>
      </trkpt>
      <trkpt lat="45.20598" lon="5.53534">
        <ele>1448.17</ele>
        <time>2016-06-03T11:15:06Z</time>
      </trkpt>
      <trkpt lat="45.206" lon="5.53534">
        <ele>1448.31</ele>
        <time>2016-06-03T11:15:07Z</time>
      </trkpt>
      <trkpt lat="45.20611" lon="5.53537">
        <ele>1449.24</ele>
        <time>2016-06-03T11:15:15Z</time>
      </trkpt>
      <trkpt lat="45.20613" lon="5.53537">
        <ele>1449.57</ele>
        <time>2016-06-03T11:15:16Z</time>
      </trkpt>
      <trkpt lat="45.20615" lon="5.53537">
        <ele>1449.74</ele>
        <time>2016-06-03T11:15:17Z</time>
      </trkpt>
      <trkpt lat="45.20616" lon="5.53538">
        <ele>1449.9</ele>
        <time>2016-06-03T11:15:18Z</time>
      </trkpt>
      <trkpt lat="45.20618" lon="5.53539">
        <ele>1450.06</ele>
        <time>2016-06-03T11:15:19Z</time>
      </trkpt>
      <trkpt lat="45.2062" lon="5.53539">
        <ele>1450.24</ele>
        <time>2016-06-03T11:15:20Z</time>
      </trkpt>
      <trkpt lat="45.20621" lon="5.5354">
        <ele>1450.4</ele>
        <time>2016-06-03T11:15:21Z</time>
      </trkpt>
      <trkpt lat="45.20622" lon="5.5354">
        <ele>1450.57</ele>
        <time>2016-06-03T11:15:22Z</time>
      </trkpt>
      <trkpt lat="45.20624" lon="5.5354">
        <ele>1450.75</ele>
        <time>2016-06-03T11:15:23Z</time>
      </trkpt>
      <trkpt lat="45.20626" lon="5.53541">
        <ele>1450.92</ele>
        <time>2016-06-03T11:15:24Z</time>
      </trkpt>
      <trkpt lat="45.20627" lon="5.53543">
        <ele>1451.09</ele>
        <time>2016-06-03T11:15:25Z</time>
      </trkpt>
      <trkpt lat="45.20629" lon="5.53543">
        <ele>1451.29</ele>
        <time>2016-06-03T11:15:26Z</time>
      </trkpt>
      <trkpt lat="45.20645" lon="5.53554">
        <ele>1453.66</ele>
        <time>2016-06-03T11:15:37Z</time>
      </trkpt>
      <trkpt lat="45.20654" lon="5.5356">
        <ele>1455.02</ele>
        <time>2016-06-03T11:15:43Z</time>
      </trkpt>
      <trkpt lat="45.20657" lon="5.53562">
        <ele>1455.53</ele>
        <time>2016-06-03T11:15:46Z</time>
      </trkpt>
      <trkpt lat="45.20659" lon="5.53563">
        <ele>1455.7</ele>
        <time>2016-06-03T11:15:47Z</time>
      </trkpt>
      <trkpt lat="45.20661" lon="5.53565">
        <ele>1456.06</ele>
        <time>2016-06-03T11:15:49Z</time>
      </trkpt>
      <trkpt lat="45.20663" lon="5.53566">
        <ele>1456.21</ele>
        <time>2016-06-03T11:15:50Z</time>
      </trkpt>
      <trkpt lat="45.20665" lon="5.53566">
        <ele>1456.38</ele>
        <time>2016-06-03T11:15:51Z</time>
      </trkpt>
      <trkpt lat="45.20667" lon="5.53566">
        <ele>1456.56</ele>
        <time>2016-06-03T11:15:52Z</time>
      </trkpt>
      <trkpt lat="45.20668" lon="5.53567">
        <ele>1456.74</ele>
        <time>2016-06-03T11:15:53Z</time>
      </trkpt>
      <trkpt lat="45.20669" lon="5.53568">
        <ele>1456.9</ele>
        <time>2016-06-03T11:15:54Z</time>
      </trkpt>
      <trkpt lat="45.20671" lon="5.53569">
        <ele>1457.05</ele>
        <time>2016-06-03T11:15:55Z</time>
      </trkpt>
      <trkpt lat="45.20677" lon="5.53572">
        <ele>1457.8</ele>
        <time>2016-06-03T11:16:00Z</time>
      </trkpt>
      <trkpt lat="45.20679" lon="5.53572">
        <ele>1457.93</ele>
        <time>2016-06-03T11:16:01Z</time>
      </trkpt>
      <trkpt lat="45.2068" lon="5.53573">
        <ele>1458.17</ele>
        <time>2016-06-03T11:16:02Z</time>
      </trkpt>
      <trkpt lat="45.20703" lon="5.53579">
        <ele>1460.68</ele>
        <time>2016-06-03T11:16:18Z</time>
      </trkpt>
      <trkpt lat="45.20723" lon="5.53588">
        <ele>1462.29</ele>
        <time>2016-06-03T11:16:32Z</time>
      </trkpt>
      <trkpt lat="45.20724" lon="5.53589">
        <ele>1462.31</ele>
        <time>2016-06-03T11:16:33Z</time>
      </trkpt>
      <trkpt lat="45.20737" lon="5.53598">
        <ele>1461.82</ele>
        <time>2016-06-03T11:16:41Z</time>
      </trkpt>
      <trkpt lat="45.20773" lon="5.53617">
        <ele>1459.66</ele>
        <time>2016-06-03T11:16:50Z</time>
      </trkpt>
      <trkpt lat="45.2079" lon="5.53624">
        <ele>1458.22</ele>
        <time>2016-06-03T11:16:58Z</time>
      </trkpt>
      <trkpt lat="45.20795" lon="5.53627">
        <ele>1458.5</ele>
        <time>2016-06-03T11:17:06Z</time>
      </trkpt>
      <trkpt lat="45.20803" lon="5.53624">
        <ele>1458.62</ele>
        <time>2016-06-03T11:17:33Z</time>
      </trkpt>
      <trkpt lat="45.20804" lon="5.53628">
        <ele>1458.46</ele>
        <time>2016-06-03T11:17:58Z</time>
      </trkpt>
      <trkpt lat="45.20807" lon="5.5364">
        <ele>1458.87</ele>
        <time>2016-06-03T11:18:29Z</time>
      </trkpt>
      <trkpt lat="45.20804" lon="5.53632">
        <ele>1459.5</ele>
        <time>2016-06-03T11:18:58Z</time>
      </trkpt>
      <trkpt lat="45.20818" lon="5.53633">
        <ele>1461.07</ele>
        <time>2016-06-03T11:19:19Z</time>
      </trkpt>
      <trkpt lat="45.20828" lon="5.53637">
        <ele>1463.78</ele>
        <time>2016-06-03T11:19:34Z</time>
      </trkpt>
      <trkpt lat="45.20846" lon="5.53641">
        <ele>1466.82</ele>
        <time>2016-06-03T11:19:54Z</time>
      </trkpt>
      <trkpt lat="45.20862" lon="5.53645">
        <ele>1469.19</ele>
        <time>2016-06-03T11:20:16Z</time>
      </trkpt>
      <trkpt lat="45.20876" lon="5.53649">
        <ele>1472.23</ele>
        <time>2016-06-03T11:20:37Z</time>
      </trkpt>
      <trkpt lat="45.20889" lon="5.53657">
        <ele>1475.26</ele>
        <time>2016-06-03T11:20:58Z</time>
      </trkpt>
      <trkpt lat="45.20898" lon="5.53665">
        <ele>1478.23</ele>
        <time>2016-06-03T11:21:21Z</time>
      </trkpt>
      <trkpt lat="45.20913" lon="5.53673">
        <ele>1480.23</ele>
        <time>2016-06-03T11:21:40Z</time>
      </trkpt>
      <trkpt lat="45.20932" lon="5.53679">
        <ele>1482.88</ele>
        <time>2016-06-03T11:22:00Z</time>
      </trkpt>
      <trkpt lat="45.20948" lon="5.53677">
        <ele>1483.94</ele>
        <time>2016-06-03T11:22:19Z</time>
      </trkpt>
      <trkpt lat="45.20968" lon="5.53678">
        <ele>1486.44</ele>
        <time>2016-06-03T11:22:45Z</time>
      </trkpt>
      <trkpt lat="45.20979" lon="5.53673">
        <ele>1489.48</ele>
        <time>2016-06-03T11:23:08Z</time>
      </trkpt>
      <trkpt lat="45.20986" lon="5.53672">
        <ele>1491.58</ele>
        <time>2016-06-03T11:23:32Z</time>
      </trkpt>
      <trkpt lat="45.20994" lon="5.53665">
        <ele>1493.65</ele>
        <time>2016-06-03T11:23:52Z</time>
      </trkpt>
      <trkpt lat="45.21004" lon="5.53665">
        <ele>1496.43</ele>
        <time>2016-06-03T11:24:13Z</time>
      </trkpt>
      <trkpt lat="45.21018" lon="5.53664">
        <ele>1497.69</ele>
        <time>2016-06-03T11:24:35Z</time>
      </trkpt>
      <trkpt lat="45.21031" lon="5.5367">
        <ele>1498.71</ele>
        <time>2016-06-03T11:24:56Z</time>
      </trkpt>
      <trkpt lat="45.21052" lon="5.53678">
        <ele>1500.66</ele>
        <time>2016-06-03T11:25:17Z</time>
      </trkpt>
      <trkpt lat="45.21057" lon="5.53679">
        <ele>1500.88</ele>
        <time>2016-06-03T11:25:21Z</time>
      </trkpt>
      <trkpt lat="45.21077" lon="5.53681">
        <ele>1501.84</ele>
        <time>2016-06-03T11:25:37Z</time>
      </trkpt>
      <trkpt lat="45.21091" lon="5.53689">
        <ele>1503.23</ele>
        <time>2016-06-03T11:25:52Z</time>
      </trkpt>
      <trkpt lat="45.21105" lon="5.53693">
        <ele>1505.24</ele>
        <time>2016-06-03T11:26:06Z</time>
      </trkpt>
      <trkpt lat="45.21122" lon="5.53702">
        <ele>1507.57</ele>
        <time>2016-06-03T11:26:25Z</time>
      </trkpt>
      <trkpt lat="45.21142" lon="5.53707">
        <ele>1510.24</ele>
        <time>2016-06-03T11:26:47Z</time>
      </trkpt>
      <trkpt lat="45.21145" lon="5.53703">
        <ele>1512.3</ele>
        <time>2016-06-03T11:27:10Z</time>
      </trkpt>
      <trkpt lat="45.21148" lon="5.53705">
        <ele>1512.51</ele>
        <time>2016-06-03T11:27:19Z</time>
      </trkpt>
      <trkpt lat="45.21153" lon="5.53707">
        <ele>1512.61</ele>
        <time>2016-06-03T11:27:22Z</time>
      </trkpt>
      <trkpt lat="45.21162" lon="5.5371">
        <ele>1512.79</ele>
        <time>2016-06-03T11:27:27Z</time>
      </trkpt>
      <trkpt lat="45.21184" lon="5.53718">
        <ele>1513.21</ele>
        <time>2016-06-03T11:27:39Z</time>
      </trkpt>
      <trkpt lat="45.21208" lon="5.53724">
        <ele>1514.67</ele>
        <time>2016-06-03T11:27:52Z</time>
      </trkpt>
      <trkpt lat="45.21236" lon="5.53735">
        <ele>1515.44</ele>
        <time>2016-06-03T11:28:05Z</time>
      </trkpt>
      <trkpt lat="45.21258" lon="5.53743">
        <ele>1515.47</ele>
        <time>2016-06-03T11:28:17Z</time>
      </trkpt>
      <trkpt lat="45.2127" lon="5.53743">
        <ele>1516.55</ele>
        <time>2016-06-03T11:28:24Z</time>
      </trkpt>
      <trkpt lat="45.21272" lon="5.53743">
        <ele>1516.78</ele>
        <time>2016-06-03T11:28:25Z</time>
      </trkpt>
      <trkpt lat="45.21274" lon="5.53743">
        <ele>1517.17</ele>
        <time>2016-06-03T11:28:26Z</time>
      </trkpt>
      <trkpt lat="45.21275" lon="5.53742">
        <ele>1517.17</ele>
        <time>2016-06-03T11:28:27Z</time>
      </trkpt>
      <trkpt lat="45.21277" lon="5.53742">
        <ele>1517.48</ele>
        <time>2016-06-03T11:28:28Z</time>
      </trkpt>
      <trkpt lat="45.21284" lon="5.53741">
        <ele>1518.39</ele>
        <time>2016-06-03T11:28:33Z</time>
      </trkpt>
      <trkpt lat="45.21286" lon="5.53741">
        <ele>1518.57</ele>
        <time>2016-06-03T11:28:34Z</time>
      </trkpt>
      <trkpt lat="45.21288" lon="5.53741">
        <ele>1518.74</ele>
        <time>2016-06-03T11:28:35Z</time>
      </trkpt>
      <trkpt lat="45.21298" lon="5.53742">
        <ele>1520.56</ele>
        <time>2016-06-03T11:28:50Z</time>
      </trkpt>
      <trkpt lat="45.21312" lon="5.53741">
        <ele>1522.57</ele>
        <time>2016-06-03T11:29:12Z</time>
      </trkpt>
      <trkpt lat="45.21329" lon="5.53738">
        <ele>1525.16</ele>
        <time>2016-06-03T11:29:33Z</time>
      </trkpt>
      <trkpt lat="45.21342" lon="5.53735">
        <ele>1528.23</ele>
        <time>2016-06-03T11:29:53Z</time>
      </trkpt>
      <trkpt lat="45.21352" lon="5.53733">
        <ele>1531.34</ele>
        <time>2016-06-03T11:30:12Z</time>
      </trkpt>
      <trkpt lat="45.21367" lon="5.53735">
        <ele>1534.41</ele>
        <time>2016-06-03T11:30:34Z</time>
      </trkpt>
      <trkpt lat="45.21375" lon="5.53735">
        <ele>1534.72</ele>
        <time>2016-06-03T11:30:40Z</time>
      </trkpt>
      <trkpt lat="45.21376" lon="5.53735">
        <ele>1534.76</ele>
        <time>2016-06-03T11:30:41Z</time>
      </trkpt>
      <trkpt lat="45.21378" lon="5.53734">
        <ele>1534.82</ele>
        <time>2016-06-03T11:30:42Z</time>
      </trkpt>
      <trkpt lat="45.21392" lon="5.53735">
        <ele>1535.3</ele>
        <time>2016-06-03T11:30:57Z</time>
      </trkpt>
      <trkpt lat="45.2141" lon="5.53733">
        <ele>1536.98</ele>
        <time>2016-06-03T11:31:17Z</time>
      </trkpt>
      <trkpt lat="45.21431" lon="5.5373">
        <ele>1539.76</ele>
        <time>2016-06-03T11:31:38Z</time>
      </trkpt>
      <trkpt lat="45.21443" lon="5.53727">
        <ele>1541.53</ele>
        <time>2016-06-03T11:31:50Z</time>
      </trkpt>
      <trkpt lat="45.21444" lon="5.53727">
        <ele>1541.66</ele>
        <time>2016-06-03T11:31:51Z</time>
      </trkpt>
      <trkpt lat="45.21449" lon="5.53727">
        <ele>1542.12</ele>
        <time>2016-06-03T11:31:55Z</time>
      </trkpt>
      <trkpt lat="45.2145" lon="5.53726">
        <ele>1542.24</ele>
        <time>2016-06-03T11:31:56Z</time>
      </trkpt>
      <trkpt lat="45.21469" lon="5.53723">
        <ele>1544.93</ele>
        <time>2016-06-03T11:32:18Z</time>
      </trkpt>
      <trkpt lat="45.21486" lon="5.53719">
        <ele>1547.94</ele>
        <time>2016-06-03T11:32:41Z</time>
      </trkpt>
      <trkpt lat="45.21504" lon="5.53715">
        <ele>1550.24</ele>
        <time>2016-06-03T11:33:04Z</time>
      </trkpt>
      <trkpt lat="45.21506" lon="5.53718">
        <ele>1550.37</ele>
        <time>2016-06-03T11:33:24Z</time>
      </trkpt>
      <trkpt lat="45.2151" lon="5.53728">
        <ele>1549.24</ele>
        <time>2016-06-03T11:33:53Z</time>
      </trkpt>
      <trkpt lat="45.21508" lon="5.53727">
        <ele>1548.98</ele>
        <time>2016-06-03T11:34:26Z</time>
      </trkpt>
      <trkpt lat="45.21506" lon="5.53718">
        <ele>1549.14</ele>
        <time>2016-06-03T11:34:56Z</time>
      </trkpt>
      <trkpt lat="45.21507" lon="5.53717">
        <ele>1548.8</ele>
        <time>2016-06-03T11:35:23Z</time>
      </trkpt>
      <trkpt lat="45.21507" lon="5.53722">
        <ele>1549.6</ele>
        <time>2016-06-03T11:36:15Z</time>
      </trkpt>
      <trkpt lat="45.21506" lon="5.53719">
        <ele>1549.31</ele>
        <time>2016-06-03T11:36:39Z</time>
      </trkpt>
      <trkpt lat="45.21514" lon="5.53715">
        <ele>1549.84</ele>
        <time>2016-06-03T11:36:57Z</time>
      </trkpt>
      <trkpt lat="45.21529" lon="5.5371">
        <ele>1552.35</ele>
        <time>2016-06-03T11:37:18Z</time>
      </trkpt>
      <trkpt lat="45.21544" lon="5.537">
        <ele>1555.01</ele>
        <time>2016-06-03T11:37:38Z</time>
      </trkpt>
      <trkpt lat="45.21558" lon="5.53704">
        <ele>1557.61</ele>
        <time>2016-06-03T11:37:56Z</time>
      </trkpt>
      <trkpt lat="45.21559" lon="5.53704">
        <ele>1557.69</ele>
        <time>2016-06-03T11:37:57Z</time>
      </trkpt>
      <trkpt lat="45.21561" lon="5.53704">
        <ele>1557.74</ele>
        <time>2016-06-03T11:37:58Z</time>
      </trkpt>
      <trkpt lat="45.21562" lon="5.53704">
        <ele>1557.78</ele>
        <time>2016-06-03T11:37:59Z</time>
      </trkpt>
      <trkpt lat="45.21564" lon="5.53704">
        <ele>1557.79</ele>
        <time>2016-06-03T11:38:00Z</time>
      </trkpt>
      <trkpt lat="45.21581" lon="5.53706">
        <ele>1557.46</ele>
        <time>2016-06-03T11:38:10Z</time>
      </trkpt>
      <trkpt lat="45.21596" lon="5.53706">
        <ele>1557.56</ele>
        <time>2016-06-03T11:38:21Z</time>
      </trkpt>
      <trkpt lat="45.21617" lon="5.53708">
        <ele>1559.29</ele>
        <time>2016-06-03T11:38:35Z</time>
      </trkpt>
      <trkpt lat="45.21619" lon="5.5371">
        <ele>1559.57</ele>
        <time>2016-06-03T11:38:37Z</time>
      </trkpt>
      <trkpt lat="45.2162" lon="5.5371">
        <ele>1559.82</ele>
        <time>2016-06-03T11:38:38Z</time>
      </trkpt>
      <trkpt lat="45.21622" lon="5.53711">
        <ele>1559.94</ele>
        <time>2016-06-03T11:38:39Z</time>
      </trkpt>
      <trkpt lat="45.21624" lon="5.53711">
        <ele>1560.05</ele>
        <time>2016-06-03T11:38:40Z</time>
      </trkpt>
      <trkpt lat="45.21626" lon="5.53712">
        <ele>1560.15</ele>
        <time>2016-06-03T11:38:41Z</time>
      </trkpt>
      <trkpt lat="45.21643" lon="5.53717">
        <ele>1560.92</ele>
        <time>2016-06-03T11:38:52Z</time>
      </trkpt>
      <trkpt lat="45.21647" lon="5.5372">
        <ele>1561.02</ele>
        <time>2016-06-03T11:38:55Z</time>
      </trkpt>
      <trkpt lat="45.21664" lon="5.53722">
        <ele>1561.93</ele>
        <time>2016-06-03T11:39:08Z</time>
      </trkpt>
      <trkpt lat="45.2167" lon="5.53721">
        <ele>1562.54</ele>
        <time>2016-06-03T11:39:16Z</time>
      </trkpt>
      <trkpt lat="45.21672" lon="5.53721">
        <ele>1562.59</ele>
        <time>2016-06-03T11:39:17Z</time>
      </trkpt>
      <trkpt lat="45.21673" lon="5.53722">
        <ele>1562.64</ele>
        <time>2016-06-03T11:39:18Z</time>
      </trkpt>
      <trkpt lat="45.21675" lon="5.53722">
        <ele>1562.71</ele>
        <time>2016-06-03T11:39:19Z</time>
      </trkpt>
      <trkpt lat="45.21676" lon="5.53723">
        <ele>1562.81</ele>
        <time>2016-06-03T11:39:20Z</time>
      </trkpt>
      <trkpt lat="45.21682" lon="5.53722">
        <ele>1563.45</ele>
        <time>2016-06-03T11:39:25Z</time>
      </trkpt>
      <trkpt lat="45.21683" lon="5.53723">
        <ele>1563.75</ele>
        <time>2016-06-03T11:39:26Z</time>
      </trkpt>
      <trkpt lat="45.21685" lon="5.53723">
        <ele>1563.75</ele>
        <time>2016-06-03T11:39:27Z</time>
      </trkpt>
      <trkpt lat="45.217" lon="5.53723">
        <ele>1565.37</ele>
        <time>2016-06-03T11:39:39Z</time>
      </trkpt>
      <trkpt lat="45.21721" lon="5.53725">
        <ele>1566.48</ele>
        <time>2016-06-03T11:39:53Z</time>
      </trkpt>
      <trkpt lat="45.21741" lon="5.53734">
        <ele>1566.09</ele>
        <time>2016-06-03T11:40:04Z</time>
      </trkpt>
      <trkpt lat="45.21761" lon="5.53738">
        <ele>1565.27</ele>
        <time>2016-06-03T11:40:16Z</time>
      </trkpt>
      <trkpt lat="45.2177" lon="5.5374">
        <ele>1564.98</ele>
        <time>2016-06-03T11:40:22Z</time>
      </trkpt>
      <trkpt lat="45.21772" lon="5.5374">
        <ele>1564.97</ele>
        <time>2016-06-03T11:40:23Z</time>
      </trkpt>
      <trkpt lat="45.21774" lon="5.53741">
        <ele>1564.99</ele>
        <time>2016-06-03T11:40:24Z</time>
      </trkpt>
      <trkpt lat="45.21777" lon="5.53741">
        <ele>1565.03</ele>
        <time>2016-06-03T11:40:25Z</time>
      </trkpt>
      <trkpt lat="45.21779" lon="5.53741">
        <ele>1565.1</ele>
        <time>2016-06-03T11:40:26Z</time>
      </trkpt>
      <trkpt lat="45.21781" lon="5.53741">
        <ele>1565.15</ele>
        <time>2016-06-03T11:40:27Z</time>
      </trkpt>
      <trkpt lat="45.21783" lon="5.53741">
        <ele>1565.22</ele>
        <time>2016-06-03T11:40:28Z</time>
      </trkpt>
      <trkpt lat="45.21784" lon="5.53741">
        <ele>1565.3</ele>
        <time>2016-06-03T11:40:29Z</time>
      </trkpt>
      <trkpt lat="45.21786" lon="5.53742">
        <ele>1565.39</ele>
        <time>2016-06-03T11:40:30Z</time>
      </trkpt>
      <trkpt lat="45.21788" lon="5.53742">
        <ele>1565.46</ele>
        <time>2016-06-03T11:40:31Z</time>
      </trkpt>
      <trkpt lat="45.21789" lon="5.53742">
        <ele>1565.53</ele>
        <time>2016-06-03T11:40:32Z</time>
      </trkpt>
      <trkpt lat="45.21791" lon="5.53742">
        <ele>1565.57</ele>
        <time>2016-06-03T11:40:33Z</time>
      </trkpt>
      <trkpt lat="45.21812" lon="5.53746">
        <ele>1566.98</ele>
        <time>2016-06-03T11:40:45Z</time>
      </trkpt>
      <trkpt lat="45.21821" lon="5.53748">
        <ele>1567.57</ele>
        <time>2016-06-03T11:40:50Z</time>
      </trkpt>
      <trkpt lat="45.21822" lon="5.53747">
        <ele>1567.68</ele>
        <time>2016-06-03T11:40:51Z</time>
      </trkpt>
      <trkpt lat="45.21829" lon="5.53746">
        <ele>1568.52</ele>
        <time>2016-06-03T11:40:56Z</time>
      </trkpt>
      <trkpt lat="45.21856" lon="5.5374">
        <ele>1570.51</ele>
        <time>2016-06-03T11:41:15Z</time>
      </trkpt>
      <trkpt lat="45.2186" lon="5.5374">
        <ele>1570.5</ele>
        <time>2016-06-03T11:41:17Z</time>
      </trkpt>
      <trkpt lat="45.21861" lon="5.53741">
        <ele>1570.49</ele>
        <time>2016-06-03T11:41:18Z</time>
      </trkpt>
      <trkpt lat="45.21877" lon="5.53742">
        <ele>1570.86</ele>
        <time>2016-06-03T11:41:29Z</time>
      </trkpt>
      <trkpt lat="45.21878" lon="5.53742">
        <ele>1570.97</ele>
        <time>2016-06-03T11:41:30Z</time>
      </trkpt>
      <trkpt lat="45.2188" lon="5.53741">
        <ele>1571.06</ele>
        <time>2016-06-03T11:41:31Z</time>
      </trkpt>
      <trkpt lat="45.21882" lon="5.53741">
        <ele>1571.26</ele>
        <time>2016-06-03T11:41:32Z</time>
      </trkpt>
      <trkpt lat="45.21884" lon="5.53741">
        <ele>1571.41</ele>
        <time>2016-06-03T11:41:33Z</time>
      </trkpt>
      <trkpt lat="45.21893" lon="5.53744">
        <ele>1572.75</ele>
        <time>2016-06-03T11:41:39Z</time>
      </trkpt>
      <trkpt lat="45.21895" lon="5.53745">
        <ele>1572.94</ele>
        <time>2016-06-03T11:41:40Z</time>
      </trkpt>
      <trkpt lat="45.21897" lon="5.53747">
        <ele>1573.1</ele>
        <time>2016-06-03T11:41:41Z</time>
      </trkpt>
      <trkpt lat="45.21898" lon="5.53747">
        <ele>1573.22</ele>
        <time>2016-06-03T11:41:42Z</time>
      </trkpt>
      <trkpt lat="45.219" lon="5.53747">
        <ele>1573.3</ele>
        <time>2016-06-03T11:41:43Z</time>
      </trkpt>
      <trkpt lat="45.21902" lon="5.53748">
        <ele>1573.36</ele>
        <time>2016-06-03T11:41:44Z</time>
      </trkpt>
      <trkpt lat="45.21904" lon="5.53748">
        <ele>1573.42</ele>
        <time>2016-06-03T11:41:45Z</time>
      </trkpt>
      <trkpt lat="45.21906" lon="5.53749">
        <ele>1573.47</ele>
        <time>2016-06-03T11:41:46Z</time>
      </trkpt>
      <trkpt lat="45.21908" lon="5.53749">
        <ele>1573.51</ele>
        <time>2016-06-03T11:41:47Z</time>
      </trkpt>
      <trkpt lat="45.2191" lon="5.53749">
        <ele>1573.55</ele>
        <time>2016-06-03T11:41:48Z</time>
      </trkpt>
      <trkpt lat="45.21912" lon="5.53749">
        <ele>1573.58</ele>
        <time>2016-06-03T11:41:49Z</time>
      </trkpt>
      <trkpt lat="45.21914" lon="5.53749">
        <ele>1573.61</ele>
        <time>2016-06-03T11:41:50Z</time>
      </trkpt>
      <trkpt lat="45.21916" lon="5.5375">
        <ele>1573.63</ele>
        <time>2016-06-03T11:41:51Z</time>
      </trkpt>
      <trkpt lat="45.21917" lon="5.5375">
        <ele>1573.63</ele>
        <time>2016-06-03T11:41:52Z</time>
      </trkpt>
      <trkpt lat="45.21919" lon="5.53751">
        <ele>1573.62</ele>
        <time>2016-06-03T11:41:53Z</time>
      </trkpt>
      <trkpt lat="45.21921" lon="5.53752">
        <ele>1573.54</ele>
        <time>2016-06-03T11:41:54Z</time>
      </trkpt>
      <trkpt lat="45.21941" lon="5.53754">
        <ele>1573.07</ele>
        <time>2016-06-03T11:42:07Z</time>
      </trkpt>
      <trkpt lat="45.21943" lon="5.53755">
        <ele>1572.94</ele>
        <time>2016-06-03T11:42:12Z</time>
      </trkpt>
      <trkpt lat="45.21946" lon="5.53752">
        <ele>1572.48</ele>
        <time>2016-06-03T11:42:30Z</time>
      </trkpt>
      <trkpt lat="45.21948" lon="5.53748">
        <ele>1572.23</ele>
        <time>2016-06-03T11:42:54Z</time>
      </trkpt>
      <trkpt lat="45.21951" lon="5.53744">
        <ele>1572.29</ele>
        <time>2016-06-03T11:43:18Z</time>
      </trkpt>
      <trkpt lat="45.2196" lon="5.53737">
        <ele>1573.53</ele>
        <time>2016-06-03T11:43:34Z</time>
      </trkpt>
      <trkpt lat="45.21972" lon="5.53732">
        <ele>1575.71</ele>
        <time>2016-06-03T11:43:52Z</time>
      </trkpt>
      <trkpt lat="45.21986" lon="5.53725">
        <ele>1578.2</ele>
        <time>2016-06-03T11:44:10Z</time>
      </trkpt>
      <trkpt lat="45.22" lon="5.5372">
        <ele>1580.41</ele>
        <time>2016-06-03T11:44:28Z</time>
      </trkpt>
      <trkpt lat="45.22014" lon="5.53709">
        <ele>1583.41</ele>
        <time>2016-06-03T11:44:49Z</time>
      </trkpt>
      <trkpt lat="45.22026" lon="5.53701">
        <ele>1585.91</ele>
        <time>2016-06-03T11:45:09Z</time>
      </trkpt>
      <trkpt lat="45.22042" lon="5.53694">
        <ele>1588.39</ele>
        <time>2016-06-03T11:45:30Z</time>
      </trkpt>
      <trkpt lat="45.22055" lon="5.53695">
        <ele>1590.4</ele>
        <time>2016-06-03T11:45:47Z</time>
      </trkpt>
      <trkpt lat="45.22069" lon="5.53688">
        <ele>1593.52</ele>
        <time>2016-06-03T11:46:07Z</time>
      </trkpt>
      <trkpt lat="45.22084" lon="5.53685">
        <ele>1595.49</ele>
        <time>2016-06-03T11:46:25Z</time>
      </trkpt>
      <trkpt lat="45.22103" lon="5.53683">
        <ele>1597.65</ele>
        <time>2016-06-03T11:46:45Z</time>
      </trkpt>
      <trkpt lat="45.22116" lon="5.53677">
        <ele>1599.28</ele>
        <time>2016-06-03T11:47:04Z</time>
      </trkpt>
      <trkpt lat="45.22135" lon="5.53668">
        <ele>1602.35</ele>
        <time>2016-06-03T11:47:25Z</time>
      </trkpt>
      <trkpt lat="45.22143" lon="5.53669">
        <ele>1603.11</ele>
        <time>2016-06-03T11:47:41Z</time>
      </trkpt>
      <trkpt lat="45.22149" lon="5.5367">
        <ele>1603.33</ele>
        <time>2016-06-03T11:47:48Z</time>
      </trkpt>
      <trkpt lat="45.22157" lon="5.53672">
        <ele>1603.6</ele>
        <time>2016-06-03T11:47:52Z</time>
      </trkpt>
      <trkpt lat="45.22185" lon="5.53674">
        <ele>1605.06</ele>
        <time>2016-06-03T11:48:08Z</time>
      </trkpt>
      <trkpt lat="45.2221" lon="5.5368">
        <ele>1606.81</ele>
        <time>2016-06-03T11:48:25Z</time>
      </trkpt>
      <trkpt lat="45.22213" lon="5.5368">
        <ele>1607.24</ele>
        <time>2016-06-03T11:48:35Z</time>
      </trkpt>
      <trkpt lat="45.22215" lon="5.53681">
        <ele>1607.29</ele>
        <time>2016-06-03T11:48:38Z</time>
      </trkpt>
      <trkpt lat="45.22223" lon="5.53682">
        <ele>1607.72</ele>
        <time>2016-06-03T11:48:50Z</time>
      </trkpt>
      <trkpt lat="45.22228" lon="5.53681">
        <ele>1608.23</ele>
        <time>2016-06-03T11:49:04Z</time>
      </trkpt>
      <trkpt lat="45.22242" lon="5.5368">
        <ele>1610.59</ele>
        <time>2016-06-03T11:49:24Z</time>
      </trkpt>
      <trkpt lat="45.2225" lon="5.53676">
        <ele>1612.79</ele>
        <time>2016-06-03T11:49:39Z</time>
      </trkpt>
      <trkpt lat="45.22254" lon="5.53675">
        <ele>1614.43</ele>
        <time>2016-06-03T11:49:52Z</time>
      </trkpt>
      <trkpt lat="45.22261" lon="5.53675">
        <ele>1615.31</ele>
        <time>2016-06-03T11:50:02Z</time>
      </trkpt>
      <trkpt lat="45.22278" lon="5.53674">
        <ele>1617.78</ele>
        <time>2016-06-03T11:50:22Z</time>
      </trkpt>
      <trkpt lat="45.22294" lon="5.53674">
        <ele>1619.38</ele>
        <time>2016-06-03T11:50:42Z</time>
      </trkpt>
      <trkpt lat="45.22313" lon="5.53675">
        <ele>1619.44</ele>
        <time>2016-06-03T11:51:03Z</time>
      </trkpt>
      <trkpt lat="45.22321" lon="5.5367">
        <ele>1620</ele>
        <time>2016-06-03T11:51:18Z</time>
      </trkpt>
      <trkpt lat="45.22322" lon="5.5367">
        <ele>1620.02</ele>
        <time>2016-06-03T11:51:31Z</time>
      </trkpt>
      <trkpt lat="45.22322" lon="5.53668">
        <ele>1619.83</ele>
        <time>2016-06-03T11:51:46Z</time>
      </trkpt>
      <trkpt lat="45.22322" lon="5.53668">
        <ele>1619.58</ele>
        <time>2016-06-03T11:52:17Z</time>
      </trkpt>
      <trkpt lat="45.22322" lon="5.53666">
        <ele>1618.94</ele>
        <time>2016-06-03T11:53:09Z</time>
      </trkpt>
      <trkpt lat="45.22322" lon="5.53667">
        <ele>1619.01</ele>
        <time>2016-06-03T11:53:49Z</time>
      </trkpt>
      <trkpt lat="45.22322" lon="5.53667">
        <ele>1618.41</ele>
        <time>2016-06-03T11:54:41Z</time>
      </trkpt>
      <trkpt lat="45.22322" lon="5.53667">
        <ele>1618.57</ele>
        <time>2016-06-03T11:55:24Z</time>
      </trkpt>
      <trkpt lat="45.22322" lon="5.53667">
        <ele>1618</ele>
        <time>2016-06-03T11:56:18Z</time>
      </trkpt>
      <trkpt lat="45.22322" lon="5.53665">
        <ele>1618.19</ele>
        <time>2016-06-03T11:57:08Z</time>
      </trkpt>
      <trkpt lat="45.22322" lon="5.53666">
        <ele>1617.64</ele>
        <time>2016-06-03T11:58:09Z</time>
      </trkpt>
      <trkpt lat="45.22322" lon="5.53666">
        <ele>1617.4</ele>
        <time>2016-06-03T11:58:54Z</time>
      </trkpt>
      <trkpt lat="45.22321" lon="5.53666">
        <ele>1617.12</ele>
        <time>2016-06-03T11:59:47Z</time>
      </trkpt>
      <trkpt lat="45.22321" lon="5.5367">
        <ele>1616.25</ele>
        <time>2016-06-03T12:01:00Z</time>
      </trkpt>
      <trkpt lat="45.22322" lon="5.5367">
        <ele>1616.01</ele>
        <time>2016-06-03T12:02:10Z</time>
      </trkpt>
      <trkpt lat="45.22321" lon="5.53668">
        <ele>1617.32</ele>
        <time>2016-06-03T12:02:37Z</time>
      </trkpt>
      <trkpt lat="45.22321" lon="5.53674">
        <ele>1616.81</ele>
        <time>2016-06-03T12:02:50Z</time>
      </trkpt>
      <trkpt lat="45.22323" lon="5.53676">
        <ele>1616.55</ele>
        <time>2016-06-03T12:02:52Z</time>
      </trkpt>
      <trkpt lat="45.22343" lon="5.53682">
        <ele>1613.78</ele>
        <time>2016-06-03T12:03:12Z</time>
      </trkpt>
      <trkpt lat="45.22347" lon="5.53694">
        <ele>1610.62</ele>
        <time>2016-06-03T12:03:27Z</time>
      </trkpt>
      <trkpt lat="45.22349" lon="5.53697">
        <ele>1609.7</ele>
        <time>2016-06-03T12:03:31Z</time>
      </trkpt>
      <trkpt lat="45.22351" lon="5.53697">
        <ele>1609.22</ele>
        <time>2016-06-03T12:03:33Z</time>
      </trkpt>
      <trkpt lat="45.22362" lon="5.53696">
        <ele>1607.16</ele>
        <time>2016-06-03T12:03:50Z</time>
      </trkpt>
      <trkpt lat="45.22364" lon="5.53696">
        <ele>1607.04</ele>
        <time>2016-06-03T12:04:09Z</time>
      </trkpt>
      <trkpt lat="45.2237" lon="5.53698">
        <ele>1606.98</ele>
        <time>2016-06-03T12:04:13Z</time>
      </trkpt>
      <trkpt lat="45.22382" lon="5.53703">
        <ele>1604.53</ele>
        <time>2016-06-03T12:04:25Z</time>
      </trkpt>
      <trkpt lat="45.2239" lon="5.53709">
        <ele>1602.21</ele>
        <time>2016-06-03T12:04:40Z</time>
      </trkpt>
      <trkpt lat="45.22392" lon="5.53711">
        <ele>1601.68</ele>
        <time>2016-06-03T12:04:42Z</time>
      </trkpt>
      <trkpt lat="45.22406" lon="5.53714">
        <ele>1599.56</ele>
        <time>2016-06-03T12:04:50Z</time>
      </trkpt>
      <trkpt lat="45.2241" lon="5.53713">
        <ele>1599.33</ele>
        <time>2016-06-03T12:04:51Z</time>
      </trkpt>
      <trkpt lat="45.22412" lon="5.53714">
        <ele>1599.1</ele>
        <time>2016-06-03T12:04:52Z</time>
      </trkpt>
      <trkpt lat="45.22442" lon="5.53723">
        <ele>1595.93</ele>
        <time>2016-06-03T12:05:01Z</time>
      </trkpt>
      <trkpt lat="45.22466" lon="5.53733">
        <ele>1593</ele>
        <time>2016-06-03T12:05:12Z</time>
      </trkpt>
      <trkpt lat="45.22484" lon="5.53739">
        <ele>1589.95</ele>
        <time>2016-06-03T12:05:24Z</time>
      </trkpt>
      <trkpt lat="45.22491" lon="5.53745">
        <ele>1586.81</ele>
        <time>2016-06-03T12:05:40Z</time>
      </trkpt>
      <trkpt lat="45.22497" lon="5.53753">
        <ele>1583.63</ele>
        <time>2016-06-03T12:05:55Z</time>
      </trkpt>
      <trkpt lat="45.225" lon="5.5376">
        <ele>1580.5</ele>
        <time>2016-06-03T12:06:08Z</time>
      </trkpt>
      <trkpt lat="45.22505" lon="5.53764">
        <ele>1579.55</ele>
        <time>2016-06-03T12:06:15Z</time>
      </trkpt>
      <trkpt lat="45.22508" lon="5.53764">
        <ele>1579.38</ele>
        <time>2016-06-03T12:06:17Z</time>
      </trkpt>
      <trkpt lat="45.22528" lon="5.53761">
        <ele>1580.54</ele>
        <time>2016-06-03T12:06:29Z</time>
      </trkpt>
      <trkpt lat="45.2253" lon="5.53761">
        <ele>1580.72</ele>
        <time>2016-06-03T12:06:30Z</time>
      </trkpt>
      <trkpt lat="45.22532" lon="5.53761">
        <ele>1580.88</ele>
        <time>2016-06-03T12:06:31Z</time>
      </trkpt>
      <trkpt lat="45.22533" lon="5.53761">
        <ele>1581.04</ele>
        <time>2016-06-03T12:06:32Z</time>
      </trkpt>
      <trkpt lat="45.22535" lon="5.53761">
        <ele>1581.19</ele>
        <time>2016-06-03T12:06:33Z</time>
      </trkpt>
      <trkpt lat="45.22536" lon="5.53761">
        <ele>1581.35</ele>
        <time>2016-06-03T12:06:34Z</time>
      </trkpt>
      <trkpt lat="45.22545" lon="5.53761">
        <ele>1582.44</ele>
        <time>2016-06-03T12:06:40Z</time>
      </trkpt>
      <trkpt lat="45.22547" lon="5.53762">
        <ele>1582.59</ele>
        <time>2016-06-03T12:06:41Z</time>
      </trkpt>
      <trkpt lat="45.22554" lon="5.53775">
        <ele>1582.14</ele>
        <time>2016-06-03T12:06:49Z</time>
      </trkpt>
      <trkpt lat="45.22554" lon="5.53778">
        <ele>1581.98</ele>
        <time>2016-06-03T12:06:50Z</time>
      </trkpt>
      <trkpt lat="45.22555" lon="5.5378">
        <ele>1581.8</ele>
        <time>2016-06-03T12:06:51Z</time>
      </trkpt>
      <trkpt lat="45.22555" lon="5.53782">
        <ele>1581.59</ele>
        <time>2016-06-03T12:06:52Z</time>
      </trkpt>
      <trkpt lat="45.22555" lon="5.53785">
        <ele>1581.37</ele>
        <time>2016-06-03T12:06:53Z</time>
      </trkpt>
      <trkpt lat="45.22556" lon="5.53791">
        <ele>1580.84</ele>
        <time>2016-06-03T12:06:55Z</time>
      </trkpt>
      <trkpt lat="45.22558" lon="5.53793">
        <ele>1580.51</ele>
        <time>2016-06-03T12:06:56Z</time>
      </trkpt>
      <trkpt lat="45.2256" lon="5.53795">
        <ele>1580.14</ele>
        <time>2016-06-03T12:06:57Z</time>
      </trkpt>
      <trkpt lat="45.22562" lon="5.53797">
        <ele>1579.77</ele>
        <time>2016-06-03T12:06:58Z</time>
      </trkpt>
      <trkpt lat="45.22564" lon="5.53799">
        <ele>1579.39</ele>
        <time>2016-06-03T12:06:59Z</time>
      </trkpt>
      <trkpt lat="45.22565" lon="5.538">
        <ele>1579.02</ele>
        <time>2016-06-03T12:07:00Z</time>
      </trkpt>
      <trkpt lat="45.22567" lon="5.53802">
        <ele>1578.65</ele>
        <time>2016-06-03T12:07:01Z</time>
      </trkpt>
      <trkpt lat="45.22568" lon="5.53803">
        <ele>1578.32</ele>
        <time>2016-06-03T12:07:02Z</time>
      </trkpt>
      <trkpt lat="45.22592" lon="5.53815">
        <ele>1575.22</ele>
        <time>2016-06-03T12:07:12Z</time>
      </trkpt>
      <trkpt lat="45.226" lon="5.53819">
        <ele>1572.33</ele>
        <time>2016-06-03T12:07:25Z</time>
      </trkpt>
      <trkpt lat="45.2261" lon="5.53826">
        <ele>1570.19</ele>
        <time>2016-06-03T12:07:42Z</time>
      </trkpt>
      <trkpt lat="45.22613" lon="5.53828">
        <ele>1569.6</ele>
        <time>2016-06-03T12:07:45Z</time>
      </trkpt>
      <trkpt lat="45.22615" lon="5.53829">
        <ele>1569.4</ele>
        <time>2016-06-03T12:07:46Z</time>
      </trkpt>
      <trkpt lat="45.22616" lon="5.5383">
        <ele>1569.17</ele>
        <time>2016-06-03T12:07:47Z</time>
      </trkpt>
      <trkpt lat="45.22617" lon="5.53831">
        <ele>1568.91</ele>
        <time>2016-06-03T12:07:48Z</time>
      </trkpt>
      <trkpt lat="45.22619" lon="5.53832">
        <ele>1568.64</ele>
        <time>2016-06-03T12:07:49Z</time>
      </trkpt>
      <trkpt lat="45.22625" lon="5.53836">
        <ele>1566.8</ele>
        <time>2016-06-03T12:07:57Z</time>
      </trkpt>
      <trkpt lat="45.22626" lon="5.53837">
        <ele>1566.64</ele>
        <time>2016-06-03T12:07:58Z</time>
      </trkpt>
      <trkpt lat="45.22627" lon="5.53837">
        <ele>1566.49</ele>
        <time>2016-06-03T12:07:59Z</time>
      </trkpt>
      <trkpt lat="45.22632" lon="5.53846">
        <ele>1563.74</ele>
        <time>2016-06-03T12:08:12Z</time>
      </trkpt>
      <trkpt lat="45.22644" lon="5.53855">
        <ele>1560.39</ele>
        <time>2016-06-03T12:08:26Z</time>
      </trkpt>
      <trkpt lat="45.22652" lon="5.53854">
        <ele>1560.4</ele>
        <time>2016-06-03T12:08:45Z</time>
      </trkpt>
      <trkpt lat="45.22666" lon="5.53852">
        <ele>1563.17</ele>
        <time>2016-06-03T12:09:04Z</time>
      </trkpt>
      <trkpt lat="45.22677" lon="5.53855">
        <ele>1563.73</ele>
        <time>2016-06-03T12:09:21Z</time>
      </trkpt>
      <trkpt lat="45.22681" lon="5.53856">
        <ele>1564.02</ele>
        <time>2016-06-03T12:09:26Z</time>
      </trkpt>
      <trkpt lat="45.22692" lon="5.53859">
        <ele>1563.5</ele>
        <time>2016-06-03T12:09:39Z</time>
      </trkpt>
      <trkpt lat="45.22705" lon="5.53869">
        <ele>1561.42</ele>
        <time>2016-06-03T12:09:58Z</time>
      </trkpt>
      <trkpt lat="45.22714" lon="5.53875">
        <ele>1559</ele>
        <time>2016-06-03T12:10:14Z</time>
      </trkpt>
      <trkpt lat="45.22719" lon="5.53883">
        <ele>1556.59</ele>
        <time>2016-06-03T12:10:30Z</time>
      </trkpt>
      <trkpt lat="45.22728" lon="5.53893">
        <ele>1554.42</ele>
        <time>2016-06-03T12:10:46Z</time>
      </trkpt>
      <trkpt lat="45.22731" lon="5.53896">
        <ele>1553.02</ele>
        <time>2016-06-03T12:11:02Z</time>
      </trkpt>
      <trkpt lat="45.22733" lon="5.53897">
        <ele>1552.9</ele>
        <time>2016-06-03T12:11:05Z</time>
      </trkpt>
      <trkpt lat="45.22734" lon="5.539">
        <ele>1552.86</ele>
        <time>2016-06-03T12:11:06Z</time>
      </trkpt>
      <trkpt lat="45.22736" lon="5.53902">
        <ele>1552.82</ele>
        <time>2016-06-03T12:11:07Z</time>
      </trkpt>
      <trkpt lat="45.22737" lon="5.53904">
        <ele>1552.74</ele>
        <time>2016-06-03T12:11:08Z</time>
      </trkpt>
      <trkpt lat="45.22738" lon="5.53907">
        <ele>1552.62</ele>
        <time>2016-06-03T12:11:09Z</time>
      </trkpt>
      <trkpt lat="45.22761" lon="5.53938">
        <ele>1549.73</ele>
        <time>2016-06-03T12:11:19Z</time>
      </trkpt>
      <trkpt lat="45.22763" lon="5.53943">
        <ele>1548.12</ele>
        <time>2016-06-03T12:11:24Z</time>
      </trkpt>
      <trkpt lat="45.22764" lon="5.53944">
        <ele>1547.99</ele>
        <time>2016-06-03T12:11:25Z</time>
      </trkpt>
      <trkpt lat="45.22768" lon="5.53946">
        <ele>1547.92</ele>
        <time>2016-06-03T12:11:36Z</time>
      </trkpt>
      <trkpt lat="45.2277" lon="5.53948">
        <ele>1547.71</ele>
        <time>2016-06-03T12:11:52Z</time>
      </trkpt>
      <trkpt lat="45.22771" lon="5.53949">
        <ele>1547.81</ele>
        <time>2016-06-03T12:11:53Z</time>
      </trkpt>
      <trkpt lat="45.22772" lon="5.5395">
        <ele>1547.88</ele>
        <time>2016-06-03T12:11:54Z</time>
      </trkpt>
      <trkpt lat="45.22775" lon="5.53953">
        <ele>1548.18</ele>
        <time>2016-06-03T12:11:58Z</time>
      </trkpt>
      <trkpt lat="45.22776" lon="5.53955">
        <ele>1548.26</ele>
        <time>2016-06-03T12:11:59Z</time>
      </trkpt>
      <trkpt lat="45.22776" lon="5.53957">
        <ele>1548.31</ele>
        <time>2016-06-03T12:12:00Z</time>
      </trkpt>
      <trkpt lat="45.22777" lon="5.53958">
        <ele>1548.38</ele>
        <time>2016-06-03T12:12:01Z</time>
      </trkpt>
      <trkpt lat="45.22777" lon="5.5396">
        <ele>1548.44</ele>
        <time>2016-06-03T12:12:02Z</time>
      </trkpt>
      <trkpt lat="45.22778" lon="5.53962">
        <ele>1548.49</ele>
        <time>2016-06-03T12:12:03Z</time>
      </trkpt>
      <trkpt lat="45.22778" lon="5.53964">
        <ele>1548.53</ele>
        <time>2016-06-03T12:12:04Z</time>
      </trkpt>
      <trkpt lat="45.22777" lon="5.53967">
        <ele>1548.55</ele>
        <time>2016-06-03T12:12:05Z</time>
      </trkpt>
      <trkpt lat="45.22778" lon="5.5397">
        <ele>1548.52</ele>
        <time>2016-06-03T12:12:06Z</time>
      </trkpt>
      <trkpt lat="45.22778" lon="5.53973">
        <ele>1548.37</ele>
        <time>2016-06-03T12:12:07Z</time>
      </trkpt>
      <trkpt lat="45.22779" lon="5.53975">
        <ele>1548.12</ele>
        <time>2016-06-03T12:12:08Z</time>
      </trkpt>
      <trkpt lat="45.2278" lon="5.53978">
        <ele>1547.83</ele>
        <time>2016-06-03T12:12:09Z</time>
      </trkpt>
      <trkpt lat="45.22781" lon="5.5398">
        <ele>1547.53</ele>
        <time>2016-06-03T12:12:10Z</time>
      </trkpt>
      <trkpt lat="45.22781" lon="5.53983">
        <ele>1547.22</ele>
        <time>2016-06-03T12:12:11Z</time>
      </trkpt>
      <trkpt lat="45.22787" lon="5.5401">
        <ele>1543.83</ele>
        <time>2016-06-03T12:12:20Z</time>
      </trkpt>
      <trkpt lat="45.22794" lon="5.54044">
        <ele>1540.78</ele>
        <time>2016-06-03T12:12:28Z</time>
      </trkpt>
      <trkpt lat="45.22786" lon="5.54074">
        <ele>1538.36</ele>
        <time>2016-06-03T12:12:37Z</time>
      </trkpt>
      <trkpt lat="45.22784" lon="5.54106">
        <ele>1534.9</ele>
        <time>2016-06-03T12:12:45Z</time>
      </trkpt>
      <trkpt lat="45.22784" lon="5.54115">
        <ele>1531.67</ele>
        <time>2016-06-03T12:12:53Z</time>
      </trkpt>
      <trkpt lat="45.22785" lon="5.54117">
        <ele>1530.76</ele>
        <time>2016-06-03T12:13:00Z</time>
      </trkpt>
      <trkpt lat="45.22786" lon="5.54119">
        <ele>1530.71</ele>
        <time>2016-06-03T12:13:01Z</time>
      </trkpt>
      <trkpt lat="45.22788" lon="5.54121">
        <ele>1530.68</ele>
        <time>2016-06-03T12:13:02Z</time>
      </trkpt>
      <trkpt lat="45.2279" lon="5.54123">
        <ele>1530.65</ele>
        <time>2016-06-03T12:13:03Z</time>
      </trkpt>
      <trkpt lat="45.22791" lon="5.54126">
        <ele>1530.63</ele>
        <time>2016-06-03T12:13:04Z</time>
      </trkpt>
      <trkpt lat="45.22793" lon="5.54128">
        <ele>1530.58</ele>
        <time>2016-06-03T12:13:05Z</time>
      </trkpt>
      <trkpt lat="45.22803" lon="5.54147">
        <ele>1529.41</ele>
        <time>2016-06-03T12:13:15Z</time>
      </trkpt>
      <trkpt lat="45.22804" lon="5.54148">
        <ele>1529.38</ele>
        <time>2016-06-03T12:13:16Z</time>
      </trkpt>
      <trkpt lat="45.22805" lon="5.5415">
        <ele>1529.36</ele>
        <time>2016-06-03T12:13:17Z</time>
      </trkpt>
      <trkpt lat="45.22806" lon="5.54152">
        <ele>1529.37</ele>
        <time>2016-06-03T12:13:18Z</time>
      </trkpt>
      <trkpt lat="45.22813" lon="5.54166">
        <ele>1530.64</ele>
        <time>2016-06-03T12:13:30Z</time>
      </trkpt>
      <trkpt lat="45.22818" lon="5.54179">
        <ele>1532.91</ele>
        <time>2016-06-03T12:13:45Z</time>
      </trkpt>
      <trkpt lat="45.22823" lon="5.5419">
        <ele>1534.5</ele>
        <time>2016-06-03T12:13:54Z</time>
      </trkpt>
      <trkpt lat="45.22834" lon="5.54203">
        <ele>1536.64</ele>
        <time>2016-06-03T12:14:10Z</time>
      </trkpt>
      <trkpt lat="45.22835" lon="5.54203">
        <ele>1537.76</ele>
        <time>2016-06-03T12:14:22Z</time>
      </trkpt>
      <trkpt lat="45.2284" lon="5.54209">
        <ele>1537.81</ele>
        <time>2016-06-03T12:14:42Z</time>
      </trkpt>
      <trkpt lat="45.22841" lon="5.5421">
        <ele>1537.81</ele>
        <time>2016-06-03T12:14:43Z</time>
      </trkpt>
      <trkpt lat="45.22842" lon="5.54212">
        <ele>1537.84</ele>
        <time>2016-06-03T12:14:44Z</time>
      </trkpt>
      <trkpt lat="45.22869" lon="5.54238">
        <ele>1537.63</ele>
        <time>2016-06-03T12:14:58Z</time>
      </trkpt>
      <trkpt lat="45.22872" lon="5.54241">
        <ele>1537.42</ele>
        <time>2016-06-03T12:14:59Z</time>
      </trkpt>
      <trkpt lat="45.22887" lon="5.54259">
        <ele>1535.9</ele>
        <time>2016-06-03T12:15:10Z</time>
      </trkpt>
      <trkpt lat="45.22899" lon="5.54265">
        <ele>1536.46</ele>
        <time>2016-06-03T12:15:27Z</time>
      </trkpt>
      <trkpt lat="45.22912" lon="5.54278">
        <ele>1537.13</ele>
        <time>2016-06-03T12:15:49Z</time>
      </trkpt>
      <trkpt lat="45.2292" lon="5.54286">
        <ele>1538.85</ele>
        <time>2016-06-03T12:16:10Z</time>
      </trkpt>
      <trkpt lat="45.2293" lon="5.54295">
        <ele>1540.18</ele>
        <time>2016-06-03T12:16:29Z</time>
      </trkpt>
      <trkpt lat="45.22931" lon="5.54295">
        <ele>1540.18</ele>
        <time>2016-06-03T12:16:30Z</time>
      </trkpt>
      <trkpt lat="45.22943" lon="5.54304">
        <ele>1540.06</ele>
        <time>2016-06-03T12:16:40Z</time>
      </trkpt>
      <trkpt lat="45.22946" lon="5.54305">
        <ele>1540.21</ele>
        <time>2016-06-03T12:16:42Z</time>
      </trkpt>
      <trkpt lat="45.22947" lon="5.54306">
        <ele>1540.32</ele>
        <time>2016-06-03T12:16:43Z</time>
      </trkpt>
      <trkpt lat="45.22969" lon="5.54317">
        <ele>1540.47</ele>
        <time>2016-06-03T12:16:54Z</time>
      </trkpt>
      <trkpt lat="45.23002" lon="5.54317">
        <ele>1540.73</ele>
        <time>2016-06-03T12:17:09Z</time>
      </trkpt>
      <trkpt lat="45.23022" lon="5.54316">
        <ele>1540.77</ele>
        <time>2016-06-03T12:17:21Z</time>
      </trkpt>
      <trkpt lat="45.23043" lon="5.54317">
        <ele>1542.26</ele>
        <time>2016-06-03T12:17:36Z</time>
      </trkpt>
      <trkpt lat="45.23049" lon="5.54319">
        <ele>1542.68</ele>
        <time>2016-06-03T12:17:40Z</time>
      </trkpt>
      <trkpt lat="45.23055" lon="5.54323">
        <ele>1543.11</ele>
        <time>2016-06-03T12:17:52Z</time>
      </trkpt>
      <trkpt lat="45.23062" lon="5.5433">
        <ele>1544.34</ele>
        <time>2016-06-03T12:18:10Z</time>
      </trkpt>
      <trkpt lat="45.23073" lon="5.54335">
        <ele>1544.63</ele>
        <time>2016-06-03T12:18:28Z</time>
      </trkpt>
      <trkpt lat="45.23085" lon="5.54332">
        <ele>1543.19</ele>
        <time>2016-06-03T12:18:44Z</time>
      </trkpt>
      <trkpt lat="45.23089" lon="5.54336">
        <ele>1542.92</ele>
        <time>2016-06-03T12:18:54Z</time>
      </trkpt>
      <trkpt lat="45.2309" lon="5.54336">
        <ele>1542.92</ele>
        <time>2016-06-03T12:18:55Z</time>
      </trkpt>
      <trkpt lat="45.23091" lon="5.54336">
        <ele>1542.97</ele>
        <time>2016-06-03T12:18:56Z</time>
      </trkpt>
      <trkpt lat="45.23097" lon="5.54342">
        <ele>1543.25</ele>
        <time>2016-06-03T12:19:01Z</time>
      </trkpt>
      <trkpt lat="45.231" lon="5.54342">
        <ele>1543.46</ele>
        <time>2016-06-03T12:19:03Z</time>
      </trkpt>
      <trkpt lat="45.23102" lon="5.54342">
        <ele>1543.57</ele>
        <time>2016-06-03T12:19:04Z</time>
      </trkpt>
      <trkpt lat="45.23129" lon="5.54358">
        <ele>1543.93</ele>
        <time>2016-06-03T12:19:17Z</time>
      </trkpt>
      <trkpt lat="45.23138" lon="5.5437">
        <ele>1543.04</ele>
        <time>2016-06-03T12:19:24Z</time>
      </trkpt>
      <trkpt lat="45.23144" lon="5.54374">
        <ele>1542.4</ele>
        <time>2016-06-03T12:19:40Z</time>
      </trkpt>
      <trkpt lat="45.23148" lon="5.5438">
        <ele>1542.37</ele>
        <time>2016-06-03T12:20:11Z</time>
      </trkpt>
      <trkpt lat="45.23151" lon="5.54381">
        <ele>1542.43</ele>
        <time>2016-06-03T12:20:15Z</time>
      </trkpt>
      <trkpt lat="45.23152" lon="5.54381">
        <ele>1542.41</ele>
        <time>2016-06-03T12:20:16Z</time>
      </trkpt>
      <trkpt lat="45.23154" lon="5.54382">
        <ele>1542.31</ele>
        <time>2016-06-03T12:20:17Z</time>
      </trkpt>
      <trkpt lat="45.23164" lon="5.54391">
        <ele>1539.58</ele>
        <time>2016-06-03T12:20:28Z</time>
      </trkpt>
      <trkpt lat="45.23166" lon="5.5439">
        <ele>1538.77</ele>
        <time>2016-06-03T12:20:31Z</time>
      </trkpt>
      <trkpt lat="45.23167" lon="5.54389">
        <ele>1538.51</ele>
        <time>2016-06-03T12:20:32Z</time>
      </trkpt>
      <trkpt lat="45.23169" lon="5.54389">
        <ele>1538.24</ele>
        <time>2016-06-03T12:20:33Z</time>
      </trkpt>
      <trkpt lat="45.23171" lon="5.54389">
        <ele>1537.95</ele>
        <time>2016-06-03T12:20:34Z</time>
      </trkpt>
      <trkpt lat="45.23173" lon="5.54389">
        <ele>1537.67</ele>
        <time>2016-06-03T12:20:35Z</time>
      </trkpt>
      <trkpt lat="45.23177" lon="5.5439">
        <ele>1536.41</ele>
        <time>2016-06-03T12:20:38Z</time>
      </trkpt>
      <trkpt lat="45.23184" lon="5.5439">
        <ele>1533.35</ele>
        <time>2016-06-03T12:20:51Z</time>
      </trkpt>
      <trkpt lat="45.23188" lon="5.54393">
        <ele>1531.93</ele>
        <time>2016-06-03T12:21:10Z</time>
      </trkpt>
      <trkpt lat="45.23195" lon="5.5439">
        <ele>1531.35</ele>
        <time>2016-06-03T12:21:19Z</time>
      </trkpt>
      <trkpt lat="45.23196" lon="5.54389">
        <ele>1531.25</ele>
        <time>2016-06-03T12:21:20Z</time>
      </trkpt>
      <trkpt lat="45.23198" lon="5.54388">
        <ele>1531.15</ele>
        <time>2016-06-03T12:21:21Z</time>
      </trkpt>
      <trkpt lat="45.232" lon="5.54388">
        <ele>1531.07</ele>
        <time>2016-06-03T12:21:22Z</time>
      </trkpt>
      <trkpt lat="45.23202" lon="5.54388">
        <ele>1530.97</ele>
        <time>2016-06-03T12:21:23Z</time>
      </trkpt>
      <trkpt lat="45.23203" lon="5.54388">
        <ele>1530.83</ele>
        <time>2016-06-03T12:21:24Z</time>
      </trkpt>
      <trkpt lat="45.23205" lon="5.54388">
        <ele>1530.65</ele>
        <time>2016-06-03T12:21:25Z</time>
      </trkpt>
      <trkpt lat="45.23207" lon="5.54388">
        <ele>1530.14</ele>
        <time>2016-06-03T12:21:26Z</time>
      </trkpt>
      <trkpt lat="45.23217" lon="5.54386">
        <ele>1527.58</ele>
        <time>2016-06-03T12:21:38Z</time>
      </trkpt>
      <trkpt lat="45.2322" lon="5.54387">
        <ele>1527.27</ele>
        <time>2016-06-03T12:21:40Z</time>
      </trkpt>
      <trkpt lat="45.23222" lon="5.54387">
        <ele>1527.11</ele>
        <time>2016-06-03T12:21:41Z</time>
      </trkpt>
      <trkpt lat="45.23225" lon="5.54387">
        <ele>1526.95</ele>
        <time>2016-06-03T12:21:42Z</time>
      </trkpt>
      <trkpt lat="45.23238" lon="5.5439">
        <ele>1525.15</ele>
        <time>2016-06-03T12:21:51Z</time>
      </trkpt>
      <trkpt lat="45.2324" lon="5.54386">
        <ele>1524.75</ele>
        <time>2016-06-03T12:22:06Z</time>
      </trkpt>
      <trkpt lat="45.2324" lon="5.54375">
        <ele>1524.99</ele>
        <time>2016-06-03T12:22:22Z</time>
      </trkpt>
      <trkpt lat="45.23237" lon="5.54371">
        <ele>1525.23</ele>
        <time>2016-06-03T12:22:38Z</time>
      </trkpt>
      <trkpt lat="45.2324" lon="5.54373">
        <ele>1525.26</ele>
        <time>2016-06-03T12:23:00Z</time>
      </trkpt>
      <trkpt lat="45.23246" lon="5.5437">
        <ele>1526.18</ele>
        <time>2016-06-03T12:23:14Z</time>
      </trkpt>
      <trkpt lat="45.23249" lon="5.54372">
        <ele>1526.65</ele>
        <time>2016-06-03T12:23:30Z</time>
      </trkpt>
      <trkpt lat="45.23245" lon="5.54373">
        <ele>1526.09</ele>
        <time>2016-06-03T12:23:54Z</time>
      </trkpt>
      <trkpt lat="45.23245" lon="5.54381">
        <ele>1524.87</ele>
        <time>2016-06-03T12:24:09Z</time>
      </trkpt>
      <trkpt lat="45.23244" lon="5.54382">
        <ele>1524.97</ele>
        <time>2016-06-03T12:24:35Z</time>
      </trkpt>
      <trkpt lat="45.23243" lon="5.54385">
        <ele>1524.77</ele>
        <time>2016-06-03T12:24:57Z</time>
      </trkpt>
      <trkpt lat="45.23245" lon="5.54386">
        <ele>1524.74</ele>
        <time>2016-06-03T12:24:59Z</time>
      </trkpt>
      <trkpt lat="45.23249" lon="5.54389">
        <ele>1524.75</ele>
        <time>2016-06-03T12:25:04Z</time>
      </trkpt>
      <trkpt lat="45.2325" lon="5.5439">
        <ele>1524.79</ele>
        <time>2016-06-03T12:25:05Z</time>
      </trkpt>
      <trkpt lat="45.23257" lon="5.54397">
        <ele>1526.5</ele>
        <time>2016-06-03T12:25:21Z</time>
      </trkpt>
      <trkpt lat="45.23262" lon="5.54403">
        <ele>1528.29</ele>
        <time>2016-06-03T12:25:37Z</time>
      </trkpt>
      <trkpt lat="45.23268" lon="5.54411">
        <ele>1530</ele>
        <time>2016-06-03T12:25:55Z</time>
      </trkpt>
      <trkpt lat="45.23272" lon="5.54417">
        <ele>1531.56</ele>
        <time>2016-06-03T12:26:08Z</time>
      </trkpt>
      <trkpt lat="45.23276" lon="5.54423">
        <ele>1531.52</ele>
        <time>2016-06-03T12:26:22Z</time>
      </trkpt>
      <trkpt lat="45.23277" lon="5.54425">
        <ele>1531.43</ele>
        <time>2016-06-03T12:26:23Z</time>
      </trkpt>
      <trkpt lat="45.23279" lon="5.54426">
        <ele>1531.31</ele>
        <time>2016-06-03T12:26:24Z</time>
      </trkpt>
      <trkpt lat="45.2328" lon="5.54427">
        <ele>1531.2</ele>
        <time>2016-06-03T12:26:25Z</time>
      </trkpt>
      <trkpt lat="45.23282" lon="5.54429">
        <ele>1531.11</ele>
        <time>2016-06-03T12:26:26Z</time>
      </trkpt>
      <trkpt lat="45.23284" lon="5.5443">
        <ele>1531.02</ele>
        <time>2016-06-03T12:26:27Z</time>
      </trkpt>
      <trkpt lat="45.23286" lon="5.54431">
        <ele>1530.89</ele>
        <time>2016-06-03T12:26:28Z</time>
      </trkpt>
      <trkpt lat="45.23288" lon="5.54433">
        <ele>1530.84</ele>
        <time>2016-06-03T12:26:29Z</time>
      </trkpt>
      <trkpt lat="45.23289" lon="5.54436">
        <ele>1530.8</ele>
        <time>2016-06-03T12:26:30Z</time>
      </trkpt>
      <trkpt lat="45.23291" lon="5.54438">
        <ele>1530.74</ele>
        <time>2016-06-03T12:26:31Z</time>
      </trkpt>
      <trkpt lat="45.23292" lon="5.54441">
        <ele>1530.68</ele>
        <time>2016-06-03T12:26:32Z</time>
      </trkpt>
      <trkpt lat="45.23293" lon="5.54443">
        <ele>1530.62</ele>
        <time>2016-06-03T12:26:33Z</time>
      </trkpt>
      <trkpt lat="45.23294" lon="5.54445">
        <ele>1530.57</ele>
        <time>2016-06-03T12:26:34Z</time>
      </trkpt>
      <trkpt lat="45.23295" lon="5.54447">
        <ele>1530.52</ele>
        <time>2016-06-03T12:26:35Z</time>
      </trkpt>
      <trkpt lat="45.23296" lon="5.54448">
        <ele>1530.46</ele>
        <time>2016-06-03T12:26:36Z</time>
      </trkpt>
      <trkpt lat="45.23297" lon="5.54449">
        <ele>1530.42</ele>
        <time>2016-06-03T12:26:37Z</time>
      </trkpt>
      <trkpt lat="45.23299" lon="5.54451">
        <ele>1530.38</ele>
        <time>2016-06-03T12:26:38Z</time>
      </trkpt>
      <trkpt lat="45.233" lon="5.54452">
        <ele>1530.35</ele>
        <time>2016-06-03T12:26:39Z</time>
      </trkpt>
      <trkpt lat="45.23302" lon="5.54453">
        <ele>1530.34</ele>
        <time>2016-06-03T12:26:40Z</time>
      </trkpt>
      <trkpt lat="45.23308" lon="5.54457">
        <ele>1530.65</ele>
        <time>2016-06-03T12:26:55Z</time>
      </trkpt>
      <trkpt lat="45.23322" lon="5.54464">
        <ele>1531.88</ele>
        <time>2016-06-03T12:27:13Z</time>
      </trkpt>
      <trkpt lat="45.23329" lon="5.54463">
        <ele>1532.1</ele>
        <time>2016-06-03T12:27:33Z</time>
      </trkpt>
      <trkpt lat="45.2333" lon="5.54463">
        <ele>1532.12</ele>
        <time>2016-06-03T12:27:34Z</time>
      </trkpt>
      <trkpt lat="45.23332" lon="5.54463">
        <ele>1532.12</ele>
        <time>2016-06-03T12:27:35Z</time>
      </trkpt>
      <trkpt lat="45.2336" lon="5.54476">
        <ele>1532.37</ele>
        <time>2016-06-03T12:27:50Z</time>
      </trkpt>
      <trkpt lat="45.23371" lon="5.54482">
        <ele>1532.94</ele>
        <time>2016-06-03T12:28:02Z</time>
      </trkpt>
      <trkpt lat="45.23373" lon="5.54482">
        <ele>1533</ele>
        <time>2016-06-03T12:28:04Z</time>
      </trkpt>
      <trkpt lat="45.23382" lon="5.54482">
        <ele>1533.36</ele>
        <time>2016-06-03T12:28:20Z</time>
      </trkpt>
      <trkpt lat="45.23398" lon="5.54482">
        <ele>1535.44</ele>
        <time>2016-06-03T12:28:40Z</time>
      </trkpt>
      <trkpt lat="45.23407" lon="5.54478">
        <ele>1536.89</ele>
        <time>2016-06-03T12:29:03Z</time>
      </trkpt>
      <trkpt lat="45.23415" lon="5.54483">
        <ele>1538.22</ele>
        <time>2016-06-03T12:29:24Z</time>
      </trkpt>
      <trkpt lat="45.23428" lon="5.54483">
        <ele>1540.52</ele>
        <time>2016-06-03T12:29:45Z</time>
      </trkpt>
      <trkpt lat="45.23438" lon="5.54486">
        <ele>1542.77</ele>
        <time>2016-06-03T12:30:05Z</time>
      </trkpt>
      <trkpt lat="45.2345" lon="5.54482">
        <ele>1543.79</ele>
        <time>2016-06-03T12:30:26Z</time>
      </trkpt>
      <trkpt lat="45.23468" lon="5.54476">
        <ele>1546.36</ele>
        <time>2016-06-03T12:30:48Z</time>
      </trkpt>
      <trkpt lat="45.23477" lon="5.54475">
        <ele>1548.88</ele>
        <time>2016-06-03T12:31:10Z</time>
      </trkpt>
      <trkpt lat="45.23485" lon="5.54477">
        <ele>1550.19</ele>
        <time>2016-06-03T12:31:30Z</time>
      </trkpt>
      <trkpt lat="45.23502" lon="5.54483">
        <ele>1553.13</ele>
        <time>2016-06-03T12:31:51Z</time>
      </trkpt>
      <trkpt lat="45.23515" lon="5.54485">
        <ele>1553.95</ele>
        <time>2016-06-03T12:32:08Z</time>
      </trkpt>
      <trkpt lat="45.23524" lon="5.54487">
        <ele>1555.25</ele>
        <time>2016-06-03T12:32:26Z</time>
      </trkpt>
      <trkpt lat="45.23535" lon="5.54495">
        <ele>1555.54</ele>
        <time>2016-06-03T12:32:43Z</time>
      </trkpt>
      <trkpt lat="45.23539" lon="5.54498">
        <ele>1555.3</ele>
        <time>2016-06-03T12:32:57Z</time>
      </trkpt>
      <trkpt lat="45.23545" lon="5.54503">
        <ele>1555.23</ele>
        <time>2016-06-03T12:33:11Z</time>
      </trkpt>
      <trkpt lat="45.23543" lon="5.545">
        <ele>1555.13</ele>
        <time>2016-06-03T12:33:26Z</time>
      </trkpt>
      <trkpt lat="45.23543" lon="5.545">
        <ele>1554.09</ele>
        <time>2016-06-03T12:33:43Z</time>
      </trkpt>
      <trkpt lat="45.23542" lon="5.54499">
        <ele>1554.1</ele>
        <time>2016-06-03T12:34:35Z</time>
      </trkpt>
      <trkpt lat="45.23542" lon="5.54501">
        <ele>1554.05</ele>
        <time>2016-06-03T12:35:24Z</time>
      </trkpt>
      <trkpt lat="45.23544" lon="5.54499">
        <ele>1554.55</ele>
        <time>2016-06-03T12:36:51Z</time>
      </trkpt>
      <trkpt lat="45.23544" lon="5.545">
        <ele>1554.27</ele>
        <time>2016-06-03T12:37:54Z</time>
      </trkpt>
      <trkpt lat="45.23543" lon="5.54497">
        <ele>1554.34</ele>
        <time>2016-06-03T12:38:51Z</time>
      </trkpt>
      <trkpt lat="45.23543" lon="5.54497">
        <ele>1554.3</ele>
        <time>2016-06-03T12:39:45Z</time>
      </trkpt>
      <trkpt lat="45.23543" lon="5.54498">
        <ele>1553.96</ele>
        <time>2016-06-03T12:41:04Z</time>
      </trkpt>
      <trkpt lat="45.23542" lon="5.54497">
        <ele>1553.43</ele>
        <time>2016-06-03T12:42:32Z</time>
      </trkpt>
      <trkpt lat="45.23538" lon="5.54494">
        <ele>1554.16</ele>
        <time>2016-06-03T12:42:52Z</time>
      </trkpt>
      <trkpt lat="45.23534" lon="5.54494">
        <ele>1554.38</ele>
        <time>2016-06-03T12:43:13Z</time>
      </trkpt>
      <trkpt lat="45.23533" lon="5.54492">
        <ele>1554.7</ele>
        <time>2016-06-03T12:43:32Z</time>
      </trkpt>
      <trkpt lat="45.23532" lon="5.54493">
        <ele>1554.36</ele>
        <time>2016-06-03T12:43:50Z</time>
      </trkpt>
      <trkpt lat="45.23529" lon="5.5449">
        <ele>1554.34</ele>
        <time>2016-06-03T12:44:08Z</time>
      </trkpt>
      <trkpt lat="45.23524" lon="5.54487">
        <ele>1554.09</ele>
        <time>2016-06-03T12:44:33Z</time>
      </trkpt>
      <trkpt lat="45.23519" lon="5.54486">
        <ele>1554.17</ele>
        <time>2016-06-03T12:44:48Z</time>
      </trkpt>
      <trkpt lat="45.23512" lon="5.54484">
        <ele>1553.68</ele>
        <time>2016-06-03T12:45:00Z</time>
      </trkpt>
      <trkpt lat="45.23511" lon="5.54484">
        <ele>1553.54</ele>
        <time>2016-06-03T12:45:01Z</time>
      </trkpt>
      <trkpt lat="45.23497" lon="5.54483">
        <ele>1552.52</ele>
        <time>2016-06-03T12:45:14Z</time>
      </trkpt>
      <trkpt lat="45.23491" lon="5.54479">
        <ele>1551.06</ele>
        <time>2016-06-03T12:45:28Z</time>
      </trkpt>
      <trkpt lat="45.23485" lon="5.54475">
        <ele>1549.05</ele>
        <time>2016-06-03T12:45:44Z</time>
      </trkpt>
      <trkpt lat="45.23476" lon="5.54473">
        <ele>1547.59</ele>
        <time>2016-06-03T12:45:57Z</time>
      </trkpt>
      <trkpt lat="45.23466" lon="5.54474">
        <ele>1545.15</ele>
        <time>2016-06-03T12:46:12Z</time>
      </trkpt>
      <trkpt lat="45.23465" lon="5.54475">
        <ele>1544.86</ele>
        <time>2016-06-03T12:46:14Z</time>
      </trkpt>
      <trkpt lat="45.23453" lon="5.54478">
        <ele>1543.13</ele>
        <time>2016-06-03T12:46:25Z</time>
      </trkpt>
      <trkpt lat="45.23452" lon="5.54479">
        <ele>1542.75</ele>
        <time>2016-06-03T12:46:27Z</time>
      </trkpt>
      <trkpt lat="45.23449" lon="5.54481">
        <ele>1542.27</ele>
        <time>2016-06-03T12:46:30Z</time>
      </trkpt>
      <trkpt lat="45.23447" lon="5.54482">
        <ele>1542.04</ele>
        <time>2016-06-03T12:46:32Z</time>
      </trkpt>
      <trkpt lat="45.23437" lon="5.54483">
        <ele>1541.79</ele>
        <time>2016-06-03T12:46:44Z</time>
      </trkpt>
      <trkpt lat="45.23436" lon="5.54482">
        <ele>1541.73</ele>
        <time>2016-06-03T12:46:45Z</time>
      </trkpt>
      <trkpt lat="45.23421" lon="5.54483">
        <ele>1538.91</ele>
        <time>2016-06-03T12:46:57Z</time>
      </trkpt>
      <trkpt lat="45.23419" lon="5.54482">
        <ele>1537.28</ele>
        <time>2016-06-03T12:47:05Z</time>
      </trkpt>
      <trkpt lat="45.23404" lon="5.54483">
        <ele>1534.36</ele>
        <time>2016-06-03T12:47:25Z</time>
      </trkpt>
      <trkpt lat="45.234" lon="5.54484">
        <ele>1533.9</ele>
        <time>2016-06-03T12:47:29Z</time>
      </trkpt>
      <trkpt lat="45.23396" lon="5.54484">
        <ele>1533.61</ele>
        <time>2016-06-03T12:47:32Z</time>
      </trkpt>
      <trkpt lat="45.23383" lon="5.54486">
        <ele>1532.56</ele>
        <time>2016-06-03T12:47:44Z</time>
      </trkpt>
      <trkpt lat="45.23376" lon="5.54485">
        <ele>1532.18</ele>
        <time>2016-06-03T12:47:48Z</time>
      </trkpt>
      <trkpt lat="45.23374" lon="5.54484">
        <ele>1532.11</ele>
        <time>2016-06-03T12:47:49Z</time>
      </trkpt>
      <trkpt lat="45.23372" lon="5.54484">
        <ele>1532.05</ele>
        <time>2016-06-03T12:47:50Z</time>
      </trkpt>
      <trkpt lat="45.2337" lon="5.54483">
        <ele>1531.98</ele>
        <time>2016-06-03T12:47:51Z</time>
      </trkpt>
      <trkpt lat="45.23368" lon="5.54482">
        <ele>1531.9</ele>
        <time>2016-06-03T12:47:52Z</time>
      </trkpt>
      <trkpt lat="45.2335" lon="5.5447">
        <ele>1531.06</ele>
        <time>2016-06-03T12:48:02Z</time>
      </trkpt>
      <trkpt lat="45.23333" lon="5.54465">
        <ele>1530.39</ele>
        <time>2016-06-03T12:48:10Z</time>
      </trkpt>
      <trkpt lat="45.23332" lon="5.54466">
        <ele>1530.35</ele>
        <time>2016-06-03T12:48:11Z</time>
      </trkpt>
      <trkpt lat="45.2333" lon="5.54467">
        <ele>1530.31</ele>
        <time>2016-06-03T12:48:12Z</time>
      </trkpt>
      <trkpt lat="45.23329" lon="5.54468">
        <ele>1530.28</ele>
        <time>2016-06-03T12:48:13Z</time>
      </trkpt>
      <trkpt lat="45.23327" lon="5.54468">
        <ele>1530.26</ele>
        <time>2016-06-03T12:48:14Z</time>
      </trkpt>
      <trkpt lat="45.23326" lon="5.54467">
        <ele>1530.24</ele>
        <time>2016-06-03T12:48:15Z</time>
      </trkpt>
      <trkpt lat="45.23319" lon="5.54461">
        <ele>1530.11</ele>
        <time>2016-06-03T12:48:29Z</time>
      </trkpt>
      <trkpt lat="45.2331" lon="5.54455">
        <ele>1529.16</ele>
        <time>2016-06-03T12:48:40Z</time>
      </trkpt>
      <trkpt lat="45.23308" lon="5.54454">
        <ele>1529.04</ele>
        <time>2016-06-03T12:48:41Z</time>
      </trkpt>
      <trkpt lat="45.23307" lon="5.54453">
        <ele>1528.92</ele>
        <time>2016-06-03T12:48:42Z</time>
      </trkpt>
      <trkpt lat="45.23305" lon="5.54452">
        <ele>1528.81</ele>
        <time>2016-06-03T12:48:43Z</time>
      </trkpt>
      <trkpt lat="45.23303" lon="5.5445">
        <ele>1528.72</ele>
        <time>2016-06-03T12:48:44Z</time>
      </trkpt>
      <trkpt lat="45.2328" lon="5.54423">
        <ele>1528.41</ele>
        <time>2016-06-03T12:48:58Z</time>
      </trkpt>
      <trkpt lat="45.23275" lon="5.54419">
        <ele>1528.75</ele>
        <time>2016-06-03T12:49:09Z</time>
      </trkpt>
      <trkpt lat="45.23268" lon="5.54411">
        <ele>1528.64</ele>
        <time>2016-06-03T12:49:25Z</time>
      </trkpt>
      <trkpt lat="45.23264" lon="5.54405">
        <ele>1527.82</ele>
        <time>2016-06-03T12:49:32Z</time>
      </trkpt>
      <trkpt lat="45.23264" lon="5.54404">
        <ele>1527.69</ele>
        <time>2016-06-03T12:49:33Z</time>
      </trkpt>
      <trkpt lat="45.23263" lon="5.54403">
        <ele>1527.56</ele>
        <time>2016-06-03T12:49:34Z</time>
      </trkpt>
      <trkpt lat="45.23262" lon="5.54402">
        <ele>1527.43</ele>
        <time>2016-06-03T12:49:35Z</time>
      </trkpt>
      <trkpt lat="45.23253" lon="5.54392">
        <ele>1524.8</ele>
        <time>2016-06-03T12:49:51Z</time>
      </trkpt>
      <trkpt lat="45.2325" lon="5.5439">
        <ele>1524.28</ele>
        <time>2016-06-03T12:49:54Z</time>
      </trkpt>
      <trkpt lat="45.23248" lon="5.54388">
        <ele>1524.15</ele>
        <time>2016-06-03T12:49:55Z</time>
      </trkpt>
      <trkpt lat="45.23246" lon="5.54387">
        <ele>1524</ele>
        <time>2016-06-03T12:49:56Z</time>
      </trkpt>
      <trkpt lat="45.23244" lon="5.54385">
        <ele>1522.47</ele>
        <time>2016-06-03T12:50:07Z</time>
      </trkpt>
      <trkpt lat="45.23241" lon="5.54386">
        <ele>1522.21</ele>
        <time>2016-06-03T12:50:28Z</time>
      </trkpt>
      <trkpt lat="45.23241" lon="5.54386">
        <ele>1522.49</ele>
        <time>2016-06-03T12:50:49Z</time>
      </trkpt>
      <trkpt lat="45.23241" lon="5.54385">
        <ele>1522.17</ele>
        <time>2016-06-03T12:51:25Z</time>
      </trkpt>
      <trkpt lat="45.23241" lon="5.54386">
        <ele>1522.35</ele>
        <time>2016-06-03T12:51:49Z</time>
      </trkpt>
      <trkpt lat="45.2324" lon="5.54388">
        <ele>1522.02</ele>
        <time>2016-06-03T12:52:20Z</time>
      </trkpt>
      <trkpt lat="45.23238" lon="5.54388">
        <ele>1522.09</ele>
        <time>2016-06-03T12:52:38Z</time>
      </trkpt>
      <trkpt lat="45.23239" lon="5.54391">
        <ele>1522.01</ele>
        <time>2016-06-03T12:52:49Z</time>
      </trkpt>
      <trkpt lat="45.23239" lon="5.54392">
        <ele>1522.01</ele>
        <time>2016-06-03T12:52:50Z</time>
      </trkpt>
      <trkpt lat="45.23239" lon="5.54394">
        <ele>1522</ele>
        <time>2016-06-03T12:52:51Z</time>
      </trkpt>
      <trkpt lat="45.23238" lon="5.54396">
        <ele>1522</ele>
        <time>2016-06-03T12:52:52Z</time>
      </trkpt>
      <trkpt lat="45.23238" lon="5.54398">
        <ele>1521.99</ele>
        <time>2016-06-03T12:52:53Z</time>
      </trkpt>
      <trkpt lat="45.23239" lon="5.54401">
        <ele>1521.98</ele>
        <time>2016-06-03T12:52:54Z</time>
      </trkpt>
      <trkpt lat="45.23239" lon="5.54405">
        <ele>1521.94</ele>
        <time>2016-06-03T12:52:56Z</time>
      </trkpt>
      <trkpt lat="45.2324" lon="5.5441">
        <ele>1521.84</ele>
        <time>2016-06-03T12:53:00Z</time>
      </trkpt>
      <trkpt lat="45.23242" lon="5.54414">
        <ele>1521.75</ele>
        <time>2016-06-03T12:53:02Z</time>
      </trkpt>
      <trkpt lat="45.23243" lon="5.54417">
        <ele>1521.7</ele>
        <time>2016-06-03T12:53:03Z</time>
      </trkpt>
      <trkpt lat="45.23244" lon="5.54423">
        <ele>1521.55</ele>
        <time>2016-06-03T12:53:05Z</time>
      </trkpt>
      <trkpt lat="45.23243" lon="5.54425">
        <ele>1521.44</ele>
        <time>2016-06-03T12:53:06Z</time>
      </trkpt>
      <trkpt lat="45.23243" lon="5.54434">
        <ele>1521</ele>
        <time>2016-06-03T12:53:09Z</time>
      </trkpt>
      <trkpt lat="45.23243" lon="5.54438">
        <ele>1520.82</ele>
        <time>2016-06-03T12:53:10Z</time>
      </trkpt>
      <trkpt lat="45.23243" lon="5.54443">
        <ele>1520.65</ele>
        <time>2016-06-03T12:53:11Z</time>
      </trkpt>
      <trkpt lat="45.23244" lon="5.54468">
        <ele>1519.37</ele>
        <time>2016-06-03T12:53:17Z</time>
      </trkpt>
      <trkpt lat="45.23245" lon="5.54478">
        <ele>1518.62</ele>
        <time>2016-06-03T12:53:23Z</time>
      </trkpt>
      <trkpt lat="45.23245" lon="5.5448">
        <ele>1518.58</ele>
        <time>2016-06-03T12:53:24Z</time>
      </trkpt>
      <trkpt lat="45.23245" lon="5.54481">
        <ele>1518.55</ele>
        <time>2016-06-03T12:53:25Z</time>
      </trkpt>
      <trkpt lat="45.23244" lon="5.54483">
        <ele>1518.51</ele>
        <time>2016-06-03T12:53:26Z</time>
      </trkpt>
      <trkpt lat="45.23243" lon="5.54486">
        <ele>1518.47</ele>
        <time>2016-06-03T12:53:27Z</time>
      </trkpt>
      <trkpt lat="45.23247" lon="5.54532">
        <ele>1516.73</ele>
        <time>2016-06-03T12:53:37Z</time>
      </trkpt>
      <trkpt lat="45.2326" lon="5.54587">
        <ele>1516.15</ele>
        <time>2016-06-03T12:53:56Z</time>
      </trkpt>
      <trkpt lat="45.23262" lon="5.54616">
        <ele>1516.8</ele>
        <time>2016-06-03T12:54:10Z</time>
      </trkpt>
      <trkpt lat="45.23262" lon="5.54622">
        <ele>1517.37</ele>
        <time>2016-06-03T12:54:13Z</time>
      </trkpt>
      <trkpt lat="45.23262" lon="5.54624">
        <ele>1517.97</ele>
        <time>2016-06-03T12:54:14Z</time>
      </trkpt>
      <trkpt lat="45.23262" lon="5.54627">
        <ele>1517.97</ele>
        <time>2016-06-03T12:54:15Z</time>
      </trkpt>
      <trkpt lat="45.23262" lon="5.54629">
        <ele>1518.57</ele>
        <time>2016-06-03T12:54:16Z</time>
      </trkpt>
      <trkpt lat="45.23262" lon="5.54631">
        <ele>1518.83</ele>
        <time>2016-06-03T12:54:17Z</time>
      </trkpt>
      <trkpt lat="45.23262" lon="5.54634">
        <ele>1519.09</ele>
        <time>2016-06-03T12:54:18Z</time>
      </trkpt>
      <trkpt lat="45.23262" lon="5.54636">
        <ele>1519.36</ele>
        <time>2016-06-03T12:54:19Z</time>
      </trkpt>
      <trkpt lat="45.23262" lon="5.54637">
        <ele>1519.66</ele>
        <time>2016-06-03T12:54:20Z</time>
      </trkpt>
      <trkpt lat="45.23262" lon="5.54639">
        <ele>1519.96</ele>
        <time>2016-06-03T12:54:21Z</time>
      </trkpt>
      <trkpt lat="45.23262" lon="5.54641">
        <ele>1520.27</ele>
        <time>2016-06-03T12:54:22Z</time>
      </trkpt>
      <trkpt lat="45.23256" lon="5.54655">
        <ele>1523.4</ele>
        <time>2016-06-03T12:54:35Z</time>
      </trkpt>
      <trkpt lat="45.2325" lon="5.54661">
        <ele>1525.48</ele>
        <time>2016-06-03T12:54:56Z</time>
      </trkpt>
      <trkpt lat="45.23246" lon="5.54665">
        <ele>1526.43</ele>
        <time>2016-06-03T12:55:05Z</time>
      </trkpt>
      <trkpt lat="45.23242" lon="5.54676">
        <ele>1526.67</ele>
        <time>2016-06-03T12:55:13Z</time>
      </trkpt>
      <trkpt lat="45.23242" lon="5.54677">
        <ele>1526.69</ele>
        <time>2016-06-03T12:55:14Z</time>
      </trkpt>
      <trkpt lat="45.23241" lon="5.54679">
        <ele>1526.71</ele>
        <time>2016-06-03T12:55:15Z</time>
      </trkpt>
      <trkpt lat="45.23241" lon="5.54681">
        <ele>1526.74</ele>
        <time>2016-06-03T12:55:16Z</time>
      </trkpt>
      <trkpt lat="45.23241" lon="5.54683">
        <ele>1526.77</ele>
        <time>2016-06-03T12:55:17Z</time>
      </trkpt>
      <trkpt lat="45.2324" lon="5.54685">
        <ele>1526.79</ele>
        <time>2016-06-03T12:55:18Z</time>
      </trkpt>
      <trkpt lat="45.23239" lon="5.54686">
        <ele>1526.86</ele>
        <time>2016-06-03T12:55:19Z</time>
      </trkpt>
      <trkpt lat="45.23236" lon="5.5469">
        <ele>1527.7</ele>
        <time>2016-06-03T12:55:24Z</time>
      </trkpt>
      <trkpt lat="45.23234" lon="5.54694">
        <ele>1528.09</ele>
        <time>2016-06-03T12:55:27Z</time>
      </trkpt>
      <trkpt lat="45.23234" lon="5.54696">
        <ele>1528.18</ele>
        <time>2016-06-03T12:55:28Z</time>
      </trkpt>
      <trkpt lat="45.23233" lon="5.54697">
        <ele>1528.23</ele>
        <time>2016-06-03T12:55:29Z</time>
      </trkpt>
      <trkpt lat="45.23232" lon="5.54699">
        <ele>1528.27</ele>
        <time>2016-06-03T12:55:30Z</time>
      </trkpt>
      <trkpt lat="45.2323" lon="5.54702">
        <ele>1528.28</ele>
        <time>2016-06-03T12:55:31Z</time>
      </trkpt>
      <trkpt lat="45.23216" lon="5.54746">
        <ele>1526.62</ele>
        <time>2016-06-03T12:55:43Z</time>
      </trkpt>
      <trkpt lat="45.23209" lon="5.54791">
        <ele>1524.21</ele>
        <time>2016-06-03T12:55:53Z</time>
      </trkpt>
      <trkpt lat="45.23209" lon="5.54799">
        <ele>1523.75</ele>
        <time>2016-06-03T12:55:55Z</time>
      </trkpt>
      <trkpt lat="45.23208" lon="5.54803">
        <ele>1523.45</ele>
        <time>2016-06-03T12:55:56Z</time>
      </trkpt>
      <trkpt lat="45.23206" lon="5.54814">
        <ele>1520.59</ele>
        <time>2016-06-03T12:56:07Z</time>
      </trkpt>
      <trkpt lat="45.23204" lon="5.54819">
        <ele>1520.31</ele>
        <time>2016-06-03T12:56:29Z</time>
      </trkpt>
      <trkpt lat="45.23202" lon="5.54826">
        <ele>1520.16</ele>
        <time>2016-06-03T12:56:44Z</time>
      </trkpt>
      <trkpt lat="45.23201" lon="5.54828">
        <ele>1520.17</ele>
        <time>2016-06-03T12:56:45Z</time>
      </trkpt>
      <trkpt lat="45.23201" lon="5.5483">
        <ele>1520.17</ele>
        <time>2016-06-03T12:56:46Z</time>
      </trkpt>
      <trkpt lat="45.232" lon="5.54832">
        <ele>1520.17</ele>
        <time>2016-06-03T12:56:47Z</time>
      </trkpt>
      <trkpt lat="45.232" lon="5.54835">
        <ele>1520.15</ele>
        <time>2016-06-03T12:56:48Z</time>
      </trkpt>
      <trkpt lat="45.23199" lon="5.54839">
        <ele>1519.96</ele>
        <time>2016-06-03T12:56:49Z</time>
      </trkpt>
      <trkpt lat="45.23196" lon="5.54848">
        <ele>1519.03</ele>
        <time>2016-06-03T12:56:52Z</time>
      </trkpt>
      <trkpt lat="45.23195" lon="5.5485">
        <ele>1518.68</ele>
        <time>2016-06-03T12:56:53Z</time>
      </trkpt>
      <trkpt lat="45.23183" lon="5.54874">
        <ele>1515.58</ele>
        <time>2016-06-03T12:57:01Z</time>
      </trkpt>
      <trkpt lat="45.23169" lon="5.54886">
        <ele>1512.16</ele>
        <time>2016-06-03T12:57:08Z</time>
      </trkpt>
      <trkpt lat="45.23155" lon="5.54893">
        <ele>1508.98</ele>
        <time>2016-06-03T12:57:15Z</time>
      </trkpt>
      <trkpt lat="45.23136" lon="5.54898">
        <ele>1505.95</ele>
        <time>2016-06-03T12:57:22Z</time>
      </trkpt>
      <trkpt lat="45.23119" lon="5.54902">
        <ele>1502.7</ele>
        <time>2016-06-03T12:57:28Z</time>
      </trkpt>
      <trkpt lat="45.23107" lon="5.54911">
        <ele>1499.65</ele>
        <time>2016-06-03T12:57:36Z</time>
      </trkpt>
      <trkpt lat="45.23103" lon="5.54916">
        <ele>1497.84</ele>
        <time>2016-06-03T12:57:41Z</time>
      </trkpt>
      <trkpt lat="45.23101" lon="5.54917">
        <ele>1497.6</ele>
        <time>2016-06-03T12:57:42Z</time>
      </trkpt>
      <trkpt lat="45.23098" lon="5.54919">
        <ele>1497.37</ele>
        <time>2016-06-03T12:57:43Z</time>
      </trkpt>
      <trkpt lat="45.23081" lon="5.54938">
        <ele>1494.33</ele>
        <time>2016-06-03T12:57:50Z</time>
      </trkpt>
      <trkpt lat="45.23065" lon="5.54955">
        <ele>1491.23</ele>
        <time>2016-06-03T12:57:56Z</time>
      </trkpt>
      <trkpt lat="45.23063" lon="5.54961">
        <ele>1490.37</ele>
        <time>2016-06-03T12:57:58Z</time>
      </trkpt>
      <trkpt lat="45.23063" lon="5.54964">
        <ele>1490</ele>
        <time>2016-06-03T12:57:59Z</time>
      </trkpt>
      <trkpt lat="45.23063" lon="5.54967">
        <ele>1489.64</ele>
        <time>2016-06-03T12:58:00Z</time>
      </trkpt>
      <trkpt lat="45.23064" lon="5.54969">
        <ele>1489.23</ele>
        <time>2016-06-03T12:58:01Z</time>
      </trkpt>
      <trkpt lat="45.23065" lon="5.54972">
        <ele>1488.45</ele>
        <time>2016-06-03T12:58:02Z</time>
      </trkpt>
      <trkpt lat="45.23066" lon="5.54974">
        <ele>1488.04</ele>
        <time>2016-06-03T12:58:03Z</time>
      </trkpt>
      <trkpt lat="45.23067" lon="5.54976">
        <ele>1487.62</ele>
        <time>2016-06-03T12:58:04Z</time>
      </trkpt>
      <trkpt lat="45.23067" lon="5.54978">
        <ele>1487.21</ele>
        <time>2016-06-03T12:58:05Z</time>
      </trkpt>
      <trkpt lat="45.23068" lon="5.54979">
        <ele>1486.83</ele>
        <time>2016-06-03T12:58:06Z</time>
      </trkpt>
      <trkpt lat="45.23068" lon="5.54981">
        <ele>1486.44</ele>
        <time>2016-06-03T12:58:07Z</time>
      </trkpt>
      <trkpt lat="45.23069" lon="5.54982">
        <ele>1486.02</ele>
        <time>2016-06-03T12:58:08Z</time>
      </trkpt>
      <trkpt lat="45.23074" lon="5.54996">
        <ele>1484.41</ele>
        <time>2016-06-03T12:58:12Z</time>
      </trkpt>
      <trkpt lat="45.23077" lon="5.55002">
        <ele>1483.93</ele>
        <time>2016-06-03T12:58:13Z</time>
      </trkpt>
      <trkpt lat="45.2309" lon="5.55029">
        <ele>1481.19</ele>
        <time>2016-06-03T12:58:22Z</time>
      </trkpt>
      <trkpt lat="45.23105" lon="5.55035">
        <ele>1479.99</ele>
        <time>2016-06-03T12:58:29Z</time>
      </trkpt>
      <trkpt lat="45.23106" lon="5.55036">
        <ele>1479.86</ele>
        <time>2016-06-03T12:58:30Z</time>
      </trkpt>
      <trkpt lat="45.23108" lon="5.55037">
        <ele>1479.75</ele>
        <time>2016-06-03T12:58:31Z</time>
      </trkpt>
      <trkpt lat="45.23109" lon="5.55037">
        <ele>1479.6</ele>
        <time>2016-06-03T12:58:32Z</time>
      </trkpt>
      <trkpt lat="45.2311" lon="5.55038">
        <ele>1479.35</ele>
        <time>2016-06-03T12:58:33Z</time>
      </trkpt>
      <trkpt lat="45.23123" lon="5.55045">
        <ele>1476.22</ele>
        <time>2016-06-03T12:58:41Z</time>
      </trkpt>
      <trkpt lat="45.23134" lon="5.55058">
        <ele>1472.56</ele>
        <time>2016-06-03T12:58:47Z</time>
      </trkpt>
      <trkpt lat="45.23141" lon="5.55063">
        <ele>1470.37</ele>
        <time>2016-06-03T12:58:51Z</time>
      </trkpt>
      <trkpt lat="45.23156" lon="5.55072">
        <ele>1467.25</ele>
        <time>2016-06-03T12:58:56Z</time>
      </trkpt>
      <trkpt lat="45.23167" lon="5.55077">
        <ele>1463.9</ele>
        <time>2016-06-03T12:59:02Z</time>
      </trkpt>
      <trkpt lat="45.23185" lon="5.55087">
        <ele>1460.43</ele>
        <time>2016-06-03T12:59:10Z</time>
      </trkpt>
      <trkpt lat="45.23197" lon="5.55096">
        <ele>1458.2</ele>
        <time>2016-06-03T12:59:15Z</time>
      </trkpt>
      <trkpt lat="45.23216" lon="5.55107">
        <ele>1454.95</ele>
        <time>2016-06-03T12:59:24Z</time>
      </trkpt>
      <trkpt lat="45.23231" lon="5.55116">
        <ele>1451.67</ele>
        <time>2016-06-03T12:59:30Z</time>
      </trkpt>
      <trkpt lat="45.23243" lon="5.55127">
        <ele>1448.47</ele>
        <time>2016-06-03T12:59:35Z</time>
      </trkpt>
      <trkpt lat="45.23252" lon="5.55133">
        <ele>1445.27</ele>
        <time>2016-06-03T12:59:40Z</time>
      </trkpt>
      <trkpt lat="45.23258" lon="5.55137">
        <ele>1442.85</ele>
        <time>2016-06-03T12:59:43Z</time>
      </trkpt>
      <trkpt lat="45.23259" lon="5.55139">
        <ele>1442.35</ele>
        <time>2016-06-03T12:59:44Z</time>
      </trkpt>
      <trkpt lat="45.23261" lon="5.55141">
        <ele>1441.93</ele>
        <time>2016-06-03T12:59:45Z</time>
      </trkpt>
      <trkpt lat="45.2327" lon="5.55154">
        <ele>1439.65</ele>
        <time>2016-06-03T12:59:52Z</time>
      </trkpt>
      <trkpt lat="45.23272" lon="5.55155">
        <ele>1439.28</ele>
        <time>2016-06-03T12:59:53Z</time>
      </trkpt>
      <trkpt lat="45.23273" lon="5.55156">
        <ele>1438.9</ele>
        <time>2016-06-03T12:59:54Z</time>
      </trkpt>
      <trkpt lat="45.23275" lon="5.55158">
        <ele>1438.52</ele>
        <time>2016-06-03T12:59:55Z</time>
      </trkpt>
      <trkpt lat="45.23276" lon="5.55159">
        <ele>1438.12</ele>
        <time>2016-06-03T12:59:56Z</time>
      </trkpt>
      <trkpt lat="45.23278" lon="5.5516">
        <ele>1437.7</ele>
        <time>2016-06-03T12:59:57Z</time>
      </trkpt>
      <trkpt lat="45.23279" lon="5.55163">
        <ele>1436.78</ele>
        <time>2016-06-03T12:59:59Z</time>
      </trkpt>
      <trkpt lat="45.23278" lon="5.55166">
        <ele>1435.8</ele>
        <time>2016-06-03T13:00:01Z</time>
      </trkpt>
      <trkpt lat="45.23276" lon="5.55168">
        <ele>1434.66</ele>
        <time>2016-06-03T13:00:02Z</time>
      </trkpt>
      <trkpt lat="45.23275" lon="5.55169">
        <ele>1434.66</ele>
        <time>2016-06-03T13:00:03Z</time>
      </trkpt>
      <trkpt lat="45.23272" lon="5.55172">
        <ele>1431.58</ele>
        <time>2016-06-03T13:00:10Z</time>
      </trkpt>
      <trkpt lat="45.23274" lon="5.55177">
        <ele>1430.78</ele>
        <time>2016-06-03T13:00:36Z</time>
      </trkpt>
      <trkpt lat="45.23275" lon="5.55176">
        <ele>1430.04</ele>
        <time>2016-06-03T13:01:00Z</time>
      </trkpt>
      <trkpt lat="45.23281" lon="5.55174">
        <ele>1429.39</ele>
        <time>2016-06-03T13:01:30Z</time>
      </trkpt>
      <trkpt lat="45.23278" lon="5.55167">
        <ele>1429.52</ele>
        <time>2016-06-03T13:01:55Z</time>
      </trkpt>
      <trkpt lat="45.23274" lon="5.55175">
        <ele>1429.33</ele>
        <time>2016-06-03T13:02:23Z</time>
      </trkpt>
      <trkpt lat="45.23273" lon="5.5518">
        <ele>1430.02</ele>
        <time>2016-06-03T13:02:48Z</time>
      </trkpt>
      <trkpt lat="45.23271" lon="5.5518">
        <ele>1430.04</ele>
        <time>2016-06-03T13:03:07Z</time>
      </trkpt>
      <trkpt lat="45.2327" lon="5.55179">
        <ele>1429.97</ele>
        <time>2016-06-03T13:03:34Z</time>
      </trkpt>
      <trkpt lat="45.23267" lon="5.55177">
        <ele>1430.24</ele>
        <time>2016-06-03T13:04:04Z</time>
      </trkpt>
      <trkpt lat="45.23269" lon="5.55186">
        <ele>1429.99</ele>
        <time>2016-06-03T13:04:34Z</time>
      </trkpt>
      <trkpt lat="45.23267" lon="5.55189">
        <ele>1429.92</ele>
        <time>2016-06-03T13:04:41Z</time>
      </trkpt>
      <trkpt lat="45.23267" lon="5.55186">
        <ele>1429.9</ele>
        <time>2016-06-03T13:05:12Z</time>
      </trkpt>
      <trkpt lat="45.23264" lon="5.55187">
        <ele>1429.86</ele>
        <time>2016-06-03T13:05:36Z</time>
      </trkpt>
      <trkpt lat="45.23263" lon="5.55187">
        <ele>1429.8</ele>
        <time>2016-06-03T13:05:37Z</time>
      </trkpt>
      <trkpt lat="45.23261" lon="5.55188">
        <ele>1429.74</ele>
        <time>2016-06-03T13:05:38Z</time>
      </trkpt>
      <trkpt lat="45.23259" lon="5.55188">
        <ele>1429.49</ele>
        <time>2016-06-03T13:05:40Z</time>
      </trkpt>
      <trkpt lat="45.23255" lon="5.55187">
        <ele>1429.06</ele>
        <time>2016-06-03T13:05:42Z</time>
      </trkpt>
      <trkpt lat="45.23254" lon="5.55187">
        <ele>1428.78</ele>
        <time>2016-06-03T13:05:43Z</time>
      </trkpt>
      <trkpt lat="45.23251" lon="5.55187">
        <ele>1428.51</ele>
        <time>2016-06-03T13:05:44Z</time>
      </trkpt>
      <trkpt lat="45.23249" lon="5.55189">
        <ele>1428.26</ele>
        <time>2016-06-03T13:05:45Z</time>
      </trkpt>
      <trkpt lat="45.23246" lon="5.55191">
        <ele>1428.03</ele>
        <time>2016-06-03T13:05:46Z</time>
      </trkpt>
      <trkpt lat="45.23244" lon="5.55194">
        <ele>1427.8</ele>
        <time>2016-06-03T13:05:47Z</time>
      </trkpt>
      <trkpt lat="45.23241" lon="5.55197">
        <ele>1427.54</ele>
        <time>2016-06-03T13:05:48Z</time>
      </trkpt>
      <trkpt lat="45.23238" lon="5.552">
        <ele>1427.23</ele>
        <time>2016-06-03T13:05:49Z</time>
      </trkpt>
      <trkpt lat="45.23235" lon="5.55203">
        <ele>1426.41</ele>
        <time>2016-06-03T13:05:50Z</time>
      </trkpt>
      <trkpt lat="45.23231" lon="5.55206">
        <ele>1426.41</ele>
        <time>2016-06-03T13:05:51Z</time>
      </trkpt>
      <trkpt lat="45.23212" lon="5.55223">
        <ele>1422.81</ele>
        <time>2016-06-03T13:05:57Z</time>
      </trkpt>
      <trkpt lat="45.23196" lon="5.55227">
        <ele>1420.18</ele>
        <time>2016-06-03T13:06:01Z</time>
      </trkpt>
      <trkpt lat="45.23191" lon="5.55228">
        <ele>1419.59</ele>
        <time>2016-06-03T13:06:02Z</time>
      </trkpt>
      <trkpt lat="45.23186" lon="5.5523">
        <ele>1419.05</ele>
        <time>2016-06-03T13:06:03Z</time>
      </trkpt>
      <trkpt lat="45.23181" lon="5.55232">
        <ele>1418.58</ele>
        <time>2016-06-03T13:06:04Z</time>
      </trkpt>
      <trkpt lat="45.23177" lon="5.55233">
        <ele>1418.17</ele>
        <time>2016-06-03T13:06:05Z</time>
      </trkpt>
      <trkpt lat="45.23173" lon="5.55236">
        <ele>1417.79</ele>
        <time>2016-06-03T13:06:06Z</time>
      </trkpt>
      <trkpt lat="45.2317" lon="5.55237">
        <ele>1417.45</ele>
        <time>2016-06-03T13:06:07Z</time>
      </trkpt>
      <trkpt lat="45.23167" lon="5.55238">
        <ele>1417.1</ele>
        <time>2016-06-03T13:06:08Z</time>
      </trkpt>
      <trkpt lat="45.23162" lon="5.55239">
        <ele>1416.73</ele>
        <time>2016-06-03T13:06:09Z</time>
      </trkpt>
      <trkpt lat="45.23157" lon="5.55239">
        <ele>1416.36</ele>
        <time>2016-06-03T13:06:10Z</time>
      </trkpt>
      <trkpt lat="45.23152" lon="5.5524">
        <ele>1416.01</ele>
        <time>2016-06-03T13:06:11Z</time>
      </trkpt>
      <trkpt lat="45.23149" lon="5.55241">
        <ele>1415.67</ele>
        <time>2016-06-03T13:06:12Z</time>
      </trkpt>
      <trkpt lat="45.23147" lon="5.55242">
        <ele>1415.32</ele>
        <time>2016-06-03T13:06:13Z</time>
      </trkpt>
      <trkpt lat="45.23144" lon="5.55244">
        <ele>1415</ele>
        <time>2016-06-03T13:06:14Z</time>
      </trkpt>
      <trkpt lat="45.2314" lon="5.55246">
        <ele>1414.71</ele>
        <time>2016-06-03T13:06:15Z</time>
      </trkpt>
      <trkpt lat="45.23136" lon="5.55248">
        <ele>1414.4</ele>
        <time>2016-06-03T13:06:16Z</time>
      </trkpt>
      <trkpt lat="45.23132" lon="5.5525">
        <ele>1414.04</ele>
        <time>2016-06-03T13:06:17Z</time>
      </trkpt>
      <trkpt lat="45.23128" lon="5.55252">
        <ele>1413.66</ele>
        <time>2016-06-03T13:06:18Z</time>
      </trkpt>
      <trkpt lat="45.23125" lon="5.55255">
        <ele>1412.99</ele>
        <time>2016-06-03T13:06:19Z</time>
      </trkpt>
      <trkpt lat="45.23122" lon="5.55258">
        <ele>1412.71</ele>
        <time>2016-06-03T13:06:20Z</time>
      </trkpt>
      <trkpt lat="45.23119" lon="5.55261">
        <ele>1412.47</ele>
        <time>2016-06-03T13:06:21Z</time>
      </trkpt>
      <trkpt lat="45.23088" lon="5.5528">
        <ele>1408.87</ele>
        <time>2016-06-03T13:06:30Z</time>
      </trkpt>
      <trkpt lat="45.23075" lon="5.55296">
        <ele>1405.77</ele>
        <time>2016-06-03T13:06:35Z</time>
      </trkpt>
      <trkpt lat="45.23074" lon="5.55299">
        <ele>1405.16</ele>
        <time>2016-06-03T13:06:36Z</time>
      </trkpt>
      <trkpt lat="45.23075" lon="5.55303">
        <ele>1404.6</ele>
        <time>2016-06-03T13:06:37Z</time>
      </trkpt>
      <trkpt lat="45.23077" lon="5.55307">
        <ele>1404.1</ele>
        <time>2016-06-03T13:06:38Z</time>
      </trkpt>
      <trkpt lat="45.23078" lon="5.55311">
        <ele>1403.61</ele>
        <time>2016-06-03T13:06:39Z</time>
      </trkpt>
      <trkpt lat="45.23079" lon="5.55314">
        <ele>1403.12</ele>
        <time>2016-06-03T13:06:40Z</time>
      </trkpt>
      <trkpt lat="45.2308" lon="5.55317">
        <ele>1402.63</ele>
        <time>2016-06-03T13:06:41Z</time>
      </trkpt>
      <trkpt lat="45.23082" lon="5.5532">
        <ele>1402.2</ele>
        <time>2016-06-03T13:06:42Z</time>
      </trkpt>
      <trkpt lat="45.23082" lon="5.55323">
        <ele>1401.79</ele>
        <time>2016-06-03T13:06:43Z</time>
      </trkpt>
      <trkpt lat="45.23083" lon="5.55325">
        <ele>1400.87</ele>
        <time>2016-06-03T13:06:44Z</time>
      </trkpt>
      <trkpt lat="45.23083" lon="5.55328">
        <ele>1400.47</ele>
        <time>2016-06-03T13:06:45Z</time>
      </trkpt>
      <trkpt lat="45.23082" lon="5.55331">
        <ele>1400.11</ele>
        <time>2016-06-03T13:06:46Z</time>
      </trkpt>
      <trkpt lat="45.2308" lon="5.55334">
        <ele>1399.76</ele>
        <time>2016-06-03T13:06:47Z</time>
      </trkpt>
      <trkpt lat="45.23079" lon="5.55336">
        <ele>1399.37</ele>
        <time>2016-06-03T13:06:48Z</time>
      </trkpt>
      <trkpt lat="45.23077" lon="5.55338">
        <ele>1399.02</ele>
        <time>2016-06-03T13:06:49Z</time>
      </trkpt>
      <trkpt lat="45.23075" lon="5.55338">
        <ele>1398.7</ele>
        <time>2016-06-03T13:06:50Z</time>
      </trkpt>
      <trkpt lat="45.23073" lon="5.55338">
        <ele>1398.4</ele>
        <time>2016-06-03T13:06:51Z</time>
      </trkpt>
      <trkpt lat="45.23067" lon="5.55341">
        <ele>1396.8</ele>
        <time>2016-06-03T13:07:02Z</time>
      </trkpt>
      <trkpt lat="45.23062" lon="5.55342">
        <ele>1396.8</ele>
        <time>2016-06-03T13:07:06Z</time>
      </trkpt>
      <trkpt lat="45.2306" lon="5.55342">
        <ele>1396.79</ele>
        <time>2016-06-03T13:07:07Z</time>
      </trkpt>
      <trkpt lat="45.23058" lon="5.55342">
        <ele>1396.75</ele>
        <time>2016-06-03T13:07:08Z</time>
      </trkpt>
      <trkpt lat="45.23056" lon="5.55343">
        <ele>1396.7</ele>
        <time>2016-06-03T13:07:09Z</time>
      </trkpt>
      <trkpt lat="45.23053" lon="5.55344">
        <ele>1396.61</ele>
        <time>2016-06-03T13:07:10Z</time>
      </trkpt>
      <trkpt lat="45.2305" lon="5.55346">
        <ele>1396.51</ele>
        <time>2016-06-03T13:07:11Z</time>
      </trkpt>
      <trkpt lat="45.23047" lon="5.55348">
        <ele>1396.41</ele>
        <time>2016-06-03T13:07:12Z</time>
      </trkpt>
      <trkpt lat="45.23012" lon="5.55363">
        <ele>1393</ele>
        <time>2016-06-03T13:07:22Z</time>
      </trkpt>
      <trkpt lat="45.22988" lon="5.55376">
        <ele>1389.59</ele>
        <time>2016-06-03T13:07:30Z</time>
      </trkpt>
      <trkpt lat="45.22984" lon="5.5538">
        <ele>1389.04</ele>
        <time>2016-06-03T13:07:31Z</time>
      </trkpt>
      <trkpt lat="45.22981" lon="5.55385">
        <ele>1387.91</ele>
        <time>2016-06-03T13:07:32Z</time>
      </trkpt>
      <trkpt lat="45.22977" lon="5.55389">
        <ele>1387.25</ele>
        <time>2016-06-03T13:07:33Z</time>
      </trkpt>
      <trkpt lat="45.22973" lon="5.55391">
        <ele>1386.55</ele>
        <time>2016-06-03T13:07:34Z</time>
      </trkpt>
      <trkpt lat="45.22969" lon="5.5539">
        <ele>1385.92</ele>
        <time>2016-06-03T13:07:35Z</time>
      </trkpt>
      <trkpt lat="45.22966" lon="5.55388">
        <ele>1385.37</ele>
        <time>2016-06-03T13:07:36Z</time>
      </trkpt>
      <trkpt lat="45.22963" lon="5.55386">
        <ele>1384.91</ele>
        <time>2016-06-03T13:07:37Z</time>
      </trkpt>
      <trkpt lat="45.2296" lon="5.55385">
        <ele>1384.54</ele>
        <time>2016-06-03T13:07:38Z</time>
      </trkpt>
      <trkpt lat="45.22934" lon="5.55369">
        <ele>1384.68</ele>
        <time>2016-06-03T13:07:49Z</time>
      </trkpt>
      <trkpt lat="45.2293" lon="5.55368">
        <ele>1385.06</ele>
        <time>2016-06-03T13:07:51Z</time>
      </trkpt>
      <trkpt lat="45.22928" lon="5.55368">
        <ele>1385.25</ele>
        <time>2016-06-03T13:07:52Z</time>
      </trkpt>
      <trkpt lat="45.22926" lon="5.55367">
        <ele>1385.43</ele>
        <time>2016-06-03T13:07:53Z</time>
      </trkpt>
      <trkpt lat="45.22924" lon="5.55366">
        <ele>1385.64</ele>
        <time>2016-06-03T13:07:54Z</time>
      </trkpt>
      <trkpt lat="45.22922" lon="5.55365">
        <ele>1385.84</ele>
        <time>2016-06-03T13:07:55Z</time>
      </trkpt>
      <trkpt lat="45.22919" lon="5.55364">
        <ele>1386.18</ele>
        <time>2016-06-03T13:07:56Z</time>
      </trkpt>
      <trkpt lat="45.22917" lon="5.55362">
        <ele>1386.32</ele>
        <time>2016-06-03T13:07:57Z</time>
      </trkpt>
      <trkpt lat="45.22911" lon="5.55358">
        <ele>1386.57</ele>
        <time>2016-06-03T13:08:00Z</time>
      </trkpt>
      <trkpt lat="45.22908" lon="5.55357">
        <ele>1386.62</ele>
        <time>2016-06-03T13:08:01Z</time>
      </trkpt>
      <trkpt lat="45.2288" lon="5.55346">
        <ele>1387.73</ele>
        <time>2016-06-03T13:08:14Z</time>
      </trkpt>
      <trkpt lat="45.2286" lon="5.55337">
        <ele>1390.28</ele>
        <time>2016-06-03T13:08:26Z</time>
      </trkpt>
      <trkpt lat="45.22833" lon="5.5533">
        <ele>1392.4</ele>
        <time>2016-06-03T13:08:40Z</time>
      </trkpt>
      <trkpt lat="45.22816" lon="5.5533">
        <ele>1394.63</ele>
        <time>2016-06-03T13:08:51Z</time>
      </trkpt>
      <trkpt lat="45.22786" lon="5.55331">
        <ele>1394.56</ele>
        <time>2016-06-03T13:09:04Z</time>
      </trkpt>
      <trkpt lat="45.22747" lon="5.5534">
        <ele>1394.08</ele>
        <time>2016-06-03T13:09:15Z</time>
      </trkpt>
      <trkpt lat="45.22741" lon="5.55341">
        <ele>1393.78</ele>
        <time>2016-06-03T13:09:16Z</time>
      </trkpt>
      <trkpt lat="45.22736" lon="5.55342">
        <ele>1393.43</ele>
        <time>2016-06-03T13:09:17Z</time>
      </trkpt>
      <trkpt lat="45.2273" lon="5.55342">
        <ele>1393.08</ele>
        <time>2016-06-03T13:09:18Z</time>
      </trkpt>
      <trkpt lat="45.22719" lon="5.5534">
        <ele>1392.4</ele>
        <time>2016-06-03T13:09:20Z</time>
      </trkpt>
      <trkpt lat="45.22714" lon="5.5534">
        <ele>1392.09</ele>
        <time>2016-06-03T13:09:21Z</time>
      </trkpt>
      <trkpt lat="45.2268" lon="5.55342">
        <ele>1390.37</ele>
        <time>2016-06-03T13:09:28Z</time>
      </trkpt>
      <trkpt lat="45.22675" lon="5.55344">
        <ele>1390.21</ele>
        <time>2016-06-03T13:09:29Z</time>
      </trkpt>
      <trkpt lat="45.2267" lon="5.55346">
        <ele>1390.05</ele>
        <time>2016-06-03T13:09:30Z</time>
      </trkpt>
      <trkpt lat="45.22641" lon="5.55357">
        <ele>1388.59</ele>
        <time>2016-06-03T13:09:37Z</time>
      </trkpt>
      <trkpt lat="45.22636" lon="5.55357">
        <ele>1388.43</ele>
        <time>2016-06-03T13:09:38Z</time>
      </trkpt>
      <trkpt lat="45.2263" lon="5.55358">
        <ele>1388.23</ele>
        <time>2016-06-03T13:09:39Z</time>
      </trkpt>
      <trkpt lat="45.22625" lon="5.55359">
        <ele>1387.97</ele>
        <time>2016-06-03T13:09:40Z</time>
      </trkpt>
      <trkpt lat="45.22618" lon="5.55361">
        <ele>1387.64</ele>
        <time>2016-06-03T13:09:41Z</time>
      </trkpt>
      <trkpt lat="45.22607" lon="5.55364">
        <ele>1386.9</ele>
        <time>2016-06-03T13:09:43Z</time>
      </trkpt>
      <trkpt lat="45.22561" lon="5.55371">
        <ele>1384.92</ele>
        <time>2016-06-03T13:09:54Z</time>
      </trkpt>
      <trkpt lat="45.22517" lon="5.5537">
        <ele>1385.7</ele>
        <time>2016-06-03T13:10:06Z</time>
      </trkpt>
      <trkpt lat="45.22499" lon="5.55368">
        <ele>1385.82</ele>
        <time>2016-06-03T13:10:18Z</time>
      </trkpt>
      <trkpt lat="45.22489" lon="5.55366">
        <ele>1385.3</ele>
        <time>2016-06-03T13:10:46Z</time>
      </trkpt>
      <trkpt lat="45.22482" lon="5.55369">
        <ele>1385.37</ele>
        <time>2016-06-03T13:11:11Z</time>
      </trkpt>
      <trkpt lat="45.22481" lon="5.55371">
        <ele>1385.35</ele>
        <time>2016-06-03T13:11:12Z</time>
      </trkpt>
      <trkpt lat="45.22478" lon="5.55373">
        <ele>1385.31</ele>
        <time>2016-06-03T13:11:13Z</time>
      </trkpt>
      <trkpt lat="45.22475" lon="5.55375">
        <ele>1385.22</ele>
        <time>2016-06-03T13:11:14Z</time>
      </trkpt>
      <trkpt lat="45.22472" lon="5.55378">
        <ele>1385.1</ele>
        <time>2016-06-03T13:11:15Z</time>
      </trkpt>
      <trkpt lat="45.22465" lon="5.55382">
        <ele>1384.58</ele>
        <time>2016-06-03T13:11:17Z</time>
      </trkpt>
      <trkpt lat="45.2246" lon="5.55384">
        <ele>1384.1</ele>
        <time>2016-06-03T13:11:18Z</time>
      </trkpt>
      <trkpt lat="45.22453" lon="5.55385">
        <ele>1383.48</ele>
        <time>2016-06-03T13:11:19Z</time>
      </trkpt>
      <trkpt lat="45.22446" lon="5.55387">
        <ele>1382.74</ele>
        <time>2016-06-03T13:11:20Z</time>
      </trkpt>
      <trkpt lat="45.22439" lon="5.55387">
        <ele>1381.93</ele>
        <time>2016-06-03T13:11:21Z</time>
      </trkpt>
      <trkpt lat="45.22433" lon="5.55386">
        <ele>1381.15</ele>
        <time>2016-06-03T13:11:22Z</time>
      </trkpt>
      <trkpt lat="45.22429" lon="5.55385">
        <ele>1380.52</ele>
        <time>2016-06-03T13:11:23Z</time>
      </trkpt>
      <trkpt lat="45.22425" lon="5.55384">
        <ele>1380</ele>
        <time>2016-06-03T13:11:24Z</time>
      </trkpt>
      <trkpt lat="45.22422" lon="5.55382">
        <ele>1379.59</ele>
        <time>2016-06-03T13:11:25Z</time>
      </trkpt>
      <trkpt lat="45.22419" lon="5.55381">
        <ele>1379.31</ele>
        <time>2016-06-03T13:11:26Z</time>
      </trkpt>
      <trkpt lat="45.22416" lon="5.5538">
        <ele>1379.13</ele>
        <time>2016-06-03T13:11:27Z</time>
      </trkpt>
      <trkpt lat="45.22414" lon="5.55379">
        <ele>1379.02</ele>
        <time>2016-06-03T13:11:28Z</time>
      </trkpt>
      <trkpt lat="45.22412" lon="5.55378">
        <ele>1379.01</ele>
        <time>2016-06-03T13:11:29Z</time>
      </trkpt>
      <trkpt lat="45.22391" lon="5.5537">
        <ele>1381.53</ele>
        <time>2016-06-03T13:11:38Z</time>
      </trkpt>
      <trkpt lat="45.22383" lon="5.55364">
        <ele>1383.32</ele>
        <time>2016-06-03T13:11:43Z</time>
      </trkpt>
      <trkpt lat="45.22378" lon="5.55361">
        <ele>1384.53</ele>
        <time>2016-06-03T13:11:46Z</time>
      </trkpt>
      <trkpt lat="45.22376" lon="5.5536">
        <ele>1384.98</ele>
        <time>2016-06-03T13:11:47Z</time>
      </trkpt>
      <trkpt lat="45.22374" lon="5.55359">
        <ele>1385.43</ele>
        <time>2016-06-03T13:11:48Z</time>
      </trkpt>
      <trkpt lat="45.22373" lon="5.55357">
        <ele>1385.84</ele>
        <time>2016-06-03T13:11:49Z</time>
      </trkpt>
      <trkpt lat="45.22371" lon="5.55356">
        <ele>1386.19</ele>
        <time>2016-06-03T13:11:50Z</time>
      </trkpt>
      <trkpt lat="45.2237" lon="5.55354">
        <ele>1386.51</ele>
        <time>2016-06-03T13:11:51Z</time>
      </trkpt>
      <trkpt lat="45.22368" lon="5.55353">
        <ele>1386.78</ele>
        <time>2016-06-03T13:11:52Z</time>
      </trkpt>
      <trkpt lat="45.22367" lon="5.55353">
        <ele>1386.99</ele>
        <time>2016-06-03T13:11:53Z</time>
      </trkpt>
      <trkpt lat="45.22365" lon="5.55352">
        <ele>1387.17</ele>
        <time>2016-06-03T13:11:54Z</time>
      </trkpt>
      <trkpt lat="45.22346" lon="5.55347">
        <ele>1389.91</ele>
        <time>2016-06-03T13:12:06Z</time>
      </trkpt>
      <trkpt lat="45.22336" lon="5.55347">
        <ele>1390.41</ele>
        <time>2016-06-03T13:12:17Z</time>
      </trkpt>
      <trkpt lat="45.22333" lon="5.55348">
        <ele>1390.23</ele>
        <time>2016-06-03T13:12:21Z</time>
      </trkpt>
      <trkpt lat="45.22331" lon="5.55349">
        <ele>1390.21</ele>
        <time>2016-06-03T13:12:22Z</time>
      </trkpt>
      <trkpt lat="45.22328" lon="5.5535">
        <ele>1390.18</ele>
        <time>2016-06-03T13:12:23Z</time>
      </trkpt>
      <trkpt lat="45.22325" lon="5.55351">
        <ele>1390.16</ele>
        <time>2016-06-03T13:12:24Z</time>
      </trkpt>
      <trkpt lat="45.22322" lon="5.55351">
        <ele>1390.12</ele>
        <time>2016-06-03T13:12:25Z</time>
      </trkpt>
      <trkpt lat="45.22307" lon="5.55357">
        <ele>1389.62</ele>
        <time>2016-06-03T13:12:29Z</time>
      </trkpt>
      <trkpt lat="45.22299" lon="5.55361">
        <ele>1389.25</ele>
        <time>2016-06-03T13:12:31Z</time>
      </trkpt>
      <trkpt lat="45.22294" lon="5.55361">
        <ele>1389.06</ele>
        <time>2016-06-03T13:12:32Z</time>
      </trkpt>
      <trkpt lat="45.22289" lon="5.55361">
        <ele>1388.83</ele>
        <time>2016-06-03T13:12:33Z</time>
      </trkpt>
      <trkpt lat="45.22284" lon="5.55359">
        <ele>1388.57</ele>
        <time>2016-06-03T13:12:34Z</time>
      </trkpt>
      <trkpt lat="45.2228" lon="5.55357">
        <ele>1388.29</ele>
        <time>2016-06-03T13:12:35Z</time>
      </trkpt>
      <trkpt lat="45.22276" lon="5.55356">
        <ele>1388.02</ele>
        <time>2016-06-03T13:12:36Z</time>
      </trkpt>
      <trkpt lat="45.22252" lon="5.55351">
        <ele>1387.78</ele>
        <time>2016-06-03T13:12:44Z</time>
      </trkpt>
      <trkpt lat="45.22249" lon="5.5535">
        <ele>1387.89</ele>
        <time>2016-06-03T13:12:45Z</time>
      </trkpt>
      <trkpt lat="45.22246" lon="5.5535">
        <ele>1387.98</ele>
        <time>2016-06-03T13:12:46Z</time>
      </trkpt>
      <trkpt lat="45.22243" lon="5.5535">
        <ele>1388.05</ele>
        <time>2016-06-03T13:12:47Z</time>
      </trkpt>
      <trkpt lat="45.2224" lon="5.55349">
        <ele>1388.08</ele>
        <time>2016-06-03T13:12:48Z</time>
      </trkpt>
      <trkpt lat="45.22205" lon="5.5534">
        <ele>1387.18</ele>
        <time>2016-06-03T13:12:58Z</time>
      </trkpt>
      <trkpt lat="45.2218" lon="5.55328">
        <ele>1388.01</ele>
        <time>2016-06-03T13:13:08Z</time>
      </trkpt>
      <trkpt lat="45.22152" lon="5.55322">
        <ele>1389.88</ele>
        <time>2016-06-03T13:13:20Z</time>
      </trkpt>
      <trkpt lat="45.22131" lon="5.55317">
        <ele>1392.11</ele>
        <time>2016-06-03T13:13:31Z</time>
      </trkpt>
      <trkpt lat="45.22129" lon="5.55316">
        <ele>1392.97</ele>
        <time>2016-06-03T13:13:44Z</time>
      </trkpt>
      <trkpt lat="45.22128" lon="5.55319">
        <ele>1392.65</ele>
        <time>2016-06-03T13:14:01Z</time>
      </trkpt>
      <trkpt lat="45.22127" lon="5.55319">
        <ele>1392.66</ele>
        <time>2016-06-03T13:14:02Z</time>
      </trkpt>
      <trkpt lat="45.22123" lon="5.55321">
        <ele>1392.65</ele>
        <time>2016-06-03T13:14:07Z</time>
      </trkpt>
      <trkpt lat="45.22123" lon="5.55323">
        <ele>1392.61</ele>
        <time>2016-06-03T13:14:30Z</time>
      </trkpt>
      <trkpt lat="45.2212" lon="5.55323">
        <ele>1392.7</ele>
        <time>2016-06-03T13:14:33Z</time>
      </trkpt>
      <trkpt lat="45.22119" lon="5.55322">
        <ele>1392.71</ele>
        <time>2016-06-03T13:14:34Z</time>
      </trkpt>
      <trkpt lat="45.22117" lon="5.55322">
        <ele>1392.72</ele>
        <time>2016-06-03T13:14:35Z</time>
      </trkpt>
      <trkpt lat="45.22115" lon="5.55321">
        <ele>1392.74</ele>
        <time>2016-06-03T13:14:36Z</time>
      </trkpt>
      <trkpt lat="45.22114" lon="5.55321">
        <ele>1392.78</ele>
        <time>2016-06-03T13:14:37Z</time>
      </trkpt>
      <trkpt lat="45.22108" lon="5.55318">
        <ele>1393.2</ele>
        <time>2016-06-03T13:14:44Z</time>
      </trkpt>
      <trkpt lat="45.22104" lon="5.55318">
        <ele>1393.28</ele>
        <time>2016-06-03T13:14:46Z</time>
      </trkpt>
      <trkpt lat="45.22102" lon="5.55318">
        <ele>1393.3</ele>
        <time>2016-06-03T13:14:47Z</time>
      </trkpt>
      <trkpt lat="45.221" lon="5.55317">
        <ele>1393.31</ele>
        <time>2016-06-03T13:14:48Z</time>
      </trkpt>
      <trkpt lat="45.22097" lon="5.55317">
        <ele>1393.31</ele>
        <time>2016-06-03T13:14:49Z</time>
      </trkpt>
      <trkpt lat="45.22096" lon="5.55317">
        <ele>1393.31</ele>
        <time>2016-06-03T13:14:50Z</time>
      </trkpt>
      <trkpt lat="45.22094" lon="5.55316">
        <ele>1393.31</ele>
        <time>2016-06-03T13:14:51Z</time>
      </trkpt>
      <trkpt lat="45.22093" lon="5.55316">
        <ele>1393.31</ele>
        <time>2016-06-03T13:14:52Z</time>
      </trkpt>
      <trkpt lat="45.22069" lon="5.55333">
        <ele>1392.19</ele>
        <time>2016-06-03T13:15:02Z</time>
      </trkpt>
      <trkpt lat="45.22057" lon="5.5534">
        <ele>1390.74</ele>
        <time>2016-06-03T13:15:05Z</time>
      </trkpt>
      <trkpt lat="45.22052" lon="5.55341">
        <ele>1390.16</ele>
        <time>2016-06-03T13:15:06Z</time>
      </trkpt>
      <trkpt lat="45.22042" lon="5.55342">
        <ele>1388.88</ele>
        <time>2016-06-03T13:15:08Z</time>
      </trkpt>
      <trkpt lat="45.22037" lon="5.55344">
        <ele>1388.09</ele>
        <time>2016-06-03T13:15:09Z</time>
      </trkpt>
      <trkpt lat="45.22025" lon="5.55347">
        <ele>1386.34</ele>
        <time>2016-06-03T13:15:11Z</time>
      </trkpt>
      <trkpt lat="45.21995" lon="5.55353">
        <ele>1382.54</ele>
        <time>2016-06-03T13:15:15Z</time>
      </trkpt>
      <trkpt lat="45.21966" lon="5.55359">
        <ele>1379.45</ele>
        <time>2016-06-03T13:15:19Z</time>
      </trkpt>
      <trkpt lat="45.2195" lon="5.5536">
        <ele>1377.46</ele>
        <time>2016-06-03T13:15:22Z</time>
      </trkpt>
      <trkpt lat="45.21899" lon="5.55361">
        <ele>1375.76</ele>
        <time>2016-06-03T13:15:33Z</time>
      </trkpt>
      <trkpt lat="45.21877" lon="5.55364">
        <ele>1374.78</ele>
        <time>2016-06-03T13:15:37Z</time>
      </trkpt>
      <trkpt lat="45.21872" lon="5.55366">
        <ele>1374.54</ele>
        <time>2016-06-03T13:15:38Z</time>
      </trkpt>
      <trkpt lat="45.21858" lon="5.55371">
        <ele>1374</ele>
        <time>2016-06-03T13:15:40Z</time>
      </trkpt>
      <trkpt lat="45.21852" lon="5.55372">
        <ele>1373.64</ele>
        <time>2016-06-03T13:15:41Z</time>
      </trkpt>
      <trkpt lat="45.21846" lon="5.55373">
        <ele>1373.19</ele>
        <time>2016-06-03T13:15:42Z</time>
      </trkpt>
      <trkpt lat="45.21803" lon="5.5538">
        <ele>1369.77</ele>
        <time>2016-06-03T13:15:49Z</time>
      </trkpt>
      <trkpt lat="45.21798" lon="5.55381">
        <ele>1369.28</ele>
        <time>2016-06-03T13:15:50Z</time>
      </trkpt>
      <trkpt lat="45.21792" lon="5.55383">
        <ele>1368.84</ele>
        <time>2016-06-03T13:15:51Z</time>
      </trkpt>
      <trkpt lat="45.21779" lon="5.55386">
        <ele>1367.99</ele>
        <time>2016-06-03T13:15:53Z</time>
      </trkpt>
      <trkpt lat="45.21764" lon="5.55388">
        <ele>1366.98</ele>
        <time>2016-06-03T13:15:55Z</time>
      </trkpt>
      <trkpt lat="45.21757" lon="5.55389">
        <ele>1366.46</ele>
        <time>2016-06-03T13:15:56Z</time>
      </trkpt>
      <trkpt lat="45.21712" lon="5.55401">
        <ele>1363.37</ele>
        <time>2016-06-03T13:16:03Z</time>
      </trkpt>
      <trkpt lat="45.21707" lon="5.55403">
        <ele>1363.1</ele>
        <time>2016-06-03T13:16:04Z</time>
      </trkpt>
      <trkpt lat="45.21676" lon="5.55415">
        <ele>1360.88</ele>
        <time>2016-06-03T13:16:11Z</time>
      </trkpt>
      <trkpt lat="45.21671" lon="5.55414">
        <ele>1360.51</ele>
        <time>2016-06-03T13:16:12Z</time>
      </trkpt>
      <trkpt lat="45.21638" lon="5.55412">
        <ele>1359.54</ele>
        <time>2016-06-03T13:16:21Z</time>
      </trkpt>
      <trkpt lat="45.2161" lon="5.55412">
        <ele>1362.72</ele>
        <time>2016-06-03T13:16:32Z</time>
      </trkpt>
      <trkpt lat="45.21601" lon="5.55416">
        <ele>1363.37</ele>
        <time>2016-06-03T13:16:36Z</time>
      </trkpt>
      <trkpt lat="45.21592" lon="5.5542">
        <ele>1363.67</ele>
        <time>2016-06-03T13:16:40Z</time>
      </trkpt>
      <trkpt lat="45.21584" lon="5.55424">
        <ele>1363.72</ele>
        <time>2016-06-03T13:16:44Z</time>
      </trkpt>
      <trkpt lat="45.21556" lon="5.55431">
        <ele>1363.33</ele>
        <time>2016-06-03T13:16:55Z</time>
      </trkpt>
      <trkpt lat="45.2154" lon="5.55432">
        <ele>1362.8</ele>
        <time>2016-06-03T13:17:04Z</time>
      </trkpt>
      <trkpt lat="45.21528" lon="5.55435">
        <ele>1362.85</ele>
        <time>2016-06-03T13:17:10Z</time>
      </trkpt>
      <trkpt lat="45.21508" lon="5.5544">
        <ele>1362.62</ele>
        <time>2016-06-03T13:17:17Z</time>
      </trkpt>
      <trkpt lat="45.21485" lon="5.5543">
        <ele>1362.02</ele>
        <time>2016-06-03T13:17:27Z</time>
      </trkpt>
      <trkpt lat="45.21467" lon="5.55426">
        <ele>1362.01</ele>
        <time>2016-06-03T13:17:35Z</time>
      </trkpt>
      <trkpt lat="45.21453" lon="5.55422">
        <ele>1361.47</ele>
        <time>2016-06-03T13:17:53Z</time>
      </trkpt>
      <trkpt lat="45.21452" lon="5.55421">
        <ele>1361.47</ele>
        <time>2016-06-03T13:17:54Z</time>
      </trkpt>
      <trkpt lat="45.21417" lon="5.55415">
        <ele>1359.78</ele>
        <time>2016-06-03T13:18:06Z</time>
      </trkpt>
      <trkpt lat="45.2139" lon="5.55419">
        <ele>1357.58</ele>
        <time>2016-06-03T13:18:13Z</time>
      </trkpt>
      <trkpt lat="45.21358" lon="5.55416">
        <ele>1354.38</ele>
        <time>2016-06-03T13:18:22Z</time>
      </trkpt>
      <trkpt lat="45.21342" lon="5.55414">
        <ele>1353.02</ele>
        <time>2016-06-03T13:18:28Z</time>
      </trkpt>
      <trkpt lat="45.21319" lon="5.55404">
        <ele>1351.74</ele>
        <time>2016-06-03T13:18:34Z</time>
      </trkpt>
      <trkpt lat="45.2129" lon="5.55398">
        <ele>1351.06</ele>
        <time>2016-06-03T13:18:44Z</time>
      </trkpt>
      <trkpt lat="45.21278" lon="5.55398">
        <ele>1350.68</ele>
        <time>2016-06-03T13:18:48Z</time>
      </trkpt>
      <trkpt lat="45.21247" lon="5.55395">
        <ele>1349.43</ele>
        <time>2016-06-03T13:18:57Z</time>
      </trkpt>
      <trkpt lat="45.21237" lon="5.55393">
        <ele>1348.99</ele>
        <time>2016-06-03T13:19:01Z</time>
      </trkpt>
      <trkpt lat="45.21207" lon="5.55392">
        <ele>1348.77</ele>
        <time>2016-06-03T13:19:12Z</time>
      </trkpt>
      <trkpt lat="45.21195" lon="5.5539">
        <ele>1348.86</ele>
        <time>2016-06-03T13:19:16Z</time>
      </trkpt>
      <trkpt lat="45.21174" lon="5.55384">
        <ele>1349.14</ele>
        <time>2016-06-03T13:19:26Z</time>
      </trkpt>
      <trkpt lat="45.21169" lon="5.55381">
        <ele>1349.16</ele>
        <time>2016-06-03T13:19:29Z</time>
      </trkpt>
      <trkpt lat="45.21156" lon="5.55377">
        <ele>1349.35</ele>
        <time>2016-06-03T13:19:35Z</time>
      </trkpt>
      <trkpt lat="45.21144" lon="5.55373">
        <ele>1350.14</ele>
        <time>2016-06-03T13:19:42Z</time>
      </trkpt>
      <trkpt lat="45.21138" lon="5.55371">
        <ele>1350.59</ele>
        <time>2016-06-03T13:19:48Z</time>
      </trkpt>
      <trkpt lat="45.21132" lon="5.5537">
        <ele>1350.94</ele>
        <time>2016-06-03T13:19:52Z</time>
      </trkpt>
      <trkpt lat="45.2111" lon="5.55372">
        <ele>1351.28</ele>
        <time>2016-06-03T13:20:02Z</time>
      </trkpt>
      <trkpt lat="45.21078" lon="5.5537">
        <ele>1350.56</ele>
        <time>2016-06-03T13:20:12Z</time>
      </trkpt>
      <trkpt lat="45.2107" lon="5.5537">
        <ele>1350.67</ele>
        <time>2016-06-03T13:20:15Z</time>
      </trkpt>
      <trkpt lat="45.21058" lon="5.55368">
        <ele>1351.21</ele>
        <time>2016-06-03T13:20:21Z</time>
      </trkpt>
      <trkpt lat="45.21035" lon="5.55365">
        <ele>1352.43</ele>
        <time>2016-06-03T13:20:30Z</time>
      </trkpt>
      <trkpt lat="45.21012" lon="5.55364">
        <ele>1352.34</ele>
        <time>2016-06-03T13:20:40Z</time>
      </trkpt>
      <trkpt lat="45.20983" lon="5.55375">
        <ele>1349.84</ele>
        <time>2016-06-03T13:20:50Z</time>
      </trkpt>
      <trkpt lat="45.20961" lon="5.55376">
        <ele>1346.64</ele>
        <time>2016-06-03T13:20:57Z</time>
      </trkpt>
      <trkpt lat="45.20938" lon="5.55384">
        <ele>1343.33</ele>
        <time>2016-06-03T13:21:03Z</time>
      </trkpt>
      <trkpt lat="45.20922" lon="5.5539">
        <ele>1340.07</ele>
        <time>2016-06-03T13:21:08Z</time>
      </trkpt>
      <trkpt lat="45.20917" lon="5.55394">
        <ele>1339.33</ele>
        <time>2016-06-03T13:21:10Z</time>
      </trkpt>
      <trkpt lat="45.20903" lon="5.55397">
        <ele>1338.28</ele>
        <time>2016-06-03T13:21:14Z</time>
      </trkpt>
      <trkpt lat="45.20887" lon="5.55403">
        <ele>1336.93</ele>
        <time>2016-06-03T13:21:19Z</time>
      </trkpt>
      <trkpt lat="45.20865" lon="5.55408">
        <ele>1334.92</ele>
        <time>2016-06-03T13:21:26Z</time>
      </trkpt>
      <trkpt lat="45.2082" lon="5.55428">
        <ele>1331.94</ele>
        <time>2016-06-03T13:21:35Z</time>
      </trkpt>
      <trkpt lat="45.20796" lon="5.55434">
        <ele>1330.36</ele>
        <time>2016-06-03T13:21:39Z</time>
      </trkpt>
      <trkpt lat="45.20763" lon="5.55432">
        <ele>1327.25</ele>
        <time>2016-06-03T13:21:47Z</time>
      </trkpt>
      <trkpt lat="45.2073" lon="5.55438">
        <ele>1323.78</ele>
        <time>2016-06-03T13:21:54Z</time>
      </trkpt>
      <trkpt lat="45.20691" lon="5.55454">
        <ele>1320.18</ele>
        <time>2016-06-03T13:22:02Z</time>
      </trkpt>
      <trkpt lat="45.20673" lon="5.5546">
        <ele>1319.38</ele>
        <time>2016-06-03T13:22:11Z</time>
      </trkpt>
      <trkpt lat="45.2066" lon="5.55468">
        <ele>1319.46</ele>
        <time>2016-06-03T13:22:21Z</time>
      </trkpt>
      <trkpt lat="45.20659" lon="5.55468">
        <ele>1319.47</ele>
        <time>2016-06-03T13:22:22Z</time>
      </trkpt>
      <trkpt lat="45.20657" lon="5.55467">
        <ele>1319.47</ele>
        <time>2016-06-03T13:22:24Z</time>
      </trkpt>
      <trkpt lat="45.20654" lon="5.55467">
        <ele>1319.35</ele>
        <time>2016-06-03T13:22:30Z</time>
      </trkpt>
      <trkpt lat="45.20649" lon="5.55467">
        <ele>1319.64</ele>
        <time>2016-06-03T13:23:01Z</time>
      </trkpt>
      <trkpt lat="45.20645" lon="5.55476">
        <ele>1319.53</ele>
        <time>2016-06-03T13:23:21Z</time>
      </trkpt>
      <trkpt lat="45.20623" lon="5.55485">
        <ele>1317.76</ele>
        <time>2016-06-03T13:23:30Z</time>
      </trkpt>
      <trkpt lat="45.20599" lon="5.55497">
        <ele>1314.39</ele>
        <time>2016-06-03T13:23:38Z</time>
      </trkpt>
      <trkpt lat="45.20573" lon="5.55517">
        <ele>1312.05</ele>
        <time>2016-06-03T13:23:45Z</time>
      </trkpt>
      <trkpt lat="45.20542" lon="5.55545">
        <ele>1308.37</ele>
        <time>2016-06-03T13:23:55Z</time>
      </trkpt>
      <trkpt lat="45.20514" lon="5.55557">
        <ele>1307.42</ele>
        <time>2016-06-03T13:24:05Z</time>
      </trkpt>
      <trkpt lat="45.20509" lon="5.5556">
        <ele>1307.2</ele>
        <time>2016-06-03T13:24:07Z</time>
      </trkpt>
      <trkpt lat="45.20478" lon="5.55571">
        <ele>1305.48</ele>
        <time>2016-06-03T13:24:18Z</time>
      </trkpt>
      <trkpt lat="45.20472" lon="5.55569">
        <ele>1304.85</ele>
        <time>2016-06-03T13:24:21Z</time>
      </trkpt>
      <trkpt lat="45.20437" lon="5.55561">
        <ele>1302.84</ele>
        <time>2016-06-03T13:24:32Z</time>
      </trkpt>
      <trkpt lat="45.20426" lon="5.5556">
        <ele>1302.28</ele>
        <time>2016-06-03T13:24:36Z</time>
      </trkpt>
      <trkpt lat="45.20424" lon="5.55559">
        <ele>1302.07</ele>
        <time>2016-06-03T13:24:37Z</time>
      </trkpt>
      <trkpt lat="45.20399" lon="5.55544">
        <ele>1298.8</ele>
        <time>2016-06-03T13:24:45Z</time>
      </trkpt>
      <trkpt lat="45.20389" lon="5.55538">
        <ele>1297.23</ele>
        <time>2016-06-03T13:24:47Z</time>
      </trkpt>
      <trkpt lat="45.20364" lon="5.55528">
        <ele>1293.7</ele>
        <time>2016-06-03T13:24:51Z</time>
      </trkpt>
      <trkpt lat="45.20359" lon="5.55527">
        <ele>1292.96</ele>
        <time>2016-06-03T13:24:52Z</time>
      </trkpt>
      <trkpt lat="45.20356" lon="5.55527">
        <ele>1292.35</ele>
        <time>2016-06-03T13:24:53Z</time>
      </trkpt>
      <trkpt lat="45.20352" lon="5.55526">
        <ele>1291.87</ele>
        <time>2016-06-03T13:24:54Z</time>
      </trkpt>
      <trkpt lat="45.20349" lon="5.55526">
        <ele>1291.47</ele>
        <time>2016-06-03T13:24:55Z</time>
      </trkpt>
      <trkpt lat="45.20345" lon="5.55525">
        <ele>1291.21</ele>
        <time>2016-06-03T13:24:56Z</time>
      </trkpt>
      <trkpt lat="45.20312" lon="5.55516">
        <ele>1290.73</ele>
        <time>2016-06-03T13:25:03Z</time>
      </trkpt>
      <trkpt lat="45.2029" lon="5.55513">
        <ele>1290.67</ele>
        <time>2016-06-03T13:25:10Z</time>
      </trkpt>
      <trkpt lat="45.20271" lon="5.55508">
        <ele>1290.77</ele>
        <time>2016-06-03T13:25:16Z</time>
      </trkpt>
      <trkpt lat="45.20269" lon="5.55506">
        <ele>1290.77</ele>
        <time>2016-06-03T13:25:17Z</time>
      </trkpt>
      <trkpt lat="45.20267" lon="5.55504">
        <ele>1290.77</ele>
        <time>2016-06-03T13:25:18Z</time>
      </trkpt>
      <trkpt lat="45.20264" lon="5.55502">
        <ele>1290.76</ele>
        <time>2016-06-03T13:25:19Z</time>
      </trkpt>
      <trkpt lat="45.20262" lon="5.555">
        <ele>1290.72</ele>
        <time>2016-06-03T13:25:20Z</time>
      </trkpt>
      <trkpt lat="45.20247" lon="5.55486">
        <ele>1290.22</ele>
        <time>2016-06-03T13:25:24Z</time>
      </trkpt>
      <trkpt lat="45.20244" lon="5.55483">
        <ele>1290.05</ele>
        <time>2016-06-03T13:25:25Z</time>
      </trkpt>
      <trkpt lat="45.20241" lon="5.5548">
        <ele>1289.8</ele>
        <time>2016-06-03T13:25:26Z</time>
      </trkpt>
      <trkpt lat="45.20238" lon="5.55478">
        <ele>1289.47</ele>
        <time>2016-06-03T13:25:27Z</time>
      </trkpt>
      <trkpt lat="45.20234" lon="5.55477">
        <ele>1289.08</ele>
        <time>2016-06-03T13:25:28Z</time>
      </trkpt>
      <trkpt lat="45.20231" lon="5.55476">
        <ele>1288.63</ele>
        <time>2016-06-03T13:25:29Z</time>
      </trkpt>
      <trkpt lat="45.20226" lon="5.55476">
        <ele>1288.13</ele>
        <time>2016-06-03T13:25:30Z</time>
      </trkpt>
      <trkpt lat="45.20222" lon="5.55475">
        <ele>1287.61</ele>
        <time>2016-06-03T13:25:31Z</time>
      </trkpt>
      <trkpt lat="45.20216" lon="5.55474">
        <ele>1286.69</ele>
        <time>2016-06-03T13:25:32Z</time>
      </trkpt>
      <trkpt lat="45.2021" lon="5.55475">
        <ele>1286.23</ele>
        <time>2016-06-03T13:25:33Z</time>
      </trkpt>
      <trkpt lat="45.20165" lon="5.55475">
        <ele>1284.52</ele>
        <time>2016-06-03T13:25:41Z</time>
      </trkpt>
      <trkpt lat="45.20119" lon="5.55472">
        <ele>1285.26</ele>
        <time>2016-06-03T13:25:51Z</time>
      </trkpt>
      <trkpt lat="45.20079" lon="5.55469">
        <ele>1284.8</ele>
        <time>2016-06-03T13:26:01Z</time>
      </trkpt>
      <trkpt lat="45.20054" lon="5.55468">
        <ele>1283.42</ele>
        <time>2016-06-03T13:26:06Z</time>
      </trkpt>
      <trkpt lat="45.20049" lon="5.55465">
        <ele>1282.99</ele>
        <time>2016-06-03T13:26:07Z</time>
      </trkpt>
      <trkpt lat="45.20036" lon="5.55455">
        <ele>1282.11</ele>
        <time>2016-06-03T13:26:09Z</time>
      </trkpt>
      <trkpt lat="45.20011" lon="5.55424">
        <ele>1280.28</ele>
        <time>2016-06-03T13:26:16Z</time>
      </trkpt>
      <trkpt lat="45.20005" lon="5.55401">
        <ele>1282.27</ele>
        <time>2016-06-03T13:26:23Z</time>
      </trkpt>
      <trkpt lat="45.20004" lon="5.55387">
        <ele>1284.28</ele>
        <time>2016-06-03T13:26:28Z</time>
      </trkpt>
      <trkpt lat="45.20003" lon="5.55384">
        <ele>1284.68</ele>
        <time>2016-06-03T13:26:29Z</time>
      </trkpt>
      <trkpt lat="45.20002" lon="5.55381">
        <ele>1285.08</ele>
        <time>2016-06-03T13:26:30Z</time>
      </trkpt>
      <trkpt lat="45.2" lon="5.55378">
        <ele>1285.48</ele>
        <time>2016-06-03T13:26:31Z</time>
      </trkpt>
      <trkpt lat="45.19998" lon="5.55376">
        <ele>1285.85</ele>
        <time>2016-06-03T13:26:32Z</time>
      </trkpt>
      <trkpt lat="45.19996" lon="5.55373">
        <ele>1286.23</ele>
        <time>2016-06-03T13:26:33Z</time>
      </trkpt>
      <trkpt lat="45.19994" lon="5.55371">
        <ele>1286.59</ele>
        <time>2016-06-03T13:26:34Z</time>
      </trkpt>
      <trkpt lat="45.19993" lon="5.55368">
        <ele>1286.9</ele>
        <time>2016-06-03T13:26:35Z</time>
      </trkpt>
      <trkpt lat="45.19993" lon="5.55366">
        <ele>1287.19</ele>
        <time>2016-06-03T13:26:36Z</time>
      </trkpt>
      <trkpt lat="45.19991" lon="5.55364">
        <ele>1287.44</ele>
        <time>2016-06-03T13:26:37Z</time>
      </trkpt>
      <trkpt lat="45.19989" lon="5.55362">
        <ele>1287.65</ele>
        <time>2016-06-03T13:26:38Z</time>
      </trkpt>
      <trkpt lat="45.19988" lon="5.5536">
        <ele>1287.82</ele>
        <time>2016-06-03T13:26:39Z</time>
      </trkpt>
      <trkpt lat="45.19987" lon="5.55358">
        <ele>1287.96</ele>
        <time>2016-06-03T13:26:40Z</time>
      </trkpt>
      <trkpt lat="45.19985" lon="5.55354">
        <ele>1288.07</ele>
        <time>2016-06-03T13:26:41Z</time>
      </trkpt>
      <trkpt lat="45.19982" lon="5.5535">
        <ele>1288.14</ele>
        <time>2016-06-03T13:26:42Z</time>
      </trkpt>
      <trkpt lat="45.1998" lon="5.55345">
        <ele>1288.17</ele>
        <time>2016-06-03T13:26:43Z</time>
      </trkpt>
      <trkpt lat="45.19979" lon="5.55336">
        <ele>1288.08</ele>
        <time>2016-06-03T13:26:44Z</time>
      </trkpt>
      <trkpt lat="45.19976" lon="5.55327">
        <ele>1288.08</ele>
        <time>2016-06-03T13:26:45Z</time>
      </trkpt>
      <trkpt lat="45.19974" lon="5.5532">
        <ele>1287.61</ele>
        <time>2016-06-03T13:26:46Z</time>
      </trkpt>
      <trkpt lat="45.19972" lon="5.55313">
        <ele>1287.25</ele>
        <time>2016-06-03T13:26:47Z</time>
      </trkpt>
      <trkpt lat="45.19971" lon="5.55307">
        <ele>1286.89</ele>
        <time>2016-06-03T13:26:48Z</time>
      </trkpt>
      <trkpt lat="45.19969" lon="5.553">
        <ele>1286.38</ele>
        <time>2016-06-03T13:26:50Z</time>
      </trkpt>
      <trkpt lat="45.19969" lon="5.55298">
        <ele>1286.21</ele>
        <time>2016-06-03T13:26:51Z</time>
      </trkpt>
      <trkpt lat="45.1997" lon="5.55295">
        <ele>1286.16</ele>
        <time>2016-06-03T13:26:52Z</time>
      </trkpt>
      <trkpt lat="45.19971" lon="5.55292">
        <ele>1286.18</ele>
        <time>2016-06-03T13:26:53Z</time>
      </trkpt>
      <trkpt lat="45.19972" lon="5.5529">
        <ele>1286.3</ele>
        <time>2016-06-03T13:26:54Z</time>
      </trkpt>
      <trkpt lat="45.19972" lon="5.55287">
        <ele>1286.47</ele>
        <time>2016-06-03T13:26:55Z</time>
      </trkpt>
      <trkpt lat="45.19974" lon="5.5528">
        <ele>1287.46</ele>
        <time>2016-06-03T13:26:59Z</time>
      </trkpt>
      <trkpt lat="45.19975" lon="5.55277">
        <ele>1287.71</ele>
        <time>2016-06-03T13:27:00Z</time>
      </trkpt>
      <trkpt lat="45.19975" lon="5.55274">
        <ele>1287.99</ele>
        <time>2016-06-03T13:27:01Z</time>
      </trkpt>
      <trkpt lat="45.19975" lon="5.55271">
        <ele>1288.28</ele>
        <time>2016-06-03T13:27:02Z</time>
      </trkpt>
      <trkpt lat="45.19975" lon="5.55268">
        <ele>1288.57</ele>
        <time>2016-06-03T13:27:03Z</time>
      </trkpt>
      <trkpt lat="45.19974" lon="5.55265">
        <ele>1288.86</ele>
        <time>2016-06-03T13:27:04Z</time>
      </trkpt>
      <trkpt lat="45.19975" lon="5.55262">
        <ele>1289.12</ele>
        <time>2016-06-03T13:27:05Z</time>
      </trkpt>
      <trkpt lat="45.19975" lon="5.55259">
        <ele>1289.38</ele>
        <time>2016-06-03T13:27:06Z</time>
      </trkpt>
      <trkpt lat="45.19976" lon="5.55257">
        <ele>1289.61</ele>
        <time>2016-06-03T13:27:07Z</time>
      </trkpt>
      <trkpt lat="45.19975" lon="5.55253">
        <ele>1290</ele>
        <time>2016-06-03T13:27:09Z</time>
      </trkpt>
      <trkpt lat="45.19974" lon="5.55251">
        <ele>1290.32</ele>
        <time>2016-06-03T13:27:10Z</time>
      </trkpt>
      <trkpt lat="45.19975" lon="5.55248">
        <ele>1290.5</ele>
        <time>2016-06-03T13:27:11Z</time>
      </trkpt>
      <trkpt lat="45.19975" lon="5.55245">
        <ele>1290.7</ele>
        <time>2016-06-03T13:27:12Z</time>
      </trkpt>
      <trkpt lat="45.19976" lon="5.55242">
        <ele>1290.93</ele>
        <time>2016-06-03T13:27:13Z</time>
      </trkpt>
      <trkpt lat="45.19976" lon="5.55239">
        <ele>1291.18</ele>
        <time>2016-06-03T13:27:14Z</time>
      </trkpt>
      <trkpt lat="45.19976" lon="5.55236">
        <ele>1291.39</ele>
        <time>2016-06-03T13:27:15Z</time>
      </trkpt>
      <trkpt lat="45.19975" lon="5.55234">
        <ele>1291.58</ele>
        <time>2016-06-03T13:27:16Z</time>
      </trkpt>
      <trkpt lat="45.19971" lon="5.55223">
        <ele>1292.52</ele>
        <time>2016-06-03T13:27:28Z</time>
      </trkpt>
      <trkpt lat="45.19973" lon="5.55221">
        <ele>1292.42</ele>
        <time>2016-06-03T13:27:59Z</time>
      </trkpt>
      <trkpt lat="45.19966" lon="5.55225">
        <ele>1292.36</ele>
        <time>2016-06-03T13:28:27Z</time>
      </trkpt>
      <trkpt lat="45.19959" lon="5.55221">
        <ele>1292.73</ele>
        <time>2016-06-03T13:28:47Z</time>
      </trkpt>
      <trkpt lat="45.19958" lon="5.5522">
        <ele>1292.72</ele>
        <time>2016-06-03T13:28:48Z</time>
      </trkpt>
      <trkpt lat="45.19956" lon="5.55219">
        <ele>1292.67</ele>
        <time>2016-06-03T13:28:49Z</time>
      </trkpt>
      <trkpt lat="45.19955" lon="5.55217">
        <ele>1292.55</ele>
        <time>2016-06-03T13:28:50Z</time>
      </trkpt>
      <trkpt lat="45.19954" lon="5.55215">
        <ele>1292.48</ele>
        <time>2016-06-03T13:28:51Z</time>
      </trkpt>
      <trkpt lat="45.19932" lon="5.55196">
        <ele>1291.14</ele>
        <time>2016-06-03T13:28:59Z</time>
      </trkpt>
      <trkpt lat="45.19913" lon="5.55172">
        <ele>1289.26</ele>
        <time>2016-06-03T13:29:06Z</time>
      </trkpt>
      <trkpt lat="45.19911" lon="5.55168">
        <ele>1288.89</ele>
        <time>2016-06-03T13:29:07Z</time>
      </trkpt>
      <trkpt lat="45.19909" lon="5.55163">
        <ele>1288.46</ele>
        <time>2016-06-03T13:29:08Z</time>
      </trkpt>
      <trkpt lat="45.19909" lon="5.55156">
        <ele>1288</ele>
        <time>2016-06-03T13:29:09Z</time>
      </trkpt>
      <trkpt lat="45.1991" lon="5.55148">
        <ele>1287.55</ele>
        <time>2016-06-03T13:29:10Z</time>
      </trkpt>
      <trkpt lat="45.19911" lon="5.55141">
        <ele>1287.05</ele>
        <time>2016-06-03T13:29:11Z</time>
      </trkpt>
      <trkpt lat="45.19914" lon="5.55124">
        <ele>1285.06</ele>
        <time>2016-06-03T13:29:15Z</time>
      </trkpt>
      <trkpt lat="45.19927" lon="5.55081">
        <ele>1286.92</ele>
        <time>2016-06-03T13:29:31Z</time>
      </trkpt>
      <trkpt lat="45.19927" lon="5.55067">
        <ele>1288.07</ele>
        <time>2016-06-03T13:29:36Z</time>
      </trkpt>
      <trkpt lat="45.19927" lon="5.55065">
        <ele>1288.26</ele>
        <time>2016-06-03T13:29:37Z</time>
      </trkpt>
      <trkpt lat="45.19927" lon="5.55062">
        <ele>1288.61</ele>
        <time>2016-06-03T13:29:38Z</time>
      </trkpt>
      <trkpt lat="45.19932" lon="5.55025">
        <ele>1291.02</ele>
        <time>2016-06-03T13:29:53Z</time>
      </trkpt>
      <trkpt lat="45.19934" lon="5.55009">
        <ele>1291.77</ele>
        <time>2016-06-03T13:30:05Z</time>
      </trkpt>
      <trkpt lat="45.19928" lon="5.55003">
        <ele>1291.71</ele>
        <time>2016-06-03T13:30:34Z</time>
      </trkpt>
      <trkpt lat="45.19924" lon="5.55008">
        <ele>1291.73</ele>
        <time>2016-06-03T13:31:00Z</time>
      </trkpt>
      <trkpt lat="45.19926" lon="5.55004">
        <ele>1291.58</ele>
        <time>2016-06-03T13:31:07Z</time>
      </trkpt>
      <trkpt lat="45.19927" lon="5.54998">
        <ele>1291.39</ele>
        <time>2016-06-03T13:31:09Z</time>
      </trkpt>
      <trkpt lat="45.19928" lon="5.54994">
        <ele>1291.25</ele>
        <time>2016-06-03T13:31:10Z</time>
      </trkpt>
      <trkpt lat="45.19928" lon="5.54989">
        <ele>1291.09</ele>
        <time>2016-06-03T13:31:11Z</time>
      </trkpt>
      <trkpt lat="45.19928" lon="5.54984">
        <ele>1290.87</ele>
        <time>2016-06-03T13:31:12Z</time>
      </trkpt>
      <trkpt lat="45.19926" lon="5.54975">
        <ele>1290.19</ele>
        <time>2016-06-03T13:31:14Z</time>
      </trkpt>
      <trkpt lat="45.19924" lon="5.5497">
        <ele>1289.8</ele>
        <time>2016-06-03T13:31:15Z</time>
      </trkpt>
      <trkpt lat="45.19922" lon="5.54967">
        <ele>1289.44</ele>
        <time>2016-06-03T13:31:16Z</time>
      </trkpt>
      <trkpt lat="45.19923" lon="5.54962">
        <ele>1289.11</ele>
        <time>2016-06-03T13:31:17Z</time>
      </trkpt>
      <trkpt lat="45.19924" lon="5.54959">
        <ele>1288.82</ele>
        <time>2016-06-03T13:31:18Z</time>
      </trkpt>
      <trkpt lat="45.19924" lon="5.54956">
        <ele>1288.3</ele>
        <time>2016-06-03T13:31:19Z</time>
      </trkpt>
      <trkpt lat="45.19924" lon="5.54952">
        <ele>1288.07</ele>
        <time>2016-06-03T13:31:20Z</time>
      </trkpt>
      <trkpt lat="45.19923" lon="5.54949">
        <ele>1287.86</ele>
        <time>2016-06-03T13:31:21Z</time>
      </trkpt>
      <trkpt lat="45.19923" lon="5.54945">
        <ele>1287.7</ele>
        <time>2016-06-03T13:31:22Z</time>
      </trkpt>
      <trkpt lat="45.19922" lon="5.54942">
        <ele>1287.57</ele>
        <time>2016-06-03T13:31:23Z</time>
      </trkpt>
      <trkpt lat="45.19917" lon="5.54918">
        <ele>1287.6</ele>
        <time>2016-06-03T13:31:32Z</time>
      </trkpt>
      <trkpt lat="45.19915" lon="5.54917">
        <ele>1287.69</ele>
        <time>2016-06-03T13:31:33Z</time>
      </trkpt>
      <trkpt lat="45.19901" lon="5.54916">
        <ele>1288.1</ele>
        <time>2016-06-03T13:31:39Z</time>
      </trkpt>
      <trkpt lat="45.19871" lon="5.54923">
        <ele>1289.35</ele>
        <time>2016-06-03T13:31:51Z</time>
      </trkpt>
      <trkpt lat="45.1985" lon="5.54933">
        <ele>1292.56</ele>
        <time>2016-06-03T13:32:02Z</time>
      </trkpt>
      <trkpt lat="45.19837" lon="5.54942">
        <ele>1295.3</ele>
        <time>2016-06-03T13:32:13Z</time>
      </trkpt>
      <trkpt lat="45.19815" lon="5.54968">
        <ele>1295.94</ele>
        <time>2016-06-03T13:32:24Z</time>
      </trkpt>
      <trkpt lat="45.19783" lon="5.5498">
        <ele>1295.68</ele>
        <time>2016-06-03T13:32:34Z</time>
      </trkpt>
      <trkpt lat="45.19763" lon="5.54986">
        <ele>1297.82</ele>
        <time>2016-06-03T13:32:46Z</time>
      </trkpt>
      <trkpt lat="45.19728" lon="5.55003">
        <ele>1297.49</ele>
        <time>2016-06-03T13:32:55Z</time>
      </trkpt>
      <trkpt lat="45.19681" lon="5.55016">
        <ele>1294.12</ele>
        <time>2016-06-03T13:33:03Z</time>
      </trkpt>
      <trkpt lat="45.1967" lon="5.55017">
        <ele>1293.14</ele>
        <time>2016-06-03T13:33:05Z</time>
      </trkpt>
      <trkpt lat="45.19653" lon="5.55021">
        <ele>1291.78</ele>
        <time>2016-06-03T13:33:08Z</time>
      </trkpt>
      <trkpt lat="45.19647" lon="5.55021">
        <ele>1291.38</ele>
        <time>2016-06-03T13:33:09Z</time>
      </trkpt>
      <trkpt lat="45.19643" lon="5.55019">
        <ele>1290.94</ele>
        <time>2016-06-03T13:33:10Z</time>
      </trkpt>
      <trkpt lat="45.19639" lon="5.55017">
        <ele>1290.49</ele>
        <time>2016-06-03T13:33:11Z</time>
      </trkpt>
      <trkpt lat="45.19635" lon="5.55015">
        <ele>1290.07</ele>
        <time>2016-06-03T13:33:12Z</time>
      </trkpt>
      <trkpt lat="45.19631" lon="5.55013">
        <ele>1289.73</ele>
        <time>2016-06-03T13:33:13Z</time>
      </trkpt>
      <trkpt lat="45.19629" lon="5.55012">
        <ele>1289.46</ele>
        <time>2016-06-03T13:33:14Z</time>
      </trkpt>
      <trkpt lat="45.19626" lon="5.5501">
        <ele>1289.26</ele>
        <time>2016-06-03T13:33:15Z</time>
      </trkpt>
      <trkpt lat="45.19623" lon="5.55007">
        <ele>1289.2</ele>
        <time>2016-06-03T13:33:17Z</time>
      </trkpt>
      <trkpt lat="45.19622" lon="5.55005">
        <ele>1289.29</ele>
        <time>2016-06-03T13:33:18Z</time>
      </trkpt>
      <trkpt lat="45.19621" lon="5.55004">
        <ele>1289.43</ele>
        <time>2016-06-03T13:33:19Z</time>
      </trkpt>
      <trkpt lat="45.19619" lon="5.55002">
        <ele>1289.77</ele>
        <time>2016-06-03T13:33:20Z</time>
      </trkpt>
      <trkpt lat="45.19617" lon="5.55001">
        <ele>1289.77</ele>
        <time>2016-06-03T13:33:21Z</time>
      </trkpt>
      <trkpt lat="45.19601" lon="5.54987">
        <ele>1291.72</ele>
        <time>2016-06-03T13:33:30Z</time>
      </trkpt>
      <trkpt lat="45.19597" lon="5.54982">
        <ele>1292.37</ele>
        <time>2016-06-03T13:33:33Z</time>
      </trkpt>
      <trkpt lat="45.19595" lon="5.54981">
        <ele>1292.58</ele>
        <time>2016-06-03T13:33:34Z</time>
      </trkpt>
      <trkpt lat="45.19566" lon="5.54956">
        <ele>1295.18</ele>
        <time>2016-06-03T13:33:46Z</time>
      </trkpt>
      <trkpt lat="45.19564" lon="5.54954">
        <ele>1295.31</ele>
        <time>2016-06-03T13:33:47Z</time>
      </trkpt>
      <trkpt lat="45.19562" lon="5.54952">
        <ele>1295.44</ele>
        <time>2016-06-03T13:33:48Z</time>
      </trkpt>
      <trkpt lat="45.1956" lon="5.54949">
        <ele>1295.6</ele>
        <time>2016-06-03T13:33:49Z</time>
      </trkpt>
      <trkpt lat="45.1956" lon="5.54946">
        <ele>1295.79</ele>
        <time>2016-06-03T13:33:50Z</time>
      </trkpt>
      <trkpt lat="45.19559" lon="5.54943">
        <ele>1296.01</ele>
        <time>2016-06-03T13:33:51Z</time>
      </trkpt>
      <trkpt lat="45.19558" lon="5.54941">
        <ele>1296.22</ele>
        <time>2016-06-03T13:33:52Z</time>
      </trkpt>
      <trkpt lat="45.19554" lon="5.54932">
        <ele>1297.13</ele>
        <time>2016-06-03T13:33:58Z</time>
      </trkpt>
      <trkpt lat="45.19553" lon="5.54928">
        <ele>1297.64</ele>
        <time>2016-06-03T13:34:11Z</time>
      </trkpt>
      <trkpt lat="45.1956" lon="5.54922">
        <ele>1297.47</ele>
        <time>2016-06-03T13:34:40Z</time>
      </trkpt>
      <trkpt lat="45.19557" lon="5.5492">
        <ele>1297.37</ele>
        <time>2016-06-03T13:34:49Z</time>
      </trkpt>
      <trkpt lat="45.19543" lon="5.54917">
        <ele>1297.46</ele>
        <time>2016-06-03T13:35:07Z</time>
      </trkpt>
      <trkpt lat="45.19541" lon="5.54915">
        <ele>1297.44</ele>
        <time>2016-06-03T13:35:08Z</time>
      </trkpt>
      <trkpt lat="45.19539" lon="5.54915">
        <ele>1297.41</ele>
        <time>2016-06-03T13:35:09Z</time>
      </trkpt>
      <trkpt lat="45.19536" lon="5.54913">
        <ele>1297.36</ele>
        <time>2016-06-03T13:35:10Z</time>
      </trkpt>
      <trkpt lat="45.19535" lon="5.54912">
        <ele>1297.28</ele>
        <time>2016-06-03T13:35:11Z</time>
      </trkpt>
      <trkpt lat="45.19533" lon="5.5491">
        <ele>1297.14</ele>
        <time>2016-06-03T13:35:12Z</time>
      </trkpt>
      <trkpt lat="45.1953" lon="5.54908">
        <ele>1296.96</ele>
        <time>2016-06-03T13:35:13Z</time>
      </trkpt>
      <trkpt lat="45.19514" lon="5.54896">
        <ele>1295.5</ele>
        <time>2016-06-03T13:35:18Z</time>
      </trkpt>
      <trkpt lat="45.19511" lon="5.54893">
        <ele>1295.09</ele>
        <time>2016-06-03T13:35:19Z</time>
      </trkpt>
      <trkpt lat="45.19497" lon="5.54885">
        <ele>1293.62</ele>
        <time>2016-06-03T13:35:22Z</time>
      </trkpt>
      <trkpt lat="45.19481" lon="5.54879">
        <ele>1291.53</ele>
        <time>2016-06-03T13:35:25Z</time>
      </trkpt>
      <trkpt lat="45.19461" lon="5.54876">
        <ele>1289.75</ele>
        <time>2016-06-03T13:35:28Z</time>
      </trkpt>
      <trkpt lat="45.19456" lon="5.54873">
        <ele>1289.11</ele>
        <time>2016-06-03T13:35:29Z</time>
      </trkpt>
      <trkpt lat="45.1945" lon="5.54869">
        <ele>1288.54</ele>
        <time>2016-06-03T13:35:30Z</time>
      </trkpt>
      <trkpt lat="45.19445" lon="5.54865">
        <ele>1288.02</ele>
        <time>2016-06-03T13:35:31Z</time>
      </trkpt>
      <trkpt lat="45.1944" lon="5.54859">
        <ele>1287.57</ele>
        <time>2016-06-03T13:35:32Z</time>
      </trkpt>
      <trkpt lat="45.19436" lon="5.54855">
        <ele>1287.17</ele>
        <time>2016-06-03T13:35:33Z</time>
      </trkpt>
      <trkpt lat="45.19433" lon="5.5485">
        <ele>1286.86</ele>
        <time>2016-06-03T13:35:34Z</time>
      </trkpt>
      <trkpt lat="45.19411" lon="5.54825">
        <ele>1286.41</ele>
        <time>2016-06-03T13:35:43Z</time>
      </trkpt>
      <trkpt lat="45.19401" lon="5.54814">
        <ele>1287.99</ele>
        <time>2016-06-03T13:35:50Z</time>
      </trkpt>
      <trkpt lat="45.1939" lon="5.54808">
        <ele>1288.59</ele>
        <time>2016-06-03T13:35:57Z</time>
      </trkpt>
      <trkpt lat="45.19388" lon="5.54807">
        <ele>1288.63</ele>
        <time>2016-06-03T13:35:58Z</time>
      </trkpt>
      <trkpt lat="45.19386" lon="5.54806">
        <ele>1288.66</ele>
        <time>2016-06-03T13:35:59Z</time>
      </trkpt>
      <trkpt lat="45.19385" lon="5.54805">
        <ele>1288.68</ele>
        <time>2016-06-03T13:36:00Z</time>
      </trkpt>
      <trkpt lat="45.19383" lon="5.54803">
        <ele>1288.72</ele>
        <time>2016-06-03T13:36:01Z</time>
      </trkpt>
      <trkpt lat="45.19357" lon="5.54795">
        <ele>1288.53</ele>
        <time>2016-06-03T13:36:10Z</time>
      </trkpt>
      <trkpt lat="45.1933" lon="5.54782">
        <ele>1286.74</ele>
        <time>2016-06-03T13:36:20Z</time>
      </trkpt>
      <trkpt lat="45.19288" lon="5.54763">
        <ele>1284.82</ele>
        <time>2016-06-03T13:36:31Z</time>
      </trkpt>
      <trkpt lat="45.19282" lon="5.5476">
        <ele>1284.47</ele>
        <time>2016-06-03T13:36:32Z</time>
      </trkpt>
      <trkpt lat="45.19252" lon="5.54743">
        <ele>1282.41</ele>
        <time>2016-06-03T13:36:36Z</time>
      </trkpt>
      <trkpt lat="45.19233" lon="5.54732">
        <ele>1279.4</ele>
        <time>2016-06-03T13:36:40Z</time>
      </trkpt>
      <trkpt lat="45.19223" lon="5.54729">
        <ele>1278.37</ele>
        <time>2016-06-03T13:36:42Z</time>
      </trkpt>
      <trkpt lat="45.19212" lon="5.54725">
        <ele>1277.47</ele>
        <time>2016-06-03T13:36:44Z</time>
      </trkpt>
      <trkpt lat="45.1919" lon="5.54713">
        <ele>1275.16</ele>
        <time>2016-06-03T13:36:49Z</time>
      </trkpt>
      <trkpt lat="45.19186" lon="5.54711">
        <ele>1274.72</ele>
        <time>2016-06-03T13:36:50Z</time>
      </trkpt>
      <trkpt lat="45.19183" lon="5.54709">
        <ele>1274.26</ele>
        <time>2016-06-03T13:36:51Z</time>
      </trkpt>
      <trkpt lat="45.19167" lon="5.54678">
        <ele>1271.21</ele>
        <time>2016-06-03T13:36:58Z</time>
      </trkpt>
      <trkpt lat="45.19164" lon="5.54641">
        <ele>1269.44</ele>
        <time>2016-06-03T13:37:06Z</time>
      </trkpt>
      <trkpt lat="45.19166" lon="5.5464">
        <ele>1269.31</ele>
        <time>2016-06-03T13:37:07Z</time>
      </trkpt>
      <trkpt lat="45.19163" lon="5.54635">
        <ele>1269.15</ele>
        <time>2016-06-03T13:37:11Z</time>
      </trkpt>
      <trkpt lat="45.1916" lon="5.54635">
        <ele>1269.35</ele>
        <time>2016-06-03T13:37:16Z</time>
      </trkpt>
      <trkpt lat="45.19151" lon="5.54632">
        <ele>1269.02</ele>
        <time>2016-06-03T13:37:27Z</time>
      </trkpt>
      <trkpt lat="45.19149" lon="5.54632">
        <ele>1269.05</ele>
        <time>2016-06-03T13:37:29Z</time>
      </trkpt>
      <trkpt lat="45.19145" lon="5.54633">
        <ele>1269.07</ele>
        <time>2016-06-03T13:37:31Z</time>
      </trkpt>
      <trkpt lat="45.19142" lon="5.54632">
        <ele>1269.06</ele>
        <time>2016-06-03T13:37:32Z</time>
      </trkpt>
      <trkpt lat="45.19139" lon="5.5463">
        <ele>1269.03</ele>
        <time>2016-06-03T13:37:33Z</time>
      </trkpt>
      <trkpt lat="45.19136" lon="5.54628">
        <ele>1268.93</ele>
        <time>2016-06-03T13:37:34Z</time>
      </trkpt>
      <trkpt lat="45.19116" lon="5.54611">
        <ele>1267.46</ele>
        <time>2016-06-03T13:37:39Z</time>
      </trkpt>
      <trkpt lat="45.19087" lon="5.54588">
        <ele>1264.23</ele>
        <time>2016-06-03T13:37:45Z</time>
      </trkpt>
      <trkpt lat="45.19083" lon="5.54583">
        <ele>1263.62</ele>
        <time>2016-06-03T13:37:46Z</time>
      </trkpt>
      <trkpt lat="45.19079" lon="5.54579">
        <ele>1263.03</ele>
        <time>2016-06-03T13:37:47Z</time>
      </trkpt>
      <trkpt lat="45.19075" lon="5.54576">
        <ele>1262.44</ele>
        <time>2016-06-03T13:37:48Z</time>
      </trkpt>
      <trkpt lat="45.19072" lon="5.54574">
        <ele>1261.85</ele>
        <time>2016-06-03T13:37:49Z</time>
      </trkpt>
      <trkpt lat="45.19065" lon="5.5457">
        <ele>1260.79</ele>
        <time>2016-06-03T13:37:51Z</time>
      </trkpt>
      <trkpt lat="45.19047" lon="5.5456">
        <ele>1257.42</ele>
        <time>2016-06-03T13:37:56Z</time>
      </trkpt>
      <trkpt lat="45.1904" lon="5.54558">
        <ele>1256.77</ele>
        <time>2016-06-03T13:37:57Z</time>
      </trkpt>
      <trkpt lat="45.19035" lon="5.54556">
        <ele>1256.13</ele>
        <time>2016-06-03T13:37:58Z</time>
      </trkpt>
      <trkpt lat="45.1903" lon="5.54554">
        <ele>1255.5</ele>
        <time>2016-06-03T13:37:59Z</time>
      </trkpt>
      <trkpt lat="45.19025" lon="5.54551">
        <ele>1254.86</ele>
        <time>2016-06-03T13:38:00Z</time>
      </trkpt>
      <trkpt lat="45.1902" lon="5.54549">
        <ele>1254.22</ele>
        <time>2016-06-03T13:38:01Z</time>
      </trkpt>
      <trkpt lat="45.19016" lon="5.54546">
        <ele>1253.59</ele>
        <time>2016-06-03T13:38:02Z</time>
      </trkpt>
      <trkpt lat="45.18994" lon="5.54529">
        <ele>1250.33</ele>
        <time>2016-06-03T13:38:08Z</time>
      </trkpt>
      <trkpt lat="45.18978" lon="5.54514">
        <ele>1246.95</ele>
        <time>2016-06-03T13:38:13Z</time>
      </trkpt>
      <trkpt lat="45.18974" lon="5.54511">
        <ele>1246.17</ele>
        <time>2016-06-03T13:38:14Z</time>
      </trkpt>
      <trkpt lat="45.1897" lon="5.5451">
        <ele>1245.44</ele>
        <time>2016-06-03T13:38:15Z</time>
      </trkpt>
      <trkpt lat="45.18966" lon="5.54508">
        <ele>1244.7</ele>
        <time>2016-06-03T13:38:16Z</time>
      </trkpt>
      <trkpt lat="45.18963" lon="5.54506">
        <ele>1243.92</ele>
        <time>2016-06-03T13:38:17Z</time>
      </trkpt>
      <trkpt lat="45.18956" lon="5.54498">
        <ele>1240.54</ele>
        <time>2016-06-03T13:38:20Z</time>
      </trkpt>
      <trkpt lat="45.18946" lon="5.54485">
        <ele>1237.1</ele>
        <time>2016-06-03T13:38:24Z</time>
      </trkpt>
      <trkpt lat="45.18937" lon="5.54475">
        <ele>1233.8</ele>
        <time>2016-06-03T13:38:28Z</time>
      </trkpt>
      <trkpt lat="45.1893" lon="5.54463">
        <ele>1230.53</ele>
        <time>2016-06-03T13:38:32Z</time>
      </trkpt>
      <trkpt lat="45.18922" lon="5.54446">
        <ele>1228.03</ele>
        <time>2016-06-03T13:38:35Z</time>
      </trkpt>
      <trkpt lat="45.1891" lon="5.54428">
        <ele>1224.25</ele>
        <time>2016-06-03T13:38:39Z</time>
      </trkpt>
      <trkpt lat="45.18906" lon="5.54424">
        <ele>1223.29</ele>
        <time>2016-06-03T13:38:40Z</time>
      </trkpt>
      <trkpt lat="45.18903" lon="5.5442">
        <ele>1222.3</ele>
        <time>2016-06-03T13:38:41Z</time>
      </trkpt>
      <trkpt lat="45.189" lon="5.54416">
        <ele>1220.2</ele>
        <time>2016-06-03T13:38:42Z</time>
      </trkpt>
      <trkpt lat="45.18891" lon="5.54408">
        <ele>1216.81</ele>
        <time>2016-06-03T13:38:45Z</time>
      </trkpt>
      <trkpt lat="45.18885" lon="5.54402">
        <ele>1213.4</ele>
        <time>2016-06-03T13:38:48Z</time>
      </trkpt>
      <trkpt lat="45.18882" lon="5.54399">
        <ele>1211.21</ele>
        <time>2016-06-03T13:38:50Z</time>
      </trkpt>
      <trkpt lat="45.18871" lon="5.54386">
        <ele>1207.31</ele>
        <time>2016-06-03T13:38:54Z</time>
      </trkpt>
      <trkpt lat="45.18865" lon="5.54379">
        <ele>1205.32</ele>
        <time>2016-06-03T13:38:56Z</time>
      </trkpt>
      <trkpt lat="45.18863" lon="5.54375">
        <ele>1204.36</ele>
        <time>2016-06-03T13:38:57Z</time>
      </trkpt>
      <trkpt lat="45.18857" lon="5.54358">
        <ele>1201.02</ele>
        <time>2016-06-03T13:39:01Z</time>
      </trkpt>
      <trkpt lat="45.18855" lon="5.54352">
        <ele>1199.32</ele>
        <time>2016-06-03T13:39:03Z</time>
      </trkpt>
      <trkpt lat="45.18854" lon="5.54348">
        <ele>1198.59</ele>
        <time>2016-06-03T13:39:04Z</time>
      </trkpt>
      <trkpt lat="45.18852" lon="5.54346">
        <ele>1197.93</ele>
        <time>2016-06-03T13:39:05Z</time>
      </trkpt>
      <trkpt lat="45.1885" lon="5.54344">
        <ele>1197.31</ele>
        <time>2016-06-03T13:39:06Z</time>
      </trkpt>
      <trkpt lat="45.18848" lon="5.54341">
        <ele>1196.22</ele>
        <time>2016-06-03T13:39:07Z</time>
      </trkpt>
      <trkpt lat="45.18844" lon="5.54336">
        <ele>1195.67</ele>
        <time>2016-06-03T13:39:08Z</time>
      </trkpt>
      <trkpt lat="45.18839" lon="5.54332">
        <ele>1195.1</ele>
        <time>2016-06-03T13:39:09Z</time>
      </trkpt>
      <trkpt lat="45.18834" lon="5.54328">
        <ele>1194.54</ele>
        <time>2016-06-03T13:39:10Z</time>
      </trkpt>
      <trkpt lat="45.1883" lon="5.54325">
        <ele>1194</ele>
        <time>2016-06-03T13:39:11Z</time>
      </trkpt>
      <trkpt lat="45.18826" lon="5.54321">
        <ele>1193.47</ele>
        <time>2016-06-03T13:39:12Z</time>
      </trkpt>
      <trkpt lat="45.18822" lon="5.54319">
        <ele>1192.93</ele>
        <time>2016-06-03T13:39:13Z</time>
      </trkpt>
      <trkpt lat="45.18818" lon="5.54315">
        <ele>1192.34</ele>
        <time>2016-06-03T13:39:14Z</time>
      </trkpt>
      <trkpt lat="45.18814" lon="5.54313">
        <ele>1191.71</ele>
        <time>2016-06-03T13:39:15Z</time>
      </trkpt>
      <trkpt lat="45.18809" lon="5.54311">
        <ele>1191.08</ele>
        <time>2016-06-03T13:39:16Z</time>
      </trkpt>
      <trkpt lat="45.18806" lon="5.54307">
        <ele>1190.43</ele>
        <time>2016-06-03T13:39:17Z</time>
      </trkpt>
      <trkpt lat="45.18802" lon="5.54304">
        <ele>1189.76</ele>
        <time>2016-06-03T13:39:18Z</time>
      </trkpt>
      <trkpt lat="45.18798" lon="5.54302">
        <ele>1189.05</ele>
        <time>2016-06-03T13:39:19Z</time>
      </trkpt>
      <trkpt lat="45.18793" lon="5.543">
        <ele>1188.3</ele>
        <time>2016-06-03T13:39:20Z</time>
      </trkpt>
      <trkpt lat="45.18788" lon="5.54298">
        <ele>1187.51</ele>
        <time>2016-06-03T13:39:21Z</time>
      </trkpt>
      <trkpt lat="45.18784" lon="5.54294">
        <ele>1186.75</ele>
        <time>2016-06-03T13:39:22Z</time>
      </trkpt>
      <trkpt lat="45.18767" lon="5.54275">
        <ele>1183.21</ele>
        <time>2016-06-03T13:39:27Z</time>
      </trkpt>
      <trkpt lat="45.18761" lon="5.5427">
        <ele>1181.91</ele>
        <time>2016-06-03T13:39:29Z</time>
      </trkpt>
      <trkpt lat="45.18759" lon="5.54268">
        <ele>1181.29</ele>
        <time>2016-06-03T13:39:30Z</time>
      </trkpt>
      <trkpt lat="45.18757" lon="5.54267">
        <ele>1180.67</ele>
        <time>2016-06-03T13:39:31Z</time>
      </trkpt>
      <trkpt lat="45.18743" lon="5.54256">
        <ele>1178.19</ele>
        <time>2016-06-03T13:39:35Z</time>
      </trkpt>
      <trkpt lat="45.18741" lon="5.54254">
        <ele>1177.61</ele>
        <time>2016-06-03T13:39:36Z</time>
      </trkpt>
      <trkpt lat="45.18739" lon="5.54251">
        <ele>1177.05</ele>
        <time>2016-06-03T13:39:37Z</time>
      </trkpt>
      <trkpt lat="45.18736" lon="5.54247">
        <ele>1176.52</ele>
        <time>2016-06-03T13:39:38Z</time>
      </trkpt>
      <trkpt lat="45.18734" lon="5.54244">
        <ele>1175.95</ele>
        <time>2016-06-03T13:39:39Z</time>
      </trkpt>
      <trkpt lat="45.18732" lon="5.5424">
        <ele>1175.38</ele>
        <time>2016-06-03T13:39:40Z</time>
      </trkpt>
      <trkpt lat="45.18731" lon="5.54236">
        <ele>1174.81</ele>
        <time>2016-06-03T13:39:41Z</time>
      </trkpt>
      <trkpt lat="45.18729" lon="5.54231">
        <ele>1174.2</ele>
        <time>2016-06-03T13:39:42Z</time>
      </trkpt>
      <trkpt lat="45.18726" lon="5.54227">
        <ele>1173.57</ele>
        <time>2016-06-03T13:39:43Z</time>
      </trkpt>
      <trkpt lat="45.18724" lon="5.54224">
        <ele>1172.98</ele>
        <time>2016-06-03T13:39:44Z</time>
      </trkpt>
      <trkpt lat="45.18721" lon="5.54222">
        <ele>1172.4</ele>
        <time>2016-06-03T13:39:45Z</time>
      </trkpt>
      <trkpt lat="45.18719" lon="5.54219">
        <ele>1171.74</ele>
        <time>2016-06-03T13:39:46Z</time>
      </trkpt>
      <trkpt lat="45.18718" lon="5.54217">
        <ele>1171.08</ele>
        <time>2016-06-03T13:39:47Z</time>
      </trkpt>
      <trkpt lat="45.18717" lon="5.54215">
        <ele>1170.47</ele>
        <time>2016-06-03T13:39:48Z</time>
      </trkpt>
      <trkpt lat="45.18716" lon="5.54212">
        <ele>1169.89</ele>
        <time>2016-06-03T13:39:49Z</time>
      </trkpt>
      <trkpt lat="45.18716" lon="5.54209">
        <ele>1169.29</ele>
        <time>2016-06-03T13:39:50Z</time>
      </trkpt>
      <trkpt lat="45.18712" lon="5.54204">
        <ele>1168.15</ele>
        <time>2016-06-03T13:39:52Z</time>
      </trkpt>
      <trkpt lat="45.1871" lon="5.54204">
        <ele>1167.61</ele>
        <time>2016-06-03T13:39:53Z</time>
      </trkpt>
      <trkpt lat="45.18707" lon="5.54204">
        <ele>1167.1</ele>
        <time>2016-06-03T13:39:54Z</time>
      </trkpt>
      <trkpt lat="45.18704" lon="5.54203">
        <ele>1166.11</ele>
        <time>2016-06-03T13:39:55Z</time>
      </trkpt>
      <trkpt lat="45.18696" lon="5.54205">
        <ele>1164.82</ele>
        <time>2016-06-03T13:39:58Z</time>
      </trkpt>
      <trkpt lat="45.18693" lon="5.54202">
        <ele>1163.54</ele>
        <time>2016-06-03T13:40:01Z</time>
      </trkpt>
      <trkpt lat="45.18691" lon="5.542">
        <ele>1162.66</ele>
        <time>2016-06-03T13:40:04Z</time>
      </trkpt>
      <trkpt lat="45.18682" lon="5.54194">
        <ele>1161.25</ele>
        <time>2016-06-03T13:40:30Z</time>
      </trkpt>
      <trkpt lat="45.18682" lon="5.54193">
        <ele>1161.25</ele>
        <time>2016-06-03T13:40:33Z</time>
      </trkpt>
      <trkpt lat="45.18674" lon="5.5419">
        <ele>1161.2</ele>
        <time>2016-06-03T13:40:38Z</time>
      </trkpt>
      <trkpt lat="45.18669" lon="5.54182">
        <ele>1159.69</ele>
        <time>2016-06-03T13:40:44Z</time>
      </trkpt>
      <trkpt lat="45.18666" lon="5.54175">
        <ele>1158.19</ele>
        <time>2016-06-03T13:40:49Z</time>
      </trkpt>
      <trkpt lat="45.18652" lon="5.54167">
        <ele>1155.4</ele>
        <time>2016-06-03T13:40:57Z</time>
      </trkpt>
      <trkpt lat="45.18649" lon="5.54167">
        <ele>1154.93</ele>
        <time>2016-06-03T13:40:58Z</time>
      </trkpt>
      <trkpt lat="45.18624" lon="5.54155">
        <ele>1151.37</ele>
        <time>2016-06-03T13:41:05Z</time>
      </trkpt>
      <trkpt lat="45.18613" lon="5.54144">
        <ele>1149</ele>
        <time>2016-06-03T13:41:09Z</time>
      </trkpt>
      <trkpt lat="45.18608" lon="5.54137">
        <ele>1146.26</ele>
        <time>2016-06-03T13:41:12Z</time>
      </trkpt>
      <trkpt lat="45.18605" lon="5.54135">
        <ele>1145.09</ele>
        <time>2016-06-03T13:41:14Z</time>
      </trkpt>
      <trkpt lat="45.18604" lon="5.54133">
        <ele>1144.51</ele>
        <time>2016-06-03T13:41:15Z</time>
      </trkpt>
      <trkpt lat="45.18602" lon="5.54132">
        <ele>1143.98</ele>
        <time>2016-06-03T13:41:16Z</time>
      </trkpt>
      <trkpt lat="45.18601" lon="5.54129">
        <ele>1143.51</ele>
        <time>2016-06-03T13:41:17Z</time>
      </trkpt>
      <trkpt lat="45.186" lon="5.54126">
        <ele>1143.09</ele>
        <time>2016-06-03T13:41:18Z</time>
      </trkpt>
      <trkpt lat="45.18598" lon="5.54122">
        <ele>1142.72</ele>
        <time>2016-06-03T13:41:19Z</time>
      </trkpt>
      <trkpt lat="45.18595" lon="5.54118">
        <ele>1142.42</ele>
        <time>2016-06-03T13:41:20Z</time>
      </trkpt>
      <trkpt lat="45.18592" lon="5.54113">
        <ele>1142.11</ele>
        <time>2016-06-03T13:41:21Z</time>
      </trkpt>
      <trkpt lat="45.18588" lon="5.54108">
        <ele>1141.75</ele>
        <time>2016-06-03T13:41:22Z</time>
      </trkpt>
      <trkpt lat="45.1857" lon="5.54089">
        <ele>1138.69</ele>
        <time>2016-06-03T13:41:27Z</time>
      </trkpt>
      <trkpt lat="45.18555" lon="5.54078">
        <ele>1134.91</ele>
        <time>2016-06-03T13:41:31Z</time>
      </trkpt>
      <trkpt lat="45.18553" lon="5.54073">
        <ele>1133.14</ele>
        <time>2016-06-03T13:41:32Z</time>
      </trkpt>
      <trkpt lat="45.18551" lon="5.54069">
        <ele>1133.14</ele>
        <time>2016-06-03T13:41:33Z</time>
      </trkpt>
      <trkpt lat="45.18549" lon="5.54065">
        <ele>1131.45</ele>
        <time>2016-06-03T13:41:34Z</time>
      </trkpt>
      <trkpt lat="45.18548" lon="5.54063">
        <ele>1130.66</ele>
        <time>2016-06-03T13:41:35Z</time>
      </trkpt>
      <trkpt lat="45.18547" lon="5.5406">
        <ele>1129.91</ele>
        <time>2016-06-03T13:41:36Z</time>
      </trkpt>
      <trkpt lat="45.18546" lon="5.54058">
        <ele>1129.2</ele>
        <time>2016-06-03T13:41:37Z</time>
      </trkpt>
      <trkpt lat="45.18545" lon="5.54056">
        <ele>1128.51</ele>
        <time>2016-06-03T13:41:38Z</time>
      </trkpt>
      <trkpt lat="45.18545" lon="5.54054">
        <ele>1127.91</ele>
        <time>2016-06-03T13:41:39Z</time>
      </trkpt>
      <trkpt lat="45.18544" lon="5.54051">
        <ele>1127.4</ele>
        <time>2016-06-03T13:41:40Z</time>
      </trkpt>
      <trkpt lat="45.18541" lon="5.54048">
        <ele>1126.97</ele>
        <time>2016-06-03T13:41:41Z</time>
      </trkpt>
      <trkpt lat="45.18538" lon="5.54044">
        <ele>1126.55</ele>
        <time>2016-06-03T13:41:42Z</time>
      </trkpt>
      <trkpt lat="45.18535" lon="5.54041">
        <ele>1126.13</ele>
        <time>2016-06-03T13:41:43Z</time>
      </trkpt>
      <trkpt lat="45.18531" lon="5.54038">
        <ele>1125.72</ele>
        <time>2016-06-03T13:41:44Z</time>
      </trkpt>
      <trkpt lat="45.18528" lon="5.54037">
        <ele>1125.31</ele>
        <time>2016-06-03T13:41:45Z</time>
      </trkpt>
      <trkpt lat="45.18525" lon="5.54036">
        <ele>1124.89</ele>
        <time>2016-06-03T13:41:46Z</time>
      </trkpt>
      <trkpt lat="45.18521" lon="5.54036">
        <ele>1124.47</ele>
        <time>2016-06-03T13:41:47Z</time>
      </trkpt>
      <trkpt lat="45.18498" lon="5.54035">
        <ele>1122.44</ele>
        <time>2016-06-03T13:41:52Z</time>
      </trkpt>
      <trkpt lat="45.18482" lon="5.5403">
        <ele>1120.66</ele>
        <time>2016-06-03T13:41:55Z</time>
      </trkpt>
      <trkpt lat="45.18476" lon="5.54026">
        <ele>1119.36</ele>
        <time>2016-06-03T13:41:56Z</time>
      </trkpt>
      <trkpt lat="45.1847" lon="5.54022">
        <ele>1119.36</ele>
        <time>2016-06-03T13:41:57Z</time>
      </trkpt>
      <trkpt lat="45.18449" lon="5.54">
        <ele>1116.02</ele>
        <time>2016-06-03T13:42:01Z</time>
      </trkpt>
      <trkpt lat="45.18432" lon="5.53984">
        <ele>1113.96</ele>
        <time>2016-06-03T13:42:04Z</time>
      </trkpt>
      <trkpt lat="45.18425" lon="5.53981">
        <ele>1113.26</ele>
        <time>2016-06-03T13:42:05Z</time>
      </trkpt>
      <trkpt lat="45.18419" lon="5.53979">
        <ele>1112.57</ele>
        <time>2016-06-03T13:42:06Z</time>
      </trkpt>
      <trkpt lat="45.18412" lon="5.53979">
        <ele>1111.87</ele>
        <time>2016-06-03T13:42:07Z</time>
      </trkpt>
      <trkpt lat="45.18405" lon="5.53981">
        <ele>1111.15</ele>
        <time>2016-06-03T13:42:08Z</time>
      </trkpt>
      <trkpt lat="45.18398" lon="5.53983">
        <ele>1110.42</ele>
        <time>2016-06-03T13:42:09Z</time>
      </trkpt>
      <trkpt lat="45.18392" lon="5.53986">
        <ele>1109.71</ele>
        <time>2016-06-03T13:42:10Z</time>
      </trkpt>
      <trkpt lat="45.18385" lon="5.53988">
        <ele>1109.01</ele>
        <time>2016-06-03T13:42:11Z</time>
      </trkpt>
      <trkpt lat="45.18379" lon="5.53988">
        <ele>1108.25</ele>
        <time>2016-06-03T13:42:12Z</time>
      </trkpt>
      <trkpt lat="45.18373" lon="5.53986">
        <ele>1107.45</ele>
        <time>2016-06-03T13:42:13Z</time>
      </trkpt>
      <trkpt lat="45.18366" lon="5.53983">
        <ele>1106.62</ele>
        <time>2016-06-03T13:42:14Z</time>
      </trkpt>
      <trkpt lat="45.1836" lon="5.53978">
        <ele>1105.72</ele>
        <time>2016-06-03T13:42:15Z</time>
      </trkpt>
      <trkpt lat="45.18353" lon="5.53973">
        <ele>1104.79</ele>
        <time>2016-06-03T13:42:16Z</time>
      </trkpt>
      <trkpt lat="45.18346" lon="5.53968">
        <ele>1103.83</ele>
        <time>2016-06-03T13:42:17Z</time>
      </trkpt>
      <trkpt lat="45.18326" lon="5.53956">
        <ele>1100.81</ele>
        <time>2016-06-03T13:42:20Z</time>
      </trkpt>
      <trkpt lat="45.18306" lon="5.53945">
        <ele>1098.22</ele>
        <time>2016-06-03T13:42:23Z</time>
      </trkpt>
      <trkpt lat="45.18286" lon="5.53934">
        <ele>1094.42</ele>
        <time>2016-06-03T13:42:26Z</time>
      </trkpt>
      <trkpt lat="45.18279" lon="5.53931">
        <ele>1093.51</ele>
        <time>2016-06-03T13:42:27Z</time>
      </trkpt>
      <trkpt lat="45.18272" lon="5.5393">
        <ele>1092.59</ele>
        <time>2016-06-03T13:42:28Z</time>
      </trkpt>
      <trkpt lat="45.18264" lon="5.53932">
        <ele>1091.68</ele>
        <time>2016-06-03T13:42:29Z</time>
      </trkpt>
      <trkpt lat="45.18257" lon="5.53937">
        <ele>1090.81</ele>
        <time>2016-06-03T13:42:30Z</time>
      </trkpt>
      <trkpt lat="45.1825" lon="5.53945">
        <ele>1089.93</ele>
        <time>2016-06-03T13:42:31Z</time>
      </trkpt>
      <trkpt lat="45.18244" lon="5.53955">
        <ele>1089.02</ele>
        <time>2016-06-03T13:42:32Z</time>
      </trkpt>
      <trkpt lat="45.18239" lon="5.53967">
        <ele>1088.11</ele>
        <time>2016-06-03T13:42:33Z</time>
      </trkpt>
      <trkpt lat="45.18234" lon="5.5398">
        <ele>1087.19</ele>
        <time>2016-06-03T13:42:34Z</time>
      </trkpt>
      <trkpt lat="45.18229" lon="5.53992">
        <ele>1086.21</ele>
        <time>2016-06-03T13:42:35Z</time>
      </trkpt>
      <trkpt lat="45.18212" lon="5.54038">
        <ele>1082.78</ele>
        <time>2016-06-03T13:42:39Z</time>
      </trkpt>
      <trkpt lat="45.18191" lon="5.54091">
        <ele>1079.29</ele>
        <time>2016-06-03T13:42:44Z</time>
      </trkpt>
      <trkpt lat="45.18174" lon="5.54128">
        <ele>1076.27</ele>
        <time>2016-06-03T13:42:48Z</time>
      </trkpt>
      <trkpt lat="45.18161" lon="5.54155">
        <ele>1074.44</ele>
        <time>2016-06-03T13:42:52Z</time>
      </trkpt>
      <trkpt lat="45.18157" lon="5.54159">
        <ele>1074.06</ele>
        <time>2016-06-03T13:42:53Z</time>
      </trkpt>
      <trkpt lat="45.18153" lon="5.54161">
        <ele>1073.73</ele>
        <time>2016-06-03T13:42:54Z</time>
      </trkpt>
      <trkpt lat="45.1815" lon="5.54161">
        <ele>1073.44</ele>
        <time>2016-06-03T13:42:55Z</time>
      </trkpt>
      <trkpt lat="45.18146" lon="5.54158">
        <ele>1073.17</ele>
        <time>2016-06-03T13:42:56Z</time>
      </trkpt>
      <trkpt lat="45.18142" lon="5.54155">
        <ele>1072.95</ele>
        <time>2016-06-03T13:42:57Z</time>
      </trkpt>
      <trkpt lat="45.18134" lon="5.5415">
        <ele>1072.61</ele>
        <time>2016-06-03T13:42:59Z</time>
      </trkpt>
      <trkpt lat="45.18112" lon="5.54137">
        <ele>1071.88</ele>
        <time>2016-06-03T13:43:04Z</time>
      </trkpt>
      <trkpt lat="45.18107" lon="5.54132">
        <ele>1071.76</ele>
        <time>2016-06-03T13:43:05Z</time>
      </trkpt>
      <trkpt lat="45.18103" lon="5.54126">
        <ele>1071.63</ele>
        <time>2016-06-03T13:43:06Z</time>
      </trkpt>
      <trkpt lat="45.181" lon="5.54119">
        <ele>1071.48</ele>
        <time>2016-06-03T13:43:07Z</time>
      </trkpt>
      <trkpt lat="45.18098" lon="5.54111">
        <ele>1071.31</ele>
        <time>2016-06-03T13:43:08Z</time>
      </trkpt>
      <trkpt lat="45.18096" lon="5.54103">
        <ele>1071.14</ele>
        <time>2016-06-03T13:43:09Z</time>
      </trkpt>
      <trkpt lat="45.18094" lon="5.54096">
        <ele>1071</ele>
        <time>2016-06-03T13:43:10Z</time>
      </trkpt>
      <trkpt lat="45.18089" lon="5.54075">
        <ele>1070.65</ele>
        <time>2016-06-03T13:43:13Z</time>
      </trkpt>
      <trkpt lat="45.18087" lon="5.54069">
        <ele>1070.59</ele>
        <time>2016-06-03T13:43:14Z</time>
      </trkpt>
      <trkpt lat="45.18064" lon="5.54024">
        <ele>1070.45</ele>
        <time>2016-06-03T13:43:24Z</time>
      </trkpt>
      <trkpt lat="45.18049" lon="5.54005">
        <ele>1070.08</ele>
        <time>2016-06-03T13:43:28Z</time>
      </trkpt>
      <trkpt lat="45.18045" lon="5.54">
        <ele>1069.93</ele>
        <time>2016-06-03T13:43:29Z</time>
      </trkpt>
      <trkpt lat="45.18041" lon="5.53995">
        <ele>1069.73</ele>
        <time>2016-06-03T13:43:30Z</time>
      </trkpt>
      <trkpt lat="45.18036" lon="5.5399">
        <ele>1069.45</ele>
        <time>2016-06-03T13:43:31Z</time>
      </trkpt>
      <trkpt lat="45.18031" lon="5.53986">
        <ele>1069.12</ele>
        <time>2016-06-03T13:43:32Z</time>
      </trkpt>
      <trkpt lat="45.18025" lon="5.53982">
        <ele>1068.8</ele>
        <time>2016-06-03T13:43:33Z</time>
      </trkpt>
      <trkpt lat="45.18019" lon="5.53978">
        <ele>1068.48</ele>
        <time>2016-06-03T13:43:34Z</time>
      </trkpt>
      <trkpt lat="45.18013" lon="5.53974">
        <ele>1068.14</ele>
        <time>2016-06-03T13:43:35Z</time>
      </trkpt>
      <trkpt lat="45.18006" lon="5.53968">
        <ele>1067.81</ele>
        <time>2016-06-03T13:43:36Z</time>
      </trkpt>
      <trkpt lat="45.1795" lon="5.53927">
        <ele>1064.33</ele>
        <time>2016-06-03T13:43:43Z</time>
      </trkpt>
      <trkpt lat="45.1794" lon="5.53923">
        <ele>1063.82</ele>
        <time>2016-06-03T13:43:44Z</time>
      </trkpt>
      <trkpt lat="45.17931" lon="5.53919">
        <ele>1063.31</ele>
        <time>2016-06-03T13:43:45Z</time>
      </trkpt>
      <trkpt lat="45.17921" lon="5.53918">
        <ele>1062.78</ele>
        <time>2016-06-03T13:43:46Z</time>
      </trkpt>
      <trkpt lat="45.17911" lon="5.53918">
        <ele>1062.24</ele>
        <time>2016-06-03T13:43:47Z</time>
      </trkpt>
      <trkpt lat="45.17902" lon="5.53919">
        <ele>1061.68</ele>
        <time>2016-06-03T13:43:48Z</time>
      </trkpt>
      <trkpt lat="45.17893" lon="5.53923">
        <ele>1061.09</ele>
        <time>2016-06-03T13:43:49Z</time>
      </trkpt>
      <trkpt lat="45.17884" lon="5.53927">
        <ele>1060.52</ele>
        <time>2016-06-03T13:43:50Z</time>
      </trkpt>
      <trkpt lat="45.17876" lon="5.53931">
        <ele>1060.04</ele>
        <time>2016-06-03T13:43:51Z</time>
      </trkpt>
      <trkpt lat="45.17869" lon="5.53936">
        <ele>1059.62</ele>
        <time>2016-06-03T13:43:52Z</time>
      </trkpt>
      <trkpt lat="45.17861" lon="5.53943">
        <ele>1059.25</ele>
        <time>2016-06-03T13:43:53Z</time>
      </trkpt>
      <trkpt lat="45.17808" lon="5.54024">
        <ele>1056.99</ele>
        <time>2016-06-03T13:44:04Z</time>
      </trkpt>
      <trkpt lat="45.17779" lon="5.54103">
        <ele>1057.09</ele>
        <time>2016-06-03T13:44:16Z</time>
      </trkpt>
      <trkpt lat="45.17772" lon="5.5412">
        <ele>1056.99</ele>
        <time>2016-06-03T13:44:19Z</time>
      </trkpt>
      <trkpt lat="45.17768" lon="5.54122">
        <ele>1056.95</ele>
        <time>2016-06-03T13:44:20Z</time>
      </trkpt>
      <trkpt lat="45.17764" lon="5.54122">
        <ele>1056.89</ele>
        <time>2016-06-03T13:44:21Z</time>
      </trkpt>
      <trkpt lat="45.17759" lon="5.54119">
        <ele>1056.83</ele>
        <time>2016-06-03T13:44:22Z</time>
      </trkpt>
      <trkpt lat="45.17754" lon="5.54114">
        <ele>1056.76</ele>
        <time>2016-06-03T13:44:23Z</time>
      </trkpt>
      <trkpt lat="45.1775" lon="5.54109">
        <ele>1056.69</ele>
        <time>2016-06-03T13:44:24Z</time>
      </trkpt>
      <trkpt lat="45.17681" lon="5.54036">
        <ele>1053.86</ele>
        <time>2016-06-03T13:44:37Z</time>
      </trkpt>
      <trkpt lat="45.17677" lon="5.54029">
        <ele>1053.56</ele>
        <time>2016-06-03T13:44:38Z</time>
      </trkpt>
      <trkpt lat="45.17673" lon="5.54022">
        <ele>1053.23</ele>
        <time>2016-06-03T13:44:39Z</time>
      </trkpt>
      <trkpt lat="45.17656" lon="5.53975">
        <ele>1051.43</ele>
        <time>2016-06-03T13:44:45Z</time>
      </trkpt>
      <trkpt lat="45.17653" lon="5.5397">
        <ele>1051</ele>
        <time>2016-06-03T13:44:46Z</time>
      </trkpt>
      <trkpt lat="45.17651" lon="5.53963">
        <ele>1048.75</ele>
        <time>2016-06-03T13:44:51Z</time>
      </trkpt>
      <trkpt lat="45.17652" lon="5.53957">
        <ele>1047.82</ele>
        <time>2016-06-03T13:45:06Z</time>
      </trkpt>
      <trkpt lat="45.17657" lon="5.53959">
        <ele>1047.09</ele>
        <time>2016-06-03T13:45:21Z</time>
      </trkpt>
      <trkpt lat="45.17664" lon="5.53958">
        <ele>1047.22</ele>
        <time>2016-06-03T13:45:51Z</time>
      </trkpt>
      <trkpt lat="45.17661" lon="5.5397">
        <ele>1047.85</ele>
        <time>2016-06-03T13:46:20Z</time>
      </trkpt>
      <trkpt lat="45.17662" lon="5.53981">
        <ele>1047.6</ele>
        <time>2016-06-03T13:46:54Z</time>
      </trkpt>
      <trkpt lat="45.17664" lon="5.53982">
        <ele>1047.23</ele>
        <time>2016-06-03T13:47:34Z</time>
      </trkpt>
      <trkpt lat="45.17665" lon="5.53978">
        <ele>1047.19</ele>
        <time>2016-06-03T13:48:04Z</time>
      </trkpt>
      <trkpt lat="45.17664" lon="5.53979">
        <ele>1047.33</ele>
        <time>2016-06-03T13:48:44Z</time>
      </trkpt>
      <trkpt lat="45.17663" lon="5.53984">
        <ele>1047.49</ele>
        <time>2016-06-03T13:50:01Z</time>
      </trkpt>
      <trkpt lat="45.17664" lon="5.53985">
        <ele>1046.96</ele>
        <time>2016-06-03T13:50:36Z</time>
      </trkpt>
      <trkpt lat="45.17663" lon="5.53981">
        <ele>1046.26</ele>
        <time>2016-06-03T13:51:12Z</time>
      </trkpt>
      <trkpt lat="45.17664" lon="5.53989">
        <ele>1046.61</ele>
        <time>2016-06-03T13:52:05Z</time>
      </trkpt>
      <trkpt lat="45.17663" lon="5.53992">
        <ele>1046.17</ele>
        <time>2016-06-03T13:53:02Z</time>
      </trkpt>
      <trkpt lat="45.17663" lon="5.53998">
        <ele>1045.84</ele>
        <time>2016-06-03T13:53:48Z</time>
      </trkpt>
      <trkpt lat="45.17663" lon="5.53994">
        <ele>1045.78</ele>
        <time>2016-06-03T13:54:24Z</time>
      </trkpt>
      <trkpt lat="45.17659" lon="5.53993">
        <ele>1045.94</ele>
        <time>2016-06-03T13:55:37Z</time>
      </trkpt>
      <trkpt lat="45.17665" lon="5.54011">
        <ele>1045.62</ele>
        <time>2016-06-03T13:56:31Z</time>
      </trkpt>
      <trkpt lat="45.17662" lon="5.53987">
        <ele>1045.47</ele>
        <time>2016-06-03T13:57:25Z</time>
      </trkpt>
      <trkpt lat="45.17659" lon="5.53978">
        <ele>1045.25</ele>
        <time>2016-06-03T13:58:32Z</time>
      </trkpt>
      <trkpt lat="45.1766" lon="5.53979">
        <ele>1045.05</ele>
        <time>2016-06-03T13:59:04Z</time>
      </trkpt>
      <trkpt lat="45.1766" lon="5.5398">
        <ele>1044.9</ele>
        <time>2016-06-03T13:59:36Z</time>
      </trkpt>
      <trkpt lat="45.17659" lon="5.53975">
        <ele>1044.95</ele>
        <time>2016-06-03T14:00:14Z</time>
      </trkpt>
      <trkpt lat="45.17658" lon="5.53962">
        <ele>1045.33</ele>
        <time>2016-06-03T14:00:38Z</time>
      </trkpt>
      <trkpt lat="45.17659" lon="5.53962">
        <ele>1045.41</ele>
        <time>2016-06-03T14:00:56Z</time>
      </trkpt>
      <trkpt lat="45.1766" lon="5.53968">
        <ele>1045.25</ele>
        <time>2016-06-03T14:01:12Z</time>
      </trkpt>
      <trkpt lat="45.17658" lon="5.53969">
        <ele>1045.34</ele>
        <time>2016-06-03T14:01:22Z</time>
      </trkpt>
      <trkpt lat="45.17662" lon="5.53979">
        <ele>1045.36</ele>
        <time>2016-06-03T14:01:27Z</time>
      </trkpt>
      <trkpt lat="45.1767" lon="5.54033">
        <ele>1045.67</ele>
        <time>2016-06-03T14:01:42Z</time>
      </trkpt>
      <trkpt lat="45.17704" lon="5.54067">
        <ele>1047.73</ele>
        <time>2016-06-03T14:01:56Z</time>
      </trkpt>
      <trkpt lat="45.17744" lon="5.54112">
        <ele>1050.6</ele>
        <time>2016-06-03T14:02:16Z</time>
      </trkpt>
      <trkpt lat="45.17762" lon="5.54164">
        <ele>1051.93</ele>
        <time>2016-06-03T14:02:33Z</time>
      </trkpt>
      <trkpt lat="45.17731" lon="5.5423">
        <ele>1051.43</ele>
        <time>2016-06-03T14:02:50Z</time>
      </trkpt>
      <trkpt lat="45.17708" lon="5.54279">
        <ele>1051.97</ele>
        <time>2016-06-03T14:03:04Z</time>
      </trkpt>
      <trkpt lat="45.17699" lon="5.54302">
        <ele>1051.44</ele>
        <time>2016-06-03T14:03:08Z</time>
      </trkpt>
      <trkpt lat="45.17659" lon="5.54404">
        <ele>1049.92</ele>
        <time>2016-06-03T14:03:25Z</time>
      </trkpt>
      <trkpt lat="45.17658" lon="5.54411">
        <ele>1049.74</ele>
        <time>2016-06-03T14:03:26Z</time>
      </trkpt>
      <trkpt lat="45.17658" lon="5.54417">
        <ele>1049.54</ele>
        <time>2016-06-03T14:03:27Z</time>
      </trkpt>
      <trkpt lat="45.17659" lon="5.54424">
        <ele>1049.33</ele>
        <time>2016-06-03T14:03:28Z</time>
      </trkpt>
      <trkpt lat="45.17676" lon="5.54446">
        <ele>1048.54</ele>
        <time>2016-06-03T14:03:33Z</time>
      </trkpt>
      <trkpt lat="45.1771" lon="5.54479">
        <ele>1049.75</ele>
        <time>2016-06-03T14:03:45Z</time>
      </trkpt>
      <trkpt lat="45.17718" lon="5.54471">
        <ele>1050.3</ele>
        <time>2016-06-03T14:03:49Z</time>
      </trkpt>
      <trkpt lat="45.17725" lon="5.54457">
        <ele>1050.9</ele>
        <time>2016-06-03T14:03:53Z</time>
      </trkpt>
      <trkpt lat="45.17735" lon="5.54458">
        <ele>1051.19</ele>
        <time>2016-06-03T14:04:02Z</time>
      </trkpt>
      <trkpt lat="45.17733" lon="5.54458">
        <ele>1050.17</ele>
        <time>2016-06-03T14:04:20Z</time>
      </trkpt>
      <trkpt lat="45.17733" lon="5.54457">
        <ele>1016.56</ele>
        <time>2016-06-03T14:04:35Z</time>
      </trkpt>
    </trkseg>
  </trk>
</gpx>